<?xml version="1.0" encoding="utf-8"?>
<gpx xmlns:xsi="http://www.w3.org/2001/XMLSchema-instance" xmlns:xsd="http://www.w3.org/2001/XMLSchema" version="1.1" creator="Shapelink.com" xmlns="http://www.topografix.com/GPX/1/1" xmlns:gpxtpx="http://www.garmin.com/xmlschemas/TrackPointExtension/v1">
  <metadata>
    <name>Esquí nórdico 44.00 km, 2012-01-21</name>
    <desc></desc>
    <author><name>Andreas Östlund</name></author> 
    <time>1970-01-01T01:00:00Z</time>
  </metadata>
  <trk>
    <name>Esquí nórdico 44.00 km, 2012-01-21</name>
    <trkseg>
      <trkpt lat="61.127706" lon="14.178379">
        <ele>200</ele>
        <time>1970-01-01T01:00:00Z</time>
      </trkpt>
      <trkpt lat="61.127785" lon="14.178484">
        <ele>200</ele>
        <time>1970-01-01T01:00:00Z</time>
      </trkpt>
      <trkpt lat="61.127868" lon="14.178562">
        <ele>200</ele>
        <time>1970-01-01T01:00:00Z</time>
      </trkpt>
      <trkpt lat="61.127904" lon="14.178598">
        <ele>200</ele>
        <time>1970-01-01T01:00:00Z</time>
      </trkpt>
      <trkpt lat="61.127976" lon="14.178556">
        <ele>200</ele>
        <time>1970-01-01T01:00:00Z</time>
      </trkpt>
      <trkpt lat="61.127881" lon="14.17864">
        <ele>200</ele>
        <time>1970-01-01T01:00:00Z</time>
      </trkpt>
      <trkpt lat="61.127796" lon="14.178689">
        <ele>200</ele>
        <time>1970-01-01T01:00:00Z</time>
      </trkpt>
      <trkpt lat="61.127776" lon="14.178708">
        <ele>200</ele>
        <time>1970-01-01T01:00:00Z</time>
      </trkpt>
      <trkpt lat="61.127681" lon="14.178789">
        <ele>200</ele>
        <time>1970-01-01T01:00:00Z</time>
      </trkpt>
      <trkpt lat="61.127591" lon="14.178857">
        <ele>200</ele>
        <time>1970-01-01T01:00:00Z</time>
      </trkpt>
      <trkpt lat="61.127503" lon="14.178924">
        <ele>199.9</ele>
        <time>1970-01-01T01:00:00Z</time>
      </trkpt>
      <trkpt lat="61.127411" lon="14.179002">
        <ele>199.818</ele>
        <time>1970-01-01T01:00:00Z</time>
      </trkpt>
      <trkpt lat="61.127307" lon="14.179089">
        <ele>199.727</ele>
        <time>1970-01-01T01:00:00Z</time>
      </trkpt>
      <trkpt lat="61.127207" lon="14.179169">
        <ele>199.636</ele>
        <time>1970-01-01T01:00:00Z</time>
      </trkpt>
      <trkpt lat="61.127105" lon="14.179254">
        <ele>199.545</ele>
        <time>1970-01-01T01:00:00Z</time>
      </trkpt>
      <trkpt lat="61.127013" lon="14.179339">
        <ele>199.5</ele>
        <time>1970-01-01T01:00:00Z</time>
      </trkpt>
      <trkpt lat="61.126927" lon="14.179417">
        <ele>199.444</ele>
        <time>1970-01-01T01:00:00Z</time>
      </trkpt>
      <trkpt lat="61.126823" lon="14.179503">
        <ele>199.375</ele>
        <time>1970-01-01T01:00:00Z</time>
      </trkpt>
      <trkpt lat="61.12673" lon="14.179552">
        <ele>199.286</ele>
        <time>1970-01-01T01:00:00Z</time>
      </trkpt>
      <trkpt lat="61.126696" lon="14.179563">
        <ele>199.167</ele>
        <time>1970-01-01T01:00:00Z</time>
      </trkpt>
      <trkpt lat="61.126619" lon="14.179624">
        <ele>200</ele>
        <time>1970-01-01T01:00:00Z</time>
      </trkpt>
      <trkpt lat="61.126619" lon="14.179639">
        <ele>200</ele>
        <time>1970-01-01T01:00:00Z</time>
      </trkpt>
      <trkpt lat="61.126546" lon="14.179597">
        <ele>199</ele>
        <time>1970-01-01T01:00:00Z</time>
      </trkpt>
      <trkpt lat="61.12643" lon="14.179598">
        <ele>199</ele>
        <time>1970-01-01T01:00:00Z</time>
      </trkpt>
      <trkpt lat="61.126327" lon="14.179603">
        <ele>199</ele>
        <time>1970-01-01T01:00:00Z</time>
      </trkpt>
      <trkpt lat="61.126219" lon="14.179613">
        <ele>199</ele>
        <time>1970-01-01T01:00:00Z</time>
      </trkpt>
      <trkpt lat="61.126112" lon="14.179628">
        <ele>199</ele>
        <time>1970-01-01T01:00:00Z</time>
      </trkpt>
      <trkpt lat="61.126005" lon="14.179641">
        <ele>199</ele>
        <time>1970-01-01T01:00:00Z</time>
      </trkpt>
      <trkpt lat="61.125897" lon="14.179646">
        <ele>199</ele>
        <time>1970-01-01T01:00:00Z</time>
      </trkpt>
      <trkpt lat="61.125802" lon="14.179645">
        <ele>199</ele>
        <time>1970-01-01T01:00:00Z</time>
      </trkpt>
      <trkpt lat="61.125696" lon="14.179646">
        <ele>199</ele>
        <time>1970-01-01T01:00:00Z</time>
      </trkpt>
      <trkpt lat="61.125603" lon="14.179651">
        <ele>199</ele>
        <time>1970-01-01T01:00:00Z</time>
      </trkpt>
      <trkpt lat="61.125488" lon="14.179653">
        <ele>199</ele>
        <time>1970-01-01T01:00:00Z</time>
      </trkpt>
      <trkpt lat="61.125382" lon="14.179648">
        <ele>199</ele>
        <time>1970-01-01T01:00:00Z</time>
      </trkpt>
      <trkpt lat="61.125275" lon="14.17964">
        <ele>199</ele>
        <time>1970-01-01T01:00:00Z</time>
      </trkpt>
      <trkpt lat="61.125176" lon="14.17963">
        <ele>199</ele>
        <time>1970-01-01T01:00:00Z</time>
      </trkpt>
      <trkpt lat="61.125074" lon="14.179607">
        <ele>199</ele>
        <time>1970-01-01T01:00:00Z</time>
      </trkpt>
      <trkpt lat="61.124983" lon="14.179555">
        <ele>199</ele>
        <time>1970-01-01T01:00:00Z</time>
      </trkpt>
      <trkpt lat="61.124894" lon="14.179508">
        <ele>199</ele>
        <time>1970-01-01T01:00:00Z</time>
      </trkpt>
      <trkpt lat="61.124776" lon="14.179452">
        <ele>199</ele>
        <time>1970-01-01T01:00:00Z</time>
      </trkpt>
      <trkpt lat="61.124685" lon="14.179398">
        <ele>199</ele>
        <time>1970-01-01T01:00:00Z</time>
      </trkpt>
      <trkpt lat="61.12458" lon="14.179337">
        <ele>199</ele>
        <time>1970-01-01T01:00:00Z</time>
      </trkpt>
      <trkpt lat="61.124481" lon="14.179278">
        <ele>199.091</ele>
        <time>1970-01-01T01:00:00Z</time>
      </trkpt>
      <trkpt lat="61.124397" lon="14.17921">
        <ele>199.182</ele>
        <time>1970-01-01T01:00:00Z</time>
      </trkpt>
      <trkpt lat="61.124304" lon="14.179124">
        <ele>199.273</ele>
        <time>1970-01-01T01:00:00Z</time>
      </trkpt>
      <trkpt lat="61.124214" lon="14.179006">
        <ele>199.364</ele>
        <time>1970-01-01T01:00:00Z</time>
      </trkpt>
      <trkpt lat="61.124149" lon="14.178852">
        <ele>199.455</ele>
        <time>1970-01-01T01:00:00Z</time>
      </trkpt>
      <trkpt lat="61.124082" lon="14.178676">
        <ele>199.636</ele>
        <time>1970-01-01T01:00:00Z</time>
      </trkpt>
      <trkpt lat="61.124023" lon="14.178503">
        <ele>199.727</ele>
        <time>1970-01-01T01:00:00Z</time>
      </trkpt>
      <trkpt lat="61.123962" lon="14.178332">
        <ele>199.818</ele>
        <time>1970-01-01T01:00:00Z</time>
      </trkpt>
      <trkpt lat="61.12391" lon="14.178174">
        <ele>199.909</ele>
        <time>1970-01-01T01:00:00Z</time>
      </trkpt>
      <trkpt lat="61.123858" lon="14.178012">
        <ele>200.091</ele>
        <time>1970-01-01T01:00:00Z</time>
      </trkpt>
      <trkpt lat="61.123805" lon="14.177811">
        <ele>200.273</ele>
        <time>1970-01-01T01:00:00Z</time>
      </trkpt>
      <trkpt lat="61.123749" lon="14.17765">
        <ele>200.364</ele>
        <time>1970-01-01T01:00:00Z</time>
      </trkpt>
      <trkpt lat="61.123692" lon="14.177483">
        <ele>200.455</ele>
        <time>1970-01-01T01:00:00Z</time>
      </trkpt>
      <trkpt lat="61.123632" lon="14.177295">
        <ele>200.545</ele>
        <time>1970-01-01T01:00:00Z</time>
      </trkpt>
      <trkpt lat="61.12357" lon="14.177093">
        <ele>200.636</ele>
        <time>1970-01-01T01:00:00Z</time>
      </trkpt>
      <trkpt lat="61.12351" lon="14.176877">
        <ele>200.727</ele>
        <time>1970-01-01T01:00:00Z</time>
      </trkpt>
      <trkpt lat="61.123436" lon="14.176638">
        <ele>200.727</ele>
        <time>1970-01-01T01:00:00Z</time>
      </trkpt>
      <trkpt lat="61.123381" lon="14.176478">
        <ele>200.818</ele>
        <time>1970-01-01T01:00:00Z</time>
      </trkpt>
      <trkpt lat="61.123331" lon="14.176323">
        <ele>200.909</ele>
        <time>1970-01-01T01:00:00Z</time>
      </trkpt>
      <trkpt lat="61.123274" lon="14.176088">
        <ele>201</ele>
        <time>1970-01-01T01:00:00Z</time>
      </trkpt>
      <trkpt lat="61.123214" lon="14.175943">
        <ele>201</ele>
        <time>1970-01-01T01:00:00Z</time>
      </trkpt>
      <trkpt lat="61.12314" lon="14.175773">
        <ele>201</ele>
        <time>1970-01-01T01:00:00Z</time>
      </trkpt>
      <trkpt lat="61.123059" lon="14.175603">
        <ele>201</ele>
        <time>1970-01-01T01:00:00Z</time>
      </trkpt>
      <trkpt lat="61.122969" lon="14.175425">
        <ele>201</ele>
        <time>1970-01-01T01:00:00Z</time>
      </trkpt>
      <trkpt lat="61.122855" lon="14.175391">
        <ele>201</ele>
        <time>1970-01-01T01:00:00Z</time>
      </trkpt>
      <trkpt lat="61.122765" lon="14.17527">
        <ele>201</ele>
        <time>1970-01-01T01:00:00Z</time>
      </trkpt>
      <trkpt lat="61.122666" lon="14.175184">
        <ele>201</ele>
        <time>1970-01-01T01:00:00Z</time>
      </trkpt>
      <trkpt lat="61.122566" lon="14.175091">
        <ele>201</ele>
        <time>1970-01-01T01:00:00Z</time>
      </trkpt>
      <trkpt lat="61.122478" lon="14.174994">
        <ele>200.909</ele>
        <time>1970-01-01T01:00:00Z</time>
      </trkpt>
      <trkpt lat="61.122393" lon="14.174917">
        <ele>200.818</ele>
        <time>1970-01-01T01:00:00Z</time>
      </trkpt>
      <trkpt lat="61.122315" lon="14.174818">
        <ele>200.727</ele>
        <time>1970-01-01T01:00:00Z</time>
      </trkpt>
      <trkpt lat="61.122235" lon="14.174729">
        <ele>200.636</ele>
        <time>1970-01-01T01:00:00Z</time>
      </trkpt>
      <trkpt lat="61.122127" lon="14.174623">
        <ele>200.545</ele>
        <time>1970-01-01T01:00:00Z</time>
      </trkpt>
      <trkpt lat="61.122021" lon="14.174572">
        <ele>200.455</ele>
        <time>1970-01-01T01:00:00Z</time>
      </trkpt>
      <trkpt lat="61.121908" lon="14.174632">
        <ele>200.364</ele>
        <time>1970-01-01T01:00:00Z</time>
      </trkpt>
      <trkpt lat="61.121822" lon="14.174689">
        <ele>200.273</ele>
        <time>1970-01-01T01:00:00Z</time>
      </trkpt>
      <trkpt lat="61.121724" lon="14.174735">
        <ele>200.182</ele>
        <time>1970-01-01T01:00:00Z</time>
      </trkpt>
      <trkpt lat="61.121627" lon="14.174769">
        <ele>200.091</ele>
        <time>1970-01-01T01:00:00Z</time>
      </trkpt>
      <trkpt lat="61.121534" lon="14.174791">
        <ele>200</ele>
        <time>1970-01-01T01:00:00Z</time>
      </trkpt>
      <trkpt lat="61.121419" lon="14.174814">
        <ele>200</ele>
        <time>1970-01-01T01:00:00Z</time>
      </trkpt>
      <trkpt lat="61.121319" lon="14.174831">
        <ele>200</ele>
        <time>1970-01-01T01:00:00Z</time>
      </trkpt>
      <trkpt lat="61.121219" lon="14.174836">
        <ele>200</ele>
        <time>1970-01-01T01:00:00Z</time>
      </trkpt>
      <trkpt lat="61.121122" lon="14.174809">
        <ele>200</ele>
        <time>1970-01-01T01:00:00Z</time>
      </trkpt>
      <trkpt lat="61.12103" lon="14.174735">
        <ele>200</ele>
        <time>1970-01-01T01:00:00Z</time>
      </trkpt>
      <trkpt lat="61.120941" lon="14.17462">
        <ele>200</ele>
        <time>1970-01-01T01:00:00Z</time>
      </trkpt>
      <trkpt lat="61.120864" lon="14.17449">
        <ele>200</ele>
        <time>1970-01-01T01:00:00Z</time>
      </trkpt>
      <trkpt lat="61.120796" lon="14.174354">
        <ele>200</ele>
        <time>1970-01-01T01:00:00Z</time>
      </trkpt>
      <trkpt lat="61.120729" lon="14.174124">
        <ele>200</ele>
        <time>1970-01-01T01:00:00Z</time>
      </trkpt>
      <trkpt lat="61.120668" lon="14.17397">
        <ele>200</ele>
        <time>1970-01-01T01:00:00Z</time>
      </trkpt>
      <trkpt lat="61.12061" lon="14.173823">
        <ele>200</ele>
        <time>1970-01-01T01:00:00Z</time>
      </trkpt>
      <trkpt lat="61.120565" lon="14.173582">
        <ele>200</ele>
        <time>1970-01-01T01:00:00Z</time>
      </trkpt>
      <trkpt lat="61.120553" lon="14.173343">
        <ele>200</ele>
        <time>1970-01-01T01:00:00Z</time>
      </trkpt>
      <trkpt lat="61.120565" lon="14.173112">
        <ele>200</ele>
        <time>1970-01-01T01:00:00Z</time>
      </trkpt>
      <trkpt lat="61.120605" lon="14.172867">
        <ele>200</ele>
        <time>1970-01-01T01:00:00Z</time>
      </trkpt>
      <trkpt lat="61.120634" lon="14.172606">
        <ele>200</ele>
        <time>1970-01-01T01:00:00Z</time>
      </trkpt>
      <trkpt lat="61.120643" lon="14.172388">
        <ele>200</ele>
        <time>1970-01-01T01:00:00Z</time>
      </trkpt>
      <trkpt lat="61.120639" lon="14.17214">
        <ele>200</ele>
        <time>1970-01-01T01:00:00Z</time>
      </trkpt>
      <trkpt lat="61.120641" lon="14.171927">
        <ele>200</ele>
        <time>1970-01-01T01:00:00Z</time>
      </trkpt>
      <trkpt lat="61.120669" lon="14.171702">
        <ele>200</ele>
        <time>1970-01-01T01:00:00Z</time>
      </trkpt>
      <trkpt lat="61.120722" lon="14.171494">
        <ele>200</ele>
        <time>1970-01-01T01:00:00Z</time>
      </trkpt>
      <trkpt lat="61.120773" lon="14.17134">
        <ele>200.182</ele>
        <time>1970-01-01T01:00:00Z</time>
      </trkpt>
      <trkpt lat="61.120858" lon="14.171238">
        <ele>200.364</ele>
        <time>1970-01-01T01:00:00Z</time>
      </trkpt>
      <trkpt lat="61.120982" lon="14.171165">
        <ele>200.545</ele>
        <time>1970-01-01T01:00:00Z</time>
      </trkpt>
      <trkpt lat="61.121094" lon="14.171088">
        <ele>200.727</ele>
        <time>1970-01-01T01:00:00Z</time>
      </trkpt>
      <trkpt lat="61.121194" lon="14.171004">
        <ele>200.909</ele>
        <time>1970-01-01T01:00:00Z</time>
      </trkpt>
      <trkpt lat="61.121287" lon="14.170921">
        <ele>201.091</ele>
        <time>1970-01-01T01:00:00Z</time>
      </trkpt>
      <trkpt lat="61.121396" lon="14.170819">
        <ele>201.273</ele>
        <time>1970-01-01T01:00:00Z</time>
      </trkpt>
      <trkpt lat="61.121505" lon="14.170722">
        <ele>201.455</ele>
        <time>1970-01-01T01:00:00Z</time>
      </trkpt>
      <trkpt lat="61.121615" lon="14.170628">
        <ele>201.636</ele>
        <time>1970-01-01T01:00:00Z</time>
      </trkpt>
      <trkpt lat="61.121702" lon="14.17055">
        <ele>202</ele>
        <time>1970-01-01T01:00:00Z</time>
      </trkpt>
      <trkpt lat="61.12179" lon="14.170477">
        <ele>202.364</ele>
        <time>1970-01-01T01:00:00Z</time>
      </trkpt>
      <trkpt lat="61.121876" lon="14.170404">
        <ele>202.545</ele>
        <time>1970-01-01T01:00:00Z</time>
      </trkpt>
      <trkpt lat="61.121966" lon="14.170321">
        <ele>202.727</ele>
        <time>1970-01-01T01:00:00Z</time>
      </trkpt>
      <trkpt lat="61.122056" lon="14.170236">
        <ele>202.909</ele>
        <time>1970-01-01T01:00:00Z</time>
      </trkpt>
      <trkpt lat="61.122148" lon="14.170143">
        <ele>203.091</ele>
        <time>1970-01-01T01:00:00Z</time>
      </trkpt>
      <trkpt lat="61.122229" lon="14.170061">
        <ele>203.273</ele>
        <time>1970-01-01T01:00:00Z</time>
      </trkpt>
      <trkpt lat="61.122331" lon="14.169965">
        <ele>203.455</ele>
        <time>1970-01-01T01:00:00Z</time>
      </trkpt>
      <trkpt lat="61.122435" lon="14.169867">
        <ele>203.636</ele>
        <time>1970-01-01T01:00:00Z</time>
      </trkpt>
      <trkpt lat="61.122524" lon="14.169772">
        <ele>203.818</ele>
        <time>1970-01-01T01:00:00Z</time>
      </trkpt>
      <trkpt lat="61.122622" lon="14.169669">
        <ele>204.182</ele>
        <time>1970-01-01T01:00:00Z</time>
      </trkpt>
      <trkpt lat="61.122715" lon="14.169566">
        <ele>204.364</ele>
        <time>1970-01-01T01:00:00Z</time>
      </trkpt>
      <trkpt lat="61.122805" lon="14.169462">
        <ele>204.545</ele>
        <time>1970-01-01T01:00:00Z</time>
      </trkpt>
      <trkpt lat="61.122891" lon="14.169358">
        <ele>204.818</ele>
        <time>1970-01-01T01:00:00Z</time>
      </trkpt>
      <trkpt lat="61.122973" lon="14.169261">
        <ele>205.091</ele>
        <time>1970-01-01T01:00:00Z</time>
      </trkpt>
      <trkpt lat="61.123076" lon="14.169141">
        <ele>205.364</ele>
        <time>1970-01-01T01:00:00Z</time>
      </trkpt>
      <trkpt lat="61.123164" lon="14.168994">
        <ele>205.636</ele>
        <time>1970-01-01T01:00:00Z</time>
      </trkpt>
      <trkpt lat="61.123229" lon="14.168837">
        <ele>205.909</ele>
        <time>1970-01-01T01:00:00Z</time>
      </trkpt>
      <trkpt lat="61.123287" lon="14.168631">
        <ele>206.182</ele>
        <time>1970-01-01T01:00:00Z</time>
      </trkpt>
      <trkpt lat="61.123337" lon="14.168392">
        <ele>206.455</ele>
        <time>1970-01-01T01:00:00Z</time>
      </trkpt>
      <trkpt lat="61.123371" lon="14.168149">
        <ele>206.818</ele>
        <time>1970-01-01T01:00:00Z</time>
      </trkpt>
      <trkpt lat="61.123389" lon="14.16792">
        <ele>207</ele>
        <time>1970-01-01T01:00:00Z</time>
      </trkpt>
      <trkpt lat="61.123403" lon="14.167692">
        <ele>207.182</ele>
        <time>1970-01-01T01:00:00Z</time>
      </trkpt>
      <trkpt lat="61.123416" lon="14.167468">
        <ele>207.364</ele>
        <time>1970-01-01T01:00:00Z</time>
      </trkpt>
      <trkpt lat="61.123427" lon="14.16726">
        <ele>207.455</ele>
        <time>1970-01-01T01:00:00Z</time>
      </trkpt>
      <trkpt lat="61.12343" lon="14.167064">
        <ele>207.545</ele>
        <time>1970-01-01T01:00:00Z</time>
      </trkpt>
      <trkpt lat="61.123437" lon="14.166873">
        <ele>207.636</ele>
        <time>1970-01-01T01:00:00Z</time>
      </trkpt>
      <trkpt lat="61.12345" lon="14.166655">
        <ele>207.727</ele>
        <time>1970-01-01T01:00:00Z</time>
      </trkpt>
      <trkpt lat="61.123467" lon="14.166438">
        <ele>207.909</ele>
        <time>1970-01-01T01:00:00Z</time>
      </trkpt>
      <trkpt lat="61.123484" lon="14.166212">
        <ele>208.091</ele>
        <time>1970-01-01T01:00:00Z</time>
      </trkpt>
      <trkpt lat="61.123497" lon="14.165984">
        <ele>208.273</ele>
        <time>1970-01-01T01:00:00Z</time>
      </trkpt>
      <trkpt lat="61.123508" lon="14.165781">
        <ele>208.364</ele>
        <time>1970-01-01T01:00:00Z</time>
      </trkpt>
      <trkpt lat="61.123526" lon="14.165583">
        <ele>208.455</ele>
        <time>1970-01-01T01:00:00Z</time>
      </trkpt>
      <trkpt lat="61.123551" lon="14.165341">
        <ele>208.545</ele>
        <time>1970-01-01T01:00:00Z</time>
      </trkpt>
      <trkpt lat="61.123584" lon="14.165142">
        <ele>208.909</ele>
        <time>1970-01-01T01:00:00Z</time>
      </trkpt>
      <trkpt lat="61.123633" lon="14.164953">
        <ele>209.273</ele>
        <time>1970-01-01T01:00:00Z</time>
      </trkpt>
      <trkpt lat="61.123684" lon="14.16475">
        <ele>209.636</ele>
        <time>1970-01-01T01:00:00Z</time>
      </trkpt>
      <trkpt lat="61.123743" lon="14.164579">
        <ele>210</ele>
        <time>1970-01-01T01:00:00Z</time>
      </trkpt>
      <trkpt lat="61.123798" lon="14.164397">
        <ele>210.364</ele>
        <time>1970-01-01T01:00:00Z</time>
      </trkpt>
      <trkpt lat="61.123853" lon="14.164222">
        <ele>210.636</ele>
        <time>1970-01-01T01:00:00Z</time>
      </trkpt>
      <trkpt lat="61.123909" lon="14.164049">
        <ele>210.909</ele>
        <time>1970-01-01T01:00:00Z</time>
      </trkpt>
      <trkpt lat="61.123972" lon="14.163865">
        <ele>211.091</ele>
        <time>1970-01-01T01:00:00Z</time>
      </trkpt>
      <trkpt lat="61.124029" lon="14.163671">
        <ele>211.273</ele>
        <time>1970-01-01T01:00:00Z</time>
      </trkpt>
      <trkpt lat="61.124091" lon="14.163495">
        <ele>211.455</ele>
        <time>1970-01-01T01:00:00Z</time>
      </trkpt>
      <trkpt lat="61.124155" lon="14.163336">
        <ele>211.636</ele>
        <time>1970-01-01T01:00:00Z</time>
      </trkpt>
      <trkpt lat="61.124209" lon="14.163177">
        <ele>211.545</ele>
        <time>1970-01-01T01:00:00Z</time>
      </trkpt>
      <trkpt lat="61.124266" lon="14.163019">
        <ele>211.818</ele>
        <time>1970-01-01T01:00:00Z</time>
      </trkpt>
      <trkpt lat="61.12435" lon="14.162904">
        <ele>212.091</ele>
        <time>1970-01-01T01:00:00Z</time>
      </trkpt>
      <trkpt lat="61.124416" lon="14.162756">
        <ele>212.364</ele>
        <time>1970-01-01T01:00:00Z</time>
      </trkpt>
      <trkpt lat="61.124504" lon="14.162632">
        <ele>212.636</ele>
        <time>1970-01-01T01:00:00Z</time>
      </trkpt>
      <trkpt lat="61.124588" lon="14.16254">
        <ele>212.909</ele>
        <time>1970-01-01T01:00:00Z</time>
      </trkpt>
      <trkpt lat="61.124681" lon="14.162405">
        <ele>213.182</ele>
        <time>1970-01-01T01:00:00Z</time>
      </trkpt>
      <trkpt lat="61.124758" lon="14.162283">
        <ele>213.545</ele>
        <time>1970-01-01T01:00:00Z</time>
      </trkpt>
      <trkpt lat="61.124835" lon="14.162153">
        <ele>213.909</ele>
        <time>1970-01-01T01:00:00Z</time>
      </trkpt>
      <trkpt lat="61.124912" lon="14.161978">
        <ele>214.273</ele>
        <time>1970-01-01T01:00:00Z</time>
      </trkpt>
      <trkpt lat="61.124913" lon="14.161736">
        <ele>214.636</ele>
        <time>1970-01-01T01:00:00Z</time>
      </trkpt>
      <trkpt lat="61.124889" lon="14.161546">
        <ele>215</ele>
        <time>1970-01-01T01:00:00Z</time>
      </trkpt>
      <trkpt lat="61.124873" lon="14.161346">
        <ele>214.909</ele>
        <time>1970-01-01T01:00:00Z</time>
      </trkpt>
      <trkpt lat="61.124861" lon="14.161114">
        <ele>214.818</ele>
        <time>1970-01-01T01:00:00Z</time>
      </trkpt>
      <trkpt lat="61.124848" lon="14.160875">
        <ele>214.727</ele>
        <time>1970-01-01T01:00:00Z</time>
      </trkpt>
      <trkpt lat="61.124846" lon="14.160667">
        <ele>214.636</ele>
        <time>1970-01-01T01:00:00Z</time>
      </trkpt>
      <trkpt lat="61.124863" lon="14.160477">
        <ele>214.545</ele>
        <time>1970-01-01T01:00:00Z</time>
      </trkpt>
      <trkpt lat="61.124929" lon="14.160286">
        <ele>214.455</ele>
        <time>1970-01-01T01:00:00Z</time>
      </trkpt>
      <trkpt lat="61.124995" lon="14.160146">
        <ele>214.364</ele>
        <time>1970-01-01T01:00:00Z</time>
      </trkpt>
      <trkpt lat="61.125071" lon="14.15996">
        <ele>214.273</ele>
        <time>1970-01-01T01:00:00Z</time>
      </trkpt>
      <trkpt lat="61.125152" lon="14.159765">
        <ele>214.182</ele>
        <time>1970-01-01T01:00:00Z</time>
      </trkpt>
      <trkpt lat="61.125238" lon="14.159599">
        <ele>214</ele>
        <time>1970-01-01T01:00:00Z</time>
      </trkpt>
      <trkpt lat="61.125304" lon="14.159456">
        <ele>213.818</ele>
        <time>1970-01-01T01:00:00Z</time>
      </trkpt>
      <trkpt lat="61.125364" lon="14.159295">
        <ele>213.727</ele>
        <time>1970-01-01T01:00:00Z</time>
      </trkpt>
      <trkpt lat="61.125394" lon="14.159113">
        <ele>213.636</ele>
        <time>1970-01-01T01:00:00Z</time>
      </trkpt>
      <trkpt lat="61.125398" lon="14.158897">
        <ele>213.545</ele>
        <time>1970-01-01T01:00:00Z</time>
      </trkpt>
      <trkpt lat="61.125402" lon="14.158676">
        <ele>213.455</ele>
        <time>1970-01-01T01:00:00Z</time>
      </trkpt>
      <trkpt lat="61.125407" lon="14.15846">
        <ele>213.364</ele>
        <time>1970-01-01T01:00:00Z</time>
      </trkpt>
      <trkpt lat="61.1254" lon="14.158258">
        <ele>213.273</ele>
        <time>1970-01-01T01:00:00Z</time>
      </trkpt>
      <trkpt lat="61.12538" lon="14.158068">
        <ele>213.273</ele>
        <time>1970-01-01T01:00:00Z</time>
      </trkpt>
      <trkpt lat="61.125349" lon="14.157864">
        <ele>213.273</ele>
        <time>1970-01-01T01:00:00Z</time>
      </trkpt>
      <trkpt lat="61.125309" lon="14.157671">
        <ele>213.273</ele>
        <time>1970-01-01T01:00:00Z</time>
      </trkpt>
      <trkpt lat="61.125266" lon="14.157497">
        <ele>213.364</ele>
        <time>1970-01-01T01:00:00Z</time>
      </trkpt>
      <trkpt lat="61.125219" lon="14.157304">
        <ele>213.455</ele>
        <time>1970-01-01T01:00:00Z</time>
      </trkpt>
      <trkpt lat="61.125199" lon="14.157097">
        <ele>213.545</ele>
        <time>1970-01-01T01:00:00Z</time>
      </trkpt>
      <trkpt lat="61.125225" lon="14.156892">
        <ele>213.636</ele>
        <time>1970-01-01T01:00:00Z</time>
      </trkpt>
      <trkpt lat="61.125253" lon="14.156692">
        <ele>213.727</ele>
        <time>1970-01-01T01:00:00Z</time>
      </trkpt>
      <trkpt lat="61.125266" lon="14.156498">
        <ele>213.818</ele>
        <time>1970-01-01T01:00:00Z</time>
      </trkpt>
      <trkpt lat="61.125261" lon="14.156286">
        <ele>213.909</ele>
        <time>1970-01-01T01:00:00Z</time>
      </trkpt>
      <trkpt lat="61.125235" lon="14.156102">
        <ele>214</ele>
        <time>1970-01-01T01:00:00Z</time>
      </trkpt>
      <trkpt lat="61.125204" lon="14.155922">
        <ele>214</ele>
        <time>1970-01-01T01:00:00Z</time>
      </trkpt>
      <trkpt lat="61.125167" lon="14.155731">
        <ele>214</ele>
        <time>1970-01-01T01:00:00Z</time>
      </trkpt>
      <trkpt lat="61.125123" lon="14.155524">
        <ele>214.091</ele>
        <time>1970-01-01T01:00:00Z</time>
      </trkpt>
      <trkpt lat="61.125084" lon="14.15534">
        <ele>214.182</ele>
        <time>1970-01-01T01:00:00Z</time>
      </trkpt>
      <trkpt lat="61.125022" lon="14.155138">
        <ele>214.273</ele>
        <time>1970-01-01T01:00:00Z</time>
      </trkpt>
      <trkpt lat="61.124936" lon="14.154972">
        <ele>213.909</ele>
        <time>1970-01-01T01:00:00Z</time>
      </trkpt>
      <trkpt lat="61.12485" lon="14.154807">
        <ele>213.545</ele>
        <time>1970-01-01T01:00:00Z</time>
      </trkpt>
      <trkpt lat="61.124775" lon="14.154633">
        <ele>213.273</ele>
        <time>1970-01-01T01:00:00Z</time>
      </trkpt>
      <trkpt lat="61.12471" lon="14.154463">
        <ele>213</ele>
        <time>1970-01-01T01:00:00Z</time>
      </trkpt>
      <trkpt lat="61.124656" lon="14.154295">
        <ele>212.727</ele>
        <time>1970-01-01T01:00:00Z</time>
      </trkpt>
      <trkpt lat="61.124599" lon="14.154117">
        <ele>212.455</ele>
        <time>1970-01-01T01:00:00Z</time>
      </trkpt>
      <trkpt lat="61.124538" lon="14.153906">
        <ele>212.182</ele>
        <time>1970-01-01T01:00:00Z</time>
      </trkpt>
      <trkpt lat="61.124491" lon="14.153686">
        <ele>211.909</ele>
        <time>1970-01-01T01:00:00Z</time>
      </trkpt>
      <trkpt lat="61.124452" lon="14.153507">
        <ele>211.545</ele>
        <time>1970-01-01T01:00:00Z</time>
      </trkpt>
      <trkpt lat="61.124415" lon="14.153332">
        <ele>211.182</ele>
        <time>1970-01-01T01:00:00Z</time>
      </trkpt>
      <trkpt lat="61.124377" lon="14.153101">
        <ele>210.909</ele>
        <time>1970-01-01T01:00:00Z</time>
      </trkpt>
      <trkpt lat="61.124372" lon="14.152851">
        <ele>211.091</ele>
        <time>1970-01-01T01:00:00Z</time>
      </trkpt>
      <trkpt lat="61.124385" lon="14.152647">
        <ele>211.273</ele>
        <time>1970-01-01T01:00:00Z</time>
      </trkpt>
      <trkpt lat="61.124386" lon="14.152449">
        <ele>211.364</ele>
        <time>1970-01-01T01:00:00Z</time>
      </trkpt>
      <trkpt lat="61.124337" lon="14.152273">
        <ele>211.455</ele>
        <time>1970-01-01T01:00:00Z</time>
      </trkpt>
      <trkpt lat="61.124254" lon="14.152106">
        <ele>211.545</ele>
        <time>1970-01-01T01:00:00Z</time>
      </trkpt>
      <trkpt lat="61.124187" lon="14.151978">
        <ele>211.727</ele>
        <time>1970-01-01T01:00:00Z</time>
      </trkpt>
      <trkpt lat="61.124116" lon="14.151843">
        <ele>211.909</ele>
        <time>1970-01-01T01:00:00Z</time>
      </trkpt>
      <trkpt lat="61.124042" lon="14.151677">
        <ele>212.091</ele>
        <time>1970-01-01T01:00:00Z</time>
      </trkpt>
      <trkpt lat="61.124013" lon="14.151489">
        <ele>212.273</ele>
        <time>1970-01-01T01:00:00Z</time>
      </trkpt>
      <trkpt lat="61.123996" lon="14.151299">
        <ele>212.091</ele>
        <time>1970-01-01T01:00:00Z</time>
      </trkpt>
      <trkpt lat="61.12398" lon="14.151084">
        <ele>211.818</ele>
        <time>1970-01-01T01:00:00Z</time>
      </trkpt>
      <trkpt lat="61.123934" lon="14.150863">
        <ele>211.545</ele>
        <time>1970-01-01T01:00:00Z</time>
      </trkpt>
      <trkpt lat="61.123886" lon="14.15065">
        <ele>211.273</ele>
        <time>1970-01-01T01:00:00Z</time>
      </trkpt>
      <trkpt lat="61.12385" lon="14.150428">
        <ele>211</ele>
        <time>1970-01-01T01:00:00Z</time>
      </trkpt>
      <trkpt lat="61.123804" lon="14.150172">
        <ele>210.727</ele>
        <time>1970-01-01T01:00:00Z</time>
      </trkpt>
      <trkpt lat="61.123739" lon="14.149972">
        <ele>210.455</ele>
        <time>1970-01-01T01:00:00Z</time>
      </trkpt>
      <trkpt lat="61.123674" lon="14.149824">
        <ele>210.091</ele>
        <time>1970-01-01T01:00:00Z</time>
      </trkpt>
      <trkpt lat="61.123572" lon="14.149702">
        <ele>209.727</ele>
        <time>1970-01-01T01:00:00Z</time>
      </trkpt>
      <trkpt lat="61.123477" lon="14.149655">
        <ele>209</ele>
        <time>1970-01-01T01:00:00Z</time>
      </trkpt>
      <trkpt lat="61.123372" lon="14.1497">
        <ele>208.182</ele>
        <time>1970-01-01T01:00:00Z</time>
      </trkpt>
      <trkpt lat="61.123261" lon="14.149748">
        <ele>207.727</ele>
        <time>1970-01-01T01:00:00Z</time>
      </trkpt>
      <trkpt lat="61.123168" lon="14.149752">
        <ele>207.273</ele>
        <time>1970-01-01T01:00:00Z</time>
      </trkpt>
      <trkpt lat="61.123068" lon="14.149708">
        <ele>206.818</ele>
        <time>1970-01-01T01:00:00Z</time>
      </trkpt>
      <trkpt lat="61.122966" lon="14.149697">
        <ele>206.818</ele>
        <time>1970-01-01T01:00:00Z</time>
      </trkpt>
      <trkpt lat="61.12293" lon="14.149505">
        <ele>206.818</ele>
        <time>1970-01-01T01:00:00Z</time>
      </trkpt>
      <trkpt lat="61.122966" lon="14.149325">
        <ele>206.818</ele>
        <time>1970-01-01T01:00:00Z</time>
      </trkpt>
      <trkpt lat="61.122975" lon="14.149111">
        <ele>206.818</ele>
        <time>1970-01-01T01:00:00Z</time>
      </trkpt>
      <trkpt lat="61.122979" lon="14.148907">
        <ele>206.818</ele>
        <time>1970-01-01T01:00:00Z</time>
      </trkpt>
      <trkpt lat="61.122989" lon="14.148691">
        <ele>206.818</ele>
        <time>1970-01-01T01:00:00Z</time>
      </trkpt>
      <trkpt lat="61.123009" lon="14.148469">
        <ele>207.182</ele>
        <time>1970-01-01T01:00:00Z</time>
      </trkpt>
      <trkpt lat="61.123027" lon="14.14824">
        <ele>207.636</ele>
        <time>1970-01-01T01:00:00Z</time>
      </trkpt>
      <trkpt lat="61.123035" lon="14.148037">
        <ele>208.182</ele>
        <time>1970-01-01T01:00:00Z</time>
      </trkpt>
      <trkpt lat="61.123037" lon="14.147846">
        <ele>208.727</ele>
        <time>1970-01-01T01:00:00Z</time>
      </trkpt>
      <trkpt lat="61.123054" lon="14.147635">
        <ele>209.273</ele>
        <time>1970-01-01T01:00:00Z</time>
      </trkpt>
      <trkpt lat="61.123063" lon="14.147432">
        <ele>208.909</ele>
        <time>1970-01-01T01:00:00Z</time>
      </trkpt>
      <trkpt lat="61.123058" lon="14.147206">
        <ele>208.545</ele>
        <time>1970-01-01T01:00:00Z</time>
      </trkpt>
      <trkpt lat="61.123054" lon="14.14697">
        <ele>208.182</ele>
        <time>1970-01-01T01:00:00Z</time>
      </trkpt>
      <trkpt lat="61.123033" lon="14.146777">
        <ele>207.818</ele>
        <time>1970-01-01T01:00:00Z</time>
      </trkpt>
      <trkpt lat="61.122988" lon="14.146468">
        <ele>207.455</ele>
        <time>1970-01-01T01:00:00Z</time>
      </trkpt>
      <trkpt lat="61.122972" lon="14.14622">
        <ele>207.091</ele>
        <time>1970-01-01T01:00:00Z</time>
      </trkpt>
      <trkpt lat="61.122971" lon="14.145988">
        <ele>206.727</ele>
        <time>1970-01-01T01:00:00Z</time>
      </trkpt>
      <trkpt lat="61.122972" lon="14.145749">
        <ele>206.455</ele>
        <time>1970-01-01T01:00:00Z</time>
      </trkpt>
      <trkpt lat="61.122975" lon="14.145561">
        <ele>206.091</ele>
        <time>1970-01-01T01:00:00Z</time>
      </trkpt>
      <trkpt lat="61.122959" lon="14.145314">
        <ele>205.727</ele>
        <time>1970-01-01T01:00:00Z</time>
      </trkpt>
      <trkpt lat="61.122926" lon="14.145071">
        <ele>205.364</ele>
        <time>1970-01-01T01:00:00Z</time>
      </trkpt>
      <trkpt lat="61.122891" lon="14.144841">
        <ele>205.545</ele>
        <time>1970-01-01T01:00:00Z</time>
      </trkpt>
      <trkpt lat="61.122843" lon="14.144623">
        <ele>205.727</ele>
        <time>1970-01-01T01:00:00Z</time>
      </trkpt>
      <trkpt lat="61.122793" lon="14.144402">
        <ele>205.909</ele>
        <time>1970-01-01T01:00:00Z</time>
      </trkpt>
      <trkpt lat="61.122739" lon="14.144174">
        <ele>206.091</ele>
        <time>1970-01-01T01:00:00Z</time>
      </trkpt>
      <trkpt lat="61.122692" lon="14.14401">
        <ele>206.364</ele>
        <time>1970-01-01T01:00:00Z</time>
      </trkpt>
      <trkpt lat="61.122629" lon="14.143823">
        <ele>206.636</ele>
        <time>1970-01-01T01:00:00Z</time>
      </trkpt>
      <trkpt lat="61.122575" lon="14.143612">
        <ele>206.909</ele>
        <time>1970-01-01T01:00:00Z</time>
      </trkpt>
      <trkpt lat="61.12253" lon="14.143405">
        <ele>207.091</ele>
        <time>1970-01-01T01:00:00Z</time>
      </trkpt>
      <trkpt lat="61.122481" lon="14.143192">
        <ele>207.273</ele>
        <time>1970-01-01T01:00:00Z</time>
      </trkpt>
      <trkpt lat="61.122438" lon="14.143001">
        <ele>207.545</ele>
        <time>1970-01-01T01:00:00Z</time>
      </trkpt>
      <trkpt lat="61.122386" lon="14.142795">
        <ele>207.818</ele>
        <time>1970-01-01T01:00:00Z</time>
      </trkpt>
      <trkpt lat="61.122327" lon="14.142575">
        <ele>208</ele>
        <time>1970-01-01T01:00:00Z</time>
      </trkpt>
      <trkpt lat="61.122278" lon="14.142393">
        <ele>207.636</ele>
        <time>1970-01-01T01:00:00Z</time>
      </trkpt>
      <trkpt lat="61.122236" lon="14.142222">
        <ele>207.364</ele>
        <time>1970-01-01T01:00:00Z</time>
      </trkpt>
      <trkpt lat="61.122202" lon="14.142043">
        <ele>207.091</ele>
        <time>1970-01-01T01:00:00Z</time>
      </trkpt>
      <trkpt lat="61.122156" lon="14.141842">
        <ele>206.727</ele>
        <time>1970-01-01T01:00:00Z</time>
      </trkpt>
      <trkpt lat="61.122103" lon="14.14164">
        <ele>206.364</ele>
        <time>1970-01-01T01:00:00Z</time>
      </trkpt>
      <trkpt lat="61.122053" lon="14.141459">
        <ele>206</ele>
        <time>1970-01-01T01:00:00Z</time>
      </trkpt>
      <trkpt lat="61.121999" lon="14.141246">
        <ele>205.636</ele>
        <time>1970-01-01T01:00:00Z</time>
      </trkpt>
      <trkpt lat="61.121943" lon="14.141048">
        <ele>205.273</ele>
        <time>1970-01-01T01:00:00Z</time>
      </trkpt>
      <trkpt lat="61.121893" lon="14.140859">
        <ele>204.818</ele>
        <time>1970-01-01T01:00:00Z</time>
      </trkpt>
      <trkpt lat="61.121864" lon="14.140675">
        <ele>204.364</ele>
        <time>1970-01-01T01:00:00Z</time>
      </trkpt>
      <trkpt lat="61.121844" lon="14.140456">
        <ele>204.091</ele>
        <time>1970-01-01T01:00:00Z</time>
      </trkpt>
      <trkpt lat="61.12182" lon="14.140237">
        <ele>204.364</ele>
        <time>1970-01-01T01:00:00Z</time>
      </trkpt>
      <trkpt lat="61.121777" lon="14.140037">
        <ele>204.545</ele>
        <time>1970-01-01T01:00:00Z</time>
      </trkpt>
      <trkpt lat="61.121743" lon="14.139838">
        <ele>204.727</ele>
        <time>1970-01-01T01:00:00Z</time>
      </trkpt>
      <trkpt lat="61.121754" lon="14.13964">
        <ele>205.455</ele>
        <time>1970-01-01T01:00:00Z</time>
      </trkpt>
      <trkpt lat="61.121814" lon="14.13948">
        <ele>206.182</ele>
        <time>1970-01-01T01:00:00Z</time>
      </trkpt>
      <trkpt lat="61.121909" lon="14.139415">
        <ele>207.091</ele>
        <time>1970-01-01T01:00:00Z</time>
      </trkpt>
      <trkpt lat="61.121977" lon="14.139267">
        <ele>208</ele>
        <time>1970-01-01T01:00:00Z</time>
      </trkpt>
      <trkpt lat="61.122056" lon="14.139116">
        <ele>208.909</ele>
        <time>1970-01-01T01:00:00Z</time>
      </trkpt>
      <trkpt lat="61.122124" lon="14.138967">
        <ele>209.818</ele>
        <time>1970-01-01T01:00:00Z</time>
      </trkpt>
      <trkpt lat="61.122185" lon="14.138802">
        <ele>210.909</ele>
        <time>1970-01-01T01:00:00Z</time>
      </trkpt>
      <trkpt lat="61.122194" lon="14.138593">
        <ele>211.818</ele>
        <time>1970-01-01T01:00:00Z</time>
      </trkpt>
      <trkpt lat="61.122227" lon="14.138393">
        <ele>212.727</ele>
        <time>1970-01-01T01:00:00Z</time>
      </trkpt>
      <trkpt lat="61.122214" lon="14.13818">
        <ele>213.636</ele>
        <time>1970-01-01T01:00:00Z</time>
      </trkpt>
      <trkpt lat="61.122204" lon="14.137982">
        <ele>214.727</ele>
        <time>1970-01-01T01:00:00Z</time>
      </trkpt>
      <trkpt lat="61.122202" lon="14.137779">
        <ele>215.273</ele>
        <time>1970-01-01T01:00:00Z</time>
      </trkpt>
      <trkpt lat="61.12222" lon="14.13757">
        <ele>215.818</ele>
        <time>1970-01-01T01:00:00Z</time>
      </trkpt>
      <trkpt lat="61.122234" lon="14.137383">
        <ele>216.182</ele>
        <time>1970-01-01T01:00:00Z</time>
      </trkpt>
      <trkpt lat="61.122246" lon="14.137188">
        <ele>216.727</ele>
        <time>1970-01-01T01:00:00Z</time>
      </trkpt>
      <trkpt lat="61.122266" lon="14.137001">
        <ele>217.273</ele>
        <time>1970-01-01T01:00:00Z</time>
      </trkpt>
      <trkpt lat="61.122299" lon="14.136786">
        <ele>217.818</ele>
        <time>1970-01-01T01:00:00Z</time>
      </trkpt>
      <trkpt lat="61.122317" lon="14.136555">
        <ele>218.182</ele>
        <time>1970-01-01T01:00:00Z</time>
      </trkpt>
      <trkpt lat="61.122336" lon="14.136358">
        <ele>218.636</ele>
        <time>1970-01-01T01:00:00Z</time>
      </trkpt>
      <trkpt lat="61.122361" lon="14.136124">
        <ele>219.091</ele>
        <time>1970-01-01T01:00:00Z</time>
      </trkpt>
      <trkpt lat="61.122392" lon="14.135935">
        <ele>219.545</ele>
        <time>1970-01-01T01:00:00Z</time>
      </trkpt>
      <trkpt lat="61.122459" lon="14.135763">
        <ele>219.818</ele>
        <time>1970-01-01T01:00:00Z</time>
      </trkpt>
      <trkpt lat="61.122518" lon="14.135594">
        <ele>220.091</ele>
        <time>1970-01-01T01:00:00Z</time>
      </trkpt>
      <trkpt lat="61.122574" lon="14.135422">
        <ele>220.455</ele>
        <time>1970-01-01T01:00:00Z</time>
      </trkpt>
      <trkpt lat="61.122629" lon="14.135257">
        <ele>220.818</ele>
        <time>1970-01-01T01:00:00Z</time>
      </trkpt>
      <trkpt lat="61.122674" lon="14.13508">
        <ele>221</ele>
        <time>1970-01-01T01:00:00Z</time>
      </trkpt>
      <trkpt lat="61.122714" lon="14.134893">
        <ele>221.182</ele>
        <time>1970-01-01T01:00:00Z</time>
      </trkpt>
      <trkpt lat="61.122726" lon="14.134695">
        <ele>221.364</ele>
        <time>1970-01-01T01:00:00Z</time>
      </trkpt>
      <trkpt lat="61.122735" lon="14.134478">
        <ele>221.545</ele>
        <time>1970-01-01T01:00:00Z</time>
      </trkpt>
      <trkpt lat="61.122731" lon="14.134274">
        <ele>221.636</ele>
        <time>1970-01-01T01:00:00Z</time>
      </trkpt>
      <trkpt lat="61.122716" lon="14.134033">
        <ele>221.727</ele>
        <time>1970-01-01T01:00:00Z</time>
      </trkpt>
      <trkpt lat="61.122675" lon="14.133827">
        <ele>221.909</ele>
        <time>1970-01-01T01:00:00Z</time>
      </trkpt>
      <trkpt lat="61.122634" lon="14.133644">
        <ele>222.091</ele>
        <time>1970-01-01T01:00:00Z</time>
      </trkpt>
      <trkpt lat="61.122603" lon="14.133454">
        <ele>222.273</ele>
        <time>1970-01-01T01:00:00Z</time>
      </trkpt>
      <trkpt lat="61.122558" lon="14.133254">
        <ele>222.364</ele>
        <time>1970-01-01T01:00:00Z</time>
      </trkpt>
      <trkpt lat="61.122536" lon="14.133056">
        <ele>222.455</ele>
        <time>1970-01-01T01:00:00Z</time>
      </trkpt>
      <trkpt lat="61.122515" lon="14.13285">
        <ele>222.545</ele>
        <time>1970-01-01T01:00:00Z</time>
      </trkpt>
      <trkpt lat="61.12249" lon="14.13267">
        <ele>222.636</ele>
        <time>1970-01-01T01:00:00Z</time>
      </trkpt>
      <trkpt lat="61.122436" lon="14.132506">
        <ele>222.727</ele>
        <time>1970-01-01T01:00:00Z</time>
      </trkpt>
      <trkpt lat="61.122386" lon="14.132267">
        <ele>222.818</ele>
        <time>1970-01-01T01:00:00Z</time>
      </trkpt>
      <trkpt lat="61.122355" lon="14.132048">
        <ele>222.909</ele>
        <time>1970-01-01T01:00:00Z</time>
      </trkpt>
      <trkpt lat="61.122329" lon="14.131834">
        <ele>223</ele>
        <time>1970-01-01T01:00:00Z</time>
      </trkpt>
      <trkpt lat="61.122292" lon="14.131585">
        <ele>221.364</ele>
        <time>1970-01-01T01:00:00Z</time>
      </trkpt>
      <trkpt lat="61.122256" lon="14.131298">
        <ele>219.727</ele>
        <time>1970-01-01T01:00:00Z</time>
      </trkpt>
      <trkpt lat="61.122205" lon="14.131029">
        <ele>218.091</ele>
        <time>1970-01-01T01:00:00Z</time>
      </trkpt>
      <trkpt lat="61.122184" lon="14.13083">
        <ele>216.545</ele>
        <time>1970-01-01T01:00:00Z</time>
      </trkpt>
      <trkpt lat="61.122121" lon="14.130465">
        <ele>215</ele>
        <time>1970-01-01T01:00:00Z</time>
      </trkpt>
      <trkpt lat="61.122091" lon="14.130152">
        <ele>213.636</ele>
        <time>1970-01-01T01:00:00Z</time>
      </trkpt>
      <trkpt lat="61.12206" lon="14.129939">
        <ele>212.273</ele>
        <time>1970-01-01T01:00:00Z</time>
      </trkpt>
      <trkpt lat="61.122039" lon="14.129748">
        <ele>210.909</ele>
        <time>1970-01-01T01:00:00Z</time>
      </trkpt>
      <trkpt lat="61.12202" lon="14.129415">
        <ele>209.727</ele>
        <time>1970-01-01T01:00:00Z</time>
      </trkpt>
      <trkpt lat="61.121988" lon="14.128929">
        <ele>208.545</ele>
        <time>1970-01-01T01:00:00Z</time>
      </trkpt>
      <trkpt lat="61.121965" lon="14.128563">
        <ele>207.364</ele>
        <time>1970-01-01T01:00:00Z</time>
      </trkpt>
      <trkpt lat="61.121944" lon="14.12828">
        <ele>208.091</ele>
        <time>1970-01-01T01:00:00Z</time>
      </trkpt>
      <trkpt lat="61.121937" lon="14.128028">
        <ele>208.818</ele>
        <time>1970-01-01T01:00:00Z</time>
      </trkpt>
      <trkpt lat="61.121937" lon="14.127763">
        <ele>209.545</ele>
        <time>1970-01-01T01:00:00Z</time>
      </trkpt>
      <trkpt lat="61.121963" lon="14.127526">
        <ele>210.182</ele>
        <time>1970-01-01T01:00:00Z</time>
      </trkpt>
      <trkpt lat="61.121953" lon="14.127299">
        <ele>210.909</ele>
        <time>1970-01-01T01:00:00Z</time>
      </trkpt>
      <trkpt lat="61.121946" lon="14.127056">
        <ele>211.455</ele>
        <time>1970-01-01T01:00:00Z</time>
      </trkpt>
      <trkpt lat="61.121918" lon="14.126864">
        <ele>212</ele>
        <time>1970-01-01T01:00:00Z</time>
      </trkpt>
      <trkpt lat="61.121885" lon="14.126577">
        <ele>212.545</ele>
        <time>1970-01-01T01:00:00Z</time>
      </trkpt>
      <trkpt lat="61.12184" lon="14.126353">
        <ele>213</ele>
        <time>1970-01-01T01:00:00Z</time>
      </trkpt>
      <trkpt lat="61.121796" lon="14.126191">
        <ele>213.455</ele>
        <time>1970-01-01T01:00:00Z</time>
      </trkpt>
      <trkpt lat="61.12172" lon="14.125987">
        <ele>213.909</ele>
        <time>1970-01-01T01:00:00Z</time>
      </trkpt>
      <trkpt lat="61.121669" lon="14.125824">
        <ele>214.091</ele>
        <time>1970-01-01T01:00:00Z</time>
      </trkpt>
      <trkpt lat="61.121639" lon="14.125611">
        <ele>214.273</ele>
        <time>1970-01-01T01:00:00Z</time>
      </trkpt>
      <trkpt lat="61.121619" lon="14.125426">
        <ele>214.455</ele>
        <time>1970-01-01T01:00:00Z</time>
      </trkpt>
      <trkpt lat="61.121609" lon="14.12524">
        <ele>214.636</ele>
        <time>1970-01-01T01:00:00Z</time>
      </trkpt>
      <trkpt lat="61.12162" lon="14.125045">
        <ele>214.727</ele>
        <time>1970-01-01T01:00:00Z</time>
      </trkpt>
      <trkpt lat="61.121619" lon="14.12485">
        <ele>214.818</ele>
        <time>1970-01-01T01:00:00Z</time>
      </trkpt>
      <trkpt lat="61.121635" lon="14.124656">
        <ele>215</ele>
        <time>1970-01-01T01:00:00Z</time>
      </trkpt>
      <trkpt lat="61.121673" lon="14.124469">
        <ele>215.182</ele>
        <time>1970-01-01T01:00:00Z</time>
      </trkpt>
      <trkpt lat="61.121709" lon="14.124295">
        <ele>215.273</ele>
        <time>1970-01-01T01:00:00Z</time>
      </trkpt>
      <trkpt lat="61.121751" lon="14.124092">
        <ele>215.364</ele>
        <time>1970-01-01T01:00:00Z</time>
      </trkpt>
      <trkpt lat="61.121807" lon="14.123918">
        <ele>215.727</ele>
        <time>1970-01-01T01:00:00Z</time>
      </trkpt>
      <trkpt lat="61.121839" lon="14.123707">
        <ele>216.091</ele>
        <time>1970-01-01T01:00:00Z</time>
      </trkpt>
      <trkpt lat="61.12184" lon="14.123509">
        <ele>216.455</ele>
        <time>1970-01-01T01:00:00Z</time>
      </trkpt>
      <trkpt lat="61.121826" lon="14.123279">
        <ele>216.818</ele>
        <time>1970-01-01T01:00:00Z</time>
      </trkpt>
      <trkpt lat="61.121798" lon="14.123069">
        <ele>217.364</ele>
        <time>1970-01-01T01:00:00Z</time>
      </trkpt>
      <trkpt lat="61.12178" lon="14.122876">
        <ele>217.909</ele>
        <time>1970-01-01T01:00:00Z</time>
      </trkpt>
      <trkpt lat="61.121751" lon="14.122676">
        <ele>218.455</ele>
        <time>1970-01-01T01:00:00Z</time>
      </trkpt>
      <trkpt lat="61.121741" lon="14.122482">
        <ele>218.909</ele>
        <time>1970-01-01T01:00:00Z</time>
      </trkpt>
      <trkpt lat="61.121716" lon="14.122249">
        <ele>219.455</ele>
        <time>1970-01-01T01:00:00Z</time>
      </trkpt>
      <trkpt lat="61.121686" lon="14.122041">
        <ele>220</ele>
        <time>1970-01-01T01:00:00Z</time>
      </trkpt>
      <trkpt lat="61.121648" lon="14.121803">
        <ele>220.545</ele>
        <time>1970-01-01T01:00:00Z</time>
      </trkpt>
      <trkpt lat="61.12162" lon="14.121561">
        <ele>220.818</ele>
        <time>1970-01-01T01:00:00Z</time>
      </trkpt>
      <trkpt lat="61.121623" lon="14.121368">
        <ele>221.091</ele>
        <time>1970-01-01T01:00:00Z</time>
      </trkpt>
      <trkpt lat="61.121647" lon="14.121188">
        <ele>221.364</ele>
        <time>1970-01-01T01:00:00Z</time>
      </trkpt>
      <trkpt lat="61.121673" lon="14.12097">
        <ele>221.636</ele>
        <time>1970-01-01T01:00:00Z</time>
      </trkpt>
      <trkpt lat="61.121672" lon="14.120727">
        <ele>221.727</ele>
        <time>1970-01-01T01:00:00Z</time>
      </trkpt>
      <trkpt lat="61.121628" lon="14.120488">
        <ele>221.545</ele>
        <time>1970-01-01T01:00:00Z</time>
      </trkpt>
      <trkpt lat="61.121568" lon="14.120295">
        <ele>221.364</ele>
        <time>1970-01-01T01:00:00Z</time>
      </trkpt>
      <trkpt lat="61.12153" lon="14.120082">
        <ele>221.182</ele>
        <time>1970-01-01T01:00:00Z</time>
      </trkpt>
      <trkpt lat="61.121533" lon="14.119857">
        <ele>220.909</ele>
        <time>1970-01-01T01:00:00Z</time>
      </trkpt>
      <trkpt lat="61.121587" lon="14.119649">
        <ele>220.455</ele>
        <time>1970-01-01T01:00:00Z</time>
      </trkpt>
      <trkpt lat="61.121657" lon="14.119474">
        <ele>220</ele>
        <time>1970-01-01T01:00:00Z</time>
      </trkpt>
      <trkpt lat="61.121717" lon="14.119307">
        <ele>219.545</ele>
        <time>1970-01-01T01:00:00Z</time>
      </trkpt>
      <trkpt lat="61.121657" lon="14.11906">
        <ele>219.091</ele>
        <time>1970-01-01T01:00:00Z</time>
      </trkpt>
      <trkpt lat="61.121605" lon="14.11885">
        <ele>217.091</ele>
        <time>1970-01-01T01:00:00Z</time>
      </trkpt>
      <trkpt lat="61.12153" lon="14.118618">
        <ele>215.182</ele>
        <time>1970-01-01T01:00:00Z</time>
      </trkpt>
      <trkpt lat="61.121457" lon="14.11845">
        <ele>213.273</ele>
        <time>1970-01-01T01:00:00Z</time>
      </trkpt>
      <trkpt lat="61.121373" lon="14.118339">
        <ele>211.636</ele>
        <time>1970-01-01T01:00:00Z</time>
      </trkpt>
      <trkpt lat="61.121293" lon="14.118238">
        <ele>210</ele>
        <time>1970-01-01T01:00:00Z</time>
      </trkpt>
      <trkpt lat="61.121253" lon="14.118069">
        <ele>208.545</ele>
        <time>1970-01-01T01:00:00Z</time>
      </trkpt>
      <trkpt lat="61.121231" lon="14.117857">
        <ele>207.091</ele>
        <time>1970-01-01T01:00:00Z</time>
      </trkpt>
      <trkpt lat="61.121219" lon="14.117612">
        <ele>205.818</ele>
        <time>1970-01-01T01:00:00Z</time>
      </trkpt>
      <trkpt lat="61.121215" lon="14.117413">
        <ele>204.545</ele>
        <time>1970-01-01T01:00:00Z</time>
      </trkpt>
      <trkpt lat="61.121211" lon="14.117223">
        <ele>203.545</ele>
        <time>1970-01-01T01:00:00Z</time>
      </trkpt>
      <trkpt lat="61.121219" lon="14.117035">
        <ele>202.545</ele>
        <time>1970-01-01T01:00:00Z</time>
      </trkpt>
      <trkpt lat="61.121201" lon="14.116823">
        <ele>203.091</ele>
        <time>1970-01-01T01:00:00Z</time>
      </trkpt>
      <trkpt lat="61.121139" lon="14.116676">
        <ele>203.545</ele>
        <time>1970-01-01T01:00:00Z</time>
      </trkpt>
      <trkpt lat="61.121071" lon="14.116497">
        <ele>204.273</ele>
        <time>1970-01-01T01:00:00Z</time>
      </trkpt>
      <trkpt lat="61.121026" lon="14.11629">
        <ele>205</ele>
        <time>1970-01-01T01:00:00Z</time>
      </trkpt>
      <trkpt lat="61.121024" lon="14.116079">
        <ele>205.727</ele>
        <time>1970-01-01T01:00:00Z</time>
      </trkpt>
      <trkpt lat="61.121031" lon="14.115872">
        <ele>206.273</ele>
        <time>1970-01-01T01:00:00Z</time>
      </trkpt>
      <trkpt lat="61.121032" lon="14.115666">
        <ele>206.818</ele>
        <time>1970-01-01T01:00:00Z</time>
      </trkpt>
      <trkpt lat="61.120978" lon="14.115492">
        <ele>207.818</ele>
        <time>1970-01-01T01:00:00Z</time>
      </trkpt>
      <trkpt lat="61.120924" lon="14.115312">
        <ele>208.818</ele>
        <time>1970-01-01T01:00:00Z</time>
      </trkpt>
      <trkpt lat="61.120858" lon="14.115132">
        <ele>209.545</ele>
        <time>1970-01-01T01:00:00Z</time>
      </trkpt>
      <trkpt lat="61.12081" lon="14.114914">
        <ele>210.273</ele>
        <time>1970-01-01T01:00:00Z</time>
      </trkpt>
      <trkpt lat="61.120804" lon="14.114697">
        <ele>211.182</ele>
        <time>1970-01-01T01:00:00Z</time>
      </trkpt>
      <trkpt lat="61.120753" lon="14.114498">
        <ele>212.091</ele>
        <time>1970-01-01T01:00:00Z</time>
      </trkpt>
      <trkpt lat="61.12069" lon="14.114291">
        <ele>212.727</ele>
        <time>1970-01-01T01:00:00Z</time>
      </trkpt>
      <trkpt lat="61.120644" lon="14.114099">
        <ele>213.364</ele>
        <time>1970-01-01T01:00:00Z</time>
      </trkpt>
      <trkpt lat="61.120567" lon="14.113926">
        <ele>214</ele>
        <time>1970-01-01T01:00:00Z</time>
      </trkpt>
      <trkpt lat="61.120489" lon="14.113751">
        <ele>214.636</ele>
        <time>1970-01-01T01:00:00Z</time>
      </trkpt>
      <trkpt lat="61.12046" lon="14.113542">
        <ele>215.273</ele>
        <time>1970-01-01T01:00:00Z</time>
      </trkpt>
      <trkpt lat="61.120455" lon="14.11335">
        <ele>215.455</ele>
        <time>1970-01-01T01:00:00Z</time>
      </trkpt>
      <trkpt lat="61.120498" lon="14.113167">
        <ele>215.727</ele>
        <time>1970-01-01T01:00:00Z</time>
      </trkpt>
      <trkpt lat="61.120529" lon="14.112937">
        <ele>216</ele>
        <time>1970-01-01T01:00:00Z</time>
      </trkpt>
      <trkpt lat="61.120545" lon="14.112734">
        <ele>216.273</ele>
        <time>1970-01-01T01:00:00Z</time>
      </trkpt>
      <trkpt lat="61.120572" lon="14.112511">
        <ele>216.364</ele>
        <time>1970-01-01T01:00:00Z</time>
      </trkpt>
      <trkpt lat="61.120605" lon="14.112268">
        <ele>216.455</ele>
        <time>1970-01-01T01:00:00Z</time>
      </trkpt>
      <trkpt lat="61.120623" lon="14.112069">
        <ele>216.818</ele>
        <time>1970-01-01T01:00:00Z</time>
      </trkpt>
      <trkpt lat="61.120626" lon="14.111878">
        <ele>217.182</ele>
        <time>1970-01-01T01:00:00Z</time>
      </trkpt>
      <trkpt lat="61.120622" lon="14.111635">
        <ele>217.545</ele>
        <time>1970-01-01T01:00:00Z</time>
      </trkpt>
      <trkpt lat="61.120622" lon="14.111444">
        <ele>218.091</ele>
        <time>1970-01-01T01:00:00Z</time>
      </trkpt>
      <trkpt lat="61.120622" lon="14.111258">
        <ele>218.636</ele>
        <time>1970-01-01T01:00:00Z</time>
      </trkpt>
      <trkpt lat="61.120624" lon="14.111066">
        <ele>219.182</ele>
        <time>1970-01-01T01:00:00Z</time>
      </trkpt>
      <trkpt lat="61.120628" lon="14.110844">
        <ele>219.636</ele>
        <time>1970-01-01T01:00:00Z</time>
      </trkpt>
      <trkpt lat="61.120648" lon="14.110643">
        <ele>220.091</ele>
        <time>1970-01-01T01:00:00Z</time>
      </trkpt>
      <trkpt lat="61.120685" lon="14.110432">
        <ele>220.545</ele>
        <time>1970-01-01T01:00:00Z</time>
      </trkpt>
      <trkpt lat="61.120692" lon="14.110241">
        <ele>221</ele>
        <time>1970-01-01T01:00:00Z</time>
      </trkpt>
      <trkpt lat="61.120686" lon="14.109997">
        <ele>221.455</ele>
        <time>1970-01-01T01:00:00Z</time>
      </trkpt>
      <trkpt lat="61.120659" lon="14.109771">
        <ele>220.273</ele>
        <time>1970-01-01T01:00:00Z</time>
      </trkpt>
      <trkpt lat="61.120608" lon="14.109573">
        <ele>219.091</ele>
        <time>1970-01-01T01:00:00Z</time>
      </trkpt>
      <trkpt lat="61.120557" lon="14.109355">
        <ele>219.273</ele>
        <time>1970-01-01T01:00:00Z</time>
      </trkpt>
      <trkpt lat="61.120505" lon="14.109141">
        <ele>219.273</ele>
        <time>1970-01-01T01:00:00Z</time>
      </trkpt>
      <trkpt lat="61.120461" lon="14.108972">
        <ele>219.364</ele>
        <time>1970-01-01T01:00:00Z</time>
      </trkpt>
      <trkpt lat="61.12043" lon="14.108758">
        <ele>218</ele>
        <time>1970-01-01T01:00:00Z</time>
      </trkpt>
      <trkpt lat="61.120447" lon="14.108556">
        <ele>216.636</ele>
        <time>1970-01-01T01:00:00Z</time>
      </trkpt>
      <trkpt lat="61.120456" lon="14.108295">
        <ele>215.273</ele>
        <time>1970-01-01T01:00:00Z</time>
      </trkpt>
      <trkpt lat="61.12046" lon="14.1081">
        <ele>213.909</ele>
        <time>1970-01-01T01:00:00Z</time>
      </trkpt>
      <trkpt lat="61.120472" lon="14.107901">
        <ele>212.545</ele>
        <time>1970-01-01T01:00:00Z</time>
      </trkpt>
      <trkpt lat="61.120444" lon="14.107712">
        <ele>211.182</ele>
        <time>1970-01-01T01:00:00Z</time>
      </trkpt>
      <trkpt lat="61.120382" lon="14.10751">
        <ele>211.182</ele>
        <time>1970-01-01T01:00:00Z</time>
      </trkpt>
      <trkpt lat="61.1203" lon="14.10731">
        <ele>211.182</ele>
        <time>1970-01-01T01:00:00Z</time>
      </trkpt>
      <trkpt lat="61.120246" lon="14.107126">
        <ele>209.909</ele>
        <time>1970-01-01T01:00:00Z</time>
      </trkpt>
      <trkpt lat="61.120196" lon="14.106941">
        <ele>208.636</ele>
        <time>1970-01-01T01:00:00Z</time>
      </trkpt>
      <trkpt lat="61.120147" lon="14.106779">
        <ele>207.273</ele>
        <time>1970-01-01T01:00:00Z</time>
      </trkpt>
      <trkpt lat="61.120083" lon="14.106598">
        <ele>207.364</ele>
        <time>1970-01-01T01:00:00Z</time>
      </trkpt>
      <trkpt lat="61.120064" lon="14.10641">
        <ele>207.636</ele>
        <time>1970-01-01T01:00:00Z</time>
      </trkpt>
      <trkpt lat="61.12006" lon="14.106212">
        <ele>207.909</ele>
        <time>1970-01-01T01:00:00Z</time>
      </trkpt>
      <trkpt lat="61.120069" lon="14.106012">
        <ele>208.182</ele>
        <time>1970-01-01T01:00:00Z</time>
      </trkpt>
      <trkpt lat="61.120119" lon="14.105712">
        <ele>208.455</ele>
        <time>1970-01-01T01:00:00Z</time>
      </trkpt>
      <trkpt lat="61.120168" lon="14.105507">
        <ele>208.727</ele>
        <time>1970-01-01T01:00:00Z</time>
      </trkpt>
      <trkpt lat="61.120236" lon="14.105289">
        <ele>210.091</ele>
        <time>1970-01-01T01:00:00Z</time>
      </trkpt>
      <trkpt lat="61.120308" lon="14.10511">
        <ele>210.364</ele>
        <time>1970-01-01T01:00:00Z</time>
      </trkpt>
      <trkpt lat="61.120365" lon="14.104943">
        <ele>210.545</ele>
        <time>1970-01-01T01:00:00Z</time>
      </trkpt>
      <trkpt lat="61.120397" lon="14.104706">
        <ele>210.727</ele>
        <time>1970-01-01T01:00:00Z</time>
      </trkpt>
      <trkpt lat="61.120435" lon="14.104504">
        <ele>210.909</ele>
        <time>1970-01-01T01:00:00Z</time>
      </trkpt>
      <trkpt lat="61.120453" lon="14.10428">
        <ele>211.091</ele>
        <time>1970-01-01T01:00:00Z</time>
      </trkpt>
      <trkpt lat="61.120432" lon="14.104064">
        <ele>211.091</ele>
        <time>1970-01-01T01:00:00Z</time>
      </trkpt>
      <trkpt lat="61.120372" lon="14.103847">
        <ele>211</ele>
        <time>1970-01-01T01:00:00Z</time>
      </trkpt>
      <trkpt lat="61.120315" lon="14.103674">
        <ele>210.909</ele>
        <time>1970-01-01T01:00:00Z</time>
      </trkpt>
      <trkpt lat="61.120279" lon="14.103494">
        <ele>210.818</ele>
        <time>1970-01-01T01:00:00Z</time>
      </trkpt>
      <trkpt lat="61.120271" lon="14.103278">
        <ele>210.727</ele>
        <time>1970-01-01T01:00:00Z</time>
      </trkpt>
      <trkpt lat="61.120273" lon="14.103049">
        <ele>210.636</ele>
        <time>1970-01-01T01:00:00Z</time>
      </trkpt>
      <trkpt lat="61.120278" lon="14.102817">
        <ele>211.636</ele>
        <time>1970-01-01T01:00:00Z</time>
      </trkpt>
      <trkpt lat="61.120305" lon="14.102634">
        <ele>212.636</ele>
        <time>1970-01-01T01:00:00Z</time>
      </trkpt>
      <trkpt lat="61.120356" lon="14.102467">
        <ele>213.636</ele>
        <time>1970-01-01T01:00:00Z</time>
      </trkpt>
      <trkpt lat="61.120412" lon="14.102287">
        <ele>214.636</ele>
        <time>1970-01-01T01:00:00Z</time>
      </trkpt>
      <trkpt lat="61.120477" lon="14.102116">
        <ele>215.545</ele>
        <time>1970-01-01T01:00:00Z</time>
      </trkpt>
      <trkpt lat="61.120546" lon="14.10193">
        <ele>216.455</ele>
        <time>1970-01-01T01:00:00Z</time>
      </trkpt>
      <trkpt lat="61.120608" lon="14.101764">
        <ele>217.455</ele>
        <time>1970-01-01T01:00:00Z</time>
      </trkpt>
      <trkpt lat="61.120665" lon="14.101548">
        <ele>218.455</ele>
        <time>1970-01-01T01:00:00Z</time>
      </trkpt>
      <trkpt lat="61.120691" lon="14.101364">
        <ele>219.273</ele>
        <time>1970-01-01T01:00:00Z</time>
      </trkpt>
      <trkpt lat="61.1207" lon="14.101173">
        <ele>220.091</ele>
        <time>1970-01-01T01:00:00Z</time>
      </trkpt>
      <trkpt lat="61.120713" lon="14.100962">
        <ele>219.818</ele>
        <time>1970-01-01T01:00:00Z</time>
      </trkpt>
      <trkpt lat="61.120724" lon="14.100721">
        <ele>219.545</ele>
        <time>1970-01-01T01:00:00Z</time>
      </trkpt>
      <trkpt lat="61.120737" lon="14.100516">
        <ele>219.182</ele>
        <time>1970-01-01T01:00:00Z</time>
      </trkpt>
      <trkpt lat="61.120759" lon="14.100308">
        <ele>218.818</ele>
        <time>1970-01-01T01:00:00Z</time>
      </trkpt>
      <trkpt lat="61.120789" lon="14.100108">
        <ele>218.455</ele>
        <time>1970-01-01T01:00:00Z</time>
      </trkpt>
      <trkpt lat="61.120818" lon="14.099932">
        <ele>218.182</ele>
        <time>1970-01-01T01:00:00Z</time>
      </trkpt>
      <trkpt lat="61.120849" lon="14.099711">
        <ele>217.818</ele>
        <time>1970-01-01T01:00:00Z</time>
      </trkpt>
      <trkpt lat="61.120893" lon="14.099511">
        <ele>217.455</ele>
        <time>1970-01-01T01:00:00Z</time>
      </trkpt>
      <trkpt lat="61.120926" lon="14.099326">
        <ele>217.091</ele>
        <time>1970-01-01T01:00:00Z</time>
      </trkpt>
      <trkpt lat="61.120955" lon="14.099141">
        <ele>216.909</ele>
        <time>1970-01-01T01:00:00Z</time>
      </trkpt>
      <trkpt lat="61.12099" lon="14.098905">
        <ele>216.727</ele>
        <time>1970-01-01T01:00:00Z</time>
      </trkpt>
      <trkpt lat="61.121022" lon="14.098674">
        <ele>216.545</ele>
        <time>1970-01-01T01:00:00Z</time>
      </trkpt>
      <trkpt lat="61.121049" lon="14.098484">
        <ele>216.364</ele>
        <time>1970-01-01T01:00:00Z</time>
      </trkpt>
      <trkpt lat="61.121084" lon="14.098312">
        <ele>216.273</ele>
        <time>1970-01-01T01:00:00Z</time>
      </trkpt>
      <trkpt lat="61.121115" lon="14.098112">
        <ele>216.273</ele>
        <time>1970-01-01T01:00:00Z</time>
      </trkpt>
      <trkpt lat="61.121151" lon="14.0979">
        <ele>216.273</ele>
        <time>1970-01-01T01:00:00Z</time>
      </trkpt>
      <trkpt lat="61.121188" lon="14.097712">
        <ele>216.273</ele>
        <time>1970-01-01T01:00:00Z</time>
      </trkpt>
      <trkpt lat="61.12123" lon="14.09751">
        <ele>216.364</ele>
        <time>1970-01-01T01:00:00Z</time>
      </trkpt>
      <trkpt lat="61.121245" lon="14.097293">
        <ele>216.455</ele>
        <time>1970-01-01T01:00:00Z</time>
      </trkpt>
      <trkpt lat="61.121189" lon="14.097105">
        <ele>216.545</ele>
        <time>1970-01-01T01:00:00Z</time>
      </trkpt>
      <trkpt lat="61.121111" lon="14.096933">
        <ele>216.636</ele>
        <time>1970-01-01T01:00:00Z</time>
      </trkpt>
      <trkpt lat="61.121017" lon="14.096747">
        <ele>216.727</ele>
        <time>1970-01-01T01:00:00Z</time>
      </trkpt>
      <trkpt lat="61.120933" lon="14.096569">
        <ele>216.818</ele>
        <time>1970-01-01T01:00:00Z</time>
      </trkpt>
      <trkpt lat="61.120858" lon="14.09642">
        <ele>216.909</ele>
        <time>1970-01-01T01:00:00Z</time>
      </trkpt>
      <trkpt lat="61.1208" lon="14.096165">
        <ele>217</ele>
        <time>1970-01-01T01:00:00Z</time>
      </trkpt>
      <trkpt lat="61.120738" lon="14.095958">
        <ele>217</ele>
        <time>1970-01-01T01:00:00Z</time>
      </trkpt>
      <trkpt lat="61.120698" lon="14.095764">
        <ele>217</ele>
        <time>1970-01-01T01:00:00Z</time>
      </trkpt>
      <trkpt lat="61.120712" lon="14.095531">
        <ele>217</ele>
        <time>1970-01-01T01:00:00Z</time>
      </trkpt>
      <trkpt lat="61.120752" lon="14.095336">
        <ele>217</ele>
        <time>1970-01-01T01:00:00Z</time>
      </trkpt>
      <trkpt lat="61.120812" lon="14.095131">
        <ele>217</ele>
        <time>1970-01-01T01:00:00Z</time>
      </trkpt>
      <trkpt lat="61.12086" lon="14.094928">
        <ele>217</ele>
        <time>1970-01-01T01:00:00Z</time>
      </trkpt>
      <trkpt lat="61.120892" lon="14.094707">
        <ele>217</ele>
        <time>1970-01-01T01:00:00Z</time>
      </trkpt>
      <trkpt lat="61.120908" lon="14.094508">
        <ele>217</ele>
        <time>1970-01-01T01:00:00Z</time>
      </trkpt>
      <trkpt lat="61.120925" lon="14.094289">
        <ele>217</ele>
        <time>1970-01-01T01:00:00Z</time>
      </trkpt>
      <trkpt lat="61.120963" lon="14.094074">
        <ele>217</ele>
        <time>1970-01-01T01:00:00Z</time>
      </trkpt>
      <trkpt lat="61.121006" lon="14.093857">
        <ele>216.909</ele>
        <time>1970-01-01T01:00:00Z</time>
      </trkpt>
      <trkpt lat="61.121049" lon="14.093678">
        <ele>216.818</ele>
        <time>1970-01-01T01:00:00Z</time>
      </trkpt>
      <trkpt lat="61.121081" lon="14.093463">
        <ele>216.727</ele>
        <time>1970-01-01T01:00:00Z</time>
      </trkpt>
      <trkpt lat="61.121076" lon="14.093246">
        <ele>216.636</ele>
        <time>1970-01-01T01:00:00Z</time>
      </trkpt>
      <trkpt lat="61.12102" lon="14.093065">
        <ele>216.545</ele>
        <time>1970-01-01T01:00:00Z</time>
      </trkpt>
      <trkpt lat="61.120951" lon="14.092909">
        <ele>216.455</ele>
        <time>1970-01-01T01:00:00Z</time>
      </trkpt>
      <trkpt lat="61.120886" lon="14.092754">
        <ele>216.364</ele>
        <time>1970-01-01T01:00:00Z</time>
      </trkpt>
      <trkpt lat="61.120797" lon="14.092583">
        <ele>216.273</ele>
        <time>1970-01-01T01:00:00Z</time>
      </trkpt>
      <trkpt lat="61.120707" lon="14.092372">
        <ele>216.182</ele>
        <time>1970-01-01T01:00:00Z</time>
      </trkpt>
      <trkpt lat="61.120628" lon="14.092184">
        <ele>216.091</ele>
        <time>1970-01-01T01:00:00Z</time>
      </trkpt>
      <trkpt lat="61.12056" lon="14.092012">
        <ele>216</ele>
        <time>1970-01-01T01:00:00Z</time>
      </trkpt>
      <trkpt lat="61.120489" lon="14.091867">
        <ele>216</ele>
        <time>1970-01-01T01:00:00Z</time>
      </trkpt>
      <trkpt lat="61.120381" lon="14.091799">
        <ele>216</ele>
        <time>1970-01-01T01:00:00Z</time>
      </trkpt>
      <trkpt lat="61.120278" lon="14.091829">
        <ele>216</ele>
        <time>1970-01-01T01:00:00Z</time>
      </trkpt>
      <trkpt lat="61.120178" lon="14.091887">
        <ele>216</ele>
        <time>1970-01-01T01:00:00Z</time>
      </trkpt>
      <trkpt lat="61.120089" lon="14.091915">
        <ele>216.091</ele>
        <time>1970-01-01T01:00:00Z</time>
      </trkpt>
      <trkpt lat="61.119975" lon="14.091941">
        <ele>216.182</ele>
        <time>1970-01-01T01:00:00Z</time>
      </trkpt>
      <trkpt lat="61.119873" lon="14.091844">
        <ele>216.273</ele>
        <time>1970-01-01T01:00:00Z</time>
      </trkpt>
      <trkpt lat="61.119796" lon="14.091702">
        <ele>216.364</ele>
        <time>1970-01-01T01:00:00Z</time>
      </trkpt>
      <trkpt lat="61.119683" lon="14.091625">
        <ele>216.636</ele>
        <time>1970-01-01T01:00:00Z</time>
      </trkpt>
      <trkpt lat="61.119588" lon="14.091604">
        <ele>216.909</ele>
        <time>1970-01-01T01:00:00Z</time>
      </trkpt>
      <trkpt lat="61.119492" lon="14.091536">
        <ele>217.182</ele>
        <time>1970-01-01T01:00:00Z</time>
      </trkpt>
      <trkpt lat="61.119412" lon="14.09144">
        <ele>217.455</ele>
        <time>1970-01-01T01:00:00Z</time>
      </trkpt>
      <trkpt lat="61.119334" lon="14.09129">
        <ele>217.818</ele>
        <time>1970-01-01T01:00:00Z</time>
      </trkpt>
      <trkpt lat="61.119299" lon="14.091082">
        <ele>218.182</ele>
        <time>1970-01-01T01:00:00Z</time>
      </trkpt>
      <trkpt lat="61.11929" lon="14.090894">
        <ele>218.545</ele>
        <time>1970-01-01T01:00:00Z</time>
      </trkpt>
      <trkpt lat="61.119304" lon="14.090682">
        <ele>218.818</ele>
        <time>1970-01-01T01:00:00Z</time>
      </trkpt>
      <trkpt lat="61.11933" lon="14.090502">
        <ele>219.091</ele>
        <time>1970-01-01T01:00:00Z</time>
      </trkpt>
      <trkpt lat="61.119367" lon="14.090322">
        <ele>219.364</ele>
        <time>1970-01-01T01:00:00Z</time>
      </trkpt>
      <trkpt lat="61.119415" lon="14.090129">
        <ele>219.545</ele>
        <time>1970-01-01T01:00:00Z</time>
      </trkpt>
      <trkpt lat="61.119445" lon="14.089922">
        <ele>219.545</ele>
        <time>1970-01-01T01:00:00Z</time>
      </trkpt>
      <trkpt lat="61.119479" lon="14.089707">
        <ele>219.636</ele>
        <time>1970-01-01T01:00:00Z</time>
      </trkpt>
      <trkpt lat="61.119519" lon="14.08949">
        <ele>219.727</ele>
        <time>1970-01-01T01:00:00Z</time>
      </trkpt>
      <trkpt lat="61.119568" lon="14.089331">
        <ele>219.818</ele>
        <time>1970-01-01T01:00:00Z</time>
      </trkpt>
      <trkpt lat="61.119635" lon="14.089149">
        <ele>219.818</ele>
        <time>1970-01-01T01:00:00Z</time>
      </trkpt>
      <trkpt lat="61.119674" lon="14.088978">
        <ele>219.818</ele>
        <time>1970-01-01T01:00:00Z</time>
      </trkpt>
      <trkpt lat="61.119723" lon="14.088792">
        <ele>219.818</ele>
        <time>1970-01-01T01:00:00Z</time>
      </trkpt>
      <trkpt lat="61.1198" lon="14.088648">
        <ele>219.909</ele>
        <time>1970-01-01T01:00:00Z</time>
      </trkpt>
      <trkpt lat="61.119876" lon="14.088522">
        <ele>220</ele>
        <time>1970-01-01T01:00:00Z</time>
      </trkpt>
      <trkpt lat="61.119947" lon="14.088404">
        <ele>220.091</ele>
        <time>1970-01-01T01:00:00Z</time>
      </trkpt>
      <trkpt lat="61.120018" lon="14.088277">
        <ele>220.273</ele>
        <time>1970-01-01T01:00:00Z</time>
      </trkpt>
      <trkpt lat="61.120086" lon="14.088109">
        <ele>220.545</ele>
        <time>1970-01-01T01:00:00Z</time>
      </trkpt>
      <trkpt lat="61.12017" lon="14.087941">
        <ele>220.727</ele>
        <time>1970-01-01T01:00:00Z</time>
      </trkpt>
      <trkpt lat="61.120258" lon="14.087804">
        <ele>221.091</ele>
        <time>1970-01-01T01:00:00Z</time>
      </trkpt>
      <trkpt lat="61.120331" lon="14.087678">
        <ele>221.455</ele>
        <time>1970-01-01T01:00:00Z</time>
      </trkpt>
      <trkpt lat="61.120405" lon="14.087555">
        <ele>221.818</ele>
        <time>1970-01-01T01:00:00Z</time>
      </trkpt>
      <trkpt lat="61.120478" lon="14.087397">
        <ele>222.182</ele>
        <time>1970-01-01T01:00:00Z</time>
      </trkpt>
      <trkpt lat="61.120549" lon="14.087196">
        <ele>222.545</ele>
        <time>1970-01-01T01:00:00Z</time>
      </trkpt>
      <trkpt lat="61.120608" lon="14.087038">
        <ele>222.909</ele>
        <time>1970-01-01T01:00:00Z</time>
      </trkpt>
      <trkpt lat="61.120681" lon="14.086847">
        <ele>223.273</ele>
        <time>1970-01-01T01:00:00Z</time>
      </trkpt>
      <trkpt lat="61.120757" lon="14.086665">
        <ele>223.636</ele>
        <time>1970-01-01T01:00:00Z</time>
      </trkpt>
      <trkpt lat="61.12082" lon="14.086506">
        <ele>224</ele>
        <time>1970-01-01T01:00:00Z</time>
      </trkpt>
      <trkpt lat="61.120872" lon="14.086329">
        <ele>224.455</ele>
        <time>1970-01-01T01:00:00Z</time>
      </trkpt>
      <trkpt lat="61.120914" lon="14.08612">
        <ele>224.909</ele>
        <time>1970-01-01T01:00:00Z</time>
      </trkpt>
      <trkpt lat="61.12095" lon="14.085922">
        <ele>225.182</ele>
        <time>1970-01-01T01:00:00Z</time>
      </trkpt>
      <trkpt lat="61.120992" lon="14.085739">
        <ele>225.636</ele>
        <time>1970-01-01T01:00:00Z</time>
      </trkpt>
      <trkpt lat="61.121033" lon="14.085536">
        <ele>226.091</ele>
        <time>1970-01-01T01:00:00Z</time>
      </trkpt>
      <trkpt lat="61.121056" lon="14.085299">
        <ele>226.545</ele>
        <time>1970-01-01T01:00:00Z</time>
      </trkpt>
      <trkpt lat="61.121048" lon="14.085064">
        <ele>227</ele>
        <time>1970-01-01T01:00:00Z</time>
      </trkpt>
      <trkpt lat="61.121044" lon="14.084871">
        <ele>227.364</ele>
        <time>1970-01-01T01:00:00Z</time>
      </trkpt>
      <trkpt lat="61.121018" lon="14.084648">
        <ele>227.909</ele>
        <time>1970-01-01T01:00:00Z</time>
      </trkpt>
      <trkpt lat="61.12103" lon="14.08446">
        <ele>228.455</ele>
        <time>1970-01-01T01:00:00Z</time>
      </trkpt>
      <trkpt lat="61.121055" lon="14.084261">
        <ele>229</ele>
        <time>1970-01-01T01:00:00Z</time>
      </trkpt>
      <trkpt lat="61.121077" lon="14.084069">
        <ele>229.364</ele>
        <time>1970-01-01T01:00:00Z</time>
      </trkpt>
      <trkpt lat="61.121054" lon="14.083882">
        <ele>229.818</ele>
        <time>1970-01-01T01:00:00Z</time>
      </trkpt>
      <trkpt lat="61.121055" lon="14.083685">
        <ele>230.273</ele>
        <time>1970-01-01T01:00:00Z</time>
      </trkpt>
      <trkpt lat="61.121087" lon="14.083482">
        <ele>230.545</ele>
        <time>1970-01-01T01:00:00Z</time>
      </trkpt>
      <trkpt lat="61.121115" lon="14.083298">
        <ele>230.818</ele>
        <time>1970-01-01T01:00:00Z</time>
      </trkpt>
      <trkpt lat="61.121136" lon="14.083081">
        <ele>231.273</ele>
        <time>1970-01-01T01:00:00Z</time>
      </trkpt>
      <trkpt lat="61.121142" lon="14.082894">
        <ele>231.727</ele>
        <time>1970-01-01T01:00:00Z</time>
      </trkpt>
      <trkpt lat="61.121123" lon="14.082702">
        <ele>232.182</ele>
        <time>1970-01-01T01:00:00Z</time>
      </trkpt>
      <trkpt lat="61.121097" lon="14.082482">
        <ele>232.455</ele>
        <time>1970-01-01T01:00:00Z</time>
      </trkpt>
      <trkpt lat="61.121073" lon="14.082277">
        <ele>232.727</ele>
        <time>1970-01-01T01:00:00Z</time>
      </trkpt>
      <trkpt lat="61.121046" lon="14.082067">
        <ele>233.182</ele>
        <time>1970-01-01T01:00:00Z</time>
      </trkpt>
      <trkpt lat="61.121054" lon="14.08186">
        <ele>233.636</ele>
        <time>1970-01-01T01:00:00Z</time>
      </trkpt>
      <trkpt lat="61.121091" lon="14.081657">
        <ele>233.818</ele>
        <time>1970-01-01T01:00:00Z</time>
      </trkpt>
      <trkpt lat="61.121131" lon="14.081452">
        <ele>234</ele>
        <time>1970-01-01T01:00:00Z</time>
      </trkpt>
      <trkpt lat="61.121166" lon="14.081271">
        <ele>234.273</ele>
        <time>1970-01-01T01:00:00Z</time>
      </trkpt>
      <trkpt lat="61.121212" lon="14.081101">
        <ele>234.545</ele>
        <time>1970-01-01T01:00:00Z</time>
      </trkpt>
      <trkpt lat="61.121253" lon="14.080878">
        <ele>234.636</ele>
        <time>1970-01-01T01:00:00Z</time>
      </trkpt>
      <trkpt lat="61.121279" lon="14.080679">
        <ele>234.727</ele>
        <time>1970-01-01T01:00:00Z</time>
      </trkpt>
      <trkpt lat="61.121319" lon="14.080508">
        <ele>234.818</ele>
        <time>1970-01-01T01:00:00Z</time>
      </trkpt>
      <trkpt lat="61.121353" lon="14.08031">
        <ele>235</ele>
        <time>1970-01-01T01:00:00Z</time>
      </trkpt>
      <trkpt lat="61.121396" lon="14.080132">
        <ele>235.182</ele>
        <time>1970-01-01T01:00:00Z</time>
      </trkpt>
      <trkpt lat="61.121456" lon="14.079988">
        <ele>235.182</ele>
        <time>1970-01-01T01:00:00Z</time>
      </trkpt>
      <trkpt lat="61.121508" lon="14.079829">
        <ele>235.182</ele>
        <time>1970-01-01T01:00:00Z</time>
      </trkpt>
      <trkpt lat="61.121553" lon="14.079637">
        <ele>235.364</ele>
        <time>1970-01-01T01:00:00Z</time>
      </trkpt>
      <trkpt lat="61.121605" lon="14.079442">
        <ele>235.545</ele>
        <time>1970-01-01T01:00:00Z</time>
      </trkpt>
      <trkpt lat="61.121651" lon="14.079238">
        <ele>235.636</ele>
        <time>1970-01-01T01:00:00Z</time>
      </trkpt>
      <trkpt lat="61.121661" lon="14.07902">
        <ele>235.727</ele>
        <time>1970-01-01T01:00:00Z</time>
      </trkpt>
      <trkpt lat="61.12164" lon="14.078814">
        <ele>235.818</ele>
        <time>1970-01-01T01:00:00Z</time>
      </trkpt>
      <trkpt lat="61.121682" lon="14.078613">
        <ele>235.909</ele>
        <time>1970-01-01T01:00:00Z</time>
      </trkpt>
      <trkpt lat="61.121762" lon="14.078461">
        <ele>236</ele>
        <time>1970-01-01T01:00:00Z</time>
      </trkpt>
      <trkpt lat="61.121819" lon="14.078284">
        <ele>236</ele>
        <time>1970-01-01T01:00:00Z</time>
      </trkpt>
      <trkpt lat="61.121867" lon="14.078111">
        <ele>236.091</ele>
        <time>1970-01-01T01:00:00Z</time>
      </trkpt>
      <trkpt lat="61.121918" lon="14.077937">
        <ele>236.182</ele>
        <time>1970-01-01T01:00:00Z</time>
      </trkpt>
      <trkpt lat="61.121962" lon="14.077748">
        <ele>236.273</ele>
        <time>1970-01-01T01:00:00Z</time>
      </trkpt>
      <trkpt lat="61.121986" lon="14.077542">
        <ele>236.364</ele>
        <time>1970-01-01T01:00:00Z</time>
      </trkpt>
      <trkpt lat="61.12201" lon="14.07734">
        <ele>236.455</ele>
        <time>1970-01-01T01:00:00Z</time>
      </trkpt>
      <trkpt lat="61.122036" lon="14.077141">
        <ele>236.545</ele>
        <time>1970-01-01T01:00:00Z</time>
      </trkpt>
      <trkpt lat="61.122023" lon="14.076922">
        <ele>236.636</ele>
        <time>1970-01-01T01:00:00Z</time>
      </trkpt>
      <trkpt lat="61.122008" lon="14.076707">
        <ele>236.545</ele>
        <time>1970-01-01T01:00:00Z</time>
      </trkpt>
      <trkpt lat="61.121988" lon="14.076505">
        <ele>236.455</ele>
        <time>1970-01-01T01:00:00Z</time>
      </trkpt>
      <trkpt lat="61.121994" lon="14.076282">
        <ele>236.455</ele>
        <time>1970-01-01T01:00:00Z</time>
      </trkpt>
      <trkpt lat="61.122033" lon="14.076087">
        <ele>236.455</ele>
        <time>1970-01-01T01:00:00Z</time>
      </trkpt>
      <trkpt lat="61.122074" lon="14.075896">
        <ele>236.364</ele>
        <time>1970-01-01T01:00:00Z</time>
      </trkpt>
      <trkpt lat="61.122116" lon="14.075709">
        <ele>236.273</ele>
        <time>1970-01-01T01:00:00Z</time>
      </trkpt>
      <trkpt lat="61.122163" lon="14.075519">
        <ele>236.273</ele>
        <time>1970-01-01T01:00:00Z</time>
      </trkpt>
      <trkpt lat="61.122174" lon="14.075328">
        <ele>236.273</ele>
        <time>1970-01-01T01:00:00Z</time>
      </trkpt>
      <trkpt lat="61.122194" lon="14.075133">
        <ele>236.273</ele>
        <time>1970-01-01T01:00:00Z</time>
      </trkpt>
      <trkpt lat="61.122235" lon="14.074963">
        <ele>236.273</ele>
        <time>1970-01-01T01:00:00Z</time>
      </trkpt>
      <trkpt lat="61.122291" lon="14.074797">
        <ele>236.273</ele>
        <time>1970-01-01T01:00:00Z</time>
      </trkpt>
      <trkpt lat="61.122338" lon="14.0746">
        <ele>236.455</ele>
        <time>1970-01-01T01:00:00Z</time>
      </trkpt>
      <trkpt lat="61.122384" lon="14.074422">
        <ele>236.636</ele>
        <time>1970-01-01T01:00:00Z</time>
      </trkpt>
      <trkpt lat="61.122402" lon="14.074208">
        <ele>236.727</ele>
        <time>1970-01-01T01:00:00Z</time>
      </trkpt>
      <trkpt lat="61.122428" lon="14.073998">
        <ele>236.818</ele>
        <time>1970-01-01T01:00:00Z</time>
      </trkpt>
      <trkpt lat="61.122431" lon="14.073804">
        <ele>237</ele>
        <time>1970-01-01T01:00:00Z</time>
      </trkpt>
      <trkpt lat="61.122446" lon="14.073592">
        <ele>237.182</ele>
        <time>1970-01-01T01:00:00Z</time>
      </trkpt>
      <trkpt lat="61.122483" lon="14.073412">
        <ele>237.273</ele>
        <time>1970-01-01T01:00:00Z</time>
      </trkpt>
      <trkpt lat="61.122539" lon="14.073238">
        <ele>237.364</ele>
        <time>1970-01-01T01:00:00Z</time>
      </trkpt>
      <trkpt lat="61.12262" lon="14.073112">
        <ele>237.455</ele>
        <time>1970-01-01T01:00:00Z</time>
      </trkpt>
      <trkpt lat="61.122723" lon="14.073001">
        <ele>237.636</ele>
        <time>1970-01-01T01:00:00Z</time>
      </trkpt>
      <trkpt lat="61.122822" lon="14.072934">
        <ele>237.818</ele>
        <time>1970-01-01T01:00:00Z</time>
      </trkpt>
      <trkpt lat="61.122882" lon="14.07277">
        <ele>238</ele>
        <time>1970-01-01T01:00:00Z</time>
      </trkpt>
      <trkpt lat="61.122911" lon="14.072541">
        <ele>238.182</ele>
        <time>1970-01-01T01:00:00Z</time>
      </trkpt>
      <trkpt lat="61.122935" lon="14.07235">
        <ele>238.364</ele>
        <time>1970-01-01T01:00:00Z</time>
      </trkpt>
      <trkpt lat="61.122964" lon="14.072172">
        <ele>238.545</ele>
        <time>1970-01-01T01:00:00Z</time>
      </trkpt>
      <trkpt lat="61.122971" lon="14.071977">
        <ele>238.727</ele>
        <time>1970-01-01T01:00:00Z</time>
      </trkpt>
      <trkpt lat="61.122975" lon="14.07174">
        <ele>238.909</ele>
        <time>1970-01-01T01:00:00Z</time>
      </trkpt>
      <trkpt lat="61.122946" lon="14.071561">
        <ele>239.091</ele>
        <time>1970-01-01T01:00:00Z</time>
      </trkpt>
      <trkpt lat="61.122846" lon="14.071515">
        <ele>239.273</ele>
        <time>1970-01-01T01:00:00Z</time>
      </trkpt>
      <trkpt lat="61.12276" lon="14.071422">
        <ele>239.455</ele>
        <time>1970-01-01T01:00:00Z</time>
      </trkpt>
      <trkpt lat="61.122719" lon="14.071256">
        <ele>239.545</ele>
        <time>1970-01-01T01:00:00Z</time>
      </trkpt>
      <trkpt lat="61.122697" lon="14.071056">
        <ele>239.636</ele>
        <time>1970-01-01T01:00:00Z</time>
      </trkpt>
      <trkpt lat="61.122715" lon="14.070853">
        <ele>239.727</ele>
        <time>1970-01-01T01:00:00Z</time>
      </trkpt>
      <trkpt lat="61.122759" lon="14.070685">
        <ele>239.818</ele>
        <time>1970-01-01T01:00:00Z</time>
      </trkpt>
      <trkpt lat="61.122826" lon="14.070505">
        <ele>240.091</ele>
        <time>1970-01-01T01:00:00Z</time>
      </trkpt>
      <trkpt lat="61.122854" lon="14.0703">
        <ele>240.364</ele>
        <time>1970-01-01T01:00:00Z</time>
      </trkpt>
      <trkpt lat="61.122869" lon="14.070114">
        <ele>240.545</ele>
        <time>1970-01-01T01:00:00Z</time>
      </trkpt>
      <trkpt lat="61.122895" lon="14.069921">
        <ele>240.727</ele>
        <time>1970-01-01T01:00:00Z</time>
      </trkpt>
      <trkpt lat="61.122886" lon="14.069717">
        <ele>240.545</ele>
        <time>1970-01-01T01:00:00Z</time>
      </trkpt>
      <trkpt lat="61.122899" lon="14.069517">
        <ele>240.364</ele>
        <time>1970-01-01T01:00:00Z</time>
      </trkpt>
      <trkpt lat="61.122911" lon="14.069322">
        <ele>240.182</ele>
        <time>1970-01-01T01:00:00Z</time>
      </trkpt>
      <trkpt lat="61.122935" lon="14.069104">
        <ele>240</ele>
        <time>1970-01-01T01:00:00Z</time>
      </trkpt>
      <trkpt lat="61.12297" lon="14.068913">
        <ele>239.818</ele>
        <time>1970-01-01T01:00:00Z</time>
      </trkpt>
      <trkpt lat="61.123029" lon="14.068751">
        <ele>239.727</ele>
        <time>1970-01-01T01:00:00Z</time>
      </trkpt>
      <trkpt lat="61.123095" lon="14.068602">
        <ele>239.636</ele>
        <time>1970-01-01T01:00:00Z</time>
      </trkpt>
      <trkpt lat="61.123169" lon="14.068456">
        <ele>239.364</ele>
        <time>1970-01-01T01:00:00Z</time>
      </trkpt>
      <trkpt lat="61.123232" lon="14.068303">
        <ele>239.091</ele>
        <time>1970-01-01T01:00:00Z</time>
      </trkpt>
      <trkpt lat="61.123254" lon="14.06809">
        <ele>238.818</ele>
        <time>1970-01-01T01:00:00Z</time>
      </trkpt>
      <trkpt lat="61.123243" lon="14.067878">
        <ele>238.545</ele>
        <time>1970-01-01T01:00:00Z</time>
      </trkpt>
      <trkpt lat="61.123244" lon="14.067658">
        <ele>238.636</ele>
        <time>1970-01-01T01:00:00Z</time>
      </trkpt>
      <trkpt lat="61.123242" lon="14.067401">
        <ele>238.727</ele>
        <time>1970-01-01T01:00:00Z</time>
      </trkpt>
      <trkpt lat="61.123227" lon="14.067154">
        <ele>238.818</ele>
        <time>1970-01-01T01:00:00Z</time>
      </trkpt>
      <trkpt lat="61.123182" lon="14.066866">
        <ele>239.182</ele>
        <time>1970-01-01T01:00:00Z</time>
      </trkpt>
      <trkpt lat="61.123154" lon="14.066623">
        <ele>239.545</ele>
        <time>1970-01-01T01:00:00Z</time>
      </trkpt>
      <trkpt lat="61.123132" lon="14.066382">
        <ele>239.818</ele>
        <time>1970-01-01T01:00:00Z</time>
      </trkpt>
      <trkpt lat="61.123053" lon="14.066066">
        <ele>240.091</ele>
        <time>1970-01-01T01:00:00Z</time>
      </trkpt>
      <trkpt lat="61.123" lon="14.065798">
        <ele>240.091</ele>
        <time>1970-01-01T01:00:00Z</time>
      </trkpt>
      <trkpt lat="61.12294" lon="14.065621">
        <ele>240.091</ele>
        <time>1970-01-01T01:00:00Z</time>
      </trkpt>
      <trkpt lat="61.122926" lon="14.065429">
        <ele>240.091</ele>
        <time>1970-01-01T01:00:00Z</time>
      </trkpt>
      <trkpt lat="61.12291" lon="14.065209">
        <ele>240.091</ele>
        <time>1970-01-01T01:00:00Z</time>
      </trkpt>
      <trkpt lat="61.122956" lon="14.064977">
        <ele>240.091</ele>
        <time>1970-01-01T01:00:00Z</time>
      </trkpt>
      <trkpt lat="61.122995" lon="14.064796">
        <ele>240.091</ele>
        <time>1970-01-01T01:00:00Z</time>
      </trkpt>
      <trkpt lat="61.123028" lon="14.064588">
        <ele>240.091</ele>
        <time>1970-01-01T01:00:00Z</time>
      </trkpt>
      <trkpt lat="61.123079" lon="14.064368">
        <ele>239.818</ele>
        <time>1970-01-01T01:00:00Z</time>
      </trkpt>
      <trkpt lat="61.123101" lon="14.064184">
        <ele>239.545</ele>
        <time>1970-01-01T01:00:00Z</time>
      </trkpt>
      <trkpt lat="61.123132" lon="14.063987">
        <ele>239.727</ele>
        <time>1970-01-01T01:00:00Z</time>
      </trkpt>
      <trkpt lat="61.123154" lon="14.063776">
        <ele>239.909</ele>
        <time>1970-01-01T01:00:00Z</time>
      </trkpt>
      <trkpt lat="61.123176" lon="14.063567">
        <ele>240.364</ele>
        <time>1970-01-01T01:00:00Z</time>
      </trkpt>
      <trkpt lat="61.123199" lon="14.063368">
        <ele>240.818</ele>
        <time>1970-01-01T01:00:00Z</time>
      </trkpt>
      <trkpt lat="61.123215" lon="14.06318">
        <ele>242.182</ele>
        <time>1970-01-01T01:00:00Z</time>
      </trkpt>
      <trkpt lat="61.123223" lon="14.062992">
        <ele>243.545</ele>
        <time>1970-01-01T01:00:00Z</time>
      </trkpt>
      <trkpt lat="61.123231" lon="14.06279">
        <ele>244.909</ele>
        <time>1970-01-01T01:00:00Z</time>
      </trkpt>
      <trkpt lat="61.123259" lon="14.062574">
        <ele>246.273</ele>
        <time>1970-01-01T01:00:00Z</time>
      </trkpt>
      <trkpt lat="61.123278" lon="14.062384">
        <ele>247.636</ele>
        <time>1970-01-01T01:00:00Z</time>
      </trkpt>
      <trkpt lat="61.123313" lon="14.06218">
        <ele>249.364</ele>
        <time>1970-01-01T01:00:00Z</time>
      </trkpt>
      <trkpt lat="61.123337" lon="14.061979">
        <ele>251.091</ele>
        <time>1970-01-01T01:00:00Z</time>
      </trkpt>
      <trkpt lat="61.123341" lon="14.061776">
        <ele>252.364</ele>
        <time>1970-01-01T01:00:00Z</time>
      </trkpt>
      <trkpt lat="61.123331" lon="14.061565">
        <ele>253.636</ele>
        <time>1970-01-01T01:00:00Z</time>
      </trkpt>
      <trkpt lat="61.123332" lon="14.061343">
        <ele>255.182</ele>
        <time>1970-01-01T01:00:00Z</time>
      </trkpt>
      <trkpt lat="61.12332" lon="14.061151">
        <ele>256.727</ele>
        <time>1970-01-01T01:00:00Z</time>
      </trkpt>
      <trkpt lat="61.123297" lon="14.060927">
        <ele>257.364</ele>
        <time>1970-01-01T01:00:00Z</time>
      </trkpt>
      <trkpt lat="61.123253" lon="14.060718">
        <ele>257.273</ele>
        <time>1970-01-01T01:00:00Z</time>
      </trkpt>
      <trkpt lat="61.123199" lon="14.060514">
        <ele>257.182</ele>
        <time>1970-01-01T01:00:00Z</time>
      </trkpt>
      <trkpt lat="61.123152" lon="14.060314">
        <ele>257.091</ele>
        <time>1970-01-01T01:00:00Z</time>
      </trkpt>
      <trkpt lat="61.123098" lon="14.060163">
        <ele>257</ele>
        <time>1970-01-01T01:00:00Z</time>
      </trkpt>
      <trkpt lat="61.123033" lon="14.059993">
        <ele>256.545</ele>
        <time>1970-01-01T01:00:00Z</time>
      </trkpt>
      <trkpt lat="61.122964" lon="14.05986">
        <ele>256.091</ele>
        <time>1970-01-01T01:00:00Z</time>
      </trkpt>
      <trkpt lat="61.122864" lon="14.059908">
        <ele>255.636</ele>
        <time>1970-01-01T01:00:00Z</time>
      </trkpt>
      <trkpt lat="61.122764" lon="14.059988">
        <ele>255.182</ele>
        <time>1970-01-01T01:00:00Z</time>
      </trkpt>
      <trkpt lat="61.122663" lon="14.060028">
        <ele>254.091</ele>
        <time>1970-01-01T01:00:00Z</time>
      </trkpt>
      <trkpt lat="61.122571" lon="14.060042">
        <ele>253</ele>
        <time>1970-01-01T01:00:00Z</time>
      </trkpt>
      <trkpt lat="61.122456" lon="14.060153">
        <ele>251.909</ele>
        <time>1970-01-01T01:00:00Z</time>
      </trkpt>
      <trkpt lat="61.122386" lon="14.060292">
        <ele>251.636</ele>
        <time>1970-01-01T01:00:00Z</time>
      </trkpt>
      <trkpt lat="61.122326" lon="14.060431">
        <ele>251.364</ele>
        <time>1970-01-01T01:00:00Z</time>
      </trkpt>
      <trkpt lat="61.122248" lon="14.06057">
        <ele>251.091</ele>
        <time>1970-01-01T01:00:00Z</time>
      </trkpt>
      <trkpt lat="61.122174" lon="14.060699">
        <ele>250.818</ele>
        <time>1970-01-01T01:00:00Z</time>
      </trkpt>
      <trkpt lat="61.122103" lon="14.060883">
        <ele>250.545</ele>
        <time>1970-01-01T01:00:00Z</time>
      </trkpt>
      <trkpt lat="61.122043" lon="14.061029">
        <ele>250.273</ele>
        <time>1970-01-01T01:00:00Z</time>
      </trkpt>
      <trkpt lat="61.121977" lon="14.061173">
        <ele>250</ele>
        <time>1970-01-01T01:00:00Z</time>
      </trkpt>
      <trkpt lat="61.121918" lon="14.06136">
        <ele>249.727</ele>
        <time>1970-01-01T01:00:00Z</time>
      </trkpt>
      <trkpt lat="61.121848" lon="14.061527">
        <ele>249.818</ele>
        <time>1970-01-01T01:00:00Z</time>
      </trkpt>
      <trkpt lat="61.121755" lon="14.0616">
        <ele>249.9</ele>
        <time>1970-01-01T01:00:00Z</time>
      </trkpt>
      <trkpt lat="61.121662" lon="14.06167">
        <ele>250</ele>
        <time>1970-01-01T01:00:00Z</time>
      </trkpt>
      <trkpt lat="61.121555" lon="14.061719">
        <ele>250</ele>
        <time>1970-01-01T01:00:00Z</time>
      </trkpt>
      <trkpt lat="61.121447" lon="14.061768">
        <ele>250</ele>
        <time>1970-01-01T01:00:00Z</time>
      </trkpt>
      <trkpt lat="61.121368" lon="14.061739">
        <ele>250</ele>
        <time>1970-01-01T01:00:00Z</time>
      </trkpt>
      <trkpt lat="61.121286" lon="14.061771">
        <ele>250</ele>
        <time>1970-01-01T01:00:00Z</time>
      </trkpt>
      <trkpt lat="61.121276" lon="14.061773">
        <ele>250</ele>
        <time>1970-01-01T01:00:00Z</time>
      </trkpt>
      <trkpt lat="61.121195" lon="14.061771">
        <ele>256</ele>
        <time>1970-01-01T01:00:00Z</time>
      </trkpt>
      <trkpt lat="61.121154" lon="14.061713">
        <ele>256</ele>
        <time>1970-01-01T01:00:00Z</time>
      </trkpt>
      <trkpt lat="61.12109" lon="14.061576">
        <ele>256</ele>
        <time>1970-01-01T01:00:00Z</time>
      </trkpt>
      <trkpt lat="61.121009" lon="14.061449">
        <ele>256</ele>
        <time>1970-01-01T01:00:00Z</time>
      </trkpt>
      <trkpt lat="61.120924" lon="14.061337">
        <ele>256.5</ele>
        <time>1970-01-01T01:00:00Z</time>
      </trkpt>
      <trkpt lat="61.12083" lon="14.061288">
        <ele>256.909</ele>
        <time>1970-01-01T01:00:00Z</time>
      </trkpt>
      <trkpt lat="61.120724" lon="14.061286">
        <ele>257.364</ele>
        <time>1970-01-01T01:00:00Z</time>
      </trkpt>
      <trkpt lat="61.120632" lon="14.061285">
        <ele>257.818</ele>
        <time>1970-01-01T01:00:00Z</time>
      </trkpt>
      <trkpt lat="61.120532" lon="14.06126">
        <ele>258.273</ele>
        <time>1970-01-01T01:00:00Z</time>
      </trkpt>
      <trkpt lat="61.120443" lon="14.061222">
        <ele>258.727</ele>
        <time>1970-01-01T01:00:00Z</time>
      </trkpt>
      <trkpt lat="61.12034" lon="14.061183">
        <ele>259.182</ele>
        <time>1970-01-01T01:00:00Z</time>
      </trkpt>
      <trkpt lat="61.120247" lon="14.061166">
        <ele>259.636</ele>
        <time>1970-01-01T01:00:00Z</time>
      </trkpt>
      <trkpt lat="61.120155" lon="14.061147">
        <ele>260.091</ele>
        <time>1970-01-01T01:00:00Z</time>
      </trkpt>
      <trkpt lat="61.120053" lon="14.061131">
        <ele>261</ele>
        <time>1970-01-01T01:00:00Z</time>
      </trkpt>
      <trkpt lat="61.119953" lon="14.061151">
        <ele>261.909</ele>
        <time>1970-01-01T01:00:00Z</time>
      </trkpt>
      <trkpt lat="61.119866" lon="14.061198">
        <ele>262.364</ele>
        <time>1970-01-01T01:00:00Z</time>
      </trkpt>
      <trkpt lat="61.119775" lon="14.061244">
        <ele>262.818</ele>
        <time>1970-01-01T01:00:00Z</time>
      </trkpt>
      <trkpt lat="61.119682" lon="14.061268">
        <ele>263.273</ele>
        <time>1970-01-01T01:00:00Z</time>
      </trkpt>
      <trkpt lat="61.119584" lon="14.061299">
        <ele>263.727</ele>
        <time>1970-01-01T01:00:00Z</time>
      </trkpt>
      <trkpt lat="61.119485" lon="14.061342">
        <ele>264.182</ele>
        <time>1970-01-01T01:00:00Z</time>
      </trkpt>
      <trkpt lat="61.119387" lon="14.061403">
        <ele>264.636</ele>
        <time>1970-01-01T01:00:00Z</time>
      </trkpt>
      <trkpt lat="61.119284" lon="14.061514">
        <ele>265.091</ele>
        <time>1970-01-01T01:00:00Z</time>
      </trkpt>
      <trkpt lat="61.11919" lon="14.061594">
        <ele>266</ele>
        <time>1970-01-01T01:00:00Z</time>
      </trkpt>
      <trkpt lat="61.119097" lon="14.061666">
        <ele>266.909</ele>
        <time>1970-01-01T01:00:00Z</time>
      </trkpt>
      <trkpt lat="61.119003" lon="14.06177">
        <ele>267.364</ele>
        <time>1970-01-01T01:00:00Z</time>
      </trkpt>
      <trkpt lat="61.118916" lon="14.061847">
        <ele>267.818</ele>
        <time>1970-01-01T01:00:00Z</time>
      </trkpt>
      <trkpt lat="61.118819" lon="14.061878">
        <ele>268.273</ele>
        <time>1970-01-01T01:00:00Z</time>
      </trkpt>
      <trkpt lat="61.118733" lon="14.061951">
        <ele>268.727</ele>
        <time>1970-01-01T01:00:00Z</time>
      </trkpt>
      <trkpt lat="61.11865" lon="14.062024">
        <ele>269.182</ele>
        <time>1970-01-01T01:00:00Z</time>
      </trkpt>
      <trkpt lat="61.118558" lon="14.06215">
        <ele>269.636</ele>
        <time>1970-01-01T01:00:00Z</time>
      </trkpt>
      <trkpt lat="61.118477" lon="14.062237">
        <ele>270.091</ele>
        <time>1970-01-01T01:00:00Z</time>
      </trkpt>
      <trkpt lat="61.118396" lon="14.06235">
        <ele>271.091</ele>
        <time>1970-01-01T01:00:00Z</time>
      </trkpt>
      <trkpt lat="61.118306" lon="14.062467">
        <ele>272.091</ele>
        <time>1970-01-01T01:00:00Z</time>
      </trkpt>
      <trkpt lat="61.118219" lon="14.062621">
        <ele>272.636</ele>
        <time>1970-01-01T01:00:00Z</time>
      </trkpt>
      <trkpt lat="61.118132" lon="14.062751">
        <ele>273.182</ele>
        <time>1970-01-01T01:00:00Z</time>
      </trkpt>
      <trkpt lat="61.118062" lon="14.062872">
        <ele>273.727</ele>
        <time>1970-01-01T01:00:00Z</time>
      </trkpt>
      <trkpt lat="61.117977" lon="14.063017">
        <ele>274.273</ele>
        <time>1970-01-01T01:00:00Z</time>
      </trkpt>
      <trkpt lat="61.117898" lon="14.063181">
        <ele>274.818</ele>
        <time>1970-01-01T01:00:00Z</time>
      </trkpt>
      <trkpt lat="61.117847" lon="14.063345">
        <ele>275.364</ele>
        <time>1970-01-01T01:00:00Z</time>
      </trkpt>
      <trkpt lat="61.117803" lon="14.063538">
        <ele>275.909</ele>
        <time>1970-01-01T01:00:00Z</time>
      </trkpt>
      <trkpt lat="61.117776" lon="14.063752">
        <ele>276.455</ele>
        <time>1970-01-01T01:00:00Z</time>
      </trkpt>
      <trkpt lat="61.117754" lon="14.063973">
        <ele>277</ele>
        <time>1970-01-01T01:00:00Z</time>
      </trkpt>
      <trkpt lat="61.117761" lon="14.06418">
        <ele>277</ele>
        <time>1970-01-01T01:00:00Z</time>
      </trkpt>
      <trkpt lat="61.117774" lon="14.064406">
        <ele>277</ele>
        <time>1970-01-01T01:00:00Z</time>
      </trkpt>
      <trkpt lat="61.117758" lon="14.064593">
        <ele>277</ele>
        <time>1970-01-01T01:00:00Z</time>
      </trkpt>
      <trkpt lat="61.117735" lon="14.06478">
        <ele>277</ele>
        <time>1970-01-01T01:00:00Z</time>
      </trkpt>
      <trkpt lat="61.117714" lon="14.064979">
        <ele>277</ele>
        <time>1970-01-01T01:00:00Z</time>
      </trkpt>
      <trkpt lat="61.117726" lon="14.065201">
        <ele>277</ele>
        <time>1970-01-01T01:00:00Z</time>
      </trkpt>
      <trkpt lat="61.117717" lon="14.0654">
        <ele>277</ele>
        <time>1970-01-01T01:00:00Z</time>
      </trkpt>
      <trkpt lat="61.117723" lon="14.065628">
        <ele>277</ele>
        <time>1970-01-01T01:00:00Z</time>
      </trkpt>
      <trkpt lat="61.117728" lon="14.065817">
        <ele>277</ele>
        <time>1970-01-01T01:00:00Z</time>
      </trkpt>
      <trkpt lat="61.117718" lon="14.066004">
        <ele>277</ele>
        <time>1970-01-01T01:00:00Z</time>
      </trkpt>
      <trkpt lat="61.117683" lon="14.066225">
        <ele>277</ele>
        <time>1970-01-01T01:00:00Z</time>
      </trkpt>
      <trkpt lat="61.11764" lon="14.066417">
        <ele>277</ele>
        <time>1970-01-01T01:00:00Z</time>
      </trkpt>
      <trkpt lat="61.117619" lon="14.06662">
        <ele>277</ele>
        <time>1970-01-01T01:00:00Z</time>
      </trkpt>
      <trkpt lat="61.117627" lon="14.06681">
        <ele>277</ele>
        <time>1970-01-01T01:00:00Z</time>
      </trkpt>
      <trkpt lat="61.117644" lon="14.067017">
        <ele>276.545</ele>
        <time>1970-01-01T01:00:00Z</time>
      </trkpt>
      <trkpt lat="61.117692" lon="14.067184">
        <ele>276.091</ele>
        <time>1970-01-01T01:00:00Z</time>
      </trkpt>
      <trkpt lat="61.117792" lon="14.067388">
        <ele>275.636</ele>
        <time>1970-01-01T01:00:00Z</time>
      </trkpt>
      <trkpt lat="61.117877" lon="14.067501">
        <ele>275.182</ele>
        <time>1970-01-01T01:00:00Z</time>
      </trkpt>
      <trkpt lat="61.117972" lon="14.067637">
        <ele>274.727</ele>
        <time>1970-01-01T01:00:00Z</time>
      </trkpt>
      <trkpt lat="61.118038" lon="14.06777">
        <ele>274.273</ele>
        <time>1970-01-01T01:00:00Z</time>
      </trkpt>
      <trkpt lat="61.118084" lon="14.067959">
        <ele>273.636</ele>
        <time>1970-01-01T01:00:00Z</time>
      </trkpt>
      <trkpt lat="61.118126" lon="14.068126">
        <ele>273</ele>
        <time>1970-01-01T01:00:00Z</time>
      </trkpt>
      <trkpt lat="61.118175" lon="14.068339">
        <ele>272.364</ele>
        <time>1970-01-01T01:00:00Z</time>
      </trkpt>
      <trkpt lat="61.1182" lon="14.068525">
        <ele>271.727</ele>
        <time>1970-01-01T01:00:00Z</time>
      </trkpt>
      <trkpt lat="61.118215" lon="14.068737">
        <ele>271</ele>
        <time>1970-01-01T01:00:00Z</time>
      </trkpt>
      <trkpt lat="61.118229" lon="14.068936">
        <ele>270.727</ele>
        <time>1970-01-01T01:00:00Z</time>
      </trkpt>
      <trkpt lat="61.118242" lon="14.069131">
        <ele>270.455</ele>
        <time>1970-01-01T01:00:00Z</time>
      </trkpt>
      <trkpt lat="61.118246" lon="14.069352">
        <ele>270.182</ele>
        <time>1970-01-01T01:00:00Z</time>
      </trkpt>
      <trkpt lat="61.118259" lon="14.069582">
        <ele>269.727</ele>
        <time>1970-01-01T01:00:00Z</time>
      </trkpt>
      <trkpt lat="61.118265" lon="14.069798">
        <ele>269.273</ele>
        <time>1970-01-01T01:00:00Z</time>
      </trkpt>
      <trkpt lat="61.118242" lon="14.069985">
        <ele>268.818</ele>
        <time>1970-01-01T01:00:00Z</time>
      </trkpt>
      <trkpt lat="61.118207" lon="14.070162">
        <ele>268.545</ele>
        <time>1970-01-01T01:00:00Z</time>
      </trkpt>
      <trkpt lat="61.11816" lon="14.070359">
        <ele>268.727</ele>
        <time>1970-01-01T01:00:00Z</time>
      </trkpt>
      <trkpt lat="61.11813" lon="14.070543">
        <ele>268.909</ele>
        <time>1970-01-01T01:00:00Z</time>
      </trkpt>
      <trkpt lat="61.118091" lon="14.070733">
        <ele>268.818</ele>
        <time>1970-01-01T01:00:00Z</time>
      </trkpt>
      <trkpt lat="61.118062" lon="14.070933">
        <ele>268.818</ele>
        <time>1970-01-01T01:00:00Z</time>
      </trkpt>
      <trkpt lat="61.118004" lon="14.071089">
        <ele>268.818</ele>
        <time>1970-01-01T01:00:00Z</time>
      </trkpt>
      <trkpt lat="61.117914" lon="14.071143">
        <ele>268.818</ele>
        <time>1970-01-01T01:00:00Z</time>
      </trkpt>
      <trkpt lat="61.117819" lon="14.071217">
        <ele>268.818</ele>
        <time>1970-01-01T01:00:00Z</time>
      </trkpt>
      <trkpt lat="61.117731" lon="14.071322">
        <ele>269</ele>
        <time>1970-01-01T01:00:00Z</time>
      </trkpt>
      <trkpt lat="61.117641" lon="14.071384">
        <ele>269.182</ele>
        <time>1970-01-01T01:00:00Z</time>
      </trkpt>
      <trkpt lat="61.117551" lon="14.071479">
        <ele>269.364</ele>
        <time>1970-01-01T01:00:00Z</time>
      </trkpt>
      <trkpt lat="61.117473" lon="14.071633">
        <ele>269.818</ele>
        <time>1970-01-01T01:00:00Z</time>
      </trkpt>
      <trkpt lat="61.117387" lon="14.071792">
        <ele>269.818</ele>
        <time>1970-01-01T01:00:00Z</time>
      </trkpt>
      <trkpt lat="61.1173" lon="14.071907">
        <ele>269.818</ele>
        <time>1970-01-01T01:00:00Z</time>
      </trkpt>
      <trkpt lat="61.117227" lon="14.072028">
        <ele>270.091</ele>
        <time>1970-01-01T01:00:00Z</time>
      </trkpt>
      <trkpt lat="61.117134" lon="14.072155">
        <ele>270</ele>
        <time>1970-01-01T01:00:00Z</time>
      </trkpt>
      <trkpt lat="61.117038" lon="14.072339">
        <ele>269.909</ele>
        <time>1970-01-01T01:00:00Z</time>
      </trkpt>
      <trkpt lat="61.116949" lon="14.072527">
        <ele>269.818</ele>
        <time>1970-01-01T01:00:00Z</time>
      </trkpt>
      <trkpt lat="61.11687" lon="14.072761">
        <ele>269.727</ele>
        <time>1970-01-01T01:00:00Z</time>
      </trkpt>
      <trkpt lat="61.116822" lon="14.072932">
        <ele>269.273</ele>
        <time>1970-01-01T01:00:00Z</time>
      </trkpt>
      <trkpt lat="61.116773" lon="14.07311">
        <ele>268.818</ele>
        <time>1970-01-01T01:00:00Z</time>
      </trkpt>
      <trkpt lat="61.116735" lon="14.073305">
        <ele>268.364</ele>
        <time>1970-01-01T01:00:00Z</time>
      </trkpt>
      <trkpt lat="61.116697" lon="14.073523">
        <ele>267.636</ele>
        <time>1970-01-01T01:00:00Z</time>
      </trkpt>
      <trkpt lat="61.116703" lon="14.073782">
        <ele>266.727</ele>
        <time>1970-01-01T01:00:00Z</time>
      </trkpt>
      <trkpt lat="61.116684" lon="14.074">
        <ele>265.818</ele>
        <time>1970-01-01T01:00:00Z</time>
      </trkpt>
      <trkpt lat="61.116676" lon="14.0742">
        <ele>264.909</ele>
        <time>1970-01-01T01:00:00Z</time>
      </trkpt>
      <trkpt lat="61.116689" lon="14.074401">
        <ele>264.364</ele>
        <time>1970-01-01T01:00:00Z</time>
      </trkpt>
      <trkpt lat="61.116694" lon="14.074592">
        <ele>263.636</ele>
        <time>1970-01-01T01:00:00Z</time>
      </trkpt>
      <trkpt lat="61.116666" lon="14.074811">
        <ele>262.909</ele>
        <time>1970-01-01T01:00:00Z</time>
      </trkpt>
      <trkpt lat="61.116664" lon="14.075035">
        <ele>262.182</ele>
        <time>1970-01-01T01:00:00Z</time>
      </trkpt>
      <trkpt lat="61.116691" lon="14.075231">
        <ele>261.818</ele>
        <time>1970-01-01T01:00:00Z</time>
      </trkpt>
      <trkpt lat="61.116722" lon="14.075407">
        <ele>261.364</ele>
        <time>1970-01-01T01:00:00Z</time>
      </trkpt>
      <trkpt lat="61.116777" lon="14.075615">
        <ele>260.909</ele>
        <time>1970-01-01T01:00:00Z</time>
      </trkpt>
      <trkpt lat="61.116789" lon="14.075803">
        <ele>260.455</ele>
        <time>1970-01-01T01:00:00Z</time>
      </trkpt>
      <trkpt lat="61.116786" lon="14.075995">
        <ele>260.182</ele>
        <time>1970-01-01T01:00:00Z</time>
      </trkpt>
      <trkpt lat="61.11678" lon="14.076183">
        <ele>259.727</ele>
        <time>1970-01-01T01:00:00Z</time>
      </trkpt>
      <trkpt lat="61.116764" lon="14.07637">
        <ele>259.273</ele>
        <time>1970-01-01T01:00:00Z</time>
      </trkpt>
      <trkpt lat="61.116746" lon="14.076555">
        <ele>258.818</ele>
        <time>1970-01-01T01:00:00Z</time>
      </trkpt>
      <trkpt lat="61.11673" lon="14.076748">
        <ele>258.545</ele>
        <time>1970-01-01T01:00:00Z</time>
      </trkpt>
      <trkpt lat="61.116705" lon="14.076941">
        <ele>258.182</ele>
        <time>1970-01-01T01:00:00Z</time>
      </trkpt>
      <trkpt lat="61.11669" lon="14.077235">
        <ele>257.818</ele>
        <time>1970-01-01T01:00:00Z</time>
      </trkpt>
      <trkpt lat="61.116699" lon="14.077426">
        <ele>257.455</ele>
        <time>1970-01-01T01:00:00Z</time>
      </trkpt>
      <trkpt lat="61.116663" lon="14.077611">
        <ele>257.182</ele>
        <time>1970-01-01T01:00:00Z</time>
      </trkpt>
      <trkpt lat="61.116632" lon="14.077788">
        <ele>256.727</ele>
        <time>1970-01-01T01:00:00Z</time>
      </trkpt>
      <trkpt lat="61.116612" lon="14.077986">
        <ele>256.273</ele>
        <time>1970-01-01T01:00:00Z</time>
      </trkpt>
      <trkpt lat="61.11659" lon="14.078199">
        <ele>255.818</ele>
        <time>1970-01-01T01:00:00Z</time>
      </trkpt>
      <trkpt lat="61.116575" lon="14.078437">
        <ele>255.545</ele>
        <time>1970-01-01T01:00:00Z</time>
      </trkpt>
      <trkpt lat="61.116538" lon="14.078659">
        <ele>255.182</ele>
        <time>1970-01-01T01:00:00Z</time>
      </trkpt>
      <trkpt lat="61.116515" lon="14.078896">
        <ele>255.091</ele>
        <time>1970-01-01T01:00:00Z</time>
      </trkpt>
      <trkpt lat="61.116481" lon="14.079124">
        <ele>255</ele>
        <time>1970-01-01T01:00:00Z</time>
      </trkpt>
      <trkpt lat="61.116445" lon="14.079308">
        <ele>255</ele>
        <time>1970-01-01T01:00:00Z</time>
      </trkpt>
      <trkpt lat="61.116376" lon="14.079494">
        <ele>255</ele>
        <time>1970-01-01T01:00:00Z</time>
      </trkpt>
      <trkpt lat="61.116307" lon="14.079694">
        <ele>255</ele>
        <time>1970-01-01T01:00:00Z</time>
      </trkpt>
      <trkpt lat="61.116248" lon="14.07984">
        <ele>255</ele>
        <time>1970-01-01T01:00:00Z</time>
      </trkpt>
      <trkpt lat="61.11619" lon="14.080034">
        <ele>255.182</ele>
        <time>1970-01-01T01:00:00Z</time>
      </trkpt>
      <trkpt lat="61.11612" lon="14.080211">
        <ele>255.364</ele>
        <time>1970-01-01T01:00:00Z</time>
      </trkpt>
      <trkpt lat="61.116044" lon="14.080335">
        <ele>255.545</ele>
        <time>1970-01-01T01:00:00Z</time>
      </trkpt>
      <trkpt lat="61.115947" lon="14.080427">
        <ele>255.818</ele>
        <time>1970-01-01T01:00:00Z</time>
      </trkpt>
      <trkpt lat="61.115829" lon="14.080549">
        <ele>256.182</ele>
        <time>1970-01-01T01:00:00Z</time>
      </trkpt>
      <trkpt lat="61.115738" lon="14.080608">
        <ele>256.273</ele>
        <time>1970-01-01T01:00:00Z</time>
      </trkpt>
      <trkpt lat="61.115647" lon="14.080653">
        <ele>256.364</ele>
        <time>1970-01-01T01:00:00Z</time>
      </trkpt>
      <trkpt lat="61.115547" lon="14.080725">
        <ele>256.545</ele>
        <time>1970-01-01T01:00:00Z</time>
      </trkpt>
      <trkpt lat="61.115436" lon="14.080843">
        <ele>256.727</ele>
        <time>1970-01-01T01:00:00Z</time>
      </trkpt>
      <trkpt lat="61.115357" lon="14.080945">
        <ele>256.909</ele>
        <time>1970-01-01T01:00:00Z</time>
      </trkpt>
      <trkpt lat="61.11528" lon="14.081054">
        <ele>257.091</ele>
        <time>1970-01-01T01:00:00Z</time>
      </trkpt>
      <trkpt lat="61.115183" lon="14.081223">
        <ele>257.273</ele>
        <time>1970-01-01T01:00:00Z</time>
      </trkpt>
      <trkpt lat="61.115108" lon="14.081341">
        <ele>257.455</ele>
        <time>1970-01-01T01:00:00Z</time>
      </trkpt>
      <trkpt lat="61.115021" lon="14.081483">
        <ele>257.455</ele>
        <time>1970-01-01T01:00:00Z</time>
      </trkpt>
      <trkpt lat="61.11494" lon="14.081631">
        <ele>257.455</ele>
        <time>1970-01-01T01:00:00Z</time>
      </trkpt>
      <trkpt lat="61.114846" lon="14.081767">
        <ele>257.455</ele>
        <time>1970-01-01T01:00:00Z</time>
      </trkpt>
      <trkpt lat="61.114747" lon="14.081888">
        <ele>257.455</ele>
        <time>1970-01-01T01:00:00Z</time>
      </trkpt>
      <trkpt lat="61.114676" lon="14.082006">
        <ele>257.455</ele>
        <time>1970-01-01T01:00:00Z</time>
      </trkpt>
      <trkpt lat="61.114591" lon="14.082149">
        <ele>257.364</ele>
        <time>1970-01-01T01:00:00Z</time>
      </trkpt>
      <trkpt lat="61.114513" lon="14.082319">
        <ele>257.364</ele>
        <time>1970-01-01T01:00:00Z</time>
      </trkpt>
      <trkpt lat="61.114451" lon="14.082488">
        <ele>257.364</ele>
        <time>1970-01-01T01:00:00Z</time>
      </trkpt>
      <trkpt lat="61.114399" lon="14.082654">
        <ele>257.364</ele>
        <time>1970-01-01T01:00:00Z</time>
      </trkpt>
      <trkpt lat="61.114343" lon="14.082846">
        <ele>257.364</ele>
        <time>1970-01-01T01:00:00Z</time>
      </trkpt>
      <trkpt lat="61.114301" lon="14.083016">
        <ele>257.364</ele>
        <time>1970-01-01T01:00:00Z</time>
      </trkpt>
      <trkpt lat="61.114257" lon="14.083231">
        <ele>257.545</ele>
        <time>1970-01-01T01:00:00Z</time>
      </trkpt>
      <trkpt lat="61.114202" lon="14.083422">
        <ele>257.636</ele>
        <time>1970-01-01T01:00:00Z</time>
      </trkpt>
      <trkpt lat="61.114144" lon="14.083595">
        <ele>257.727</ele>
        <time>1970-01-01T01:00:00Z</time>
      </trkpt>
      <trkpt lat="61.114105" lon="14.083804">
        <ele>257.727</ele>
        <time>1970-01-01T01:00:00Z</time>
      </trkpt>
      <trkpt lat="61.114067" lon="14.083999">
        <ele>257.727</ele>
        <time>1970-01-01T01:00:00Z</time>
      </trkpt>
      <trkpt lat="61.114029" lon="14.084183">
        <ele>257.727</ele>
        <time>1970-01-01T01:00:00Z</time>
      </trkpt>
      <trkpt lat="61.113991" lon="14.084399">
        <ele>257.636</ele>
        <time>1970-01-01T01:00:00Z</time>
      </trkpt>
      <trkpt lat="61.113978" lon="14.084586">
        <ele>257.182</ele>
        <time>1970-01-01T01:00:00Z</time>
      </trkpt>
      <trkpt lat="61.113951" lon="14.084838">
        <ele>256.727</ele>
        <time>1970-01-01T01:00:00Z</time>
      </trkpt>
      <trkpt lat="61.113925" lon="14.085019">
        <ele>256.273</ele>
        <time>1970-01-01T01:00:00Z</time>
      </trkpt>
      <trkpt lat="61.113908" lon="14.085211">
        <ele>255</ele>
        <time>1970-01-01T01:00:00Z</time>
      </trkpt>
      <trkpt lat="61.113891" lon="14.085433">
        <ele>254.182</ele>
        <time>1970-01-01T01:00:00Z</time>
      </trkpt>
      <trkpt lat="61.113864" lon="14.085653">
        <ele>252.909</ele>
        <time>1970-01-01T01:00:00Z</time>
      </trkpt>
      <trkpt lat="61.113843" lon="14.085882">
        <ele>251.636</ele>
        <time>1970-01-01T01:00:00Z</time>
      </trkpt>
      <trkpt lat="61.11381" lon="14.086106">
        <ele>250.455</ele>
        <time>1970-01-01T01:00:00Z</time>
      </trkpt>
      <trkpt lat="61.113803" lon="14.086334">
        <ele>249</ele>
        <time>1970-01-01T01:00:00Z</time>
      </trkpt>
      <trkpt lat="61.113808" lon="14.086541">
        <ele>247.545</ele>
        <time>1970-01-01T01:00:00Z</time>
      </trkpt>
      <trkpt lat="61.11378" lon="14.086736">
        <ele>246.091</ele>
        <time>1970-01-01T01:00:00Z</time>
      </trkpt>
      <trkpt lat="61.113757" lon="14.086945">
        <ele>245</ele>
        <time>1970-01-01T01:00:00Z</time>
      </trkpt>
      <trkpt lat="61.113722" lon="14.087126">
        <ele>243.818</ele>
        <time>1970-01-01T01:00:00Z</time>
      </trkpt>
      <trkpt lat="61.113669" lon="14.087284">
        <ele>242.636</ele>
        <time>1970-01-01T01:00:00Z</time>
      </trkpt>
      <trkpt lat="61.113576" lon="14.087403">
        <ele>242.273</ele>
        <time>1970-01-01T01:00:00Z</time>
      </trkpt>
      <trkpt lat="61.113498" lon="14.087619">
        <ele>241.455</ele>
        <time>1970-01-01T01:00:00Z</time>
      </trkpt>
      <trkpt lat="61.113462" lon="14.087794">
        <ele>241</ele>
        <time>1970-01-01T01:00:00Z</time>
      </trkpt>
      <trkpt lat="61.113429" lon="14.088068">
        <ele>240.545</ele>
        <time>1970-01-01T01:00:00Z</time>
      </trkpt>
      <trkpt lat="61.113394" lon="14.088303">
        <ele>240.091</ele>
        <time>1970-01-01T01:00:00Z</time>
      </trkpt>
      <trkpt lat="61.11334" lon="14.088478">
        <ele>240</ele>
        <time>1970-01-01T01:00:00Z</time>
      </trkpt>
      <trkpt lat="61.113289" lon="14.088667">
        <ele>239.818</ele>
        <time>1970-01-01T01:00:00Z</time>
      </trkpt>
      <trkpt lat="61.113235" lon="14.088876">
        <ele>239.636</ele>
        <time>1970-01-01T01:00:00Z</time>
      </trkpt>
      <trkpt lat="61.113158" lon="14.089022">
        <ele>239.455</ele>
        <time>1970-01-01T01:00:00Z</time>
      </trkpt>
      <trkpt lat="61.113023" lon="14.089224">
        <ele>239.364</ele>
        <time>1970-01-01T01:00:00Z</time>
      </trkpt>
      <trkpt lat="61.112927" lon="14.089431">
        <ele>239.364</ele>
        <time>1970-01-01T01:00:00Z</time>
      </trkpt>
      <trkpt lat="61.11285" lon="14.089651">
        <ele>239.364</ele>
        <time>1970-01-01T01:00:00Z</time>
      </trkpt>
      <trkpt lat="61.112822" lon="14.089836">
        <ele>239.182</ele>
        <time>1970-01-01T01:00:00Z</time>
      </trkpt>
      <trkpt lat="61.112845" lon="14.090038">
        <ele>239.091</ele>
        <time>1970-01-01T01:00:00Z</time>
      </trkpt>
      <trkpt lat="61.112863" lon="14.090268">
        <ele>239</ele>
        <time>1970-01-01T01:00:00Z</time>
      </trkpt>
      <trkpt lat="61.112894" lon="14.090448">
        <ele>238.909</ele>
        <time>1970-01-01T01:00:00Z</time>
      </trkpt>
      <trkpt lat="61.112959" lon="14.090643">
        <ele>238.727</ele>
        <time>1970-01-01T01:00:00Z</time>
      </trkpt>
      <trkpt lat="61.113051" lon="14.09077">
        <ele>238.636</ele>
        <time>1970-01-01T01:00:00Z</time>
      </trkpt>
      <trkpt lat="61.113145" lon="14.090893">
        <ele>238.545</ele>
        <time>1970-01-01T01:00:00Z</time>
      </trkpt>
      <trkpt lat="61.11323" lon="14.091026">
        <ele>238.455</ele>
        <time>1970-01-01T01:00:00Z</time>
      </trkpt>
      <trkpt lat="61.113326" lon="14.091155">
        <ele>238.364</ele>
        <time>1970-01-01T01:00:00Z</time>
      </trkpt>
      <trkpt lat="61.113425" lon="14.09129">
        <ele>238.182</ele>
        <time>1970-01-01T01:00:00Z</time>
      </trkpt>
      <trkpt lat="61.113505" lon="14.09141">
        <ele>237.909</ele>
        <time>1970-01-01T01:00:00Z</time>
      </trkpt>
      <trkpt lat="61.113586" lon="14.091557">
        <ele>237.818</ele>
        <time>1970-01-01T01:00:00Z</time>
      </trkpt>
      <trkpt lat="61.113655" lon="14.091737">
        <ele>237.727</ele>
        <time>1970-01-01T01:00:00Z</time>
      </trkpt>
      <trkpt lat="61.113683" lon="14.091967">
        <ele>237.727</ele>
        <time>1970-01-01T01:00:00Z</time>
      </trkpt>
      <trkpt lat="61.1137" lon="14.092171">
        <ele>237.727</ele>
        <time>1970-01-01T01:00:00Z</time>
      </trkpt>
      <trkpt lat="61.113707" lon="14.092387">
        <ele>237.727</ele>
        <time>1970-01-01T01:00:00Z</time>
      </trkpt>
      <trkpt lat="61.113712" lon="14.09259">
        <ele>237.818</ele>
        <time>1970-01-01T01:00:00Z</time>
      </trkpt>
      <trkpt lat="61.113712" lon="14.092869">
        <ele>237.909</ele>
        <time>1970-01-01T01:00:00Z</time>
      </trkpt>
      <trkpt lat="61.113717" lon="14.093131">
        <ele>238</ele>
        <time>1970-01-01T01:00:00Z</time>
      </trkpt>
      <trkpt lat="61.113768" lon="14.093296">
        <ele>238</ele>
        <time>1970-01-01T01:00:00Z</time>
      </trkpt>
      <trkpt lat="61.113792" lon="14.093522">
        <ele>238</ele>
        <time>1970-01-01T01:00:00Z</time>
      </trkpt>
      <trkpt lat="61.113812" lon="14.093719">
        <ele>238</ele>
        <time>1970-01-01T01:00:00Z</time>
      </trkpt>
      <trkpt lat="61.113825" lon="14.093917">
        <ele>238</ele>
        <time>1970-01-01T01:00:00Z</time>
      </trkpt>
      <trkpt lat="61.113831" lon="14.094114">
        <ele>238</ele>
        <time>1970-01-01T01:00:00Z</time>
      </trkpt>
      <trkpt lat="61.113803" lon="14.094291">
        <ele>237.909</ele>
        <time>1970-01-01T01:00:00Z</time>
      </trkpt>
      <trkpt lat="61.11379" lon="14.094508">
        <ele>237.636</ele>
        <time>1970-01-01T01:00:00Z</time>
      </trkpt>
      <trkpt lat="61.113748" lon="14.094731">
        <ele>237.364</ele>
        <time>1970-01-01T01:00:00Z</time>
      </trkpt>
      <trkpt lat="61.113726" lon="14.094923">
        <ele>237</ele>
        <time>1970-01-01T01:00:00Z</time>
      </trkpt>
      <trkpt lat="61.113702" lon="14.095109">
        <ele>236.455</ele>
        <time>1970-01-01T01:00:00Z</time>
      </trkpt>
      <trkpt lat="61.113689" lon="14.095322">
        <ele>235.909</ele>
        <time>1970-01-01T01:00:00Z</time>
      </trkpt>
      <trkpt lat="61.113694" lon="14.095572">
        <ele>235.455</ele>
        <time>1970-01-01T01:00:00Z</time>
      </trkpt>
      <trkpt lat="61.113749" lon="14.095872">
        <ele>235</ele>
        <time>1970-01-01T01:00:00Z</time>
      </trkpt>
      <trkpt lat="61.113665" lon="14.096107">
        <ele>234.455</ele>
        <time>1970-01-01T01:00:00Z</time>
      </trkpt>
      <trkpt lat="61.113702" lon="14.096339">
        <ele>233.909</ele>
        <time>1970-01-01T01:00:00Z</time>
      </trkpt>
      <trkpt lat="61.113721" lon="14.096632">
        <ele>233.364</ele>
        <time>1970-01-01T01:00:00Z</time>
      </trkpt>
      <trkpt lat="61.113728" lon="14.096868">
        <ele>232.818</ele>
        <time>1970-01-01T01:00:00Z</time>
      </trkpt>
      <trkpt lat="61.113753" lon="14.097076">
        <ele>232.273</ele>
        <time>1970-01-01T01:00:00Z</time>
      </trkpt>
      <trkpt lat="61.113757" lon="14.097327">
        <ele>231.727</ele>
        <time>1970-01-01T01:00:00Z</time>
      </trkpt>
      <trkpt lat="61.113732" lon="14.097557">
        <ele>231.182</ele>
        <time>1970-01-01T01:00:00Z</time>
      </trkpt>
      <trkpt lat="61.113764" lon="14.097732">
        <ele>230.818</ele>
        <time>1970-01-01T01:00:00Z</time>
      </trkpt>
      <trkpt lat="61.113764" lon="14.097928">
        <ele>230.182</ele>
        <time>1970-01-01T01:00:00Z</time>
      </trkpt>
      <trkpt lat="61.11377" lon="14.098122">
        <ele>229.545</ele>
        <time>1970-01-01T01:00:00Z</time>
      </trkpt>
      <trkpt lat="61.113761" lon="14.098316">
        <ele>228.818</ele>
        <time>1970-01-01T01:00:00Z</time>
      </trkpt>
      <trkpt lat="61.113757" lon="14.098559">
        <ele>228.273</ele>
        <time>1970-01-01T01:00:00Z</time>
      </trkpt>
      <trkpt lat="61.11375" lon="14.098755">
        <ele>227.727</ele>
        <time>1970-01-01T01:00:00Z</time>
      </trkpt>
      <trkpt lat="61.113778" lon="14.099046">
        <ele>227.182</ele>
        <time>1970-01-01T01:00:00Z</time>
      </trkpt>
      <trkpt lat="61.113746" lon="14.099342">
        <ele>226.636</ele>
        <time>1970-01-01T01:00:00Z</time>
      </trkpt>
      <trkpt lat="61.113722" lon="14.099623">
        <ele>226.182</ele>
        <time>1970-01-01T01:00:00Z</time>
      </trkpt>
      <trkpt lat="61.113667" lon="14.099839">
        <ele>225.727</ele>
        <time>1970-01-01T01:00:00Z</time>
      </trkpt>
      <trkpt lat="61.113656" lon="14.100078">
        <ele>225.273</ele>
        <time>1970-01-01T01:00:00Z</time>
      </trkpt>
      <trkpt lat="61.113593" lon="14.100236">
        <ele>223.818</ele>
        <time>1970-01-01T01:00:00Z</time>
      </trkpt>
      <trkpt lat="61.113619" lon="14.100424">
        <ele>221.636</ele>
        <time>1970-01-01T01:00:00Z</time>
      </trkpt>
      <trkpt lat="61.113687" lon="14.100598">
        <ele>219.455</ele>
        <time>1970-01-01T01:00:00Z</time>
      </trkpt>
      <trkpt lat="61.113776" lon="14.100806">
        <ele>217.364</ele>
        <time>1970-01-01T01:00:00Z</time>
      </trkpt>
      <trkpt lat="61.113801" lon="14.101026">
        <ele>215.273</ele>
        <time>1970-01-01T01:00:00Z</time>
      </trkpt>
      <trkpt lat="61.113844" lon="14.101255">
        <ele>213.091</ele>
        <time>1970-01-01T01:00:00Z</time>
      </trkpt>
      <trkpt lat="61.113858" lon="14.101483">
        <ele>210.909</ele>
        <time>1970-01-01T01:00:00Z</time>
      </trkpt>
      <trkpt lat="61.113846" lon="14.101708">
        <ele>208.727</ele>
        <time>1970-01-01T01:00:00Z</time>
      </trkpt>
      <trkpt lat="61.113838" lon="14.101946">
        <ele>206.727</ele>
        <time>1970-01-01T01:00:00Z</time>
      </trkpt>
      <trkpt lat="61.113831" lon="14.102196">
        <ele>204.727</ele>
        <time>1970-01-01T01:00:00Z</time>
      </trkpt>
      <trkpt lat="61.11383" lon="14.102445">
        <ele>202.727</ele>
        <time>1970-01-01T01:00:00Z</time>
      </trkpt>
      <trkpt lat="61.113837" lon="14.102683">
        <ele>201.727</ele>
        <time>1970-01-01T01:00:00Z</time>
      </trkpt>
      <trkpt lat="61.113838" lon="14.102876">
        <ele>201.7</ele>
        <time>1970-01-01T01:00:00Z</time>
      </trkpt>
      <trkpt lat="61.113855" lon="14.103084">
        <ele>201.667</ele>
        <time>1970-01-01T01:00:00Z</time>
      </trkpt>
      <trkpt lat="61.113859" lon="14.103276">
        <ele>201.625</ele>
        <time>1970-01-01T01:00:00Z</time>
      </trkpt>
      <trkpt lat="61.113858" lon="14.103479">
        <ele>201.571</ele>
        <time>1970-01-01T01:00:00Z</time>
      </trkpt>
      <trkpt lat="61.113856" lon="14.103622">
        <ele>201.667</ele>
        <time>1970-01-01T01:00:00Z</time>
      </trkpt>
      <trkpt lat="61.113869" lon="14.103809">
        <ele>217.333</ele>
        <time>1970-01-01T01:00:00Z</time>
      </trkpt>
      <trkpt lat="61.113838" lon="14.103865">
        <ele>218.286</ele>
        <time>1970-01-01T01:00:00Z</time>
      </trkpt>
      <trkpt lat="61.113777" lon="14.104053">
        <ele>219</ele>
        <time>1970-01-01T01:00:00Z</time>
      </trkpt>
      <trkpt lat="61.113716" lon="14.104214">
        <ele>219.556</ele>
        <time>1970-01-01T01:00:00Z</time>
      </trkpt>
      <trkpt lat="61.11366" lon="14.104371">
        <ele>220</ele>
        <time>1970-01-01T01:00:00Z</time>
      </trkpt>
      <trkpt lat="61.113594" lon="14.104541">
        <ele>220.364</ele>
        <time>1970-01-01T01:00:00Z</time>
      </trkpt>
      <trkpt lat="61.113599" lon="14.104783">
        <ele>222.364</ele>
        <time>1970-01-01T01:00:00Z</time>
      </trkpt>
      <trkpt lat="61.113556" lon="14.10495">
        <ele>224</ele>
        <time>1970-01-01T01:00:00Z</time>
      </trkpt>
      <trkpt lat="61.113488" lon="14.10511">
        <ele>224</ele>
        <time>1970-01-01T01:00:00Z</time>
      </trkpt>
      <trkpt lat="61.113448" lon="14.105304">
        <ele>224</ele>
        <time>1970-01-01T01:00:00Z</time>
      </trkpt>
      <trkpt lat="61.113411" lon="14.105483">
        <ele>223.909</ele>
        <time>1970-01-01T01:00:00Z</time>
      </trkpt>
      <trkpt lat="61.113347" lon="14.105674">
        <ele>223.818</ele>
        <time>1970-01-01T01:00:00Z</time>
      </trkpt>
      <trkpt lat="61.113298" lon="14.105831">
        <ele>223.727</ele>
        <time>1970-01-01T01:00:00Z</time>
      </trkpt>
      <trkpt lat="61.113271" lon="14.10603">
        <ele>223.636</ele>
        <time>1970-01-01T01:00:00Z</time>
      </trkpt>
      <trkpt lat="61.113264" lon="14.106225">
        <ele>223.455</ele>
        <time>1970-01-01T01:00:00Z</time>
      </trkpt>
      <trkpt lat="61.113244" lon="14.106413">
        <ele>223.273</ele>
        <time>1970-01-01T01:00:00Z</time>
      </trkpt>
      <trkpt lat="61.113213" lon="14.106599">
        <ele>223.091</ele>
        <time>1970-01-01T01:00:00Z</time>
      </trkpt>
      <trkpt lat="61.113181" lon="14.106798">
        <ele>222.909</ele>
        <time>1970-01-01T01:00:00Z</time>
      </trkpt>
      <trkpt lat="61.113142" lon="14.106972">
        <ele>223.182</ele>
        <time>1970-01-01T01:00:00Z</time>
      </trkpt>
      <trkpt lat="61.113101" lon="14.107179">
        <ele>223.364</ele>
        <time>1970-01-01T01:00:00Z</time>
      </trkpt>
      <trkpt lat="61.113057" lon="14.107347">
        <ele>223.545</ele>
        <time>1970-01-01T01:00:00Z</time>
      </trkpt>
      <trkpt lat="61.113024" lon="14.10754">
        <ele>223.818</ele>
        <time>1970-01-01T01:00:00Z</time>
      </trkpt>
      <trkpt lat="61.112988" lon="14.107757">
        <ele>224.091</ele>
        <time>1970-01-01T01:00:00Z</time>
      </trkpt>
      <trkpt lat="61.112935" lon="14.107953">
        <ele>224.364</ele>
        <time>1970-01-01T01:00:00Z</time>
      </trkpt>
      <trkpt lat="61.112884" lon="14.108146">
        <ele>224.636</ele>
        <time>1970-01-01T01:00:00Z</time>
      </trkpt>
      <trkpt lat="61.112875" lon="14.108352">
        <ele>225</ele>
        <time>1970-01-01T01:00:00Z</time>
      </trkpt>
      <trkpt lat="61.112897" lon="14.108574">
        <ele>225.273</ele>
        <time>1970-01-01T01:00:00Z</time>
      </trkpt>
      <trkpt lat="61.112933" lon="14.108784">
        <ele>225.545</ele>
        <time>1970-01-01T01:00:00Z</time>
      </trkpt>
      <trkpt lat="61.112938" lon="14.109006">
        <ele>225.818</ele>
        <time>1970-01-01T01:00:00Z</time>
      </trkpt>
      <trkpt lat="61.112935" lon="14.109205">
        <ele>225.636</ele>
        <time>1970-01-01T01:00:00Z</time>
      </trkpt>
      <trkpt lat="61.112922" lon="14.109422">
        <ele>225.455</ele>
        <time>1970-01-01T01:00:00Z</time>
      </trkpt>
      <trkpt lat="61.112879" lon="14.109632">
        <ele>225.273</ele>
        <time>1970-01-01T01:00:00Z</time>
      </trkpt>
      <trkpt lat="61.112847" lon="14.10985">
        <ele>225.091</ele>
        <time>1970-01-01T01:00:00Z</time>
      </trkpt>
      <trkpt lat="61.112834" lon="14.110042">
        <ele>224.909</ele>
        <time>1970-01-01T01:00:00Z</time>
      </trkpt>
      <trkpt lat="61.112838" lon="14.110249">
        <ele>224.636</ele>
        <time>1970-01-01T01:00:00Z</time>
      </trkpt>
      <trkpt lat="61.112838" lon="14.110459">
        <ele>224.364</ele>
        <time>1970-01-01T01:00:00Z</time>
      </trkpt>
      <trkpt lat="61.112834" lon="14.110667">
        <ele>224.091</ele>
        <time>1970-01-01T01:00:00Z</time>
      </trkpt>
      <trkpt lat="61.112831" lon="14.110861">
        <ele>223.909</ele>
        <time>1970-01-01T01:00:00Z</time>
      </trkpt>
      <trkpt lat="61.112784" lon="14.111057">
        <ele>223.727</ele>
        <time>1970-01-01T01:00:00Z</time>
      </trkpt>
      <trkpt lat="61.112776" lon="14.111262">
        <ele>223.273</ele>
        <time>1970-01-01T01:00:00Z</time>
      </trkpt>
      <trkpt lat="61.112784" lon="14.111508">
        <ele>222.818</ele>
        <time>1970-01-01T01:00:00Z</time>
      </trkpt>
      <trkpt lat="61.112818" lon="14.111731">
        <ele>222.455</ele>
        <time>1970-01-01T01:00:00Z</time>
      </trkpt>
      <trkpt lat="61.112871" lon="14.111904">
        <ele>222.455</ele>
        <time>1970-01-01T01:00:00Z</time>
      </trkpt>
      <trkpt lat="61.112938" lon="14.112087">
        <ele>222.545</ele>
        <time>1970-01-01T01:00:00Z</time>
      </trkpt>
      <trkpt lat="61.112997" lon="14.112262">
        <ele>222.182</ele>
        <time>1970-01-01T01:00:00Z</time>
      </trkpt>
      <trkpt lat="61.112997" lon="14.112473">
        <ele>221.909</ele>
        <time>1970-01-01T01:00:00Z</time>
      </trkpt>
      <trkpt lat="61.112985" lon="14.112675">
        <ele>221.636</ele>
        <time>1970-01-01T01:00:00Z</time>
      </trkpt>
      <trkpt lat="61.112976" lon="14.112882">
        <ele>222</ele>
        <time>1970-01-01T01:00:00Z</time>
      </trkpt>
      <trkpt lat="61.11298" lon="14.113095">
        <ele>221.818</ele>
        <time>1970-01-01T01:00:00Z</time>
      </trkpt>
      <trkpt lat="61.112998" lon="14.113298">
        <ele>221.636</ele>
        <time>1970-01-01T01:00:00Z</time>
      </trkpt>
      <trkpt lat="61.113011" lon="14.113545">
        <ele>221.727</ele>
        <time>1970-01-01T01:00:00Z</time>
      </trkpt>
      <trkpt lat="61.112988" lon="14.113791">
        <ele>222</ele>
        <time>1970-01-01T01:00:00Z</time>
      </trkpt>
      <trkpt lat="61.112982" lon="14.113998">
        <ele>222.273</ele>
        <time>1970-01-01T01:00:00Z</time>
      </trkpt>
      <trkpt lat="61.112989" lon="14.114189">
        <ele>222.182</ele>
        <time>1970-01-01T01:00:00Z</time>
      </trkpt>
      <trkpt lat="61.113015" lon="14.114418">
        <ele>222.182</ele>
        <time>1970-01-01T01:00:00Z</time>
      </trkpt>
      <trkpt lat="61.113057" lon="14.114623">
        <ele>222.636</ele>
        <time>1970-01-01T01:00:00Z</time>
      </trkpt>
      <trkpt lat="61.112999" lon="14.114819">
        <ele>223.091</ele>
        <time>1970-01-01T01:00:00Z</time>
      </trkpt>
      <trkpt lat="61.113151" lon="14.115201">
        <ele>223.545</ele>
        <time>1970-01-01T01:00:00Z</time>
      </trkpt>
      <trkpt lat="61.113228" lon="14.115311">
        <ele>223.364</ele>
        <time>1970-01-01T01:00:00Z</time>
      </trkpt>
      <trkpt lat="61.113375" lon="14.115519">
        <ele>223.364</ele>
        <time>1970-01-01T01:00:00Z</time>
      </trkpt>
      <trkpt lat="61.113488" lon="14.115724">
        <ele>223.364</ele>
        <time>1970-01-01T01:00:00Z</time>
      </trkpt>
      <trkpt lat="61.113589" lon="14.115934">
        <ele>223.364</ele>
        <time>1970-01-01T01:00:00Z</time>
      </trkpt>
      <trkpt lat="61.113699" lon="14.116127">
        <ele>223.182</ele>
        <time>1970-01-01T01:00:00Z</time>
      </trkpt>
      <trkpt lat="61.113778" lon="14.11628">
        <ele>223</ele>
        <time>1970-01-01T01:00:00Z</time>
      </trkpt>
      <trkpt lat="61.113858" lon="14.116417">
        <ele>222.818</ele>
        <time>1970-01-01T01:00:00Z</time>
      </trkpt>
      <trkpt lat="61.113953" lon="14.116565">
        <ele>222.455</ele>
        <time>1970-01-01T01:00:00Z</time>
      </trkpt>
      <trkpt lat="61.114056" lon="14.116641">
        <ele>222.091</ele>
        <time>1970-01-01T01:00:00Z</time>
      </trkpt>
      <trkpt lat="61.114141" lon="14.116748">
        <ele>220.727</ele>
        <time>1970-01-01T01:00:00Z</time>
      </trkpt>
      <trkpt lat="61.114256" lon="14.116803">
        <ele>219.636</ele>
        <time>1970-01-01T01:00:00Z</time>
      </trkpt>
      <trkpt lat="61.114369" lon="14.116864">
        <ele>218.545</ele>
        <time>1970-01-01T01:00:00Z</time>
      </trkpt>
      <trkpt lat="61.114458" lon="14.116928">
        <ele>217.818</ele>
        <time>1970-01-01T01:00:00Z</time>
      </trkpt>
      <trkpt lat="61.114558" lon="14.117016">
        <ele>217.091</ele>
        <time>1970-01-01T01:00:00Z</time>
      </trkpt>
      <trkpt lat="61.114638" lon="14.117121">
        <ele>216.909</ele>
        <time>1970-01-01T01:00:00Z</time>
      </trkpt>
      <trkpt lat="61.114698" lon="14.117326">
        <ele>216.727</ele>
        <time>1970-01-01T01:00:00Z</time>
      </trkpt>
      <trkpt lat="61.114751" lon="14.117526">
        <ele>216.545</ele>
        <time>1970-01-01T01:00:00Z</time>
      </trkpt>
      <trkpt lat="61.1148" lon="14.117725">
        <ele>216.545</ele>
        <time>1970-01-01T01:00:00Z</time>
      </trkpt>
      <trkpt lat="61.114811" lon="14.117915">
        <ele>216.545</ele>
        <time>1970-01-01T01:00:00Z</time>
      </trkpt>
      <trkpt lat="61.11479" lon="14.118129">
        <ele>216.545</ele>
        <time>1970-01-01T01:00:00Z</time>
      </trkpt>
      <trkpt lat="61.114778" lon="14.118333">
        <ele>217.545</ele>
        <time>1970-01-01T01:00:00Z</time>
      </trkpt>
      <trkpt lat="61.114783" lon="14.118557">
        <ele>218.273</ele>
        <time>1970-01-01T01:00:00Z</time>
      </trkpt>
      <trkpt lat="61.11481" lon="14.118836">
        <ele>219.273</ele>
        <time>1970-01-01T01:00:00Z</time>
      </trkpt>
      <trkpt lat="61.114876" lon="14.11906">
        <ele>220.273</ele>
        <time>1970-01-01T01:00:00Z</time>
      </trkpt>
      <trkpt lat="61.114936" lon="14.119239">
        <ele>221.273</ele>
        <time>1970-01-01T01:00:00Z</time>
      </trkpt>
      <trkpt lat="61.115028" lon="14.119419">
        <ele>221.727</ele>
        <time>1970-01-01T01:00:00Z</time>
      </trkpt>
      <trkpt lat="61.115119" lon="14.119566">
        <ele>222.091</ele>
        <time>1970-01-01T01:00:00Z</time>
      </trkpt>
      <trkpt lat="61.115211" lon="14.119737">
        <ele>222.455</ele>
        <time>1970-01-01T01:00:00Z</time>
      </trkpt>
      <trkpt lat="61.115266" lon="14.119892">
        <ele>222.636</ele>
        <time>1970-01-01T01:00:00Z</time>
      </trkpt>
      <trkpt lat="61.115254" lon="14.120079">
        <ele>222.818</ele>
        <time>1970-01-01T01:00:00Z</time>
      </trkpt>
      <trkpt lat="61.11525" lon="14.12029">
        <ele>222.727</ele>
        <time>1970-01-01T01:00:00Z</time>
      </trkpt>
      <trkpt lat="61.115234" lon="14.120519">
        <ele>222.636</ele>
        <time>1970-01-01T01:00:00Z</time>
      </trkpt>
      <trkpt lat="61.115191" lon="14.120695">
        <ele>222.545</ele>
        <time>1970-01-01T01:00:00Z</time>
      </trkpt>
      <trkpt lat="61.11515" lon="14.1209">
        <ele>222.182</ele>
        <time>1970-01-01T01:00:00Z</time>
      </trkpt>
      <trkpt lat="61.115125" lon="14.121082">
        <ele>221.818</ele>
        <time>1970-01-01T01:00:00Z</time>
      </trkpt>
      <trkpt lat="61.115113" lon="14.121273">
        <ele>221.364</ele>
        <time>1970-01-01T01:00:00Z</time>
      </trkpt>
      <trkpt lat="61.115095" lon="14.121464">
        <ele>220.909</ele>
        <time>1970-01-01T01:00:00Z</time>
      </trkpt>
      <trkpt lat="61.115071" lon="14.121666">
        <ele>220.545</ele>
        <time>1970-01-01T01:00:00Z</time>
      </trkpt>
      <trkpt lat="61.115073" lon="14.121907">
        <ele>220.182</ele>
        <time>1970-01-01T01:00:00Z</time>
      </trkpt>
      <trkpt lat="61.115098" lon="14.122105">
        <ele>219.636</ele>
        <time>1970-01-01T01:00:00Z</time>
      </trkpt>
      <trkpt lat="61.115155" lon="14.122319">
        <ele>219.091</ele>
        <time>1970-01-01T01:00:00Z</time>
      </trkpt>
      <trkpt lat="61.115202" lon="14.12253">
        <ele>218.818</ele>
        <time>1970-01-01T01:00:00Z</time>
      </trkpt>
      <trkpt lat="61.115237" lon="14.122753">
        <ele>218.545</ele>
        <time>1970-01-01T01:00:00Z</time>
      </trkpt>
      <trkpt lat="61.11527" lon="14.122931">
        <ele>218.091</ele>
        <time>1970-01-01T01:00:00Z</time>
      </trkpt>
      <trkpt lat="61.115266" lon="14.123127">
        <ele>217.636</ele>
        <time>1970-01-01T01:00:00Z</time>
      </trkpt>
      <trkpt lat="61.115252" lon="14.123327">
        <ele>217.182</ele>
        <time>1970-01-01T01:00:00Z</time>
      </trkpt>
      <trkpt lat="61.115245" lon="14.123544">
        <ele>216.909</ele>
        <time>1970-01-01T01:00:00Z</time>
      </trkpt>
      <trkpt lat="61.115238" lon="14.123746">
        <ele>216.636</ele>
        <time>1970-01-01T01:00:00Z</time>
      </trkpt>
      <trkpt lat="61.115221" lon="14.123974">
        <ele>216.364</ele>
        <time>1970-01-01T01:00:00Z</time>
      </trkpt>
      <trkpt lat="61.115216" lon="14.124178">
        <ele>216.273</ele>
        <time>1970-01-01T01:00:00Z</time>
      </trkpt>
      <trkpt lat="61.115212" lon="14.124405">
        <ele>215.545</ele>
        <time>1970-01-01T01:00:00Z</time>
      </trkpt>
      <trkpt lat="61.115217" lon="14.124752">
        <ele>214.818</ele>
        <time>1970-01-01T01:00:00Z</time>
      </trkpt>
      <trkpt lat="61.115261" lon="14.125059">
        <ele>214.091</ele>
        <time>1970-01-01T01:00:00Z</time>
      </trkpt>
      <trkpt lat="61.115326" lon="14.125344">
        <ele>213.364</ele>
        <time>1970-01-01T01:00:00Z</time>
      </trkpt>
      <trkpt lat="61.115382" lon="14.125568">
        <ele>213.182</ele>
        <time>1970-01-01T01:00:00Z</time>
      </trkpt>
      <trkpt lat="61.115459" lon="14.125741">
        <ele>213</ele>
        <time>1970-01-01T01:00:00Z</time>
      </trkpt>
      <trkpt lat="61.115516" lon="14.125902">
        <ele>212.818</ele>
        <time>1970-01-01T01:00:00Z</time>
      </trkpt>
      <trkpt lat="61.115604" lon="14.126147">
        <ele>212.545</ele>
        <time>1970-01-01T01:00:00Z</time>
      </trkpt>
      <trkpt lat="61.115686" lon="14.126249">
        <ele>212.636</ele>
        <time>1970-01-01T01:00:00Z</time>
      </trkpt>
      <trkpt lat="61.115774" lon="14.126407">
        <ele>212.727</ele>
        <time>1970-01-01T01:00:00Z</time>
      </trkpt>
      <trkpt lat="61.115845" lon="14.126595">
        <ele>212.636</ele>
        <time>1970-01-01T01:00:00Z</time>
      </trkpt>
      <trkpt lat="61.1159" lon="14.126799">
        <ele>213.364</ele>
        <time>1970-01-01T01:00:00Z</time>
      </trkpt>
      <trkpt lat="61.115904" lon="14.12701">
        <ele>214.364</ele>
        <time>1970-01-01T01:00:00Z</time>
      </trkpt>
      <trkpt lat="61.115886" lon="14.127237">
        <ele>215.364</ele>
        <time>1970-01-01T01:00:00Z</time>
      </trkpt>
      <trkpt lat="61.115879" lon="14.127443">
        <ele>216.364</ele>
        <time>1970-01-01T01:00:00Z</time>
      </trkpt>
      <trkpt lat="61.115873" lon="14.127639">
        <ele>217</ele>
        <time>1970-01-01T01:00:00Z</time>
      </trkpt>
      <trkpt lat="61.115835" lon="14.127821">
        <ele>217.636</ele>
        <time>1970-01-01T01:00:00Z</time>
      </trkpt>
      <trkpt lat="61.115804" lon="14.128018">
        <ele>218.273</ele>
        <time>1970-01-01T01:00:00Z</time>
      </trkpt>
      <trkpt lat="61.115784" lon="14.128213">
        <ele>218.909</ele>
        <time>1970-01-01T01:00:00Z</time>
      </trkpt>
      <trkpt lat="61.115745" lon="14.128395">
        <ele>219.182</ele>
        <time>1970-01-01T01:00:00Z</time>
      </trkpt>
      <trkpt lat="61.115716" lon="14.128573">
        <ele>220.273</ele>
        <time>1970-01-01T01:00:00Z</time>
      </trkpt>
      <trkpt lat="61.115676" lon="14.128744">
        <ele>221.364</ele>
        <time>1970-01-01T01:00:00Z</time>
      </trkpt>
      <trkpt lat="61.11563" lon="14.128918">
        <ele>222.545</ele>
        <time>1970-01-01T01:00:00Z</time>
      </trkpt>
      <trkpt lat="61.115555" lon="14.129045">
        <ele>223.455</ele>
        <time>1970-01-01T01:00:00Z</time>
      </trkpt>
      <trkpt lat="61.115499" lon="14.129214">
        <ele>224.364</ele>
        <time>1970-01-01T01:00:00Z</time>
      </trkpt>
      <trkpt lat="61.115428" lon="14.129337">
        <ele>225.273</ele>
        <time>1970-01-01T01:00:00Z</time>
      </trkpt>
      <trkpt lat="61.115369" lon="14.129501">
        <ele>226.182</ele>
        <time>1970-01-01T01:00:00Z</time>
      </trkpt>
      <trkpt lat="61.115309" lon="14.129659">
        <ele>227.091</ele>
        <time>1970-01-01T01:00:00Z</time>
      </trkpt>
      <trkpt lat="61.115266" lon="14.129826">
        <ele>228</ele>
        <time>1970-01-01T01:00:00Z</time>
      </trkpt>
      <trkpt lat="61.115202" lon="14.129978">
        <ele>228.909</ele>
        <time>1970-01-01T01:00:00Z</time>
      </trkpt>
      <trkpt lat="61.11512" lon="14.130115">
        <ele>229.818</ele>
        <time>1970-01-01T01:00:00Z</time>
      </trkpt>
      <trkpt lat="61.115033" lon="14.130237">
        <ele>230.818</ele>
        <time>1970-01-01T01:00:00Z</time>
      </trkpt>
      <trkpt lat="61.114945" lon="14.13028">
        <ele>231.818</ele>
        <time>1970-01-01T01:00:00Z</time>
      </trkpt>
      <trkpt lat="61.114835" lon="14.130277">
        <ele>232.727</ele>
        <time>1970-01-01T01:00:00Z</time>
      </trkpt>
      <trkpt lat="61.114731" lon="14.130302">
        <ele>233.636</ele>
        <time>1970-01-01T01:00:00Z</time>
      </trkpt>
      <trkpt lat="61.114632" lon="14.130341">
        <ele>234.545</ele>
        <time>1970-01-01T01:00:00Z</time>
      </trkpt>
      <trkpt lat="61.114542" lon="14.130348">
        <ele>235.455</ele>
        <time>1970-01-01T01:00:00Z</time>
      </trkpt>
      <trkpt lat="61.114444" lon="14.130308">
        <ele>236.364</ele>
        <time>1970-01-01T01:00:00Z</time>
      </trkpt>
      <trkpt lat="61.114338" lon="14.130308">
        <ele>237.273</ele>
        <time>1970-01-01T01:00:00Z</time>
      </trkpt>
      <trkpt lat="61.114247" lon="14.1303">
        <ele>238.545</ele>
        <time>1970-01-01T01:00:00Z</time>
      </trkpt>
      <trkpt lat="61.114151" lon="14.13024">
        <ele>239.818</ele>
        <time>1970-01-01T01:00:00Z</time>
      </trkpt>
      <trkpt lat="61.114056" lon="14.130242">
        <ele>241.091</ele>
        <time>1970-01-01T01:00:00Z</time>
      </trkpt>
      <trkpt lat="61.113954" lon="14.130248">
        <ele>241.455</ele>
        <time>1970-01-01T01:00:00Z</time>
      </trkpt>
      <trkpt lat="61.11386" lon="14.130288">
        <ele>241.818</ele>
        <time>1970-01-01T01:00:00Z</time>
      </trkpt>
      <trkpt lat="61.113777" lon="14.130389">
        <ele>242.091</ele>
        <time>1970-01-01T01:00:00Z</time>
      </trkpt>
      <trkpt lat="61.113746" lon="14.130593">
        <ele>242.364</ele>
        <time>1970-01-01T01:00:00Z</time>
      </trkpt>
      <trkpt lat="61.113723" lon="14.130792">
        <ele>242.636</ele>
        <time>1970-01-01T01:00:00Z</time>
      </trkpt>
      <trkpt lat="61.113727" lon="14.130987">
        <ele>242.909</ele>
        <time>1970-01-01T01:00:00Z</time>
      </trkpt>
      <trkpt lat="61.113725" lon="14.131183">
        <ele>243.182</ele>
        <time>1970-01-01T01:00:00Z</time>
      </trkpt>
      <trkpt lat="61.113691" lon="14.131375">
        <ele>243.455</ele>
        <time>1970-01-01T01:00:00Z</time>
      </trkpt>
      <trkpt lat="61.113635" lon="14.131577">
        <ele>243.182</ele>
        <time>1970-01-01T01:00:00Z</time>
      </trkpt>
      <trkpt lat="61.113585" lon="14.131753">
        <ele>242.909</ele>
        <time>1970-01-01T01:00:00Z</time>
      </trkpt>
      <trkpt lat="61.113517" lon="14.131907">
        <ele>242.636</ele>
        <time>1970-01-01T01:00:00Z</time>
      </trkpt>
      <trkpt lat="61.113442" lon="14.132054">
        <ele>242.364</ele>
        <time>1970-01-01T01:00:00Z</time>
      </trkpt>
      <trkpt lat="61.113386" lon="14.132206">
        <ele>242</ele>
        <time>1970-01-01T01:00:00Z</time>
      </trkpt>
      <trkpt lat="61.113322" lon="14.13238">
        <ele>241.727</ele>
        <time>1970-01-01T01:00:00Z</time>
      </trkpt>
      <trkpt lat="61.113252" lon="14.132559">
        <ele>241.455</ele>
        <time>1970-01-01T01:00:00Z</time>
      </trkpt>
      <trkpt lat="61.11318" lon="14.132737">
        <ele>241.182</ele>
        <time>1970-01-01T01:00:00Z</time>
      </trkpt>
      <trkpt lat="61.11313" lon="14.132905">
        <ele>240.909</ele>
        <time>1970-01-01T01:00:00Z</time>
      </trkpt>
      <trkpt lat="61.11311" lon="14.133111">
        <ele>240.636</ele>
        <time>1970-01-01T01:00:00Z</time>
      </trkpt>
      <trkpt lat="61.1131" lon="14.13332">
        <ele>240.364</ele>
        <time>1970-01-01T01:00:00Z</time>
      </trkpt>
      <trkpt lat="61.113086" lon="14.133538">
        <ele>240.273</ele>
        <time>1970-01-01T01:00:00Z</time>
      </trkpt>
      <trkpt lat="61.11307" lon="14.133725">
        <ele>240.182</ele>
        <time>1970-01-01T01:00:00Z</time>
      </trkpt>
      <trkpt lat="61.11304" lon="14.133942">
        <ele>240.091</ele>
        <time>1970-01-01T01:00:00Z</time>
      </trkpt>
      <trkpt lat="61.11305" lon="14.134137">
        <ele>240</ele>
        <time>1970-01-01T01:00:00Z</time>
      </trkpt>
      <trkpt lat="61.113047" lon="14.134373">
        <ele>240</ele>
        <time>1970-01-01T01:00:00Z</time>
      </trkpt>
      <trkpt lat="61.11304" lon="14.134575">
        <ele>240.091</ele>
        <time>1970-01-01T01:00:00Z</time>
      </trkpt>
      <trkpt lat="61.113035" lon="14.134803">
        <ele>240.182</ele>
        <time>1970-01-01T01:00:00Z</time>
      </trkpt>
      <trkpt lat="61.113015" lon="14.13503">
        <ele>240.545</ele>
        <time>1970-01-01T01:00:00Z</time>
      </trkpt>
      <trkpt lat="61.113012" lon="14.135236">
        <ele>240.909</ele>
        <time>1970-01-01T01:00:00Z</time>
      </trkpt>
      <trkpt lat="61.113024" lon="14.135421">
        <ele>241.364</ele>
        <time>1970-01-01T01:00:00Z</time>
      </trkpt>
      <trkpt lat="61.113029" lon="14.135626">
        <ele>241.818</ele>
        <time>1970-01-01T01:00:00Z</time>
      </trkpt>
      <trkpt lat="61.113003" lon="14.135812">
        <ele>242.273</ele>
        <time>1970-01-01T01:00:00Z</time>
      </trkpt>
      <trkpt lat="61.112979" lon="14.136019">
        <ele>242.727</ele>
        <time>1970-01-01T01:00:00Z</time>
      </trkpt>
      <trkpt lat="61.112951" lon="14.136212">
        <ele>243.273</ele>
        <time>1970-01-01T01:00:00Z</time>
      </trkpt>
      <trkpt lat="61.112913" lon="14.136391">
        <ele>243.818</ele>
        <time>1970-01-01T01:00:00Z</time>
      </trkpt>
      <trkpt lat="61.112892" lon="14.136588">
        <ele>244.364</ele>
        <time>1970-01-01T01:00:00Z</time>
      </trkpt>
      <trkpt lat="61.112891" lon="14.136806">
        <ele>244.818</ele>
        <time>1970-01-01T01:00:00Z</time>
      </trkpt>
      <trkpt lat="61.112898" lon="14.137017">
        <ele>245.364</ele>
        <time>1970-01-01T01:00:00Z</time>
      </trkpt>
      <trkpt lat="61.112868" lon="14.137212">
        <ele>245.636</ele>
        <time>1970-01-01T01:00:00Z</time>
      </trkpt>
      <trkpt lat="61.112837" lon="14.137402">
        <ele>245.909</ele>
        <time>1970-01-01T01:00:00Z</time>
      </trkpt>
      <trkpt lat="61.112869" lon="14.13758">
        <ele>245.727</ele>
        <time>1970-01-01T01:00:00Z</time>
      </trkpt>
      <trkpt lat="61.11289" lon="14.137783">
        <ele>245.545</ele>
        <time>1970-01-01T01:00:00Z</time>
      </trkpt>
      <trkpt lat="61.112849" lon="14.137985">
        <ele>245.364</ele>
        <time>1970-01-01T01:00:00Z</time>
      </trkpt>
      <trkpt lat="61.112873" lon="14.138188">
        <ele>245.182</ele>
        <time>1970-01-01T01:00:00Z</time>
      </trkpt>
      <trkpt lat="61.11293" lon="14.138343">
        <ele>244.909</ele>
        <time>1970-01-01T01:00:00Z</time>
      </trkpt>
      <trkpt lat="61.112998" lon="14.138538">
        <ele>244.636</ele>
        <time>1970-01-01T01:00:00Z</time>
      </trkpt>
      <trkpt lat="61.113039" lon="14.138739">
        <ele>244.273</ele>
        <time>1970-01-01T01:00:00Z</time>
      </trkpt>
      <trkpt lat="61.113073" lon="14.138928">
        <ele>243.909</ele>
        <time>1970-01-01T01:00:00Z</time>
      </trkpt>
      <trkpt lat="61.113102" lon="14.139128">
        <ele>243.455</ele>
        <time>1970-01-01T01:00:00Z</time>
      </trkpt>
      <trkpt lat="61.113121" lon="14.139341">
        <ele>243</ele>
        <time>1970-01-01T01:00:00Z</time>
      </trkpt>
      <trkpt lat="61.113152" lon="14.139532">
        <ele>242.455</ele>
        <time>1970-01-01T01:00:00Z</time>
      </trkpt>
      <trkpt lat="61.113212" lon="14.139728">
        <ele>242.273</ele>
        <time>1970-01-01T01:00:00Z</time>
      </trkpt>
      <trkpt lat="61.113292" lon="14.139865">
        <ele>242.091</ele>
        <time>1970-01-01T01:00:00Z</time>
      </trkpt>
      <trkpt lat="61.113324" lon="14.140044">
        <ele>241.909</ele>
        <time>1970-01-01T01:00:00Z</time>
      </trkpt>
      <trkpt lat="61.113348" lon="14.140237">
        <ele>241.636</ele>
        <time>1970-01-01T01:00:00Z</time>
      </trkpt>
      <trkpt lat="61.113377" lon="14.140463">
        <ele>241.364</ele>
        <time>1970-01-01T01:00:00Z</time>
      </trkpt>
      <trkpt lat="61.113419" lon="14.140652">
        <ele>241.091</ele>
        <time>1970-01-01T01:00:00Z</time>
      </trkpt>
      <trkpt lat="61.113439" lon="14.140878">
        <ele>240.909</ele>
        <time>1970-01-01T01:00:00Z</time>
      </trkpt>
      <trkpt lat="61.113476" lon="14.141072">
        <ele>240.727</ele>
        <time>1970-01-01T01:00:00Z</time>
      </trkpt>
      <trkpt lat="61.113515" lon="14.14131">
        <ele>240.545</ele>
        <time>1970-01-01T01:00:00Z</time>
      </trkpt>
      <trkpt lat="61.113559" lon="14.141513">
        <ele>240.364</ele>
        <time>1970-01-01T01:00:00Z</time>
      </trkpt>
      <trkpt lat="61.113619" lon="14.141676">
        <ele>240</ele>
        <time>1970-01-01T01:00:00Z</time>
      </trkpt>
      <trkpt lat="61.11368" lon="14.141835">
        <ele>239.636</ele>
        <time>1970-01-01T01:00:00Z</time>
      </trkpt>
      <trkpt lat="61.113724" lon="14.142031">
        <ele>239.273</ele>
        <time>1970-01-01T01:00:00Z</time>
      </trkpt>
      <trkpt lat="61.113751" lon="14.142211">
        <ele>239.091</ele>
        <time>1970-01-01T01:00:00Z</time>
      </trkpt>
      <trkpt lat="61.113782" lon="14.142407">
        <ele>239</ele>
        <time>1970-01-01T01:00:00Z</time>
      </trkpt>
      <trkpt lat="61.113844" lon="14.142571">
        <ele>238.909</ele>
        <time>1970-01-01T01:00:00Z</time>
      </trkpt>
      <trkpt lat="61.113865" lon="14.142752">
        <ele>238.818</ele>
        <time>1970-01-01T01:00:00Z</time>
      </trkpt>
      <trkpt lat="61.113907" lon="14.142943">
        <ele>238.818</ele>
        <time>1970-01-01T01:00:00Z</time>
      </trkpt>
      <trkpt lat="61.113928" lon="14.14315">
        <ele>238.818</ele>
        <time>1970-01-01T01:00:00Z</time>
      </trkpt>
      <trkpt lat="61.11395" lon="14.143336">
        <ele>238.818</ele>
        <time>1970-01-01T01:00:00Z</time>
      </trkpt>
      <trkpt lat="61.113994" lon="14.143519">
        <ele>238.818</ele>
        <time>1970-01-01T01:00:00Z</time>
      </trkpt>
      <trkpt lat="61.114127" lon="14.143857">
        <ele>239.182</ele>
        <time>1970-01-01T01:00:00Z</time>
      </trkpt>
      <trkpt lat="61.114231" lon="14.144097">
        <ele>239.545</ele>
        <time>1970-01-01T01:00:00Z</time>
      </trkpt>
      <trkpt lat="61.114314" lon="14.14432">
        <ele>239.909</ele>
        <time>1970-01-01T01:00:00Z</time>
      </trkpt>
      <trkpt lat="61.11436" lon="14.144498">
        <ele>239.545</ele>
        <time>1970-01-01T01:00:00Z</time>
      </trkpt>
      <trkpt lat="61.114433" lon="14.144645">
        <ele>239.364</ele>
        <time>1970-01-01T01:00:00Z</time>
      </trkpt>
      <trkpt lat="61.114463" lon="14.144838">
        <ele>239.182</ele>
        <time>1970-01-01T01:00:00Z</time>
      </trkpt>
      <trkpt lat="61.114498" lon="14.145035">
        <ele>239</ele>
        <time>1970-01-01T01:00:00Z</time>
      </trkpt>
      <trkpt lat="61.114543" lon="14.145256">
        <ele>238.727</ele>
        <time>1970-01-01T01:00:00Z</time>
      </trkpt>
      <trkpt lat="61.114635" lon="14.145454">
        <ele>238.455</ele>
        <time>1970-01-01T01:00:00Z</time>
      </trkpt>
      <trkpt lat="61.114707" lon="14.145588">
        <ele>238.182</ele>
        <time>1970-01-01T01:00:00Z</time>
      </trkpt>
      <trkpt lat="61.114771" lon="14.145729">
        <ele>237.909</ele>
        <time>1970-01-01T01:00:00Z</time>
      </trkpt>
      <trkpt lat="61.114804" lon="14.145928">
        <ele>237.545</ele>
        <time>1970-01-01T01:00:00Z</time>
      </trkpt>
      <trkpt lat="61.114825" lon="14.146149">
        <ele>237.182</ele>
        <time>1970-01-01T01:00:00Z</time>
      </trkpt>
      <trkpt lat="61.114867" lon="14.14636">
        <ele>236.818</ele>
        <time>1970-01-01T01:00:00Z</time>
      </trkpt>
      <trkpt lat="61.114926" lon="14.146516">
        <ele>237</ele>
        <time>1970-01-01T01:00:00Z</time>
      </trkpt>
      <trkpt lat="61.115017" lon="14.146663">
        <ele>236.364</ele>
        <time>1970-01-01T01:00:00Z</time>
      </trkpt>
      <trkpt lat="61.115122" lon="14.146756">
        <ele>235.727</ele>
        <time>1970-01-01T01:00:00Z</time>
      </trkpt>
      <trkpt lat="61.115273" lon="14.146948">
        <ele>235.091</ele>
        <time>1970-01-01T01:00:00Z</time>
      </trkpt>
      <trkpt lat="61.115354" lon="14.147066">
        <ele>234.455</ele>
        <time>1970-01-01T01:00:00Z</time>
      </trkpt>
      <trkpt lat="61.115434" lon="14.147232">
        <ele>233.818</ele>
        <time>1970-01-01T01:00:00Z</time>
      </trkpt>
      <trkpt lat="61.115482" lon="14.147414">
        <ele>233.182</ele>
        <time>1970-01-01T01:00:00Z</time>
      </trkpt>
      <trkpt lat="61.115523" lon="14.147599">
        <ele>232.545</ele>
        <time>1970-01-01T01:00:00Z</time>
      </trkpt>
      <trkpt lat="61.115563" lon="14.147823">
        <ele>231.909</ele>
        <time>1970-01-01T01:00:00Z</time>
      </trkpt>
      <trkpt lat="61.11559" lon="14.148094">
        <ele>231.273</ele>
        <time>1970-01-01T01:00:00Z</time>
      </trkpt>
      <trkpt lat="61.115622" lon="14.148316">
        <ele>230.636</ele>
        <time>1970-01-01T01:00:00Z</time>
      </trkpt>
      <trkpt lat="61.115611" lon="14.148536">
        <ele>230</ele>
        <time>1970-01-01T01:00:00Z</time>
      </trkpt>
      <trkpt lat="61.115651" lon="14.148716">
        <ele>229.909</ele>
        <time>1970-01-01T01:00:00Z</time>
      </trkpt>
      <trkpt lat="61.115689" lon="14.148922">
        <ele>229.818</ele>
        <time>1970-01-01T01:00:00Z</time>
      </trkpt>
      <trkpt lat="61.115737" lon="14.149092">
        <ele>229.727</ele>
        <time>1970-01-01T01:00:00Z</time>
      </trkpt>
      <trkpt lat="61.115745" lon="14.149287">
        <ele>229.455</ele>
        <time>1970-01-01T01:00:00Z</time>
      </trkpt>
      <trkpt lat="61.11576" lon="14.149534">
        <ele>229.182</ele>
        <time>1970-01-01T01:00:00Z</time>
      </trkpt>
      <trkpt lat="61.115773" lon="14.149799">
        <ele>228.909</ele>
        <time>1970-01-01T01:00:00Z</time>
      </trkpt>
      <trkpt lat="61.115785" lon="14.150068">
        <ele>228.636</ele>
        <time>1970-01-01T01:00:00Z</time>
      </trkpt>
      <trkpt lat="61.115831" lon="14.150298">
        <ele>228.182</ele>
        <time>1970-01-01T01:00:00Z</time>
      </trkpt>
      <trkpt lat="61.115899" lon="14.150513">
        <ele>227.727</ele>
        <time>1970-01-01T01:00:00Z</time>
      </trkpt>
      <trkpt lat="61.115981" lon="14.150725">
        <ele>227.273</ele>
        <time>1970-01-01T01:00:00Z</time>
      </trkpt>
      <trkpt lat="61.116051" lon="14.150956">
        <ele>226.364</ele>
        <time>1970-01-01T01:00:00Z</time>
      </trkpt>
      <trkpt lat="61.116116" lon="14.151179">
        <ele>225.545</ele>
        <time>1970-01-01T01:00:00Z</time>
      </trkpt>
      <trkpt lat="61.116169" lon="14.151375">
        <ele>224.636</ele>
        <time>1970-01-01T01:00:00Z</time>
      </trkpt>
      <trkpt lat="61.1162" lon="14.151571">
        <ele>223.727</ele>
        <time>1970-01-01T01:00:00Z</time>
      </trkpt>
      <trkpt lat="61.116232" lon="14.151775">
        <ele>223</ele>
        <time>1970-01-01T01:00:00Z</time>
      </trkpt>
      <trkpt lat="61.116376" lon="14.152008">
        <ele>222.182</ele>
        <time>1970-01-01T01:00:00Z</time>
      </trkpt>
      <trkpt lat="61.116479" lon="14.152177">
        <ele>221.364</ele>
        <time>1970-01-01T01:00:00Z</time>
      </trkpt>
      <trkpt lat="61.116523" lon="14.152358">
        <ele>220.545</ele>
        <time>1970-01-01T01:00:00Z</time>
      </trkpt>
      <trkpt lat="61.1166" lon="14.152552">
        <ele>219.909</ele>
        <time>1970-01-01T01:00:00Z</time>
      </trkpt>
      <trkpt lat="61.116631" lon="14.152799">
        <ele>219.182</ele>
        <time>1970-01-01T01:00:00Z</time>
      </trkpt>
      <trkpt lat="61.116613" lon="14.153055">
        <ele>218.455</ele>
        <time>1970-01-01T01:00:00Z</time>
      </trkpt>
      <trkpt lat="61.116622" lon="14.153289">
        <ele>218.182</ele>
        <time>1970-01-01T01:00:00Z</time>
      </trkpt>
      <trkpt lat="61.11658" lon="14.153536">
        <ele>217.909</ele>
        <time>1970-01-01T01:00:00Z</time>
      </trkpt>
      <trkpt lat="61.116534" lon="14.153762">
        <ele>217.636</ele>
        <time>1970-01-01T01:00:00Z</time>
      </trkpt>
      <trkpt lat="61.116484" lon="14.153985">
        <ele>217.364</ele>
        <time>1970-01-01T01:00:00Z</time>
      </trkpt>
      <trkpt lat="61.116432" lon="14.154193">
        <ele>217.091</ele>
        <time>1970-01-01T01:00:00Z</time>
      </trkpt>
      <trkpt lat="61.116384" lon="14.154438">
        <ele>216.909</ele>
        <time>1970-01-01T01:00:00Z</time>
      </trkpt>
      <trkpt lat="61.116393" lon="14.154668">
        <ele>216.545</ele>
        <time>1970-01-01T01:00:00Z</time>
      </trkpt>
      <trkpt lat="61.116451" lon="14.154878">
        <ele>216.182</ele>
        <time>1970-01-01T01:00:00Z</time>
      </trkpt>
      <trkpt lat="61.116499" lon="14.155082">
        <ele>215.818</ele>
        <time>1970-01-01T01:00:00Z</time>
      </trkpt>
      <trkpt lat="61.116535" lon="14.155258">
        <ele>215.545</ele>
        <time>1970-01-01T01:00:00Z</time>
      </trkpt>
      <trkpt lat="61.116574" lon="14.155483">
        <ele>215.273</ele>
        <time>1970-01-01T01:00:00Z</time>
      </trkpt>
      <trkpt lat="61.116607" lon="14.155716">
        <ele>215</ele>
        <time>1970-01-01T01:00:00Z</time>
      </trkpt>
      <trkpt lat="61.116632" lon="14.155954">
        <ele>214.727</ele>
        <time>1970-01-01T01:00:00Z</time>
      </trkpt>
      <trkpt lat="61.116637" lon="14.156164">
        <ele>214.455</ele>
        <time>1970-01-01T01:00:00Z</time>
      </trkpt>
      <trkpt lat="61.116654" lon="14.156402">
        <ele>214.182</ele>
        <time>1970-01-01T01:00:00Z</time>
      </trkpt>
      <trkpt lat="61.116645" lon="14.156624">
        <ele>213.909</ele>
        <time>1970-01-01T01:00:00Z</time>
      </trkpt>
      <trkpt lat="61.116631" lon="14.156859">
        <ele>213.636</ele>
        <time>1970-01-01T01:00:00Z</time>
      </trkpt>
      <trkpt lat="61.116624" lon="14.157077">
        <ele>213.455</ele>
        <time>1970-01-01T01:00:00Z</time>
      </trkpt>
      <trkpt lat="61.116625" lon="14.15729">
        <ele>213.273</ele>
        <time>1970-01-01T01:00:00Z</time>
      </trkpt>
      <trkpt lat="61.116635" lon="14.157486">
        <ele>213.091</ele>
        <time>1970-01-01T01:00:00Z</time>
      </trkpt>
      <trkpt lat="61.116638" lon="14.157743">
        <ele>212.909</ele>
        <time>1970-01-01T01:00:00Z</time>
      </trkpt>
      <trkpt lat="61.116637" lon="14.157936">
        <ele>212.727</ele>
        <time>1970-01-01T01:00:00Z</time>
      </trkpt>
      <trkpt lat="61.116663" lon="14.158188">
        <ele>212.545</ele>
        <time>1970-01-01T01:00:00Z</time>
      </trkpt>
      <trkpt lat="61.116678" lon="14.158394">
        <ele>212.364</ele>
        <time>1970-01-01T01:00:00Z</time>
      </trkpt>
      <trkpt lat="61.116667" lon="14.158627">
        <ele>212.273</ele>
        <time>1970-01-01T01:00:00Z</time>
      </trkpt>
      <trkpt lat="61.116653" lon="14.158875">
        <ele>212.182</ele>
        <time>1970-01-01T01:00:00Z</time>
      </trkpt>
      <trkpt lat="61.116627" lon="14.159082">
        <ele>212</ele>
        <time>1970-01-01T01:00:00Z</time>
      </trkpt>
      <trkpt lat="61.116599" lon="14.15926">
        <ele>212.091</ele>
        <time>1970-01-01T01:00:00Z</time>
      </trkpt>
      <trkpt lat="61.116555" lon="14.159425">
        <ele>212.273</ele>
        <time>1970-01-01T01:00:00Z</time>
      </trkpt>
      <trkpt lat="61.116472" lon="14.159505">
        <ele>212.455</ele>
        <time>1970-01-01T01:00:00Z</time>
      </trkpt>
      <trkpt lat="61.116368" lon="14.159524">
        <ele>212.636</ele>
        <time>1970-01-01T01:00:00Z</time>
      </trkpt>
      <trkpt lat="61.116288" lon="14.159618">
        <ele>212.818</ele>
        <time>1970-01-01T01:00:00Z</time>
      </trkpt>
      <trkpt lat="61.116202" lon="14.159719">
        <ele>213</ele>
        <time>1970-01-01T01:00:00Z</time>
      </trkpt>
      <trkpt lat="61.116104" lon="14.159776">
        <ele>213.182</ele>
        <time>1970-01-01T01:00:00Z</time>
      </trkpt>
      <trkpt lat="61.116019" lon="14.159875">
        <ele>213.364</ele>
        <time>1970-01-01T01:00:00Z</time>
      </trkpt>
      <trkpt lat="61.11592" lon="14.159957">
        <ele>213.545</ele>
        <time>1970-01-01T01:00:00Z</time>
      </trkpt>
      <trkpt lat="61.115832" lon="14.160001">
        <ele>213.727</ele>
        <time>1970-01-01T01:00:00Z</time>
      </trkpt>
      <trkpt lat="61.115751" lon="14.160112">
        <ele>214.273</ele>
        <time>1970-01-01T01:00:00Z</time>
      </trkpt>
      <trkpt lat="61.115674" lon="14.160242">
        <ele>214.545</ele>
        <time>1970-01-01T01:00:00Z</time>
      </trkpt>
      <trkpt lat="61.115606" lon="14.160378">
        <ele>214.818</ele>
        <time>1970-01-01T01:00:00Z</time>
      </trkpt>
      <trkpt lat="61.115526" lon="14.160481">
        <ele>215.091</ele>
        <time>1970-01-01T01:00:00Z</time>
      </trkpt>
      <trkpt lat="61.115453" lon="14.160634">
        <ele>215.364</ele>
        <time>1970-01-01T01:00:00Z</time>
      </trkpt>
      <trkpt lat="61.115372" lon="14.160761">
        <ele>215.636</ele>
        <time>1970-01-01T01:00:00Z</time>
      </trkpt>
      <trkpt lat="61.115304" lon="14.160912">
        <ele>215.909</ele>
        <time>1970-01-01T01:00:00Z</time>
      </trkpt>
      <trkpt lat="61.115238" lon="14.161068">
        <ele>216.182</ele>
        <time>1970-01-01T01:00:00Z</time>
      </trkpt>
      <trkpt lat="61.115165" lon="14.161183">
        <ele>216.455</ele>
        <time>1970-01-01T01:00:00Z</time>
      </trkpt>
      <trkpt lat="61.11508" lon="14.16132">
        <ele>216.727</ele>
        <time>1970-01-01T01:00:00Z</time>
      </trkpt>
      <trkpt lat="61.115029" lon="14.161497">
        <ele>216.909</ele>
        <time>1970-01-01T01:00:00Z</time>
      </trkpt>
      <trkpt lat="61.114979" lon="14.161675">
        <ele>216.818</ele>
        <time>1970-01-01T01:00:00Z</time>
      </trkpt>
      <trkpt lat="61.114912" lon="14.161813">
        <ele>216.727</ele>
        <time>1970-01-01T01:00:00Z</time>
      </trkpt>
      <trkpt lat="61.114846" lon="14.161947">
        <ele>216.636</ele>
        <time>1970-01-01T01:00:00Z</time>
      </trkpt>
      <trkpt lat="61.114794" lon="14.162121">
        <ele>216.545</ele>
        <time>1970-01-01T01:00:00Z</time>
      </trkpt>
      <trkpt lat="61.114734" lon="14.162306">
        <ele>216.455</ele>
        <time>1970-01-01T01:00:00Z</time>
      </trkpt>
      <trkpt lat="61.114702" lon="14.162512">
        <ele>216.636</ele>
        <time>1970-01-01T01:00:00Z</time>
      </trkpt>
      <trkpt lat="61.114685" lon="14.162728">
        <ele>216.818</ele>
        <time>1970-01-01T01:00:00Z</time>
      </trkpt>
      <trkpt lat="61.114658" lon="14.162963">
        <ele>217.091</ele>
        <time>1970-01-01T01:00:00Z</time>
      </trkpt>
      <trkpt lat="61.114644" lon="14.163217">
        <ele>217.364</ele>
        <time>1970-01-01T01:00:00Z</time>
      </trkpt>
      <trkpt lat="61.114627" lon="14.163445">
        <ele>217.636</ele>
        <time>1970-01-01T01:00:00Z</time>
      </trkpt>
      <trkpt lat="61.11456" lon="14.163624">
        <ele>218</ele>
        <time>1970-01-01T01:00:00Z</time>
      </trkpt>
      <trkpt lat="61.114489" lon="14.163751">
        <ele>218.364</ele>
        <time>1970-01-01T01:00:00Z</time>
      </trkpt>
      <trkpt lat="61.114425" lon="14.163893">
        <ele>218.727</ele>
        <time>1970-01-01T01:00:00Z</time>
      </trkpt>
      <trkpt lat="61.11436" lon="14.164059">
        <ele>219.091</ele>
        <time>1970-01-01T01:00:00Z</time>
      </trkpt>
      <trkpt lat="61.114297" lon="14.164206">
        <ele>219.455</ele>
        <time>1970-01-01T01:00:00Z</time>
      </trkpt>
      <trkpt lat="61.114245" lon="14.16436">
        <ele>219.818</ele>
        <time>1970-01-01T01:00:00Z</time>
      </trkpt>
      <trkpt lat="61.11419" lon="14.164521">
        <ele>220.727</ele>
        <time>1970-01-01T01:00:00Z</time>
      </trkpt>
      <trkpt lat="61.114102" lon="14.164636">
        <ele>221.636</ele>
        <time>1970-01-01T01:00:00Z</time>
      </trkpt>
      <trkpt lat="61.114043" lon="14.164782">
        <ele>222.455</ele>
        <time>1970-01-01T01:00:00Z</time>
      </trkpt>
      <trkpt lat="61.113968" lon="14.164896">
        <ele>223.364</ele>
        <time>1970-01-01T01:00:00Z</time>
      </trkpt>
      <trkpt lat="61.113881" lon="14.165016">
        <ele>224.273</ele>
        <time>1970-01-01T01:00:00Z</time>
      </trkpt>
      <trkpt lat="61.113798" lon="14.165146">
        <ele>225.182</ele>
        <time>1970-01-01T01:00:00Z</time>
      </trkpt>
      <trkpt lat="61.113734" lon="14.165296">
        <ele>226.091</ele>
        <time>1970-01-01T01:00:00Z</time>
      </trkpt>
      <trkpt lat="61.113693" lon="14.165474">
        <ele>227</ele>
        <time>1970-01-01T01:00:00Z</time>
      </trkpt>
      <trkpt lat="61.113596" lon="14.165561">
        <ele>227.909</ele>
        <time>1970-01-01T01:00:00Z</time>
      </trkpt>
      <trkpt lat="61.113517" lon="14.165734">
        <ele>228.909</ele>
        <time>1970-01-01T01:00:00Z</time>
      </trkpt>
      <trkpt lat="61.113445" lon="14.165877">
        <ele>229.909</ele>
        <time>1970-01-01T01:00:00Z</time>
      </trkpt>
      <trkpt lat="61.11338" lon="14.166021">
        <ele>230.091</ele>
        <time>1970-01-01T01:00:00Z</time>
      </trkpt>
      <trkpt lat="61.113303" lon="14.166146">
        <ele>231</ele>
        <time>1970-01-01T01:00:00Z</time>
      </trkpt>
      <trkpt lat="61.113224" lon="14.166312">
        <ele>231.909</ele>
        <time>1970-01-01T01:00:00Z</time>
      </trkpt>
      <trkpt lat="61.113146" lon="14.166446">
        <ele>232.727</ele>
        <time>1970-01-01T01:00:00Z</time>
      </trkpt>
      <trkpt lat="61.113061" lon="14.166559">
        <ele>233.545</ele>
        <time>1970-01-01T01:00:00Z</time>
      </trkpt>
      <trkpt lat="61.112984" lon="14.166678">
        <ele>234.364</ele>
        <time>1970-01-01T01:00:00Z</time>
      </trkpt>
      <trkpt lat="61.112911" lon="14.166847">
        <ele>235.182</ele>
        <time>1970-01-01T01:00:00Z</time>
      </trkpt>
      <trkpt lat="61.112854" lon="14.167036">
        <ele>236.091</ele>
        <time>1970-01-01T01:00:00Z</time>
      </trkpt>
      <trkpt lat="61.112819" lon="14.167242">
        <ele>237</ele>
        <time>1970-01-01T01:00:00Z</time>
      </trkpt>
      <trkpt lat="61.112825" lon="14.167472">
        <ele>237.818</ele>
        <time>1970-01-01T01:00:00Z</time>
      </trkpt>
      <trkpt lat="61.11285" lon="14.167685">
        <ele>238.636</ele>
        <time>1970-01-01T01:00:00Z</time>
      </trkpt>
      <trkpt lat="61.112854" lon="14.167887">
        <ele>239.455</ele>
        <time>1970-01-01T01:00:00Z</time>
      </trkpt>
      <trkpt lat="61.112849" lon="14.168093">
        <ele>239.545</ele>
        <time>1970-01-01T01:00:00Z</time>
      </trkpt>
      <trkpt lat="61.112842" lon="14.168318">
        <ele>239.636</ele>
        <time>1970-01-01T01:00:00Z</time>
      </trkpt>
      <trkpt lat="61.112843" lon="14.168544">
        <ele>239.727</ele>
        <time>1970-01-01T01:00:00Z</time>
      </trkpt>
      <trkpt lat="61.112855" lon="14.168771">
        <ele>239</ele>
        <time>1970-01-01T01:00:00Z</time>
      </trkpt>
      <trkpt lat="61.11286" lon="14.168978">
        <ele>238.273</ele>
        <time>1970-01-01T01:00:00Z</time>
      </trkpt>
      <trkpt lat="61.112864" lon="14.169173">
        <ele>237.545</ele>
        <time>1970-01-01T01:00:00Z</time>
      </trkpt>
      <trkpt lat="61.11288" lon="14.169363">
        <ele>236.727</ele>
        <time>1970-01-01T01:00:00Z</time>
      </trkpt>
      <trkpt lat="61.112937" lon="14.16956">
        <ele>235.909</ele>
        <time>1970-01-01T01:00:00Z</time>
      </trkpt>
      <trkpt lat="61.113022" lon="14.16977">
        <ele>235.091</ele>
        <time>1970-01-01T01:00:00Z</time>
      </trkpt>
      <trkpt lat="61.1131" lon="14.170014">
        <ele>234.273</ele>
        <time>1970-01-01T01:00:00Z</time>
      </trkpt>
      <trkpt lat="61.113142" lon="14.170192">
        <ele>233.455</ele>
        <time>1970-01-01T01:00:00Z</time>
      </trkpt>
      <trkpt lat="61.113172" lon="14.170368">
        <ele>232.545</ele>
        <time>1970-01-01T01:00:00Z</time>
      </trkpt>
      <trkpt lat="61.113218" lon="14.170561">
        <ele>231.636</ele>
        <time>1970-01-01T01:00:00Z</time>
      </trkpt>
      <trkpt lat="61.113213" lon="14.170802">
        <ele>230.727</ele>
        <time>1970-01-01T01:00:00Z</time>
      </trkpt>
      <trkpt lat="61.113242" lon="14.170983">
        <ele>230.636</ele>
        <time>1970-01-01T01:00:00Z</time>
      </trkpt>
      <trkpt lat="61.11331" lon="14.171171">
        <ele>230.455</ele>
        <time>1970-01-01T01:00:00Z</time>
      </trkpt>
      <trkpt lat="61.113369" lon="14.171407">
        <ele>230.273</ele>
        <time>1970-01-01T01:00:00Z</time>
      </trkpt>
      <trkpt lat="61.113415" lon="14.171613">
        <ele>230.091</ele>
        <time>1970-01-01T01:00:00Z</time>
      </trkpt>
      <trkpt lat="61.113368" lon="14.171799">
        <ele>229.909</ele>
        <time>1970-01-01T01:00:00Z</time>
      </trkpt>
      <trkpt lat="61.113292" lon="14.17203">
        <ele>229.727</ele>
        <time>1970-01-01T01:00:00Z</time>
      </trkpt>
      <trkpt lat="61.113262" lon="14.172233">
        <ele>229.455</ele>
        <time>1970-01-01T01:00:00Z</time>
      </trkpt>
      <trkpt lat="61.113293" lon="14.172443">
        <ele>229.182</ele>
        <time>1970-01-01T01:00:00Z</time>
      </trkpt>
      <trkpt lat="61.113295" lon="14.172666">
        <ele>229</ele>
        <time>1970-01-01T01:00:00Z</time>
      </trkpt>
      <trkpt lat="61.113335" lon="14.172885">
        <ele>228.727</ele>
        <time>1970-01-01T01:00:00Z</time>
      </trkpt>
      <trkpt lat="61.113411" lon="14.17302">
        <ele>228.455</ele>
        <time>1970-01-01T01:00:00Z</time>
      </trkpt>
      <trkpt lat="61.113467" lon="14.173324">
        <ele>228.182</ele>
        <time>1970-01-01T01:00:00Z</time>
      </trkpt>
      <trkpt lat="61.113505" lon="14.173538">
        <ele>228</ele>
        <time>1970-01-01T01:00:00Z</time>
      </trkpt>
      <trkpt lat="61.11354" lon="14.173765">
        <ele>227.818</ele>
        <time>1970-01-01T01:00:00Z</time>
      </trkpt>
      <trkpt lat="61.113575" lon="14.173986">
        <ele>227.636</ele>
        <time>1970-01-01T01:00:00Z</time>
      </trkpt>
      <trkpt lat="61.1136" lon="14.17421">
        <ele>227.455</ele>
        <time>1970-01-01T01:00:00Z</time>
      </trkpt>
      <trkpt lat="61.113598" lon="14.174399">
        <ele>227.273</ele>
        <time>1970-01-01T01:00:00Z</time>
      </trkpt>
      <trkpt lat="61.113644" lon="14.174618">
        <ele>226.545</ele>
        <time>1970-01-01T01:00:00Z</time>
      </trkpt>
      <trkpt lat="61.113661" lon="14.174893">
        <ele>225.818</ele>
        <time>1970-01-01T01:00:00Z</time>
      </trkpt>
      <trkpt lat="61.113708" lon="14.175085">
        <ele>225.091</ele>
        <time>1970-01-01T01:00:00Z</time>
      </trkpt>
      <trkpt lat="61.113734" lon="14.175286">
        <ele>224.455</ele>
        <time>1970-01-01T01:00:00Z</time>
      </trkpt>
      <trkpt lat="61.113755" lon="14.175487">
        <ele>223.818</ele>
        <time>1970-01-01T01:00:00Z</time>
      </trkpt>
      <trkpt lat="61.113807" lon="14.175717">
        <ele>223.182</ele>
        <time>1970-01-01T01:00:00Z</time>
      </trkpt>
      <trkpt lat="61.113832" lon="14.175896">
        <ele>222.545</ele>
        <time>1970-01-01T01:00:00Z</time>
      </trkpt>
      <trkpt lat="61.113867" lon="14.176104">
        <ele>221.909</ele>
        <time>1970-01-01T01:00:00Z</time>
      </trkpt>
      <trkpt lat="61.11389" lon="14.176288">
        <ele>221.273</ele>
        <time>1970-01-01T01:00:00Z</time>
      </trkpt>
      <trkpt lat="61.113936" lon="14.176458">
        <ele>220.636</ele>
        <time>1970-01-01T01:00:00Z</time>
      </trkpt>
      <trkpt lat="61.114037" lon="14.176603">
        <ele>220</ele>
        <time>1970-01-01T01:00:00Z</time>
      </trkpt>
      <trkpt lat="61.114125" lon="14.176748">
        <ele>219.545</ele>
        <time>1970-01-01T01:00:00Z</time>
      </trkpt>
      <trkpt lat="61.114231" lon="14.176828">
        <ele>219.091</ele>
        <time>1970-01-01T01:00:00Z</time>
      </trkpt>
      <trkpt lat="61.114338" lon="14.17692">
        <ele>218.636</ele>
        <time>1970-01-01T01:00:00Z</time>
      </trkpt>
      <trkpt lat="61.114439" lon="14.176925">
        <ele>218.273</ele>
        <time>1970-01-01T01:00:00Z</time>
      </trkpt>
      <trkpt lat="61.114531" lon="14.176815">
        <ele>217.909</ele>
        <time>1970-01-01T01:00:00Z</time>
      </trkpt>
      <trkpt lat="61.114635" lon="14.176708">
        <ele>217.545</ele>
        <time>1970-01-01T01:00:00Z</time>
      </trkpt>
      <trkpt lat="61.114714" lon="14.176532">
        <ele>217.182</ele>
        <time>1970-01-01T01:00:00Z</time>
      </trkpt>
      <trkpt lat="61.114795" lon="14.176392">
        <ele>216.818</ele>
        <time>1970-01-01T01:00:00Z</time>
      </trkpt>
      <trkpt lat="61.11489" lon="14.176234">
        <ele>216.455</ele>
        <time>1970-01-01T01:00:00Z</time>
      </trkpt>
      <trkpt lat="61.114967" lon="14.176106">
        <ele>216.182</ele>
        <time>1970-01-01T01:00:00Z</time>
      </trkpt>
      <trkpt lat="61.115071" lon="14.175948">
        <ele>215.455</ele>
        <time>1970-01-01T01:00:00Z</time>
      </trkpt>
      <trkpt lat="61.11516" lon="14.175834">
        <ele>215.182</ele>
        <time>1970-01-01T01:00:00Z</time>
      </trkpt>
      <trkpt lat="61.11524" lon="14.175718">
        <ele>214.909</ele>
        <time>1970-01-01T01:00:00Z</time>
      </trkpt>
      <trkpt lat="61.115321" lon="14.175543">
        <ele>214.636</ele>
        <time>1970-01-01T01:00:00Z</time>
      </trkpt>
      <trkpt lat="61.115404" lon="14.175349">
        <ele>214.182</ele>
        <time>1970-01-01T01:00:00Z</time>
      </trkpt>
      <trkpt lat="61.115488" lon="14.175144">
        <ele>213.727</ele>
        <time>1970-01-01T01:00:00Z</time>
      </trkpt>
      <trkpt lat="61.115642" lon="14.175136">
        <ele>213.727</ele>
        <time>1970-01-01T01:00:00Z</time>
      </trkpt>
      <trkpt lat="61.115729" lon="14.175263">
        <ele>213.727</ele>
        <time>1970-01-01T01:00:00Z</time>
      </trkpt>
      <trkpt lat="61.115663" lon="14.175457">
        <ele>213.727</ele>
        <time>1970-01-01T01:00:00Z</time>
      </trkpt>
      <trkpt lat="61.115579" lon="14.175581">
        <ele>213.727</ele>
        <time>1970-01-01T01:00:00Z</time>
      </trkpt>
      <trkpt lat="61.115501" lon="14.175685">
        <ele>213.545</ele>
        <time>1970-01-01T01:00:00Z</time>
      </trkpt>
      <trkpt lat="61.115419" lon="14.175816">
        <ele>213.818</ele>
        <time>1970-01-01T01:00:00Z</time>
      </trkpt>
      <trkpt lat="61.115345" lon="14.175926">
        <ele>214.091</ele>
        <time>1970-01-01T01:00:00Z</time>
      </trkpt>
      <trkpt lat="61.115284" lon="14.1761">
        <ele>214.364</ele>
        <time>1970-01-01T01:00:00Z</time>
      </trkpt>
      <trkpt lat="61.115222" lon="14.176243">
        <ele>214.636</ele>
        <time>1970-01-01T01:00:00Z</time>
      </trkpt>
      <trkpt lat="61.115149" lon="14.176359">
        <ele>215</ele>
        <time>1970-01-01T01:00:00Z</time>
      </trkpt>
      <trkpt lat="61.11507" lon="14.176462">
        <ele>215.444</ele>
        <time>1970-01-01T01:00:00Z</time>
      </trkpt>
      <trkpt lat="61.114983" lon="14.176556">
        <ele>215.375</ele>
        <time>1970-01-01T01:00:00Z</time>
      </trkpt>
      <trkpt lat="61.11491" lon="14.176674">
        <ele>215.286</ele>
        <time>1970-01-01T01:00:00Z</time>
      </trkpt>
      <trkpt lat="61.114887" lon="14.176706">
        <ele>215.167</ele>
        <time>1970-01-01T01:00:00Z</time>
      </trkpt>
      <trkpt lat="61.114819" lon="14.176794">
        <ele>217.5</ele>
        <time>1970-01-01T01:00:00Z</time>
      </trkpt>
      <trkpt lat="61.114752" lon="14.176879">
        <ele>217.857</ele>
        <time>1970-01-01T01:00:00Z</time>
      </trkpt>
      <trkpt lat="61.114664" lon="14.176937">
        <ele>218.125</ele>
        <time>1970-01-01T01:00:00Z</time>
      </trkpt>
      <trkpt lat="61.11457" lon="14.177005">
        <ele>218.333</ele>
        <time>1970-01-01T01:00:00Z</time>
      </trkpt>
      <trkpt lat="61.114468" lon="14.177091">
        <ele>218.5</ele>
        <time>1970-01-01T01:00:00Z</time>
      </trkpt>
      <trkpt lat="61.114379" lon="14.177191">
        <ele>218.636</ele>
        <time>1970-01-01T01:00:00Z</time>
      </trkpt>
      <trkpt lat="61.114288" lon="14.177302">
        <ele>219</ele>
        <time>1970-01-01T01:00:00Z</time>
      </trkpt>
      <trkpt lat="61.114197" lon="14.177419">
        <ele>219.364</ele>
        <time>1970-01-01T01:00:00Z</time>
      </trkpt>
      <trkpt lat="61.114109" lon="14.177534">
        <ele>219.727</ele>
        <time>1970-01-01T01:00:00Z</time>
      </trkpt>
      <trkpt lat="61.114022" lon="14.177654">
        <ele>219.636</ele>
        <time>1970-01-01T01:00:00Z</time>
      </trkpt>
      <trkpt lat="61.113949" lon="14.177844">
        <ele>219.455</ele>
        <time>1970-01-01T01:00:00Z</time>
      </trkpt>
      <trkpt lat="61.113913" lon="14.178085">
        <ele>219.273</ele>
        <time>1970-01-01T01:00:00Z</time>
      </trkpt>
      <trkpt lat="61.1139" lon="14.178276">
        <ele>219.091</ele>
        <time>1970-01-01T01:00:00Z</time>
      </trkpt>
      <trkpt lat="61.113922" lon="14.178472">
        <ele>218.909</ele>
        <time>1970-01-01T01:00:00Z</time>
      </trkpt>
      <trkpt lat="61.113931" lon="14.17869">
        <ele>218.636</ele>
        <time>1970-01-01T01:00:00Z</time>
      </trkpt>
      <trkpt lat="61.113932" lon="14.178888">
        <ele>218.364</ele>
        <time>1970-01-01T01:00:00Z</time>
      </trkpt>
      <trkpt lat="61.113942" lon="14.179079">
        <ele>218.091</ele>
        <time>1970-01-01T01:00:00Z</time>
      </trkpt>
      <trkpt lat="61.113935" lon="14.17928">
        <ele>217.909</ele>
        <time>1970-01-01T01:00:00Z</time>
      </trkpt>
      <trkpt lat="61.113934" lon="14.17951">
        <ele>217.636</ele>
        <time>1970-01-01T01:00:00Z</time>
      </trkpt>
      <trkpt lat="61.113923" lon="14.179706">
        <ele>217.727</ele>
        <time>1970-01-01T01:00:00Z</time>
      </trkpt>
      <trkpt lat="61.113901" lon="14.179905">
        <ele>217.818</ele>
        <time>1970-01-01T01:00:00Z</time>
      </trkpt>
      <trkpt lat="61.113862" lon="14.180097">
        <ele>218</ele>
        <time>1970-01-01T01:00:00Z</time>
      </trkpt>
      <trkpt lat="61.113841" lon="14.180282">
        <ele>218.182</ele>
        <time>1970-01-01T01:00:00Z</time>
      </trkpt>
      <trkpt lat="61.113821" lon="14.180481">
        <ele>218.364</ele>
        <time>1970-01-01T01:00:00Z</time>
      </trkpt>
      <trkpt lat="61.113798" lon="14.180757">
        <ele>218.545</ele>
        <time>1970-01-01T01:00:00Z</time>
      </trkpt>
      <trkpt lat="61.113779" lon="14.181011">
        <ele>218.818</ele>
        <time>1970-01-01T01:00:00Z</time>
      </trkpt>
      <trkpt lat="61.113771" lon="14.181234">
        <ele>219.091</ele>
        <time>1970-01-01T01:00:00Z</time>
      </trkpt>
      <trkpt lat="61.113762" lon="14.181429">
        <ele>219.364</ele>
        <time>1970-01-01T01:00:00Z</time>
      </trkpt>
      <trkpt lat="61.113745" lon="14.181657">
        <ele>219.636</ele>
        <time>1970-01-01T01:00:00Z</time>
      </trkpt>
      <trkpt lat="61.113716" lon="14.181861">
        <ele>220</ele>
        <time>1970-01-01T01:00:00Z</time>
      </trkpt>
      <trkpt lat="61.113689" lon="14.182058">
        <ele>220</ele>
        <time>1970-01-01T01:00:00Z</time>
      </trkpt>
      <trkpt lat="61.113673" lon="14.182327">
        <ele>220</ele>
        <time>1970-01-01T01:00:00Z</time>
      </trkpt>
      <trkpt lat="61.113661" lon="14.18254">
        <ele>220</ele>
        <time>1970-01-01T01:00:00Z</time>
      </trkpt>
      <trkpt lat="61.11365" lon="14.182745">
        <ele>220</ele>
        <time>1970-01-01T01:00:00Z</time>
      </trkpt>
      <trkpt lat="61.113594" lon="14.183115">
        <ele>220</ele>
        <time>1970-01-01T01:00:00Z</time>
      </trkpt>
      <trkpt lat="61.113539" lon="14.183336">
        <ele>220</ele>
        <time>1970-01-01T01:00:00Z</time>
      </trkpt>
      <trkpt lat="61.113485" lon="14.183545">
        <ele>220</ele>
        <time>1970-01-01T01:00:00Z</time>
      </trkpt>
      <trkpt lat="61.113422" lon="14.183771">
        <ele>220</ele>
        <time>1970-01-01T01:00:00Z</time>
      </trkpt>
      <trkpt lat="61.113401" lon="14.183981">
        <ele>220</ele>
        <time>1970-01-01T01:00:00Z</time>
      </trkpt>
      <trkpt lat="61.113373" lon="14.184162">
        <ele>220</ele>
        <time>1970-01-01T01:00:00Z</time>
      </trkpt>
      <trkpt lat="61.113334" lon="14.184447">
        <ele>219.818</ele>
        <time>1970-01-01T01:00:00Z</time>
      </trkpt>
      <trkpt lat="61.113313" lon="14.184632">
        <ele>219.636</ele>
        <time>1970-01-01T01:00:00Z</time>
      </trkpt>
      <trkpt lat="61.113298" lon="14.184889">
        <ele>219.455</ele>
        <time>1970-01-01T01:00:00Z</time>
      </trkpt>
      <trkpt lat="61.11329" lon="14.185138">
        <ele>219.273</ele>
        <time>1970-01-01T01:00:00Z</time>
      </trkpt>
      <trkpt lat="61.1133" lon="14.185384">
        <ele>219</ele>
        <time>1970-01-01T01:00:00Z</time>
      </trkpt>
      <trkpt lat="61.113312" lon="14.18558">
        <ele>218.727</ele>
        <time>1970-01-01T01:00:00Z</time>
      </trkpt>
      <trkpt lat="61.113323" lon="14.185767">
        <ele>218.455</ele>
        <time>1970-01-01T01:00:00Z</time>
      </trkpt>
      <trkpt lat="61.113333" lon="14.186016">
        <ele>218.182</ele>
        <time>1970-01-01T01:00:00Z</time>
      </trkpt>
      <trkpt lat="61.113327" lon="14.186257">
        <ele>217.909</ele>
        <time>1970-01-01T01:00:00Z</time>
      </trkpt>
      <trkpt lat="61.113293" lon="14.186458">
        <ele>217.636</ele>
        <time>1970-01-01T01:00:00Z</time>
      </trkpt>
      <trkpt lat="61.113244" lon="14.186678">
        <ele>217.364</ele>
        <time>1970-01-01T01:00:00Z</time>
      </trkpt>
      <trkpt lat="61.113205" lon="14.186846">
        <ele>217.273</ele>
        <time>1970-01-01T01:00:00Z</time>
      </trkpt>
      <trkpt lat="61.113171" lon="14.187035">
        <ele>217.182</ele>
        <time>1970-01-01T01:00:00Z</time>
      </trkpt>
      <trkpt lat="61.113142" lon="14.187224">
        <ele>217.909</ele>
        <time>1970-01-01T01:00:00Z</time>
      </trkpt>
      <trkpt lat="61.113108" lon="14.187477">
        <ele>218.636</ele>
        <time>1970-01-01T01:00:00Z</time>
      </trkpt>
      <trkpt lat="61.11308" lon="14.187657">
        <ele>219.455</ele>
        <time>1970-01-01T01:00:00Z</time>
      </trkpt>
      <trkpt lat="61.113023" lon="14.187852">
        <ele>220.091</ele>
        <time>1970-01-01T01:00:00Z</time>
      </trkpt>
      <trkpt lat="61.113015" lon="14.188097">
        <ele>220.727</ele>
        <time>1970-01-01T01:00:00Z</time>
      </trkpt>
      <trkpt lat="61.112967" lon="14.18828">
        <ele>221.364</ele>
        <time>1970-01-01T01:00:00Z</time>
      </trkpt>
      <trkpt lat="61.112901" lon="14.188435">
        <ele>222</ele>
        <time>1970-01-01T01:00:00Z</time>
      </trkpt>
      <trkpt lat="61.112848" lon="14.188595">
        <ele>222.636</ele>
        <time>1970-01-01T01:00:00Z</time>
      </trkpt>
      <trkpt lat="61.112796" lon="14.188804">
        <ele>223</ele>
        <time>1970-01-01T01:00:00Z</time>
      </trkpt>
      <trkpt lat="61.112772" lon="14.188985">
        <ele>223.364</ele>
        <time>1970-01-01T01:00:00Z</time>
      </trkpt>
      <trkpt lat="61.112749" lon="14.189189">
        <ele>223.727</ele>
        <time>1970-01-01T01:00:00Z</time>
      </trkpt>
      <trkpt lat="61.112737" lon="14.189402">
        <ele>223.273</ele>
        <time>1970-01-01T01:00:00Z</time>
      </trkpt>
      <trkpt lat="61.112731" lon="14.189602">
        <ele>222.818</ele>
        <time>1970-01-01T01:00:00Z</time>
      </trkpt>
      <trkpt lat="61.112717" lon="14.189786">
        <ele>222.364</ele>
        <time>1970-01-01T01:00:00Z</time>
      </trkpt>
      <trkpt lat="61.1127" lon="14.189996">
        <ele>222.091</ele>
        <time>1970-01-01T01:00:00Z</time>
      </trkpt>
      <trkpt lat="61.112689" lon="14.190187">
        <ele>221.818</ele>
        <time>1970-01-01T01:00:00Z</time>
      </trkpt>
      <trkpt lat="61.112645" lon="14.190371">
        <ele>221.545</ele>
        <time>1970-01-01T01:00:00Z</time>
      </trkpt>
      <trkpt lat="61.112579" lon="14.190506">
        <ele>221.182</ele>
        <time>1970-01-01T01:00:00Z</time>
      </trkpt>
      <trkpt lat="61.112503" lon="14.190615">
        <ele>220.818</ele>
        <time>1970-01-01T01:00:00Z</time>
      </trkpt>
      <trkpt lat="61.112444" lon="14.190777">
        <ele>220.727</ele>
        <time>1970-01-01T01:00:00Z</time>
      </trkpt>
      <trkpt lat="61.112391" lon="14.190948">
        <ele>220.636</ele>
        <time>1970-01-01T01:00:00Z</time>
      </trkpt>
      <trkpt lat="61.112331" lon="14.191139">
        <ele>221</ele>
        <time>1970-01-01T01:00:00Z</time>
      </trkpt>
      <trkpt lat="61.112274" lon="14.191332">
        <ele>221.364</ele>
        <time>1970-01-01T01:00:00Z</time>
      </trkpt>
      <trkpt lat="61.112231" lon="14.191509">
        <ele>221.364</ele>
        <time>1970-01-01T01:00:00Z</time>
      </trkpt>
      <trkpt lat="61.112183" lon="14.191673">
        <ele>221.364</ele>
        <time>1970-01-01T01:00:00Z</time>
      </trkpt>
      <trkpt lat="61.11215" lon="14.191866">
        <ele>221.364</ele>
        <time>1970-01-01T01:00:00Z</time>
      </trkpt>
      <trkpt lat="61.112088" lon="14.192022">
        <ele>221.364</ele>
        <time>1970-01-01T01:00:00Z</time>
      </trkpt>
      <trkpt lat="61.112018" lon="14.192185">
        <ele>221.273</ele>
        <time>1970-01-01T01:00:00Z</time>
      </trkpt>
      <trkpt lat="61.111983" lon="14.192357">
        <ele>221.273</ele>
        <time>1970-01-01T01:00:00Z</time>
      </trkpt>
      <trkpt lat="61.111921" lon="14.19257">
        <ele>221.273</ele>
        <time>1970-01-01T01:00:00Z</time>
      </trkpt>
      <trkpt lat="61.111865" lon="14.19279">
        <ele>221.273</ele>
        <time>1970-01-01T01:00:00Z</time>
      </trkpt>
      <trkpt lat="61.111817" lon="14.193012">
        <ele>221.273</ele>
        <time>1970-01-01T01:00:00Z</time>
      </trkpt>
      <trkpt lat="61.111769" lon="14.193198">
        <ele>220.636</ele>
        <time>1970-01-01T01:00:00Z</time>
      </trkpt>
      <trkpt lat="61.111708" lon="14.193393">
        <ele>220</ele>
        <time>1970-01-01T01:00:00Z</time>
      </trkpt>
      <trkpt lat="61.111627" lon="14.193549">
        <ele>219.727</ele>
        <time>1970-01-01T01:00:00Z</time>
      </trkpt>
      <trkpt lat="61.111559" lon="14.193682">
        <ele>219.636</ele>
        <time>1970-01-01T01:00:00Z</time>
      </trkpt>
      <trkpt lat="61.111483" lon="14.193791">
        <ele>219.455</ele>
        <time>1970-01-01T01:00:00Z</time>
      </trkpt>
      <trkpt lat="61.111399" lon="14.193911">
        <ele>219.273</ele>
        <time>1970-01-01T01:00:00Z</time>
      </trkpt>
      <trkpt lat="61.11135" lon="14.194087">
        <ele>219.182</ele>
        <time>1970-01-01T01:00:00Z</time>
      </trkpt>
      <trkpt lat="61.111301" lon="14.194298">
        <ele>219.091</ele>
        <time>1970-01-01T01:00:00Z</time>
      </trkpt>
      <trkpt lat="61.111263" lon="14.19449">
        <ele>219</ele>
        <time>1970-01-01T01:00:00Z</time>
      </trkpt>
      <trkpt lat="61.1112" lon="14.194691">
        <ele>219</ele>
        <time>1970-01-01T01:00:00Z</time>
      </trkpt>
      <trkpt lat="61.111135" lon="14.194863">
        <ele>219</ele>
        <time>1970-01-01T01:00:00Z</time>
      </trkpt>
      <trkpt lat="61.11107" lon="14.195019">
        <ele>219.182</ele>
        <time>1970-01-01T01:00:00Z</time>
      </trkpt>
      <trkpt lat="61.111013" lon="14.195189">
        <ele>219.364</ele>
        <time>1970-01-01T01:00:00Z</time>
      </trkpt>
      <trkpt lat="61.110981" lon="14.195383">
        <ele>219.545</ele>
        <time>1970-01-01T01:00:00Z</time>
      </trkpt>
      <trkpt lat="61.11099" lon="14.195588">
        <ele>219.545</ele>
        <time>1970-01-01T01:00:00Z</time>
      </trkpt>
      <trkpt lat="61.110904" lon="14.195664">
        <ele>219.636</ele>
        <time>1970-01-01T01:00:00Z</time>
      </trkpt>
      <trkpt lat="61.110833" lon="14.195779">
        <ele>220.727</ele>
        <time>1970-01-01T01:00:00Z</time>
      </trkpt>
      <trkpt lat="61.110751" lon="14.195891">
        <ele>221.818</ele>
        <time>1970-01-01T01:00:00Z</time>
      </trkpt>
      <trkpt lat="61.110658" lon="14.195927">
        <ele>223.364</ele>
        <time>1970-01-01T01:00:00Z</time>
      </trkpt>
      <trkpt lat="61.110572" lon="14.195993">
        <ele>224.909</ele>
        <time>1970-01-01T01:00:00Z</time>
      </trkpt>
      <trkpt lat="61.110474" lon="14.196069">
        <ele>226.364</ele>
        <time>1970-01-01T01:00:00Z</time>
      </trkpt>
      <trkpt lat="61.110386" lon="14.196128">
        <ele>227.818</ele>
        <time>1970-01-01T01:00:00Z</time>
      </trkpt>
      <trkpt lat="61.110311" lon="14.196238">
        <ele>229.636</ele>
        <time>1970-01-01T01:00:00Z</time>
      </trkpt>
      <trkpt lat="61.110243" lon="14.196381">
        <ele>231.455</ele>
        <time>1970-01-01T01:00:00Z</time>
      </trkpt>
      <trkpt lat="61.110222" lon="14.19659">
        <ele>233.273</ele>
        <time>1970-01-01T01:00:00Z</time>
      </trkpt>
      <trkpt lat="61.110202" lon="14.196802">
        <ele>235.091</ele>
        <time>1970-01-01T01:00:00Z</time>
      </trkpt>
      <trkpt lat="61.110175" lon="14.196997">
        <ele>237.182</ele>
        <time>1970-01-01T01:00:00Z</time>
      </trkpt>
      <trkpt lat="61.110166" lon="14.197212">
        <ele>238.273</ele>
        <time>1970-01-01T01:00:00Z</time>
      </trkpt>
      <trkpt lat="61.110187" lon="14.197396">
        <ele>239.364</ele>
        <time>1970-01-01T01:00:00Z</time>
      </trkpt>
      <trkpt lat="61.110204" lon="14.197596">
        <ele>240</ele>
        <time>1970-01-01T01:00:00Z</time>
      </trkpt>
      <trkpt lat="61.110193" lon="14.197798">
        <ele>240.636</ele>
        <time>1970-01-01T01:00:00Z</time>
      </trkpt>
      <trkpt lat="61.11015" lon="14.197968">
        <ele>241.636</ele>
        <time>1970-01-01T01:00:00Z</time>
      </trkpt>
      <trkpt lat="61.110085" lon="14.198132">
        <ele>242.636</ele>
        <time>1970-01-01T01:00:00Z</time>
      </trkpt>
      <trkpt lat="61.110008" lon="14.198262">
        <ele>243.273</ele>
        <time>1970-01-01T01:00:00Z</time>
      </trkpt>
      <trkpt lat="61.109956" lon="14.198435">
        <ele>243.909</ele>
        <time>1970-01-01T01:00:00Z</time>
      </trkpt>
      <trkpt lat="61.109902" lon="14.198611">
        <ele>245.545</ele>
        <time>1970-01-01T01:00:00Z</time>
      </trkpt>
      <trkpt lat="61.109843" lon="14.198806">
        <ele>247.636</ele>
        <time>1970-01-01T01:00:00Z</time>
      </trkpt>
      <trkpt lat="61.109787" lon="14.198973">
        <ele>249.455</ele>
        <time>1970-01-01T01:00:00Z</time>
      </trkpt>
      <trkpt lat="61.109722" lon="14.199131">
        <ele>251.273</ele>
        <time>1970-01-01T01:00:00Z</time>
      </trkpt>
      <trkpt lat="61.109662" lon="14.199285">
        <ele>253.091</ele>
        <time>1970-01-01T01:00:00Z</time>
      </trkpt>
      <trkpt lat="61.1096" lon="14.199486">
        <ele>254.909</ele>
        <time>1970-01-01T01:00:00Z</time>
      </trkpt>
      <trkpt lat="61.109548" lon="14.19968">
        <ele>257</ele>
        <time>1970-01-01T01:00:00Z</time>
      </trkpt>
      <trkpt lat="61.109492" lon="14.199865">
        <ele>258.727</ele>
        <time>1970-01-01T01:00:00Z</time>
      </trkpt>
      <trkpt lat="61.109433" lon="14.200086">
        <ele>260.455</ele>
        <time>1970-01-01T01:00:00Z</time>
      </trkpt>
      <trkpt lat="61.109363" lon="14.200256">
        <ele>262.182</ele>
        <time>1970-01-01T01:00:00Z</time>
      </trkpt>
      <trkpt lat="61.109271" lon="14.200394">
        <ele>263.909</ele>
        <time>1970-01-01T01:00:00Z</time>
      </trkpt>
      <trkpt lat="61.109222" lon="14.200579">
        <ele>264.636</ele>
        <time>1970-01-01T01:00:00Z</time>
      </trkpt>
      <trkpt lat="61.109178" lon="14.200756">
        <ele>264.909</ele>
        <time>1970-01-01T01:00:00Z</time>
      </trkpt>
      <trkpt lat="61.109101" lon="14.200952">
        <ele>266.818</ele>
        <time>1970-01-01T01:00:00Z</time>
      </trkpt>
      <trkpt lat="61.10902" lon="14.201174">
        <ele>268.727</ele>
        <time>1970-01-01T01:00:00Z</time>
      </trkpt>
      <trkpt lat="61.108968" lon="14.201332">
        <ele>270.636</ele>
        <time>1970-01-01T01:00:00Z</time>
      </trkpt>
      <trkpt lat="61.108895" lon="14.201547">
        <ele>272.545</ele>
        <time>1970-01-01T01:00:00Z</time>
      </trkpt>
      <trkpt lat="61.108826" lon="14.201743">
        <ele>274.182</ele>
        <time>1970-01-01T01:00:00Z</time>
      </trkpt>
      <trkpt lat="61.108775" lon="14.201941">
        <ele>275.818</ele>
        <time>1970-01-01T01:00:00Z</time>
      </trkpt>
      <trkpt lat="61.108724" lon="14.202096">
        <ele>277.182</ele>
        <time>1970-01-01T01:00:00Z</time>
      </trkpt>
      <trkpt lat="61.108682" lon="14.202266">
        <ele>278.545</ele>
        <time>1970-01-01T01:00:00Z</time>
      </trkpt>
      <trkpt lat="61.108634" lon="14.202464">
        <ele>279.909</ele>
        <time>1970-01-01T01:00:00Z</time>
      </trkpt>
      <trkpt lat="61.108569" lon="14.202622">
        <ele>281.273</ele>
        <time>1970-01-01T01:00:00Z</time>
      </trkpt>
      <trkpt lat="61.108505" lon="14.202808">
        <ele>282.636</ele>
        <time>1970-01-01T01:00:00Z</time>
      </trkpt>
      <trkpt lat="61.10844" lon="14.203039">
        <ele>282.091</ele>
        <time>1970-01-01T01:00:00Z</time>
      </trkpt>
      <trkpt lat="61.108372" lon="14.203236">
        <ele>281.545</ele>
        <time>1970-01-01T01:00:00Z</time>
      </trkpt>
      <trkpt lat="61.108298" lon="14.203399">
        <ele>281</ele>
        <time>1970-01-01T01:00:00Z</time>
      </trkpt>
      <trkpt lat="61.108223" lon="14.203566">
        <ele>281.091</ele>
        <time>1970-01-01T01:00:00Z</time>
      </trkpt>
      <trkpt lat="61.108155" lon="14.203758">
        <ele>281.182</ele>
        <time>1970-01-01T01:00:00Z</time>
      </trkpt>
      <trkpt lat="61.108093" lon="14.203907">
        <ele>280.909</ele>
        <time>1970-01-01T01:00:00Z</time>
      </trkpt>
      <trkpt lat="61.108052" lon="14.204118">
        <ele>280.909</ele>
        <time>1970-01-01T01:00:00Z</time>
      </trkpt>
      <trkpt lat="61.107998" lon="14.204279">
        <ele>280.909</ele>
        <time>1970-01-01T01:00:00Z</time>
      </trkpt>
      <trkpt lat="61.107932" lon="14.204459">
        <ele>280.909</ele>
        <time>1970-01-01T01:00:00Z</time>
      </trkpt>
      <trkpt lat="61.10788" lon="14.204639">
        <ele>280.636</ele>
        <time>1970-01-01T01:00:00Z</time>
      </trkpt>
      <trkpt lat="61.107829" lon="14.204819">
        <ele>280.364</ele>
        <time>1970-01-01T01:00:00Z</time>
      </trkpt>
      <trkpt lat="61.107775" lon="14.205017">
        <ele>280.364</ele>
        <time>1970-01-01T01:00:00Z</time>
      </trkpt>
      <trkpt lat="61.107686" lon="14.205123">
        <ele>279.727</ele>
        <time>1970-01-01T01:00:00Z</time>
      </trkpt>
      <trkpt lat="61.107597" lon="14.205254">
        <ele>279.091</ele>
        <time>1970-01-01T01:00:00Z</time>
      </trkpt>
      <trkpt lat="61.107464" lon="14.205806">
        <ele>277.818</ele>
        <time>1970-01-01T01:00:00Z</time>
      </trkpt>
      <trkpt lat="61.107421" lon="14.205993">
        <ele>276.545</ele>
        <time>1970-01-01T01:00:00Z</time>
      </trkpt>
      <trkpt lat="61.107361" lon="14.20618">
        <ele>276.545</ele>
        <time>1970-01-01T01:00:00Z</time>
      </trkpt>
      <trkpt lat="61.107302" lon="14.206365">
        <ele>276.364</ele>
        <time>1970-01-01T01:00:00Z</time>
      </trkpt>
      <trkpt lat="61.107255" lon="14.206539">
        <ele>276.182</ele>
        <time>1970-01-01T01:00:00Z</time>
      </trkpt>
      <trkpt lat="61.107208" lon="14.206702">
        <ele>276</ele>
        <time>1970-01-01T01:00:00Z</time>
      </trkpt>
      <trkpt lat="61.107132" lon="14.206809">
        <ele>276.091</ele>
        <time>1970-01-01T01:00:00Z</time>
      </trkpt>
      <trkpt lat="61.10708" lon="14.207001">
        <ele>275</ele>
        <time>1970-01-01T01:00:00Z</time>
      </trkpt>
      <trkpt lat="61.107034" lon="14.207171">
        <ele>273.909</ele>
        <time>1970-01-01T01:00:00Z</time>
      </trkpt>
      <trkpt lat="61.106968" lon="14.207407">
        <ele>273.455</ele>
        <time>1970-01-01T01:00:00Z</time>
      </trkpt>
      <trkpt lat="61.10691" lon="14.207598">
        <ele>273</ele>
        <time>1970-01-01T01:00:00Z</time>
      </trkpt>
      <trkpt lat="61.10685" lon="14.207833">
        <ele>271.909</ele>
        <time>1970-01-01T01:00:00Z</time>
      </trkpt>
      <trkpt lat="61.106808" lon="14.208026">
        <ele>270.818</ele>
        <time>1970-01-01T01:00:00Z</time>
      </trkpt>
      <trkpt lat="61.106696" lon="14.208311">
        <ele>268.818</ele>
        <time>1970-01-01T01:00:00Z</time>
      </trkpt>
      <trkpt lat="61.10665" lon="14.208492">
        <ele>267</ele>
        <time>1970-01-01T01:00:00Z</time>
      </trkpt>
      <trkpt lat="61.10659" lon="14.208663">
        <ele>265.182</ele>
        <time>1970-01-01T01:00:00Z</time>
      </trkpt>
      <trkpt lat="61.106537" lon="14.208828">
        <ele>263.727</ele>
        <time>1970-01-01T01:00:00Z</time>
      </trkpt>
      <trkpt lat="61.106481" lon="14.20903">
        <ele>262.273</ele>
        <time>1970-01-01T01:00:00Z</time>
      </trkpt>
      <trkpt lat="61.10642" lon="14.209177">
        <ele>262</ele>
        <time>1970-01-01T01:00:00Z</time>
      </trkpt>
      <trkpt lat="61.106358" lon="14.209349">
        <ele>261.727</ele>
        <time>1970-01-01T01:00:00Z</time>
      </trkpt>
      <trkpt lat="61.106313" lon="14.209517">
        <ele>261.455</ele>
        <time>1970-01-01T01:00:00Z</time>
      </trkpt>
      <trkpt lat="61.106252" lon="14.209681">
        <ele>260.455</ele>
        <time>1970-01-01T01:00:00Z</time>
      </trkpt>
      <trkpt lat="61.106187" lon="14.209832">
        <ele>260.091</ele>
        <time>1970-01-01T01:00:00Z</time>
      </trkpt>
      <trkpt lat="61.106124" lon="14.210004">
        <ele>259.727</ele>
        <time>1970-01-01T01:00:00Z</time>
      </trkpt>
      <trkpt lat="61.106054" lon="14.210171">
        <ele>259.364</ele>
        <time>1970-01-01T01:00:00Z</time>
      </trkpt>
      <trkpt lat="61.105992" lon="14.210348">
        <ele>259</ele>
        <time>1970-01-01T01:00:00Z</time>
      </trkpt>
      <trkpt lat="61.105928" lon="14.210522">
        <ele>258</ele>
        <time>1970-01-01T01:00:00Z</time>
      </trkpt>
      <trkpt lat="61.105861" lon="14.210674">
        <ele>256.636</ele>
        <time>1970-01-01T01:00:00Z</time>
      </trkpt>
      <trkpt lat="61.105798" lon="14.210837">
        <ele>255.273</ele>
        <time>1970-01-01T01:00:00Z</time>
      </trkpt>
      <trkpt lat="61.105738" lon="14.211035">
        <ele>255</ele>
        <time>1970-01-01T01:00:00Z</time>
      </trkpt>
      <trkpt lat="61.105689" lon="14.211214">
        <ele>254.727</ele>
        <time>1970-01-01T01:00:00Z</time>
      </trkpt>
      <trkpt lat="61.10562" lon="14.211381">
        <ele>254.091</ele>
        <time>1970-01-01T01:00:00Z</time>
      </trkpt>
      <trkpt lat="61.105547" lon="14.211569">
        <ele>254.182</ele>
        <time>1970-01-01T01:00:00Z</time>
      </trkpt>
      <trkpt lat="61.105468" lon="14.211784">
        <ele>254.273</ele>
        <time>1970-01-01T01:00:00Z</time>
      </trkpt>
      <trkpt lat="61.105406" lon="14.211936">
        <ele>253.818</ele>
        <time>1970-01-01T01:00:00Z</time>
      </trkpt>
      <trkpt lat="61.105327" lon="14.212198">
        <ele>253.364</ele>
        <time>1970-01-01T01:00:00Z</time>
      </trkpt>
      <trkpt lat="61.105254" lon="14.21242">
        <ele>252.909</ele>
        <time>1970-01-01T01:00:00Z</time>
      </trkpt>
      <trkpt lat="61.105166" lon="14.212682">
        <ele>253.091</ele>
        <time>1970-01-01T01:00:00Z</time>
      </trkpt>
      <trkpt lat="61.10511" lon="14.212874">
        <ele>253.273</ele>
        <time>1970-01-01T01:00:00Z</time>
      </trkpt>
      <trkpt lat="61.105043" lon="14.213086">
        <ele>253</ele>
        <time>1970-01-01T01:00:00Z</time>
      </trkpt>
      <trkpt lat="61.104999" lon="14.213277">
        <ele>251.636</ele>
        <time>1970-01-01T01:00:00Z</time>
      </trkpt>
      <trkpt lat="61.10494" lon="14.213433">
        <ele>251</ele>
        <time>1970-01-01T01:00:00Z</time>
      </trkpt>
      <trkpt lat="61.104886" lon="14.213647">
        <ele>250.273</ele>
        <time>1970-01-01T01:00:00Z</time>
      </trkpt>
      <trkpt lat="61.104834" lon="14.213802">
        <ele>249.545</ele>
        <time>1970-01-01T01:00:00Z</time>
      </trkpt>
      <trkpt lat="61.104778" lon="14.213978">
        <ele>248.818</ele>
        <time>1970-01-01T01:00:00Z</time>
      </trkpt>
      <trkpt lat="61.104718" lon="14.214153">
        <ele>248.636</ele>
        <time>1970-01-01T01:00:00Z</time>
      </trkpt>
      <trkpt lat="61.104626" lon="14.214473">
        <ele>248.091</ele>
        <time>1970-01-01T01:00:00Z</time>
      </trkpt>
      <trkpt lat="61.104556" lon="14.214691">
        <ele>247.545</ele>
        <time>1970-01-01T01:00:00Z</time>
      </trkpt>
      <trkpt lat="61.104477" lon="14.214931">
        <ele>247</ele>
        <time>1970-01-01T01:00:00Z</time>
      </trkpt>
      <trkpt lat="61.104409" lon="14.215154">
        <ele>246.455</ele>
        <time>1970-01-01T01:00:00Z</time>
      </trkpt>
      <trkpt lat="61.104337" lon="14.215335">
        <ele>246.364</ele>
        <time>1970-01-01T01:00:00Z</time>
      </trkpt>
      <trkpt lat="61.104261" lon="14.215551">
        <ele>246</ele>
        <time>1970-01-01T01:00:00Z</time>
      </trkpt>
      <trkpt lat="61.104186" lon="14.215689">
        <ele>244.909</ele>
        <time>1970-01-01T01:00:00Z</time>
      </trkpt>
      <trkpt lat="61.104098" lon="14.215935">
        <ele>244.273</ele>
        <time>1970-01-01T01:00:00Z</time>
      </trkpt>
      <trkpt lat="61.10403" lon="14.216058">
        <ele>244</ele>
        <time>1970-01-01T01:00:00Z</time>
      </trkpt>
      <trkpt lat="61.103987" lon="14.21625">
        <ele>243.364</ele>
        <time>1970-01-01T01:00:00Z</time>
      </trkpt>
      <trkpt lat="61.103922" lon="14.216402">
        <ele>242.727</ele>
        <time>1970-01-01T01:00:00Z</time>
      </trkpt>
      <trkpt lat="61.103855" lon="14.216575">
        <ele>242.455</ele>
        <time>1970-01-01T01:00:00Z</time>
      </trkpt>
      <trkpt lat="61.103815" lon="14.216747">
        <ele>242.182</ele>
        <time>1970-01-01T01:00:00Z</time>
      </trkpt>
      <trkpt lat="61.103772" lon="14.216945">
        <ele>241.909</ele>
        <time>1970-01-01T01:00:00Z</time>
      </trkpt>
      <trkpt lat="61.10371" lon="14.217151">
        <ele>241.273</ele>
        <time>1970-01-01T01:00:00Z</time>
      </trkpt>
      <trkpt lat="61.103658" lon="14.217304">
        <ele>240.636</ele>
        <time>1970-01-01T01:00:00Z</time>
      </trkpt>
      <trkpt lat="61.103611" lon="14.217467">
        <ele>240.273</ele>
        <time>1970-01-01T01:00:00Z</time>
      </trkpt>
      <trkpt lat="61.103562" lon="14.21764">
        <ele>239.909</ele>
        <time>1970-01-01T01:00:00Z</time>
      </trkpt>
      <trkpt lat="61.103504" lon="14.217802">
        <ele>239.545</ele>
        <time>1970-01-01T01:00:00Z</time>
      </trkpt>
      <trkpt lat="61.10346" lon="14.217984">
        <ele>238.273</ele>
        <time>1970-01-01T01:00:00Z</time>
      </trkpt>
      <trkpt lat="61.103413" lon="14.218159">
        <ele>237.364</ele>
        <time>1970-01-01T01:00:00Z</time>
      </trkpt>
      <trkpt lat="61.10336" lon="14.21835">
        <ele>236.455</ele>
        <time>1970-01-01T01:00:00Z</time>
      </trkpt>
      <trkpt lat="61.103291" lon="14.218542">
        <ele>235.545</ele>
        <time>1970-01-01T01:00:00Z</time>
      </trkpt>
      <trkpt lat="61.103231" lon="14.218731">
        <ele>234.182</ele>
        <time>1970-01-01T01:00:00Z</time>
      </trkpt>
      <trkpt lat="61.103171" lon="14.218904">
        <ele>232.818</ele>
        <time>1970-01-01T01:00:00Z</time>
      </trkpt>
      <trkpt lat="61.103097" lon="14.219082">
        <ele>231.818</ele>
        <time>1970-01-01T01:00:00Z</time>
      </trkpt>
      <trkpt lat="61.103035" lon="14.219241">
        <ele>230.818</ele>
        <time>1970-01-01T01:00:00Z</time>
      </trkpt>
      <trkpt lat="61.102971" lon="14.219429">
        <ele>229.818</ele>
        <time>1970-01-01T01:00:00Z</time>
      </trkpt>
      <trkpt lat="61.102926" lon="14.219637">
        <ele>228.818</ele>
        <time>1970-01-01T01:00:00Z</time>
      </trkpt>
      <trkpt lat="61.10287" lon="14.219799">
        <ele>227.455</ele>
        <time>1970-01-01T01:00:00Z</time>
      </trkpt>
      <trkpt lat="61.102806" lon="14.219935">
        <ele>226.636</ele>
        <time>1970-01-01T01:00:00Z</time>
      </trkpt>
      <trkpt lat="61.102746" lon="14.220075">
        <ele>225.818</ele>
        <time>1970-01-01T01:00:00Z</time>
      </trkpt>
      <trkpt lat="61.102691" lon="14.220223">
        <ele>225</ele>
        <time>1970-01-01T01:00:00Z</time>
      </trkpt>
      <trkpt lat="61.102631" lon="14.220391">
        <ele>223.909</ele>
        <time>1970-01-01T01:00:00Z</time>
      </trkpt>
      <trkpt lat="61.102603" lon="14.220614">
        <ele>223.273</ele>
        <time>1970-01-01T01:00:00Z</time>
      </trkpt>
      <trkpt lat="61.102555" lon="14.2208">
        <ele>222.636</ele>
        <time>1970-01-01T01:00:00Z</time>
      </trkpt>
      <trkpt lat="61.102468" lon="14.220956">
        <ele>222</ele>
        <time>1970-01-01T01:00:00Z</time>
      </trkpt>
      <trkpt lat="61.102406" lon="14.221121">
        <ele>221.364</ele>
        <time>1970-01-01T01:00:00Z</time>
      </trkpt>
      <trkpt lat="61.102333" lon="14.221289">
        <ele>220.727</ele>
        <time>1970-01-01T01:00:00Z</time>
      </trkpt>
      <trkpt lat="61.102277" lon="14.221478">
        <ele>220.091</ele>
        <time>1970-01-01T01:00:00Z</time>
      </trkpt>
      <trkpt lat="61.102223" lon="14.221675">
        <ele>219.818</ele>
        <time>1970-01-01T01:00:00Z</time>
      </trkpt>
      <trkpt lat="61.102171" lon="14.221835">
        <ele>219.545</ele>
        <time>1970-01-01T01:00:00Z</time>
      </trkpt>
      <trkpt lat="61.102103" lon="14.221963">
        <ele>219.273</ele>
        <time>1970-01-01T01:00:00Z</time>
      </trkpt>
      <trkpt lat="61.102041" lon="14.222123">
        <ele>219</ele>
        <time>1970-01-01T01:00:00Z</time>
      </trkpt>
      <trkpt lat="61.10199" lon="14.222288">
        <ele>219</ele>
        <time>1970-01-01T01:00:00Z</time>
      </trkpt>
      <trkpt lat="61.101957" lon="14.222469">
        <ele>219</ele>
        <time>1970-01-01T01:00:00Z</time>
      </trkpt>
      <trkpt lat="61.101898" lon="14.222656">
        <ele>219</ele>
        <time>1970-01-01T01:00:00Z</time>
      </trkpt>
      <trkpt lat="61.101847" lon="14.222849">
        <ele>219</ele>
        <time>1970-01-01T01:00:00Z</time>
      </trkpt>
      <trkpt lat="61.101784" lon="14.223064">
        <ele>219.091</ele>
        <time>1970-01-01T01:00:00Z</time>
      </trkpt>
      <trkpt lat="61.101712" lon="14.22329">
        <ele>219.182</ele>
        <time>1970-01-01T01:00:00Z</time>
      </trkpt>
      <trkpt lat="61.101646" lon="14.223471">
        <ele>219.273</ele>
        <time>1970-01-01T01:00:00Z</time>
      </trkpt>
      <trkpt lat="61.10157" lon="14.223623">
        <ele>219.364</ele>
        <time>1970-01-01T01:00:00Z</time>
      </trkpt>
      <trkpt lat="61.101502" lon="14.223786">
        <ele>219.455</ele>
        <time>1970-01-01T01:00:00Z</time>
      </trkpt>
      <trkpt lat="61.101448" lon="14.223957">
        <ele>219.545</ele>
        <time>1970-01-01T01:00:00Z</time>
      </trkpt>
      <trkpt lat="61.101382" lon="14.224111">
        <ele>219.636</ele>
        <time>1970-01-01T01:00:00Z</time>
      </trkpt>
      <trkpt lat="61.101354" lon="14.224308">
        <ele>219.727</ele>
        <time>1970-01-01T01:00:00Z</time>
      </trkpt>
      <trkpt lat="61.101347" lon="14.224552">
        <ele>219.818</ele>
        <time>1970-01-01T01:00:00Z</time>
      </trkpt>
      <trkpt lat="61.101342" lon="14.224755">
        <ele>219.909</ele>
        <time>1970-01-01T01:00:00Z</time>
      </trkpt>
      <trkpt lat="61.101351" lon="14.224961">
        <ele>220</ele>
        <time>1970-01-01T01:00:00Z</time>
      </trkpt>
      <trkpt lat="61.101373" lon="14.225193">
        <ele>220</ele>
        <time>1970-01-01T01:00:00Z</time>
      </trkpt>
      <trkpt lat="61.101418" lon="14.225435">
        <ele>220.091</ele>
        <time>1970-01-01T01:00:00Z</time>
      </trkpt>
      <trkpt lat="61.101441" lon="14.225652">
        <ele>220.455</ele>
        <time>1970-01-01T01:00:00Z</time>
      </trkpt>
      <trkpt lat="61.101443" lon="14.22585">
        <ele>220.818</ele>
        <time>1970-01-01T01:00:00Z</time>
      </trkpt>
      <trkpt lat="61.10142" lon="14.226048">
        <ele>221.182</ele>
        <time>1970-01-01T01:00:00Z</time>
      </trkpt>
      <trkpt lat="61.101389" lon="14.226262">
        <ele>221.545</ele>
        <time>1970-01-01T01:00:00Z</time>
      </trkpt>
      <trkpt lat="61.101321" lon="14.226387">
        <ele>221.909</ele>
        <time>1970-01-01T01:00:00Z</time>
      </trkpt>
      <trkpt lat="61.101252" lon="14.22653">
        <ele>222.273</ele>
        <time>1970-01-01T01:00:00Z</time>
      </trkpt>
      <trkpt lat="61.101221" lon="14.226721">
        <ele>222.727</ele>
        <time>1970-01-01T01:00:00Z</time>
      </trkpt>
      <trkpt lat="61.101146" lon="14.226856">
        <ele>223.091</ele>
        <time>1970-01-01T01:00:00Z</time>
      </trkpt>
      <trkpt lat="61.101067" lon="14.226952">
        <ele>223.545</ele>
        <time>1970-01-01T01:00:00Z</time>
      </trkpt>
      <trkpt lat="61.100977" lon="14.22704">
        <ele>224</ele>
        <time>1970-01-01T01:00:00Z</time>
      </trkpt>
      <trkpt lat="61.100889" lon="14.227123">
        <ele>224.636</ele>
        <time>1970-01-01T01:00:00Z</time>
      </trkpt>
      <trkpt lat="61.100797" lon="14.227165">
        <ele>225</ele>
        <time>1970-01-01T01:00:00Z</time>
      </trkpt>
      <trkpt lat="61.100705" lon="14.227118">
        <ele>225.364</ele>
        <time>1970-01-01T01:00:00Z</time>
      </trkpt>
      <trkpt lat="61.100611" lon="14.227171">
        <ele>225.727</ele>
        <time>1970-01-01T01:00:00Z</time>
      </trkpt>
      <trkpt lat="61.100501" lon="14.227145">
        <ele>226.091</ele>
        <time>1970-01-01T01:00:00Z</time>
      </trkpt>
      <trkpt lat="61.100412" lon="14.227098">
        <ele>226.455</ele>
        <time>1970-01-01T01:00:00Z</time>
      </trkpt>
      <trkpt lat="61.100308" lon="14.227078">
        <ele>226.818</ele>
        <time>1970-01-01T01:00:00Z</time>
      </trkpt>
      <trkpt lat="61.100217" lon="14.227137">
        <ele>227.091</ele>
        <time>1970-01-01T01:00:00Z</time>
      </trkpt>
      <trkpt lat="61.100174" lon="14.227344">
        <ele>227.455</ele>
        <time>1970-01-01T01:00:00Z</time>
      </trkpt>
      <trkpt lat="61.100166" lon="14.22753">
        <ele>227.727</ele>
        <time>1970-01-01T01:00:00Z</time>
      </trkpt>
      <trkpt lat="61.100122" lon="14.227738">
        <ele>228</ele>
        <time>1970-01-01T01:00:00Z</time>
      </trkpt>
      <trkpt lat="61.100064" lon="14.227906">
        <ele>228</ele>
        <time>1970-01-01T01:00:00Z</time>
      </trkpt>
      <trkpt lat="61.100008" lon="14.228082">
        <ele>228</ele>
        <time>1970-01-01T01:00:00Z</time>
      </trkpt>
      <trkpt lat="61.099942" lon="14.228279">
        <ele>228</ele>
        <time>1970-01-01T01:00:00Z</time>
      </trkpt>
      <trkpt lat="61.099883" lon="14.228458">
        <ele>228</ele>
        <time>1970-01-01T01:00:00Z</time>
      </trkpt>
      <trkpt lat="61.099848" lon="14.228635">
        <ele>228.273</ele>
        <time>1970-01-01T01:00:00Z</time>
      </trkpt>
      <trkpt lat="61.099807" lon="14.228834">
        <ele>228.545</ele>
        <time>1970-01-01T01:00:00Z</time>
      </trkpt>
      <trkpt lat="61.09977" lon="14.229027">
        <ele>228.818</ele>
        <time>1970-01-01T01:00:00Z</time>
      </trkpt>
      <trkpt lat="61.09971" lon="14.229202">
        <ele>229.091</ele>
        <time>1970-01-01T01:00:00Z</time>
      </trkpt>
      <trkpt lat="61.099647" lon="14.22937">
        <ele>229.364</ele>
        <time>1970-01-01T01:00:00Z</time>
      </trkpt>
      <trkpt lat="61.099587" lon="14.229536">
        <ele>229.636</ele>
        <time>1970-01-01T01:00:00Z</time>
      </trkpt>
      <trkpt lat="61.09953" lon="14.22971">
        <ele>229.909</ele>
        <time>1970-01-01T01:00:00Z</time>
      </trkpt>
      <trkpt lat="61.099473" lon="14.229897">
        <ele>230.182</ele>
        <time>1970-01-01T01:00:00Z</time>
      </trkpt>
      <trkpt lat="61.099418" lon="14.230063">
        <ele>230.455</ele>
        <time>1970-01-01T01:00:00Z</time>
      </trkpt>
      <trkpt lat="61.099363" lon="14.230239">
        <ele>230.727</ele>
        <time>1970-01-01T01:00:00Z</time>
      </trkpt>
      <trkpt lat="61.099318" lon="14.230432">
        <ele>230.909</ele>
        <time>1970-01-01T01:00:00Z</time>
      </trkpt>
      <trkpt lat="61.099248" lon="14.230601">
        <ele>230.818</ele>
        <time>1970-01-01T01:00:00Z</time>
      </trkpt>
      <trkpt lat="61.099196" lon="14.230787">
        <ele>230.727</ele>
        <time>1970-01-01T01:00:00Z</time>
      </trkpt>
      <trkpt lat="61.099159" lon="14.230998">
        <ele>230.909</ele>
        <time>1970-01-01T01:00:00Z</time>
      </trkpt>
      <trkpt lat="61.09909" lon="14.231156">
        <ele>231.091</ele>
        <time>1970-01-01T01:00:00Z</time>
      </trkpt>
      <trkpt lat="61.099007" lon="14.231273">
        <ele>231.273</ele>
        <time>1970-01-01T01:00:00Z</time>
      </trkpt>
      <trkpt lat="61.098925" lon="14.231401">
        <ele>231.455</ele>
        <time>1970-01-01T01:00:00Z</time>
      </trkpt>
      <trkpt lat="61.098851" lon="14.231528">
        <ele>231.636</ele>
        <time>1970-01-01T01:00:00Z</time>
      </trkpt>
      <trkpt lat="61.09877" lon="14.231636">
        <ele>231.818</ele>
        <time>1970-01-01T01:00:00Z</time>
      </trkpt>
      <trkpt lat="61.098677" lon="14.231747">
        <ele>231.909</ele>
        <time>1970-01-01T01:00:00Z</time>
      </trkpt>
      <trkpt lat="61.098599" lon="14.231842">
        <ele>232</ele>
        <time>1970-01-01T01:00:00Z</time>
      </trkpt>
      <trkpt lat="61.098518" lon="14.231939">
        <ele>232.182</ele>
        <time>1970-01-01T01:00:00Z</time>
      </trkpt>
      <trkpt lat="61.098433" lon="14.232056">
        <ele>232.364</ele>
        <time>1970-01-01T01:00:00Z</time>
      </trkpt>
      <trkpt lat="61.098344" lon="14.232153">
        <ele>232.727</ele>
        <time>1970-01-01T01:00:00Z</time>
      </trkpt>
      <trkpt lat="61.098259" lon="14.23226">
        <ele>232.818</ele>
        <time>1970-01-01T01:00:00Z</time>
      </trkpt>
      <trkpt lat="61.098176" lon="14.232347">
        <ele>232.909</ele>
        <time>1970-01-01T01:00:00Z</time>
      </trkpt>
      <trkpt lat="61.098091" lon="14.232452">
        <ele>233</ele>
        <time>1970-01-01T01:00:00Z</time>
      </trkpt>
      <trkpt lat="61.098003" lon="14.23257">
        <ele>233</ele>
        <time>1970-01-01T01:00:00Z</time>
      </trkpt>
      <trkpt lat="61.097915" lon="14.232692">
        <ele>233</ele>
        <time>1970-01-01T01:00:00Z</time>
      </trkpt>
      <trkpt lat="61.097823" lon="14.232782">
        <ele>233</ele>
        <time>1970-01-01T01:00:00Z</time>
      </trkpt>
      <trkpt lat="61.097733" lon="14.232885">
        <ele>233.091</ele>
        <time>1970-01-01T01:00:00Z</time>
      </trkpt>
      <trkpt lat="61.097651" lon="14.23299">
        <ele>233.182</ele>
        <time>1970-01-01T01:00:00Z</time>
      </trkpt>
      <trkpt lat="61.09757" lon="14.233082">
        <ele>233.273</ele>
        <time>1970-01-01T01:00:00Z</time>
      </trkpt>
      <trkpt lat="61.097475" lon="14.233216">
        <ele>233.636</ele>
        <time>1970-01-01T01:00:00Z</time>
      </trkpt>
      <trkpt lat="61.097406" lon="14.233339">
        <ele>233.818</ele>
        <time>1970-01-01T01:00:00Z</time>
      </trkpt>
      <trkpt lat="61.097319" lon="14.233396">
        <ele>233.909</ele>
        <time>1970-01-01T01:00:00Z</time>
      </trkpt>
      <trkpt lat="61.097226" lon="14.233441">
        <ele>234</ele>
        <time>1970-01-01T01:00:00Z</time>
      </trkpt>
      <trkpt lat="61.097128" lon="14.233515">
        <ele>234.091</ele>
        <time>1970-01-01T01:00:00Z</time>
      </trkpt>
      <trkpt lat="61.097059" lon="14.233644">
        <ele>234.273</ele>
        <time>1970-01-01T01:00:00Z</time>
      </trkpt>
      <trkpt lat="61.096978" lon="14.233751">
        <ele>234.455</ele>
        <time>1970-01-01T01:00:00Z</time>
      </trkpt>
      <trkpt lat="61.09692" lon="14.233927">
        <ele>234.727</ele>
        <time>1970-01-01T01:00:00Z</time>
      </trkpt>
      <trkpt lat="61.096885" lon="14.234105">
        <ele>235</ele>
        <time>1970-01-01T01:00:00Z</time>
      </trkpt>
      <trkpt lat="61.096841" lon="14.23428">
        <ele>235.273</ele>
        <time>1970-01-01T01:00:00Z</time>
      </trkpt>
      <trkpt lat="61.096773" lon="14.234455">
        <ele>235.545</ele>
        <time>1970-01-01T01:00:00Z</time>
      </trkpt>
      <trkpt lat="61.096708" lon="14.234599">
        <ele>235.545</ele>
        <time>1970-01-01T01:00:00Z</time>
      </trkpt>
      <trkpt lat="61.096637" lon="14.234777">
        <ele>235.545</ele>
        <time>1970-01-01T01:00:00Z</time>
      </trkpt>
      <trkpt lat="61.096567" lon="14.234942">
        <ele>235.636</ele>
        <time>1970-01-01T01:00:00Z</time>
      </trkpt>
      <trkpt lat="61.096497" lon="14.23512">
        <ele>235.909</ele>
        <time>1970-01-01T01:00:00Z</time>
      </trkpt>
      <trkpt lat="61.096438" lon="14.235297">
        <ele>236.182</ele>
        <time>1970-01-01T01:00:00Z</time>
      </trkpt>
      <trkpt lat="61.096374" lon="14.235447">
        <ele>236.545</ele>
        <time>1970-01-01T01:00:00Z</time>
      </trkpt>
      <trkpt lat="61.096342" lon="14.235633">
        <ele>236.636</ele>
        <time>1970-01-01T01:00:00Z</time>
      </trkpt>
      <trkpt lat="61.09629" lon="14.235793">
        <ele>236.636</ele>
        <time>1970-01-01T01:00:00Z</time>
      </trkpt>
      <trkpt lat="61.096271" lon="14.235992">
        <ele>236.636</ele>
        <time>1970-01-01T01:00:00Z</time>
      </trkpt>
      <trkpt lat="61.096256" lon="14.236192">
        <ele>236.636</ele>
        <time>1970-01-01T01:00:00Z</time>
      </trkpt>
      <trkpt lat="61.096253" lon="14.23642">
        <ele>236.636</ele>
        <time>1970-01-01T01:00:00Z</time>
      </trkpt>
      <trkpt lat="61.096294" lon="14.236602">
        <ele>236.636</ele>
        <time>1970-01-01T01:00:00Z</time>
      </trkpt>
      <trkpt lat="61.096371" lon="14.236773">
        <ele>236.636</ele>
        <time>1970-01-01T01:00:00Z</time>
      </trkpt>
      <trkpt lat="61.096459" lon="14.23692">
        <ele>236.636</ele>
        <time>1970-01-01T01:00:00Z</time>
      </trkpt>
      <trkpt lat="61.096557" lon="14.237067">
        <ele>236.636</ele>
        <time>1970-01-01T01:00:00Z</time>
      </trkpt>
      <trkpt lat="61.096644" lon="14.237226">
        <ele>236.636</ele>
        <time>1970-01-01T01:00:00Z</time>
      </trkpt>
      <trkpt lat="61.096744" lon="14.237399">
        <ele>236.545</ele>
        <time>1970-01-01T01:00:00Z</time>
      </trkpt>
      <trkpt lat="61.096762" lon="14.237629">
        <ele>236.727</ele>
        <time>1970-01-01T01:00:00Z</time>
      </trkpt>
      <trkpt lat="61.096718" lon="14.237811">
        <ele>237.545</ele>
        <time>1970-01-01T01:00:00Z</time>
      </trkpt>
      <trkpt lat="61.096678" lon="14.237995">
        <ele>238.364</ele>
        <time>1970-01-01T01:00:00Z</time>
      </trkpt>
      <trkpt lat="61.096645" lon="14.238197">
        <ele>239.182</ele>
        <time>1970-01-01T01:00:00Z</time>
      </trkpt>
      <trkpt lat="61.096628" lon="14.2384">
        <ele>240</ele>
        <time>1970-01-01T01:00:00Z</time>
      </trkpt>
      <trkpt lat="61.096606" lon="14.238594">
        <ele>240.818</ele>
        <time>1970-01-01T01:00:00Z</time>
      </trkpt>
      <trkpt lat="61.096629" lon="14.238788">
        <ele>242.455</ele>
        <time>1970-01-01T01:00:00Z</time>
      </trkpt>
      <trkpt lat="61.096658" lon="14.238986">
        <ele>244.091</ele>
        <time>1970-01-01T01:00:00Z</time>
      </trkpt>
      <trkpt lat="61.096699" lon="14.239199">
        <ele>245.545</ele>
        <time>1970-01-01T01:00:00Z</time>
      </trkpt>
      <trkpt lat="61.096762" lon="14.23938">
        <ele>247</ele>
        <time>1970-01-01T01:00:00Z</time>
      </trkpt>
      <trkpt lat="61.096802" lon="14.239572">
        <ele>249</ele>
        <time>1970-01-01T01:00:00Z</time>
      </trkpt>
      <trkpt lat="61.096842" lon="14.23974">
        <ele>251</ele>
        <time>1970-01-01T01:00:00Z</time>
      </trkpt>
      <trkpt lat="61.096902" lon="14.239932">
        <ele>252.364</ele>
        <time>1970-01-01T01:00:00Z</time>
      </trkpt>
      <trkpt lat="61.096956" lon="14.240117">
        <ele>253.727</ele>
        <time>1970-01-01T01:00:00Z</time>
      </trkpt>
      <trkpt lat="61.096993" lon="14.240337">
        <ele>254</ele>
        <time>1970-01-01T01:00:00Z</time>
      </trkpt>
      <trkpt lat="61.09701" lon="14.240551">
        <ele>254.273</ele>
        <time>1970-01-01T01:00:00Z</time>
      </trkpt>
      <trkpt lat="61.097024" lon="14.240741">
        <ele>254.545</ele>
        <time>1970-01-01T01:00:00Z</time>
      </trkpt>
      <trkpt lat="61.097048" lon="14.240957">
        <ele>254</ele>
        <time>1970-01-01T01:00:00Z</time>
      </trkpt>
      <trkpt lat="61.097073" lon="14.241167">
        <ele>253.455</ele>
        <time>1970-01-01T01:00:00Z</time>
      </trkpt>
      <trkpt lat="61.09711" lon="14.241384">
        <ele>254.818</ele>
        <time>1970-01-01T01:00:00Z</time>
      </trkpt>
      <trkpt lat="61.097144" lon="14.2416">
        <ele>256.182</ele>
        <time>1970-01-01T01:00:00Z</time>
      </trkpt>
      <trkpt lat="61.097176" lon="14.241802">
        <ele>257</ele>
        <time>1970-01-01T01:00:00Z</time>
      </trkpt>
      <trkpt lat="61.09718" lon="14.241996">
        <ele>257.818</ele>
        <time>1970-01-01T01:00:00Z</time>
      </trkpt>
      <trkpt lat="61.097147" lon="14.242177">
        <ele>258.909</ele>
        <time>1970-01-01T01:00:00Z</time>
      </trkpt>
      <trkpt lat="61.097084" lon="14.242333">
        <ele>260</ele>
        <time>1970-01-01T01:00:00Z</time>
      </trkpt>
      <trkpt lat="61.097032" lon="14.242497">
        <ele>262.182</ele>
        <time>1970-01-01T01:00:00Z</time>
      </trkpt>
      <trkpt lat="61.096999" lon="14.242685">
        <ele>264.364</ele>
        <time>1970-01-01T01:00:00Z</time>
      </trkpt>
      <trkpt lat="61.096978" lon="14.24289">
        <ele>266.545</ele>
        <time>1970-01-01T01:00:00Z</time>
      </trkpt>
      <trkpt lat="61.096977" lon="14.243107">
        <ele>268.727</ele>
        <time>1970-01-01T01:00:00Z</time>
      </trkpt>
      <trkpt lat="61.09695" lon="14.243292">
        <ele>270.909</ele>
        <time>1970-01-01T01:00:00Z</time>
      </trkpt>
      <trkpt lat="61.096942" lon="14.243496">
        <ele>271.182</ele>
        <time>1970-01-01T01:00:00Z</time>
      </trkpt>
      <trkpt lat="61.096974" lon="14.243719">
        <ele>271.455</ele>
        <time>1970-01-01T01:00:00Z</time>
      </trkpt>
      <trkpt lat="61.096985" lon="14.243919">
        <ele>271.727</ele>
        <time>1970-01-01T01:00:00Z</time>
      </trkpt>
      <trkpt lat="61.096997" lon="14.244194">
        <ele>272</ele>
        <time>1970-01-01T01:00:00Z</time>
      </trkpt>
      <trkpt lat="61.097005" lon="14.244447">
        <ele>270.636</ele>
        <time>1970-01-01T01:00:00Z</time>
      </trkpt>
      <trkpt lat="61.09701" lon="14.244698">
        <ele>270.545</ele>
        <time>1970-01-01T01:00:00Z</time>
      </trkpt>
      <trkpt lat="61.097029" lon="14.244893">
        <ele>270.455</ele>
        <time>1970-01-01T01:00:00Z</time>
      </trkpt>
      <trkpt lat="61.097054" lon="14.245083">
        <ele>270.364</ele>
        <time>1970-01-01T01:00:00Z</time>
      </trkpt>
      <trkpt lat="61.09709" lon="14.245319">
        <ele>270.273</ele>
        <time>1970-01-01T01:00:00Z</time>
      </trkpt>
      <trkpt lat="61.097097" lon="14.245523">
        <ele>270</ele>
        <time>1970-01-01T01:00:00Z</time>
      </trkpt>
      <trkpt lat="61.097025" lon="14.245688">
        <ele>269.727</ele>
        <time>1970-01-01T01:00:00Z</time>
      </trkpt>
      <trkpt lat="61.096984" lon="14.245859">
        <ele>269.455</ele>
        <time>1970-01-01T01:00:00Z</time>
      </trkpt>
      <trkpt lat="61.096939" lon="14.246083">
        <ele>269.182</ele>
        <time>1970-01-01T01:00:00Z</time>
      </trkpt>
      <trkpt lat="61.096879" lon="14.246262">
        <ele>268.909</ele>
        <time>1970-01-01T01:00:00Z</time>
      </trkpt>
      <trkpt lat="61.09683" lon="14.246431">
        <ele>268.636</ele>
        <time>1970-01-01T01:00:00Z</time>
      </trkpt>
      <trkpt lat="61.096761" lon="14.246562">
        <ele>269.727</ele>
        <time>1970-01-01T01:00:00Z</time>
      </trkpt>
      <trkpt lat="61.09669" lon="14.24668">
        <ele>269.182</ele>
        <time>1970-01-01T01:00:00Z</time>
      </trkpt>
      <trkpt lat="61.096619" lon="14.246796">
        <ele>270.545</ele>
        <time>1970-01-01T01:00:00Z</time>
      </trkpt>
      <trkpt lat="61.096535" lon="14.246933">
        <ele>271.909</ele>
        <time>1970-01-01T01:00:00Z</time>
      </trkpt>
      <trkpt lat="61.096456" lon="14.247027">
        <ele>273.273</ele>
        <time>1970-01-01T01:00:00Z</time>
      </trkpt>
      <trkpt lat="61.096368" lon="14.247137">
        <ele>274.818</ele>
        <time>1970-01-01T01:00:00Z</time>
      </trkpt>
      <trkpt lat="61.096306" lon="14.247276">
        <ele>276.364</ele>
        <time>1970-01-01T01:00:00Z</time>
      </trkpt>
      <trkpt lat="61.096234" lon="14.24741">
        <ele>277.909</ele>
        <time>1970-01-01T01:00:00Z</time>
      </trkpt>
      <trkpt lat="61.096173" lon="14.247606">
        <ele>279.455</ele>
        <time>1970-01-01T01:00:00Z</time>
      </trkpt>
      <trkpt lat="61.096142" lon="14.2478">
        <ele>280.909</ele>
        <time>1970-01-01T01:00:00Z</time>
      </trkpt>
      <trkpt lat="61.096117" lon="14.248022">
        <ele>282.364</ele>
        <time>1970-01-01T01:00:00Z</time>
      </trkpt>
      <trkpt lat="61.096087" lon="14.248269">
        <ele>283.818</ele>
        <time>1970-01-01T01:00:00Z</time>
      </trkpt>
      <trkpt lat="61.096056" lon="14.248509">
        <ele>285.636</ele>
        <time>1970-01-01T01:00:00Z</time>
      </trkpt>
      <trkpt lat="61.096043" lon="14.248714">
        <ele>284.818</ele>
        <time>1970-01-01T01:00:00Z</time>
      </trkpt>
      <trkpt lat="61.09601" lon="14.248969">
        <ele>284</ele>
        <time>1970-01-01T01:00:00Z</time>
      </trkpt>
      <trkpt lat="61.095948" lon="14.249223">
        <ele>283.182</ele>
        <time>1970-01-01T01:00:00Z</time>
      </trkpt>
      <trkpt lat="61.095889" lon="14.249408">
        <ele>282.364</ele>
        <time>1970-01-01T01:00:00Z</time>
      </trkpt>
      <trkpt lat="61.095837" lon="14.249604">
        <ele>280.727</ele>
        <time>1970-01-01T01:00:00Z</time>
      </trkpt>
      <trkpt lat="61.095785" lon="14.249791">
        <ele>279.091</ele>
        <time>1970-01-01T01:00:00Z</time>
      </trkpt>
      <trkpt lat="61.095715" lon="14.249974">
        <ele>281.091</ele>
        <time>1970-01-01T01:00:00Z</time>
      </trkpt>
      <trkpt lat="61.095665" lon="14.250191">
        <ele>283.182</ele>
        <time>1970-01-01T01:00:00Z</time>
      </trkpt>
      <trkpt lat="61.095616" lon="14.25038">
        <ele>285.273</ele>
        <time>1970-01-01T01:00:00Z</time>
      </trkpt>
      <trkpt lat="61.095543" lon="14.250532">
        <ele>287.182</ele>
        <time>1970-01-01T01:00:00Z</time>
      </trkpt>
      <trkpt lat="61.095468" lon="14.250635">
        <ele>289.091</ele>
        <time>1970-01-01T01:00:00Z</time>
      </trkpt>
      <trkpt lat="61.095384" lon="14.250785">
        <ele>291.727</ele>
        <time>1970-01-01T01:00:00Z</time>
      </trkpt>
      <trkpt lat="61.095302" lon="14.250937">
        <ele>294.364</ele>
        <time>1970-01-01T01:00:00Z</time>
      </trkpt>
      <trkpt lat="61.095237" lon="14.251122">
        <ele>297</ele>
        <time>1970-01-01T01:00:00Z</time>
      </trkpt>
      <trkpt lat="61.095197" lon="14.251353">
        <ele>298.818</ele>
        <time>1970-01-01T01:00:00Z</time>
      </trkpt>
      <trkpt lat="61.095172" lon="14.251544">
        <ele>301.455</ele>
        <time>1970-01-01T01:00:00Z</time>
      </trkpt>
      <trkpt lat="61.095129" lon="14.251772">
        <ele>304.091</ele>
        <time>1970-01-01T01:00:00Z</time>
      </trkpt>
      <trkpt lat="61.095086" lon="14.251945">
        <ele>303.091</ele>
        <time>1970-01-01T01:00:00Z</time>
      </trkpt>
      <trkpt lat="61.095036" lon="14.252148">
        <ele>301.091</ele>
        <time>1970-01-01T01:00:00Z</time>
      </trkpt>
      <trkpt lat="61.095001" lon="14.252333">
        <ele>299.091</ele>
        <time>1970-01-01T01:00:00Z</time>
      </trkpt>
      <trkpt lat="61.094972" lon="14.252545">
        <ele>297.273</ele>
        <time>1970-01-01T01:00:00Z</time>
      </trkpt>
      <trkpt lat="61.094932" lon="14.252751">
        <ele>294.545</ele>
        <time>1970-01-01T01:00:00Z</time>
      </trkpt>
      <trkpt lat="61.094863" lon="14.25294">
        <ele>291.818</ele>
        <time>1970-01-01T01:00:00Z</time>
      </trkpt>
      <trkpt lat="61.094821" lon="14.253135">
        <ele>292</ele>
        <time>1970-01-01T01:00:00Z</time>
      </trkpt>
      <trkpt lat="61.094811" lon="14.25334">
        <ele>292.182</ele>
        <time>1970-01-01T01:00:00Z</time>
      </trkpt>
      <trkpt lat="61.094765" lon="14.253538">
        <ele>293.182</ele>
        <time>1970-01-01T01:00:00Z</time>
      </trkpt>
      <trkpt lat="61.094702" lon="14.253973">
        <ele>293.273</ele>
        <time>1970-01-01T01:00:00Z</time>
      </trkpt>
      <trkpt lat="61.094641" lon="14.25411">
        <ele>293.364</ele>
        <time>1970-01-01T01:00:00Z</time>
      </trkpt>
      <trkpt lat="61.094565" lon="14.25428">
        <ele>293.455</ele>
        <time>1970-01-01T01:00:00Z</time>
      </trkpt>
      <trkpt lat="61.094437" lon="14.254396">
        <ele>293.364</ele>
        <time>1970-01-01T01:00:00Z</time>
      </trkpt>
      <trkpt lat="61.094326" lon="14.254593">
        <ele>293.273</ele>
        <time>1970-01-01T01:00:00Z</time>
      </trkpt>
      <trkpt lat="61.094357" lon="14.254869">
        <ele>293.182</ele>
        <time>1970-01-01T01:00:00Z</time>
      </trkpt>
      <trkpt lat="61.094333" lon="14.255204">
        <ele>292.273</ele>
        <time>1970-01-01T01:00:00Z</time>
      </trkpt>
      <trkpt lat="61.094291" lon="14.255451">
        <ele>291.364</ele>
        <time>1970-01-01T01:00:00Z</time>
      </trkpt>
      <trkpt lat="61.094239" lon="14.255701">
        <ele>285.909</ele>
        <time>1970-01-01T01:00:00Z</time>
      </trkpt>
      <trkpt lat="61.09417" lon="14.255956">
        <ele>280.455</ele>
        <time>1970-01-01T01:00:00Z</time>
      </trkpt>
      <trkpt lat="61.094098" lon="14.25632">
        <ele>277.818</ele>
        <time>1970-01-01T01:00:00Z</time>
      </trkpt>
      <trkpt lat="61.094021" lon="14.256584">
        <ele>275</ele>
        <time>1970-01-01T01:00:00Z</time>
      </trkpt>
      <trkpt lat="61.093987" lon="14.256859">
        <ele>272.182</ele>
        <time>1970-01-01T01:00:00Z</time>
      </trkpt>
      <trkpt lat="61.093902" lon="14.257155">
        <ele>269.364</ele>
        <time>1970-01-01T01:00:00Z</time>
      </trkpt>
      <trkpt lat="61.093825" lon="14.257508">
        <ele>266.182</ele>
        <time>1970-01-01T01:00:00Z</time>
      </trkpt>
      <trkpt lat="61.093725" lon="14.257779">
        <ele>263</ele>
        <time>1970-01-01T01:00:00Z</time>
      </trkpt>
      <trkpt lat="61.09366" lon="14.25807">
        <ele>259.818</ele>
        <time>1970-01-01T01:00:00Z</time>
      </trkpt>
      <trkpt lat="61.093594" lon="14.258301">
        <ele>258.364</ele>
        <time>1970-01-01T01:00:00Z</time>
      </trkpt>
      <trkpt lat="61.093522" lon="14.258633">
        <ele>255.545</ele>
        <time>1970-01-01T01:00:00Z</time>
      </trkpt>
      <trkpt lat="61.093459" lon="14.258846">
        <ele>254.364</ele>
        <time>1970-01-01T01:00:00Z</time>
      </trkpt>
      <trkpt lat="61.093381" lon="14.258986">
        <ele>253.182</ele>
        <time>1970-01-01T01:00:00Z</time>
      </trkpt>
      <trkpt lat="61.093331" lon="14.25925">
        <ele>249.182</ele>
        <time>1970-01-01T01:00:00Z</time>
      </trkpt>
      <trkpt lat="61.093275" lon="14.259435">
        <ele>246.273</ele>
        <time>1970-01-01T01:00:00Z</time>
      </trkpt>
      <trkpt lat="61.093219" lon="14.259633">
        <ele>243.455</ele>
        <time>1970-01-01T01:00:00Z</time>
      </trkpt>
      <trkpt lat="61.093144" lon="14.259769">
        <ele>240.636</ele>
        <time>1970-01-01T01:00:00Z</time>
      </trkpt>
      <trkpt lat="61.093088" lon="14.259935">
        <ele>239.364</ele>
        <time>1970-01-01T01:00:00Z</time>
      </trkpt>
      <trkpt lat="61.093041" lon="14.260109">
        <ele>236.727</ele>
        <time>1970-01-01T01:00:00Z</time>
      </trkpt>
      <trkpt lat="61.092988" lon="14.260304">
        <ele>234.091</ele>
        <time>1970-01-01T01:00:00Z</time>
      </trkpt>
      <trkpt lat="61.092892" lon="14.260697">
        <ele>231.091</ele>
        <time>1970-01-01T01:00:00Z</time>
      </trkpt>
      <trkpt lat="61.092849" lon="14.261">
        <ele>229.455</ele>
        <time>1970-01-01T01:00:00Z</time>
      </trkpt>
      <trkpt lat="61.092814" lon="14.261228">
        <ele>227.818</ele>
        <time>1970-01-01T01:00:00Z</time>
      </trkpt>
      <trkpt lat="61.092744" lon="14.261664">
        <ele>226.182</ele>
        <time>1970-01-01T01:00:00Z</time>
      </trkpt>
      <trkpt lat="61.092657" lon="14.262059">
        <ele>224.273</ele>
        <time>1970-01-01T01:00:00Z</time>
      </trkpt>
      <trkpt lat="61.092601" lon="14.262297">
        <ele>222.364</ele>
        <time>1970-01-01T01:00:00Z</time>
      </trkpt>
      <trkpt lat="61.092533" lon="14.262624">
        <ele>220.364</ele>
        <time>1970-01-01T01:00:00Z</time>
      </trkpt>
      <trkpt lat="61.092456" lon="14.262797">
        <ele>218.364</ele>
        <time>1970-01-01T01:00:00Z</time>
      </trkpt>
      <trkpt lat="61.092383" lon="14.262967">
        <ele>216.364</ele>
        <time>1970-01-01T01:00:00Z</time>
      </trkpt>
      <trkpt lat="61.092326" lon="14.263131">
        <ele>215.636</ele>
        <time>1970-01-01T01:00:00Z</time>
      </trkpt>
      <trkpt lat="61.092278" lon="14.263291">
        <ele>214.909</ele>
        <time>1970-01-01T01:00:00Z</time>
      </trkpt>
      <trkpt lat="61.092209" lon="14.263453">
        <ele>214.545</ele>
        <time>1970-01-01T01:00:00Z</time>
      </trkpt>
      <trkpt lat="61.092159" lon="14.263622">
        <ele>214.182</ele>
        <time>1970-01-01T01:00:00Z</time>
      </trkpt>
      <trkpt lat="61.092101" lon="14.263804">
        <ele>213.818</ele>
        <time>1970-01-01T01:00:00Z</time>
      </trkpt>
      <trkpt lat="61.09205" lon="14.263968">
        <ele>213.182</ele>
        <time>1970-01-01T01:00:00Z</time>
      </trkpt>
      <trkpt lat="61.091987" lon="14.264121">
        <ele>212.818</ele>
        <time>1970-01-01T01:00:00Z</time>
      </trkpt>
      <trkpt lat="61.09191" lon="14.264272">
        <ele>212.455</ele>
        <time>1970-01-01T01:00:00Z</time>
      </trkpt>
      <trkpt lat="61.091839" lon="14.264428">
        <ele>212.091</ele>
        <time>1970-01-01T01:00:00Z</time>
      </trkpt>
      <trkpt lat="61.091767" lon="14.264595">
        <ele>211.727</ele>
        <time>1970-01-01T01:00:00Z</time>
      </trkpt>
      <trkpt lat="61.091698" lon="14.264764">
        <ele>211.182</ele>
        <time>1970-01-01T01:00:00Z</time>
      </trkpt>
      <trkpt lat="61.091637" lon="14.264917">
        <ele>210.727</ele>
        <time>1970-01-01T01:00:00Z</time>
      </trkpt>
      <trkpt lat="61.091574" lon="14.265061">
        <ele>210.273</ele>
        <time>1970-01-01T01:00:00Z</time>
      </trkpt>
      <trkpt lat="61.091516" lon="14.265212">
        <ele>210.182</ele>
        <time>1970-01-01T01:00:00Z</time>
      </trkpt>
      <trkpt lat="61.091447" lon="14.265401">
        <ele>210</ele>
        <time>1970-01-01T01:00:00Z</time>
      </trkpt>
      <trkpt lat="61.091396" lon="14.26561">
        <ele>209.818</ele>
        <time>1970-01-01T01:00:00Z</time>
      </trkpt>
      <trkpt lat="61.091339" lon="14.265847">
        <ele>209.909</ele>
        <time>1970-01-01T01:00:00Z</time>
      </trkpt>
      <trkpt lat="61.091278" lon="14.266049">
        <ele>210</ele>
        <time>1970-01-01T01:00:00Z</time>
      </trkpt>
      <trkpt lat="61.091205" lon="14.266255">
        <ele>210</ele>
        <time>1970-01-01T01:00:00Z</time>
      </trkpt>
      <trkpt lat="61.091144" lon="14.266421">
        <ele>210</ele>
        <time>1970-01-01T01:00:00Z</time>
      </trkpt>
      <trkpt lat="61.09109" lon="14.266604">
        <ele>210</ele>
        <time>1970-01-01T01:00:00Z</time>
      </trkpt>
      <trkpt lat="61.091051" lon="14.266804">
        <ele>210.182</ele>
        <time>1970-01-01T01:00:00Z</time>
      </trkpt>
      <trkpt lat="61.091017" lon="14.266996">
        <ele>210.273</ele>
        <time>1970-01-01T01:00:00Z</time>
      </trkpt>
      <trkpt lat="61.090997" lon="14.267226">
        <ele>210.364</ele>
        <time>1970-01-01T01:00:00Z</time>
      </trkpt>
      <trkpt lat="61.090948" lon="14.267439">
        <ele>210.091</ele>
        <time>1970-01-01T01:00:00Z</time>
      </trkpt>
      <trkpt lat="61.090913" lon="14.267669">
        <ele>209.909</ele>
        <time>1970-01-01T01:00:00Z</time>
      </trkpt>
      <trkpt lat="61.090874" lon="14.267885">
        <ele>209.727</ele>
        <time>1970-01-01T01:00:00Z</time>
      </trkpt>
      <trkpt lat="61.090831" lon="14.268069">
        <ele>209.818</ele>
        <time>1970-01-01T01:00:00Z</time>
      </trkpt>
      <trkpt lat="61.090778" lon="14.268244">
        <ele>209.909</ele>
        <time>1970-01-01T01:00:00Z</time>
      </trkpt>
      <trkpt lat="61.090699" lon="14.268365">
        <ele>210.091</ele>
        <time>1970-01-01T01:00:00Z</time>
      </trkpt>
      <trkpt lat="61.090591" lon="14.268431">
        <ele>210.091</ele>
        <time>1970-01-01T01:00:00Z</time>
      </trkpt>
      <trkpt lat="61.090495" lon="14.268465">
        <ele>210.091</ele>
        <time>1970-01-01T01:00:00Z</time>
      </trkpt>
      <trkpt lat="61.090404" lon="14.268512">
        <ele>210.091</ele>
        <time>1970-01-01T01:00:00Z</time>
      </trkpt>
      <trkpt lat="61.090311" lon="14.268596">
        <ele>210.182</ele>
        <time>1970-01-01T01:00:00Z</time>
      </trkpt>
      <trkpt lat="61.090225" lon="14.268709">
        <ele>210.273</ele>
        <time>1970-01-01T01:00:00Z</time>
      </trkpt>
      <trkpt lat="61.090137" lon="14.268854">
        <ele>210.364</ele>
        <time>1970-01-01T01:00:00Z</time>
      </trkpt>
      <trkpt lat="61.090057" lon="14.268997">
        <ele>210.455</ele>
        <time>1970-01-01T01:00:00Z</time>
      </trkpt>
      <trkpt lat="61.089978" lon="14.269122">
        <ele>210.727</ele>
        <time>1970-01-01T01:00:00Z</time>
      </trkpt>
      <trkpt lat="61.089891" lon="14.269227">
        <ele>210.636</ele>
        <time>1970-01-01T01:00:00Z</time>
      </trkpt>
      <trkpt lat="61.089803" lon="14.269339">
        <ele>210.545</ele>
        <time>1970-01-01T01:00:00Z</time>
      </trkpt>
      <trkpt lat="61.089713" lon="14.269413">
        <ele>210.455</ele>
        <time>1970-01-01T01:00:00Z</time>
      </trkpt>
      <trkpt lat="61.089628" lon="14.269488">
        <ele>210.545</ele>
        <time>1970-01-01T01:00:00Z</time>
      </trkpt>
      <trkpt lat="61.089539" lon="14.269586">
        <ele>210.636</ele>
        <time>1970-01-01T01:00:00Z</time>
      </trkpt>
      <trkpt lat="61.089466" lon="14.269711">
        <ele>210.727</ele>
        <time>1970-01-01T01:00:00Z</time>
      </trkpt>
      <trkpt lat="61.089403" lon="14.26985">
        <ele>210.636</ele>
        <time>1970-01-01T01:00:00Z</time>
      </trkpt>
      <trkpt lat="61.089333" lon="14.270004">
        <ele>210.545</ele>
        <time>1970-01-01T01:00:00Z</time>
      </trkpt>
      <trkpt lat="61.089259" lon="14.270147">
        <ele>210.455</ele>
        <time>1970-01-01T01:00:00Z</time>
      </trkpt>
      <trkpt lat="61.089183" lon="14.27026">
        <ele>210.364</ele>
        <time>1970-01-01T01:00:00Z</time>
      </trkpt>
      <trkpt lat="61.089107" lon="14.27037">
        <ele>210.091</ele>
        <time>1970-01-01T01:00:00Z</time>
      </trkpt>
      <trkpt lat="61.089017" lon="14.270486">
        <ele>209.909</ele>
        <time>1970-01-01T01:00:00Z</time>
      </trkpt>
      <trkpt lat="61.088932" lon="14.270568">
        <ele>209.727</ele>
        <time>1970-01-01T01:00:00Z</time>
      </trkpt>
      <trkpt lat="61.088835" lon="14.270654">
        <ele>209.545</ele>
        <time>1970-01-01T01:00:00Z</time>
      </trkpt>
      <trkpt lat="61.088754" lon="14.270741">
        <ele>209.182</ele>
        <time>1970-01-01T01:00:00Z</time>
      </trkpt>
      <trkpt lat="61.088669" lon="14.270842">
        <ele>208.818</ele>
        <time>1970-01-01T01:00:00Z</time>
      </trkpt>
      <trkpt lat="61.088581" lon="14.270962">
        <ele>208.455</ele>
        <time>1970-01-01T01:00:00Z</time>
      </trkpt>
      <trkpt lat="61.088495" lon="14.271101">
        <ele>208.273</ele>
        <time>1970-01-01T01:00:00Z</time>
      </trkpt>
      <trkpt lat="61.088426" lon="14.271249">
        <ele>208.091</ele>
        <time>1970-01-01T01:00:00Z</time>
      </trkpt>
      <trkpt lat="61.088346" lon="14.271416">
        <ele>208</ele>
        <time>1970-01-01T01:00:00Z</time>
      </trkpt>
      <trkpt lat="61.088273" lon="14.271551">
        <ele>207.818</ele>
        <time>1970-01-01T01:00:00Z</time>
      </trkpt>
      <trkpt lat="61.08819" lon="14.271706">
        <ele>207.636</ele>
        <time>1970-01-01T01:00:00Z</time>
      </trkpt>
      <trkpt lat="61.088119" lon="14.271857">
        <ele>207.455</ele>
        <time>1970-01-01T01:00:00Z</time>
      </trkpt>
      <trkpt lat="61.088038" lon="14.272">
        <ele>207.273</ele>
        <time>1970-01-01T01:00:00Z</time>
      </trkpt>
      <trkpt lat="61.087964" lon="14.272162">
        <ele>207.091</ele>
        <time>1970-01-01T01:00:00Z</time>
      </trkpt>
      <trkpt lat="61.087911" lon="14.272352">
        <ele>207.091</ele>
        <time>1970-01-01T01:00:00Z</time>
      </trkpt>
      <trkpt lat="61.087869" lon="14.272556">
        <ele>207.091</ele>
        <time>1970-01-01T01:00:00Z</time>
      </trkpt>
      <trkpt lat="61.087867" lon="14.272791">
        <ele>207.091</ele>
        <time>1970-01-01T01:00:00Z</time>
      </trkpt>
      <trkpt lat="61.087852" lon="14.273027">
        <ele>207</ele>
        <time>1970-01-01T01:00:00Z</time>
      </trkpt>
      <trkpt lat="61.087807" lon="14.273222">
        <ele>206.909</ele>
        <time>1970-01-01T01:00:00Z</time>
      </trkpt>
      <trkpt lat="61.087767" lon="14.273426">
        <ele>206.727</ele>
        <time>1970-01-01T01:00:00Z</time>
      </trkpt>
      <trkpt lat="61.087718" lon="14.273602">
        <ele>206.636</ele>
        <time>1970-01-01T01:00:00Z</time>
      </trkpt>
      <trkpt lat="61.087666" lon="14.273782">
        <ele>206.545</ele>
        <time>1970-01-01T01:00:00Z</time>
      </trkpt>
      <trkpt lat="61.087609" lon="14.27397">
        <ele>206.455</ele>
        <time>1970-01-01T01:00:00Z</time>
      </trkpt>
      <trkpt lat="61.087542" lon="14.274142">
        <ele>206.364</ele>
        <time>1970-01-01T01:00:00Z</time>
      </trkpt>
      <trkpt lat="61.087493" lon="14.274312">
        <ele>206.273</ele>
        <time>1970-01-01T01:00:00Z</time>
      </trkpt>
      <trkpt lat="61.087443" lon="14.274498">
        <ele>206.182</ele>
        <time>1970-01-01T01:00:00Z</time>
      </trkpt>
      <trkpt lat="61.087381" lon="14.274712">
        <ele>206.091</ele>
        <time>1970-01-01T01:00:00Z</time>
      </trkpt>
      <trkpt lat="61.087338" lon="14.274928">
        <ele>206</ele>
        <time>1970-01-01T01:00:00Z</time>
      </trkpt>
      <trkpt lat="61.087302" lon="14.275135">
        <ele>206.091</ele>
        <time>1970-01-01T01:00:00Z</time>
      </trkpt>
      <trkpt lat="61.087275" lon="14.275352">
        <ele>206.182</ele>
        <time>1970-01-01T01:00:00Z</time>
      </trkpt>
      <trkpt lat="61.087235" lon="14.275531">
        <ele>206.273</ele>
        <time>1970-01-01T01:00:00Z</time>
      </trkpt>
      <trkpt lat="61.087191" lon="14.275698">
        <ele>206.364</ele>
        <time>1970-01-01T01:00:00Z</time>
      </trkpt>
      <trkpt lat="61.08712" lon="14.275888">
        <ele>206.455</ele>
        <time>1970-01-01T01:00:00Z</time>
      </trkpt>
      <trkpt lat="61.087064" lon="14.276037">
        <ele>206.545</ele>
        <time>1970-01-01T01:00:00Z</time>
      </trkpt>
      <trkpt lat="61.086999" lon="14.276191">
        <ele>206.636</ele>
        <time>1970-01-01T01:00:00Z</time>
      </trkpt>
      <trkpt lat="61.086924" lon="14.276349">
        <ele>206.636</ele>
        <time>1970-01-01T01:00:00Z</time>
      </trkpt>
      <trkpt lat="61.08685" lon="14.276509">
        <ele>206.636</ele>
        <time>1970-01-01T01:00:00Z</time>
      </trkpt>
      <trkpt lat="61.086762" lon="14.276671">
        <ele>206.636</ele>
        <time>1970-01-01T01:00:00Z</time>
      </trkpt>
      <trkpt lat="61.086699" lon="14.276822">
        <ele>206.636</ele>
        <time>1970-01-01T01:00:00Z</time>
      </trkpt>
      <trkpt lat="61.086626" lon="14.27699">
        <ele>206.727</ele>
        <time>1970-01-01T01:00:00Z</time>
      </trkpt>
      <trkpt lat="61.086549" lon="14.27728">
        <ele>206.727</ele>
        <time>1970-01-01T01:00:00Z</time>
      </trkpt>
      <trkpt lat="61.086463" lon="14.277487">
        <ele>206.727</ele>
        <time>1970-01-01T01:00:00Z</time>
      </trkpt>
      <trkpt lat="61.086374" lon="14.277634">
        <ele>206.727</ele>
        <time>1970-01-01T01:00:00Z</time>
      </trkpt>
      <trkpt lat="61.08629" lon="14.277737">
        <ele>206.727</ele>
        <time>1970-01-01T01:00:00Z</time>
      </trkpt>
      <trkpt lat="61.086198" lon="14.277868">
        <ele>206.727</ele>
        <time>1970-01-01T01:00:00Z</time>
      </trkpt>
      <trkpt lat="61.086126" lon="14.277989">
        <ele>206.727</ele>
        <time>1970-01-01T01:00:00Z</time>
      </trkpt>
      <trkpt lat="61.086037" lon="14.278135">
        <ele>206.818</ele>
        <time>1970-01-01T01:00:00Z</time>
      </trkpt>
      <trkpt lat="61.085958" lon="14.278282">
        <ele>206.909</ele>
        <time>1970-01-01T01:00:00Z</time>
      </trkpt>
      <trkpt lat="61.085869" lon="14.278413">
        <ele>207.182</ele>
        <time>1970-01-01T01:00:00Z</time>
      </trkpt>
      <trkpt lat="61.0858" lon="14.278535">
        <ele>207.455</ele>
        <time>1970-01-01T01:00:00Z</time>
      </trkpt>
      <trkpt lat="61.085726" lon="14.278663">
        <ele>207.545</ele>
        <time>1970-01-01T01:00:00Z</time>
      </trkpt>
      <trkpt lat="61.085621" lon="14.27877">
        <ele>207.727</ele>
        <time>1970-01-01T01:00:00Z</time>
      </trkpt>
      <trkpt lat="61.08552" lon="14.278843">
        <ele>207.909</ele>
        <time>1970-01-01T01:00:00Z</time>
      </trkpt>
      <trkpt lat="61.085417" lon="14.278934">
        <ele>208.091</ele>
        <time>1970-01-01T01:00:00Z</time>
      </trkpt>
      <trkpt lat="61.085319" lon="14.279018">
        <ele>208.182</ele>
        <time>1970-01-01T01:00:00Z</time>
      </trkpt>
      <trkpt lat="61.08522" lon="14.279147">
        <ele>208.273</ele>
        <time>1970-01-01T01:00:00Z</time>
      </trkpt>
      <trkpt lat="61.085143" lon="14.27928">
        <ele>208.364</ele>
        <time>1970-01-01T01:00:00Z</time>
      </trkpt>
      <trkpt lat="61.085068" lon="14.279423">
        <ele>208.636</ele>
        <time>1970-01-01T01:00:00Z</time>
      </trkpt>
      <trkpt lat="61.084978" lon="14.279575">
        <ele>208.909</ele>
        <time>1970-01-01T01:00:00Z</time>
      </trkpt>
      <trkpt lat="61.084882" lon="14.279676">
        <ele>209</ele>
        <time>1970-01-01T01:00:00Z</time>
      </trkpt>
      <trkpt lat="61.084781" lon="14.279729">
        <ele>209.091</ele>
        <time>1970-01-01T01:00:00Z</time>
      </trkpt>
      <trkpt lat="61.084682" lon="14.27974">
        <ele>209.182</ele>
        <time>1970-01-01T01:00:00Z</time>
      </trkpt>
      <trkpt lat="61.08458" lon="14.279802">
        <ele>209.273</ele>
        <time>1970-01-01T01:00:00Z</time>
      </trkpt>
      <trkpt lat="61.084489" lon="14.279839">
        <ele>209.364</ele>
        <time>1970-01-01T01:00:00Z</time>
      </trkpt>
      <trkpt lat="61.084394" lon="14.279913">
        <ele>209.455</ele>
        <time>1970-01-01T01:00:00Z</time>
      </trkpt>
      <trkpt lat="61.08428" lon="14.280005">
        <ele>209.636</ele>
        <time>1970-01-01T01:00:00Z</time>
      </trkpt>
      <trkpt lat="61.084182" lon="14.280105">
        <ele>209.818</ele>
        <time>1970-01-01T01:00:00Z</time>
      </trkpt>
      <trkpt lat="61.08409" lon="14.280179">
        <ele>210.182</ele>
        <time>1970-01-01T01:00:00Z</time>
      </trkpt>
      <trkpt lat="61.084022" lon="14.280354">
        <ele>210.364</ele>
        <time>1970-01-01T01:00:00Z</time>
      </trkpt>
      <trkpt lat="61.08397" lon="14.280509">
        <ele>210.545</ele>
        <time>1970-01-01T01:00:00Z</time>
      </trkpt>
      <trkpt lat="61.08389" lon="14.280671">
        <ele>210.636</ele>
        <time>1970-01-01T01:00:00Z</time>
      </trkpt>
      <trkpt lat="61.083813" lon="14.28077">
        <ele>210.727</ele>
        <time>1970-01-01T01:00:00Z</time>
      </trkpt>
      <trkpt lat="61.083725" lon="14.280902">
        <ele>210.818</ele>
        <time>1970-01-01T01:00:00Z</time>
      </trkpt>
      <trkpt lat="61.083643" lon="14.281061">
        <ele>210.909</ele>
        <time>1970-01-01T01:00:00Z</time>
      </trkpt>
      <trkpt lat="61.083576" lon="14.281186">
        <ele>211</ele>
        <time>1970-01-01T01:00:00Z</time>
      </trkpt>
      <trkpt lat="61.083487" lon="14.281319">
        <ele>211.091</ele>
        <time>1970-01-01T01:00:00Z</time>
      </trkpt>
      <trkpt lat="61.0834" lon="14.281455">
        <ele>211.273</ele>
        <time>1970-01-01T01:00:00Z</time>
      </trkpt>
      <trkpt lat="61.083331" lon="14.281591">
        <ele>211.455</ele>
        <time>1970-01-01T01:00:00Z</time>
      </trkpt>
      <trkpt lat="61.083248" lon="14.281708">
        <ele>211.455</ele>
        <time>1970-01-01T01:00:00Z</time>
      </trkpt>
      <trkpt lat="61.083165" lon="14.28183">
        <ele>211.364</ele>
        <time>1970-01-01T01:00:00Z</time>
      </trkpt>
      <trkpt lat="61.083075" lon="14.28192">
        <ele>211.273</ele>
        <time>1970-01-01T01:00:00Z</time>
      </trkpt>
      <trkpt lat="61.082984" lon="14.282026">
        <ele>211.273</ele>
        <time>1970-01-01T01:00:00Z</time>
      </trkpt>
      <trkpt lat="61.082895" lon="14.282081">
        <ele>211.273</ele>
        <time>1970-01-01T01:00:00Z</time>
      </trkpt>
      <trkpt lat="61.082811" lon="14.282163">
        <ele>211.273</ele>
        <time>1970-01-01T01:00:00Z</time>
      </trkpt>
      <trkpt lat="61.082723" lon="14.282284">
        <ele>211.273</ele>
        <time>1970-01-01T01:00:00Z</time>
      </trkpt>
      <trkpt lat="61.082629" lon="14.282365">
        <ele>211.273</ele>
        <time>1970-01-01T01:00:00Z</time>
      </trkpt>
      <trkpt lat="61.082542" lon="14.282431">
        <ele>211.273</ele>
        <time>1970-01-01T01:00:00Z</time>
      </trkpt>
      <trkpt lat="61.082451" lon="14.28248">
        <ele>211.182</ele>
        <time>1970-01-01T01:00:00Z</time>
      </trkpt>
      <trkpt lat="61.082351" lon="14.282547">
        <ele>211.091</ele>
        <time>1970-01-01T01:00:00Z</time>
      </trkpt>
      <trkpt lat="61.082252" lon="14.282605">
        <ele>211</ele>
        <time>1970-01-01T01:00:00Z</time>
      </trkpt>
      <trkpt lat="61.082145" lon="14.282636">
        <ele>211</ele>
        <time>1970-01-01T01:00:00Z</time>
      </trkpt>
      <trkpt lat="61.082037" lon="14.282695">
        <ele>211</ele>
        <time>1970-01-01T01:00:00Z</time>
      </trkpt>
      <trkpt lat="61.081936" lon="14.282652">
        <ele>211</ele>
        <time>1970-01-01T01:00:00Z</time>
      </trkpt>
      <trkpt lat="61.081838" lon="14.282577">
        <ele>211</ele>
        <time>1970-01-01T01:00:00Z</time>
      </trkpt>
      <trkpt lat="61.081746" lon="14.282563">
        <ele>211</ele>
        <time>1970-01-01T01:00:00Z</time>
      </trkpt>
      <trkpt lat="61.081655" lon="14.282514">
        <ele>211.091</ele>
        <time>1970-01-01T01:00:00Z</time>
      </trkpt>
      <trkpt lat="61.081546" lon="14.282513">
        <ele>211.182</ele>
        <time>1970-01-01T01:00:00Z</time>
      </trkpt>
      <trkpt lat="61.081453" lon="14.282463">
        <ele>211.273</ele>
        <time>1970-01-01T01:00:00Z</time>
      </trkpt>
      <trkpt lat="61.081372" lon="14.282372">
        <ele>211.273</ele>
        <time>1970-01-01T01:00:00Z</time>
      </trkpt>
      <trkpt lat="61.081291" lon="14.282251">
        <ele>211.273</ele>
        <time>1970-01-01T01:00:00Z</time>
      </trkpt>
      <trkpt lat="61.081203" lon="14.282147">
        <ele>211.273</ele>
        <time>1970-01-01T01:00:00Z</time>
      </trkpt>
      <trkpt lat="61.081111" lon="14.282094">
        <ele>211.273</ele>
        <time>1970-01-01T01:00:00Z</time>
      </trkpt>
      <trkpt lat="61.081029" lon="14.282181">
        <ele>211.091</ele>
        <time>1970-01-01T01:00:00Z</time>
      </trkpt>
      <trkpt lat="61.080955" lon="14.282316">
        <ele>210.909</ele>
        <time>1970-01-01T01:00:00Z</time>
      </trkpt>
      <trkpt lat="61.08089" lon="14.282488">
        <ele>210.727</ele>
        <time>1970-01-01T01:00:00Z</time>
      </trkpt>
      <trkpt lat="61.080831" lon="14.282667">
        <ele>210.545</ele>
        <time>1970-01-01T01:00:00Z</time>
      </trkpt>
      <trkpt lat="61.080781" lon="14.2829">
        <ele>210.182</ele>
        <time>1970-01-01T01:00:00Z</time>
      </trkpt>
      <trkpt lat="61.080752" lon="14.283098">
        <ele>209.818</ele>
        <time>1970-01-01T01:00:00Z</time>
      </trkpt>
      <trkpt lat="61.080716" lon="14.283297">
        <ele>209.455</ele>
        <time>1970-01-01T01:00:00Z</time>
      </trkpt>
      <trkpt lat="61.080681" lon="14.283493">
        <ele>209.182</ele>
        <time>1970-01-01T01:00:00Z</time>
      </trkpt>
      <trkpt lat="61.08066" lon="14.283719">
        <ele>208.909</ele>
        <time>1970-01-01T01:00:00Z</time>
      </trkpt>
      <trkpt lat="61.080645" lon="14.283976">
        <ele>208.636</ele>
        <time>1970-01-01T01:00:00Z</time>
      </trkpt>
      <trkpt lat="61.080621" lon="14.284194">
        <ele>208.364</ele>
        <time>1970-01-01T01:00:00Z</time>
      </trkpt>
      <trkpt lat="61.080626" lon="14.28438">
        <ele>208.273</ele>
        <time>1970-01-01T01:00:00Z</time>
      </trkpt>
      <trkpt lat="61.08062" lon="14.284618">
        <ele>208.545</ele>
        <time>1970-01-01T01:00:00Z</time>
      </trkpt>
      <trkpt lat="61.080608" lon="14.284891">
        <ele>208.818</ele>
        <time>1970-01-01T01:00:00Z</time>
      </trkpt>
      <trkpt lat="61.080585" lon="14.285094">
        <ele>209.091</ele>
        <time>1970-01-01T01:00:00Z</time>
      </trkpt>
      <trkpt lat="61.080545" lon="14.285283">
        <ele>209.455</ele>
        <time>1970-01-01T01:00:00Z</time>
      </trkpt>
      <trkpt lat="61.080493" lon="14.285451">
        <ele>209.818</ele>
        <time>1970-01-01T01:00:00Z</time>
      </trkpt>
      <trkpt lat="61.080411" lon="14.285571">
        <ele>210.182</ele>
        <time>1970-01-01T01:00:00Z</time>
      </trkpt>
      <trkpt lat="61.080328" lon="14.2857">
        <ele>210.545</ele>
        <time>1970-01-01T01:00:00Z</time>
      </trkpt>
      <trkpt lat="61.080252" lon="14.285837">
        <ele>210.909</ele>
        <time>1970-01-01T01:00:00Z</time>
      </trkpt>
      <trkpt lat="61.080176" lon="14.285981">
        <ele>211.273</ele>
        <time>1970-01-01T01:00:00Z</time>
      </trkpt>
      <trkpt lat="61.080095" lon="14.286141">
        <ele>211.636</ele>
        <time>1970-01-01T01:00:00Z</time>
      </trkpt>
      <trkpt lat="61.080012" lon="14.28629">
        <ele>212.182</ele>
        <time>1970-01-01T01:00:00Z</time>
      </trkpt>
      <trkpt lat="61.07992" lon="14.286401">
        <ele>212.364</ele>
        <time>1970-01-01T01:00:00Z</time>
      </trkpt>
      <trkpt lat="61.079836" lon="14.286507">
        <ele>212.545</ele>
        <time>1970-01-01T01:00:00Z</time>
      </trkpt>
      <trkpt lat="61.07974" lon="14.28662">
        <ele>212.727</ele>
        <time>1970-01-01T01:00:00Z</time>
      </trkpt>
      <trkpt lat="61.079658" lon="14.286715">
        <ele>212.909</ele>
        <time>1970-01-01T01:00:00Z</time>
      </trkpt>
      <trkpt lat="61.079575" lon="14.286803">
        <ele>213.091</ele>
        <time>1970-01-01T01:00:00Z</time>
      </trkpt>
      <trkpt lat="61.079484" lon="14.28688">
        <ele>213.273</ele>
        <time>1970-01-01T01:00:00Z</time>
      </trkpt>
      <trkpt lat="61.079392" lon="14.286959">
        <ele>213.455</ele>
        <time>1970-01-01T01:00:00Z</time>
      </trkpt>
      <trkpt lat="61.079291" lon="14.287067">
        <ele>213.818</ele>
        <time>1970-01-01T01:00:00Z</time>
      </trkpt>
      <trkpt lat="61.079185" lon="14.287106">
        <ele>214.182</ele>
        <time>1970-01-01T01:00:00Z</time>
      </trkpt>
      <trkpt lat="61.079094" lon="14.287169">
        <ele>214.545</ele>
        <time>1970-01-01T01:00:00Z</time>
      </trkpt>
      <trkpt lat="61.078997" lon="14.28726">
        <ele>214.727</ele>
        <time>1970-01-01T01:00:00Z</time>
      </trkpt>
      <trkpt lat="61.078898" lon="14.287343">
        <ele>214.909</ele>
        <time>1970-01-01T01:00:00Z</time>
      </trkpt>
      <trkpt lat="61.078795" lon="14.287468">
        <ele>215.091</ele>
        <time>1970-01-01T01:00:00Z</time>
      </trkpt>
      <trkpt lat="61.078719" lon="14.287627">
        <ele>215.273</ele>
        <time>1970-01-01T01:00:00Z</time>
      </trkpt>
      <trkpt lat="61.078663" lon="14.287821">
        <ele>215.455</ele>
        <time>1970-01-01T01:00:00Z</time>
      </trkpt>
      <trkpt lat="61.078636" lon="14.288009">
        <ele>215.727</ele>
        <time>1970-01-01T01:00:00Z</time>
      </trkpt>
      <trkpt lat="61.078616" lon="14.288227">
        <ele>216</ele>
        <time>1970-01-01T01:00:00Z</time>
      </trkpt>
      <trkpt lat="61.078569" lon="14.288439">
        <ele>216.273</ele>
        <time>1970-01-01T01:00:00Z</time>
      </trkpt>
      <trkpt lat="61.078509" lon="14.288586">
        <ele>216.364</ele>
        <time>1970-01-01T01:00:00Z</time>
      </trkpt>
      <trkpt lat="61.078406" lon="14.288732">
        <ele>216.455</ele>
        <time>1970-01-01T01:00:00Z</time>
      </trkpt>
      <trkpt lat="61.078313" lon="14.288836">
        <ele>216.727</ele>
        <time>1970-01-01T01:00:00Z</time>
      </trkpt>
      <trkpt lat="61.078229" lon="14.28896">
        <ele>217</ele>
        <time>1970-01-01T01:00:00Z</time>
      </trkpt>
      <trkpt lat="61.078178" lon="14.289118">
        <ele>217.273</ele>
        <time>1970-01-01T01:00:00Z</time>
      </trkpt>
      <trkpt lat="61.078109" lon="14.289298">
        <ele>217.545</ele>
        <time>1970-01-01T01:00:00Z</time>
      </trkpt>
      <trkpt lat="61.078032" lon="14.289414">
        <ele>217.7</ele>
        <time>1970-01-01T01:00:00Z</time>
      </trkpt>
      <trkpt lat="61.077936" lon="14.289501">
        <ele>217.889</ele>
        <time>1970-01-01T01:00:00Z</time>
      </trkpt>
      <trkpt lat="61.077838" lon="14.289614">
        <ele>218</ele>
        <time>1970-01-01T01:00:00Z</time>
      </trkpt>
      <trkpt lat="61.077753" lon="14.289743">
        <ele>218.143</ele>
        <time>1970-01-01T01:00:00Z</time>
      </trkpt>
      <trkpt lat="61.077748" lon="14.289768">
        <ele>218.333</ele>
        <time>1970-01-01T01:00:00Z</time>
      </trkpt>
      <trkpt lat="61.077658" lon="14.289819">
        <ele>219.167</ele>
        <time>1970-01-01T01:00:00Z</time>
      </trkpt>
      <trkpt lat="61.077586" lon="14.289958">
        <ele>219.286</ele>
        <time>1970-01-01T01:00:00Z</time>
      </trkpt>
      <trkpt lat="61.077509" lon="14.290108">
        <ele>219.375</ele>
        <time>1970-01-01T01:00:00Z</time>
      </trkpt>
      <trkpt lat="61.077431" lon="14.290229">
        <ele>219.444</ele>
        <time>1970-01-01T01:00:00Z</time>
      </trkpt>
      <trkpt lat="61.077349" lon="14.290347">
        <ele>219.5</ele>
        <time>1970-01-01T01:00:00Z</time>
      </trkpt>
      <trkpt lat="61.077268" lon="14.290454">
        <ele>219.545</ele>
        <time>1970-01-01T01:00:00Z</time>
      </trkpt>
      <trkpt lat="61.077171" lon="14.290527">
        <ele>219.636</ele>
        <time>1970-01-01T01:00:00Z</time>
      </trkpt>
      <trkpt lat="61.077078" lon="14.290581">
        <ele>219.727</ele>
        <time>1970-01-01T01:00:00Z</time>
      </trkpt>
      <trkpt lat="61.076987" lon="14.290678">
        <ele>219.818</ele>
        <time>1970-01-01T01:00:00Z</time>
      </trkpt>
      <trkpt lat="61.0769" lon="14.290763">
        <ele>219.909</ele>
        <time>1970-01-01T01:00:00Z</time>
      </trkpt>
      <trkpt lat="61.076817" lon="14.290847">
        <ele>220</ele>
        <time>1970-01-01T01:00:00Z</time>
      </trkpt>
      <trkpt lat="61.076743" lon="14.290991">
        <ele>220</ele>
        <time>1970-01-01T01:00:00Z</time>
      </trkpt>
      <trkpt lat="61.076687" lon="14.291178">
        <ele>220</ele>
        <time>1970-01-01T01:00:00Z</time>
      </trkpt>
      <trkpt lat="61.076638" lon="14.291344">
        <ele>220</ele>
        <time>1970-01-01T01:00:00Z</time>
      </trkpt>
      <trkpt lat="61.076596" lon="14.291514">
        <ele>220</ele>
        <time>1970-01-01T01:00:00Z</time>
      </trkpt>
      <trkpt lat="61.076547" lon="14.291683">
        <ele>220</ele>
        <time>1970-01-01T01:00:00Z</time>
      </trkpt>
      <trkpt lat="61.0765" lon="14.291845">
        <ele>220</ele>
        <time>1970-01-01T01:00:00Z</time>
      </trkpt>
      <trkpt lat="61.076421" lon="14.291942">
        <ele>220</ele>
        <time>1970-01-01T01:00:00Z</time>
      </trkpt>
      <trkpt lat="61.076323" lon="14.291992">
        <ele>220</ele>
        <time>1970-01-01T01:00:00Z</time>
      </trkpt>
      <trkpt lat="61.076239" lon="14.292084">
        <ele>220</ele>
        <time>1970-01-01T01:00:00Z</time>
      </trkpt>
      <trkpt lat="61.076147" lon="14.29209">
        <ele>220</ele>
        <time>1970-01-01T01:00:00Z</time>
      </trkpt>
      <trkpt lat="61.076058" lon="14.292135">
        <ele>220</ele>
        <time>1970-01-01T01:00:00Z</time>
      </trkpt>
      <trkpt lat="61.075962" lon="14.292214">
        <ele>220</ele>
        <time>1970-01-01T01:00:00Z</time>
      </trkpt>
      <trkpt lat="61.075877" lon="14.292338">
        <ele>220</ele>
        <time>1970-01-01T01:00:00Z</time>
      </trkpt>
      <trkpt lat="61.075801" lon="14.292488">
        <ele>220</ele>
        <time>1970-01-01T01:00:00Z</time>
      </trkpt>
      <trkpt lat="61.07574" lon="14.292664">
        <ele>220</ele>
        <time>1970-01-01T01:00:00Z</time>
      </trkpt>
      <trkpt lat="61.075681" lon="14.292813">
        <ele>220.091</ele>
        <time>1970-01-01T01:00:00Z</time>
      </trkpt>
      <trkpt lat="61.075616" lon="14.292975">
        <ele>220.182</ele>
        <time>1970-01-01T01:00:00Z</time>
      </trkpt>
      <trkpt lat="61.075564" lon="14.29313">
        <ele>220.273</ele>
        <time>1970-01-01T01:00:00Z</time>
      </trkpt>
      <trkpt lat="61.075513" lon="14.293307">
        <ele>220.364</ele>
        <time>1970-01-01T01:00:00Z</time>
      </trkpt>
      <trkpt lat="61.075459" lon="14.29347">
        <ele>220.455</ele>
        <time>1970-01-01T01:00:00Z</time>
      </trkpt>
      <trkpt lat="61.0754" lon="14.293622">
        <ele>220.545</ele>
        <time>1970-01-01T01:00:00Z</time>
      </trkpt>
      <trkpt lat="61.075344" lon="14.29378">
        <ele>220.636</ele>
        <time>1970-01-01T01:00:00Z</time>
      </trkpt>
      <trkpt lat="61.075293" lon="14.293962">
        <ele>220.727</ele>
        <time>1970-01-01T01:00:00Z</time>
      </trkpt>
      <trkpt lat="61.07525" lon="14.294163">
        <ele>220.818</ele>
        <time>1970-01-01T01:00:00Z</time>
      </trkpt>
      <trkpt lat="61.075188" lon="14.294358">
        <ele>220.909</ele>
        <time>1970-01-01T01:00:00Z</time>
      </trkpt>
      <trkpt lat="61.075134" lon="14.29454">
        <ele>221</ele>
        <time>1970-01-01T01:00:00Z</time>
      </trkpt>
      <trkpt lat="61.075098" lon="14.29472">
        <ele>221</ele>
        <time>1970-01-01T01:00:00Z</time>
      </trkpt>
      <trkpt lat="61.075058" lon="14.294892">
        <ele>221</ele>
        <time>1970-01-01T01:00:00Z</time>
      </trkpt>
      <trkpt lat="61.075025" lon="14.295084">
        <ele>221</ele>
        <time>1970-01-01T01:00:00Z</time>
      </trkpt>
      <trkpt lat="61.074977" lon="14.295271">
        <ele>221</ele>
        <time>1970-01-01T01:00:00Z</time>
      </trkpt>
      <trkpt lat="61.074917" lon="14.29544">
        <ele>221</ele>
        <time>1970-01-01T01:00:00Z</time>
      </trkpt>
      <trkpt lat="61.074858" lon="14.295615">
        <ele>221</ele>
        <time>1970-01-01T01:00:00Z</time>
      </trkpt>
      <trkpt lat="61.074798" lon="14.295796">
        <ele>221.364</ele>
        <time>1970-01-01T01:00:00Z</time>
      </trkpt>
      <trkpt lat="61.074742" lon="14.295952">
        <ele>221.727</ele>
        <time>1970-01-01T01:00:00Z</time>
      </trkpt>
      <trkpt lat="61.074722" lon="14.296151">
        <ele>222.091</ele>
        <time>1970-01-01T01:00:00Z</time>
      </trkpt>
      <trkpt lat="61.074674" lon="14.296317">
        <ele>222.545</ele>
        <time>1970-01-01T01:00:00Z</time>
      </trkpt>
      <trkpt lat="61.074643" lon="14.296497">
        <ele>223</ele>
        <time>1970-01-01T01:00:00Z</time>
      </trkpt>
      <trkpt lat="61.0746" lon="14.296689">
        <ele>223.455</ele>
        <time>1970-01-01T01:00:00Z</time>
      </trkpt>
      <trkpt lat="61.074568" lon="14.296875">
        <ele>223.909</ele>
        <time>1970-01-01T01:00:00Z</time>
      </trkpt>
      <trkpt lat="61.074545" lon="14.297079">
        <ele>224.455</ele>
        <time>1970-01-01T01:00:00Z</time>
      </trkpt>
      <trkpt lat="61.074535" lon="14.297274">
        <ele>225</ele>
        <time>1970-01-01T01:00:00Z</time>
      </trkpt>
      <trkpt lat="61.074517" lon="14.297464">
        <ele>225.545</ele>
        <time>1970-01-01T01:00:00Z</time>
      </trkpt>
      <trkpt lat="61.074505" lon="14.297661">
        <ele>226.091</ele>
        <time>1970-01-01T01:00:00Z</time>
      </trkpt>
      <trkpt lat="61.074483" lon="14.297883">
        <ele>226.273</ele>
        <time>1970-01-01T01:00:00Z</time>
      </trkpt>
      <trkpt lat="61.074449" lon="14.298082">
        <ele>226.545</ele>
        <time>1970-01-01T01:00:00Z</time>
      </trkpt>
      <trkpt lat="61.074402" lon="14.298263">
        <ele>226.818</ele>
        <time>1970-01-01T01:00:00Z</time>
      </trkpt>
      <trkpt lat="61.074349" lon="14.298417">
        <ele>227</ele>
        <time>1970-01-01T01:00:00Z</time>
      </trkpt>
      <trkpt lat="61.074278" lon="14.298577">
        <ele>227.182</ele>
        <time>1970-01-01T01:00:00Z</time>
      </trkpt>
      <trkpt lat="61.074203" lon="14.298699">
        <ele>227.545</ele>
        <time>1970-01-01T01:00:00Z</time>
      </trkpt>
      <trkpt lat="61.074141" lon="14.298842">
        <ele>227.909</ele>
        <time>1970-01-01T01:00:00Z</time>
      </trkpt>
      <trkpt lat="61.074098" lon="14.299011">
        <ele>228.182</ele>
        <time>1970-01-01T01:00:00Z</time>
      </trkpt>
      <trkpt lat="61.074077" lon="14.299238">
        <ele>228.455</ele>
        <time>1970-01-01T01:00:00Z</time>
      </trkpt>
      <trkpt lat="61.074071" lon="14.299449">
        <ele>228.909</ele>
        <time>1970-01-01T01:00:00Z</time>
      </trkpt>
      <trkpt lat="61.074068" lon="14.299644">
        <ele>229.364</ele>
        <time>1970-01-01T01:00:00Z</time>
      </trkpt>
      <trkpt lat="61.074085" lon="14.299857">
        <ele>229.818</ele>
        <time>1970-01-01T01:00:00Z</time>
      </trkpt>
      <trkpt lat="61.0741" lon="14.300056">
        <ele>230.182</ele>
        <time>1970-01-01T01:00:00Z</time>
      </trkpt>
      <trkpt lat="61.074114" lon="14.300262">
        <ele>230.727</ele>
        <time>1970-01-01T01:00:00Z</time>
      </trkpt>
      <trkpt lat="61.074116" lon="14.300448">
        <ele>231.273</ele>
        <time>1970-01-01T01:00:00Z</time>
      </trkpt>
      <trkpt lat="61.074158" lon="14.300642">
        <ele>231.818</ele>
        <time>1970-01-01T01:00:00Z</time>
      </trkpt>
      <trkpt lat="61.07417" lon="14.30087">
        <ele>232.182</ele>
        <time>1970-01-01T01:00:00Z</time>
      </trkpt>
      <trkpt lat="61.074191" lon="14.301069">
        <ele>232.545</ele>
        <time>1970-01-01T01:00:00Z</time>
      </trkpt>
      <trkpt lat="61.074175" lon="14.301264">
        <ele>233.091</ele>
        <time>1970-01-01T01:00:00Z</time>
      </trkpt>
      <trkpt lat="61.07413" lon="14.301426">
        <ele>233.636</ele>
        <time>1970-01-01T01:00:00Z</time>
      </trkpt>
      <trkpt lat="61.07411" lon="14.301624">
        <ele>234</ele>
        <time>1970-01-01T01:00:00Z</time>
      </trkpt>
      <trkpt lat="61.074093" lon="14.301809">
        <ele>234.364</ele>
        <time>1970-01-01T01:00:00Z</time>
      </trkpt>
      <trkpt lat="61.074072" lon="14.301993">
        <ele>234.909</ele>
        <time>1970-01-01T01:00:00Z</time>
      </trkpt>
      <trkpt lat="61.07406" lon="14.302211">
        <ele>235.455</ele>
        <time>1970-01-01T01:00:00Z</time>
      </trkpt>
      <trkpt lat="61.074065" lon="14.302422">
        <ele>235.818</ele>
        <time>1970-01-01T01:00:00Z</time>
      </trkpt>
      <trkpt lat="61.074077" lon="14.302638">
        <ele>236.182</ele>
        <time>1970-01-01T01:00:00Z</time>
      </trkpt>
      <trkpt lat="61.074064" lon="14.30286">
        <ele>236.636</ele>
        <time>1970-01-01T01:00:00Z</time>
      </trkpt>
      <trkpt lat="61.074059" lon="14.303076">
        <ele>237.091</ele>
        <time>1970-01-01T01:00:00Z</time>
      </trkpt>
      <trkpt lat="61.074058" lon="14.303266">
        <ele>237.545</ele>
        <time>1970-01-01T01:00:00Z</time>
      </trkpt>
      <trkpt lat="61.074054" lon="14.303453">
        <ele>237.818</ele>
        <time>1970-01-01T01:00:00Z</time>
      </trkpt>
      <trkpt lat="61.074042" lon="14.303666">
        <ele>238.091</ele>
        <time>1970-01-01T01:00:00Z</time>
      </trkpt>
      <trkpt lat="61.074028" lon="14.303887">
        <ele>238.364</ele>
        <time>1970-01-01T01:00:00Z</time>
      </trkpt>
      <trkpt lat="61.07403" lon="14.304112">
        <ele>238.636</ele>
        <time>1970-01-01T01:00:00Z</time>
      </trkpt>
      <trkpt lat="61.074034" lon="14.304301">
        <ele>238.727</ele>
        <time>1970-01-01T01:00:00Z</time>
      </trkpt>
      <trkpt lat="61.073984" lon="14.304481">
        <ele>238.818</ele>
        <time>1970-01-01T01:00:00Z</time>
      </trkpt>
      <trkpt lat="61.073924" lon="14.30465">
        <ele>239</ele>
        <time>1970-01-01T01:00:00Z</time>
      </trkpt>
      <trkpt lat="61.073868" lon="14.304837">
        <ele>239.182</ele>
        <time>1970-01-01T01:00:00Z</time>
      </trkpt>
      <trkpt lat="61.073848" lon="14.305037">
        <ele>239.273</ele>
        <time>1970-01-01T01:00:00Z</time>
      </trkpt>
      <trkpt lat="61.073836" lon="14.305229">
        <ele>239.364</ele>
        <time>1970-01-01T01:00:00Z</time>
      </trkpt>
      <trkpt lat="61.073845" lon="14.305416">
        <ele>239.545</ele>
        <time>1970-01-01T01:00:00Z</time>
      </trkpt>
      <trkpt lat="61.073879" lon="14.305614">
        <ele>239.727</ele>
        <time>1970-01-01T01:00:00Z</time>
      </trkpt>
      <trkpt lat="61.073905" lon="14.305799">
        <ele>239.909</ele>
        <time>1970-01-01T01:00:00Z</time>
      </trkpt>
      <trkpt lat="61.073917" lon="14.306023">
        <ele>240.091</ele>
        <time>1970-01-01T01:00:00Z</time>
      </trkpt>
      <trkpt lat="61.073962" lon="14.306192">
        <ele>240.273</ele>
        <time>1970-01-01T01:00:00Z</time>
      </trkpt>
      <trkpt lat="61.074" lon="14.306385">
        <ele>240.818</ele>
        <time>1970-01-01T01:00:00Z</time>
      </trkpt>
      <trkpt lat="61.074052" lon="14.306543">
        <ele>241.364</ele>
        <time>1970-01-01T01:00:00Z</time>
      </trkpt>
      <trkpt lat="61.074104" lon="14.306717">
        <ele>241.818</ele>
        <time>1970-01-01T01:00:00Z</time>
      </trkpt>
      <trkpt lat="61.074138" lon="14.306912">
        <ele>242.273</ele>
        <time>1970-01-01T01:00:00Z</time>
      </trkpt>
      <trkpt lat="61.074179" lon="14.307082">
        <ele>242.727</ele>
        <time>1970-01-01T01:00:00Z</time>
      </trkpt>
      <trkpt lat="61.074229" lon="14.307246">
        <ele>243.545</ele>
        <time>1970-01-01T01:00:00Z</time>
      </trkpt>
      <trkpt lat="61.074304" lon="14.3074">
        <ele>243.545</ele>
        <time>1970-01-01T01:00:00Z</time>
      </trkpt>
      <trkpt lat="61.074378" lon="14.307538">
        <ele>243.545</ele>
        <time>1970-01-01T01:00:00Z</time>
      </trkpt>
      <trkpt lat="61.074446" lon="14.307691">
        <ele>243.545</ele>
        <time>1970-01-01T01:00:00Z</time>
      </trkpt>
      <trkpt lat="61.074512" lon="14.307845">
        <ele>243.545</ele>
        <time>1970-01-01T01:00:00Z</time>
      </trkpt>
      <trkpt lat="61.074572" lon="14.307991">
        <ele>243.545</ele>
        <time>1970-01-01T01:00:00Z</time>
      </trkpt>
      <trkpt lat="61.074635" lon="14.308144">
        <ele>243.455</ele>
        <time>1970-01-01T01:00:00Z</time>
      </trkpt>
      <trkpt lat="61.074703" lon="14.308301">
        <ele>243.3</ele>
        <time>1970-01-01T01:00:00Z</time>
      </trkpt>
      <trkpt lat="61.074754" lon="14.308459">
        <ele>243.111</ele>
        <time>1970-01-01T01:00:00Z</time>
      </trkpt>
      <trkpt lat="61.074821" lon="14.308622">
        <ele>242.875</ele>
        <time>1970-01-01T01:00:00Z</time>
      </trkpt>
      <trkpt lat="61.074881" lon="14.308782">
        <ele>242.571</ele>
        <time>1970-01-01T01:00:00Z</time>
      </trkpt>
      <trkpt lat="61.0749" lon="14.308827">
        <ele>241.5</ele>
        <time>1970-01-01T01:00:00Z</time>
      </trkpt>
      <trkpt lat="61.074968" lon="14.308916">
        <ele>244.333</ele>
        <time>1970-01-01T01:00:00Z</time>
      </trkpt>
      <trkpt lat="61.075009" lon="14.309041">
        <ele>244.571</ele>
        <time>1970-01-01T01:00:00Z</time>
      </trkpt>
      <trkpt lat="61.075074" lon="14.309212">
        <ele>244.75</ele>
        <time>1970-01-01T01:00:00Z</time>
      </trkpt>
      <trkpt lat="61.075146" lon="14.309369">
        <ele>244.889</ele>
        <time>1970-01-01T01:00:00Z</time>
      </trkpt>
      <trkpt lat="61.075222" lon="14.30953">
        <ele>245</ele>
        <time>1970-01-01T01:00:00Z</time>
      </trkpt>
      <trkpt lat="61.075283" lon="14.309669">
        <ele>245.091</ele>
        <time>1970-01-01T01:00:00Z</time>
      </trkpt>
      <trkpt lat="61.075319" lon="14.309877">
        <ele>245.273</ele>
        <time>1970-01-01T01:00:00Z</time>
      </trkpt>
      <trkpt lat="61.07531" lon="14.310064">
        <ele>245.455</ele>
        <time>1970-01-01T01:00:00Z</time>
      </trkpt>
      <trkpt lat="61.075277" lon="14.310246">
        <ele>245.636</ele>
        <time>1970-01-01T01:00:00Z</time>
      </trkpt>
      <trkpt lat="61.075225" lon="14.310452">
        <ele>245.818</ele>
        <time>1970-01-01T01:00:00Z</time>
      </trkpt>
      <trkpt lat="61.075156" lon="14.31058">
        <ele>246</ele>
        <time>1970-01-01T01:00:00Z</time>
      </trkpt>
      <trkpt lat="61.075071" lon="14.310703">
        <ele>245.909</ele>
        <time>1970-01-01T01:00:00Z</time>
      </trkpt>
      <trkpt lat="61.074983" lon="14.310842">
        <ele>245.818</ele>
        <time>1970-01-01T01:00:00Z</time>
      </trkpt>
      <trkpt lat="61.074903" lon="14.310976">
        <ele>245.727</ele>
        <time>1970-01-01T01:00:00Z</time>
      </trkpt>
      <trkpt lat="61.074826" lon="14.311121">
        <ele>245.636</ele>
        <time>1970-01-01T01:00:00Z</time>
      </trkpt>
      <trkpt lat="61.074749" lon="14.311249">
        <ele>245.545</ele>
        <time>1970-01-01T01:00:00Z</time>
      </trkpt>
      <trkpt lat="61.074683" lon="14.311399">
        <ele>245.455</ele>
        <time>1970-01-01T01:00:00Z</time>
      </trkpt>
      <trkpt lat="61.074654" lon="14.311588">
        <ele>245.364</ele>
        <time>1970-01-01T01:00:00Z</time>
      </trkpt>
      <trkpt lat="61.07465" lon="14.311785">
        <ele>245.273</ele>
        <time>1970-01-01T01:00:00Z</time>
      </trkpt>
      <trkpt lat="61.074674" lon="14.31201">
        <ele>245.182</ele>
        <time>1970-01-01T01:00:00Z</time>
      </trkpt>
      <trkpt lat="61.074709" lon="14.312232">
        <ele>245.091</ele>
        <time>1970-01-01T01:00:00Z</time>
      </trkpt>
      <trkpt lat="61.074733" lon="14.312438">
        <ele>245</ele>
        <time>1970-01-01T01:00:00Z</time>
      </trkpt>
      <trkpt lat="61.074764" lon="14.312648">
        <ele>245</ele>
        <time>1970-01-01T01:00:00Z</time>
      </trkpt>
      <trkpt lat="61.074795" lon="14.312859">
        <ele>245</ele>
        <time>1970-01-01T01:00:00Z</time>
      </trkpt>
      <trkpt lat="61.074827" lon="14.313048">
        <ele>245</ele>
        <time>1970-01-01T01:00:00Z</time>
      </trkpt>
      <trkpt lat="61.074867" lon="14.313283">
        <ele>245</ele>
        <time>1970-01-01T01:00:00Z</time>
      </trkpt>
      <trkpt lat="61.074892" lon="14.313481">
        <ele>245</ele>
        <time>1970-01-01T01:00:00Z</time>
      </trkpt>
      <trkpt lat="61.074931" lon="14.313759">
        <ele>245</ele>
        <time>1970-01-01T01:00:00Z</time>
      </trkpt>
      <trkpt lat="61.074945" lon="14.313974">
        <ele>245</ele>
        <time>1970-01-01T01:00:00Z</time>
      </trkpt>
      <trkpt lat="61.074933" lon="14.314193">
        <ele>245</ele>
        <time>1970-01-01T01:00:00Z</time>
      </trkpt>
      <trkpt lat="61.074917" lon="14.314412">
        <ele>244.909</ele>
        <time>1970-01-01T01:00:00Z</time>
      </trkpt>
      <trkpt lat="61.074895" lon="14.314655">
        <ele>244.818</ele>
        <time>1970-01-01T01:00:00Z</time>
      </trkpt>
      <trkpt lat="61.074906" lon="14.314965">
        <ele>244.727</ele>
        <time>1970-01-01T01:00:00Z</time>
      </trkpt>
      <trkpt lat="61.074907" lon="14.315158">
        <ele>244.636</ele>
        <time>1970-01-01T01:00:00Z</time>
      </trkpt>
      <trkpt lat="61.074917" lon="14.315411">
        <ele>244.273</ele>
        <time>1970-01-01T01:00:00Z</time>
      </trkpt>
      <trkpt lat="61.074923" lon="14.315639">
        <ele>243.909</ele>
        <time>1970-01-01T01:00:00Z</time>
      </trkpt>
      <trkpt lat="61.074928" lon="14.315853">
        <ele>243.545</ele>
        <time>1970-01-01T01:00:00Z</time>
      </trkpt>
      <trkpt lat="61.074929" lon="14.316054">
        <ele>243</ele>
        <time>1970-01-01T01:00:00Z</time>
      </trkpt>
      <trkpt lat="61.074934" lon="14.316281">
        <ele>242.455</ele>
        <time>1970-01-01T01:00:00Z</time>
      </trkpt>
      <trkpt lat="61.074943" lon="14.316471">
        <ele>241.909</ele>
        <time>1970-01-01T01:00:00Z</time>
      </trkpt>
      <trkpt lat="61.074943" lon="14.316732">
        <ele>241.364</ele>
        <time>1970-01-01T01:00:00Z</time>
      </trkpt>
      <trkpt lat="61.074919" lon="14.316977">
        <ele>240.545</ele>
        <time>1970-01-01T01:00:00Z</time>
      </trkpt>
      <trkpt lat="61.074881" lon="14.31719">
        <ele>239.727</ele>
        <time>1970-01-01T01:00:00Z</time>
      </trkpt>
      <trkpt lat="61.074842" lon="14.317406">
        <ele>238.909</ele>
        <time>1970-01-01T01:00:00Z</time>
      </trkpt>
      <trkpt lat="61.074811" lon="14.317616">
        <ele>237.818</ele>
        <time>1970-01-01T01:00:00Z</time>
      </trkpt>
      <trkpt lat="61.074783" lon="14.317836">
        <ele>237</ele>
        <time>1970-01-01T01:00:00Z</time>
      </trkpt>
      <trkpt lat="61.074762" lon="14.318053">
        <ele>236.182</ele>
        <time>1970-01-01T01:00:00Z</time>
      </trkpt>
      <trkpt lat="61.074767" lon="14.318347">
        <ele>235.182</ele>
        <time>1970-01-01T01:00:00Z</time>
      </trkpt>
      <trkpt lat="61.074752" lon="14.318572">
        <ele>234.364</ele>
        <time>1970-01-01T01:00:00Z</time>
      </trkpt>
      <trkpt lat="61.074748" lon="14.318853">
        <ele>233.545</ele>
        <time>1970-01-01T01:00:00Z</time>
      </trkpt>
      <trkpt lat="61.074743" lon="14.319146">
        <ele>232.364</ele>
        <time>1970-01-01T01:00:00Z</time>
      </trkpt>
      <trkpt lat="61.074762" lon="14.31949">
        <ele>231.182</ele>
        <time>1970-01-01T01:00:00Z</time>
      </trkpt>
      <trkpt lat="61.074781" lon="14.319728">
        <ele>230.091</ele>
        <time>1970-01-01T01:00:00Z</time>
      </trkpt>
      <trkpt lat="61.074783" lon="14.320087">
        <ele>229</ele>
        <time>1970-01-01T01:00:00Z</time>
      </trkpt>
      <trkpt lat="61.074777" lon="14.320293">
        <ele>227.909</ele>
        <time>1970-01-01T01:00:00Z</time>
      </trkpt>
      <trkpt lat="61.07475" lon="14.320648">
        <ele>227.091</ele>
        <time>1970-01-01T01:00:00Z</time>
      </trkpt>
      <trkpt lat="61.074752" lon="14.321009">
        <ele>227.727</ele>
        <time>1970-01-01T01:00:00Z</time>
      </trkpt>
      <trkpt lat="61.074755" lon="14.321331">
        <ele>228.364</ele>
        <time>1970-01-01T01:00:00Z</time>
      </trkpt>
      <trkpt lat="61.074734" lon="14.321654">
        <ele>229.091</ele>
        <time>1970-01-01T01:00:00Z</time>
      </trkpt>
      <trkpt lat="61.07469" lon="14.321911">
        <ele>229.818</ele>
        <time>1970-01-01T01:00:00Z</time>
      </trkpt>
      <trkpt lat="61.074653" lon="14.322179">
        <ele>230.545</ele>
        <time>1970-01-01T01:00:00Z</time>
      </trkpt>
      <trkpt lat="61.07461" lon="14.322531">
        <ele>231.636</ele>
        <time>1970-01-01T01:00:00Z</time>
      </trkpt>
      <trkpt lat="61.074563" lon="14.322882">
        <ele>232.273</ele>
        <time>1970-01-01T01:00:00Z</time>
      </trkpt>
      <trkpt lat="61.074507" lon="14.323148">
        <ele>233.182</ele>
        <time>1970-01-01T01:00:00Z</time>
      </trkpt>
      <trkpt lat="61.074421" lon="14.323379">
        <ele>234.091</ele>
        <time>1970-01-01T01:00:00Z</time>
      </trkpt>
      <trkpt lat="61.074348" lon="14.323568">
        <ele>234.545</ele>
        <time>1970-01-01T01:00:00Z</time>
      </trkpt>
      <trkpt lat="61.074308" lon="14.323784">
        <ele>235</ele>
        <time>1970-01-01T01:00:00Z</time>
      </trkpt>
      <trkpt lat="61.074279" lon="14.324017">
        <ele>234</ele>
        <time>1970-01-01T01:00:00Z</time>
      </trkpt>
      <trkpt lat="61.074252" lon="14.324214">
        <ele>233</ele>
        <time>1970-01-01T01:00:00Z</time>
      </trkpt>
      <trkpt lat="61.074216" lon="14.324456">
        <ele>231.636</ele>
        <time>1970-01-01T01:00:00Z</time>
      </trkpt>
      <trkpt lat="61.074162" lon="14.324698">
        <ele>230.273</ele>
        <time>1970-01-01T01:00:00Z</time>
      </trkpt>
      <trkpt lat="61.074139" lon="14.324896">
        <ele>228.909</ele>
        <time>1970-01-01T01:00:00Z</time>
      </trkpt>
      <trkpt lat="61.074104" lon="14.325177">
        <ele>227.273</ele>
        <time>1970-01-01T01:00:00Z</time>
      </trkpt>
      <trkpt lat="61.074088" lon="14.325458">
        <ele>227.818</ele>
        <time>1970-01-01T01:00:00Z</time>
      </trkpt>
      <trkpt lat="61.074052" lon="14.325707">
        <ele>228.364</ele>
        <time>1970-01-01T01:00:00Z</time>
      </trkpt>
      <trkpt lat="61.07399" lon="14.325951">
        <ele>228.909</ele>
        <time>1970-01-01T01:00:00Z</time>
      </trkpt>
      <trkpt lat="61.073871" lon="14.326233">
        <ele>229.909</ele>
        <time>1970-01-01T01:00:00Z</time>
      </trkpt>
      <trkpt lat="61.073808" lon="14.326389">
        <ele>230.364</ele>
        <time>1970-01-01T01:00:00Z</time>
      </trkpt>
      <trkpt lat="61.073712" lon="14.326568">
        <ele>230.818</ele>
        <time>1970-01-01T01:00:00Z</time>
      </trkpt>
      <trkpt lat="61.073619" lon="14.326757">
        <ele>231.273</ele>
        <time>1970-01-01T01:00:00Z</time>
      </trkpt>
      <trkpt lat="61.073566" lon="14.326917">
        <ele>231.364</ele>
        <time>1970-01-01T01:00:00Z</time>
      </trkpt>
      <trkpt lat="61.073528" lon="14.327102">
        <ele>231.455</ele>
        <time>1970-01-01T01:00:00Z</time>
      </trkpt>
      <trkpt lat="61.073476" lon="14.327304">
        <ele>231.545</ele>
        <time>1970-01-01T01:00:00Z</time>
      </trkpt>
      <trkpt lat="61.073436" lon="14.327542">
        <ele>231.364</ele>
        <time>1970-01-01T01:00:00Z</time>
      </trkpt>
      <trkpt lat="61.07337" lon="14.327789">
        <ele>229.455</ele>
        <time>1970-01-01T01:00:00Z</time>
      </trkpt>
      <trkpt lat="61.073317" lon="14.32806">
        <ele>228.636</ele>
        <time>1970-01-01T01:00:00Z</time>
      </trkpt>
      <trkpt lat="61.073254" lon="14.328309">
        <ele>227.818</ele>
        <time>1970-01-01T01:00:00Z</time>
      </trkpt>
      <trkpt lat="61.07319" lon="14.32854">
        <ele>226.182</ele>
        <time>1970-01-01T01:00:00Z</time>
      </trkpt>
      <trkpt lat="61.073103" lon="14.328893">
        <ele>225.091</ele>
        <time>1970-01-01T01:00:00Z</time>
      </trkpt>
      <trkpt lat="61.073028" lon="14.32914">
        <ele>224</ele>
        <time>1970-01-01T01:00:00Z</time>
      </trkpt>
      <trkpt lat="61.072944" lon="14.329412">
        <ele>222.636</ele>
        <time>1970-01-01T01:00:00Z</time>
      </trkpt>
      <trkpt lat="61.072902" lon="14.329607">
        <ele>222.091</ele>
        <time>1970-01-01T01:00:00Z</time>
      </trkpt>
      <trkpt lat="61.072854" lon="14.329772">
        <ele>221.545</ele>
        <time>1970-01-01T01:00:00Z</time>
      </trkpt>
      <trkpt lat="61.072824" lon="14.330025">
        <ele>221</ele>
        <time>1970-01-01T01:00:00Z</time>
      </trkpt>
      <trkpt lat="61.072797" lon="14.330235">
        <ele>220.818</ele>
        <time>1970-01-01T01:00:00Z</time>
      </trkpt>
      <trkpt lat="61.072775" lon="14.33044">
        <ele>220.636</ele>
        <time>1970-01-01T01:00:00Z</time>
      </trkpt>
      <trkpt lat="61.072731" lon="14.330654">
        <ele>219.364</ele>
        <time>1970-01-01T01:00:00Z</time>
      </trkpt>
      <trkpt lat="61.0727" lon="14.330883">
        <ele>218.091</ele>
        <time>1970-01-01T01:00:00Z</time>
      </trkpt>
      <trkpt lat="61.072665" lon="14.33106">
        <ele>217.545</ele>
        <time>1970-01-01T01:00:00Z</time>
      </trkpt>
      <trkpt lat="61.072603" lon="14.331275">
        <ele>217</ele>
        <time>1970-01-01T01:00:00Z</time>
      </trkpt>
      <trkpt lat="61.072551" lon="14.33146">
        <ele>216.455</ele>
        <time>1970-01-01T01:00:00Z</time>
      </trkpt>
      <trkpt lat="61.072496" lon="14.331659">
        <ele>216.364</ele>
        <time>1970-01-01T01:00:00Z</time>
      </trkpt>
      <trkpt lat="61.072389" lon="14.332001">
        <ele>216.182</ele>
        <time>1970-01-01T01:00:00Z</time>
      </trkpt>
      <trkpt lat="61.072296" lon="14.332241">
        <ele>216</ele>
        <time>1970-01-01T01:00:00Z</time>
      </trkpt>
      <trkpt lat="61.072217" lon="14.332452">
        <ele>215.818</ele>
        <time>1970-01-01T01:00:00Z</time>
      </trkpt>
      <trkpt lat="61.07217" lon="14.332764">
        <ele>215.818</ele>
        <time>1970-01-01T01:00:00Z</time>
      </trkpt>
      <trkpt lat="61.07209" lon="14.332952">
        <ele>215.818</ele>
        <time>1970-01-01T01:00:00Z</time>
      </trkpt>
      <trkpt lat="61.072031" lon="14.333152">
        <ele>215.636</ele>
        <time>1970-01-01T01:00:00Z</time>
      </trkpt>
      <trkpt lat="61.071968" lon="14.333361">
        <ele>215.455</ele>
        <time>1970-01-01T01:00:00Z</time>
      </trkpt>
      <trkpt lat="61.07191" lon="14.333542">
        <ele>215.364</ele>
        <time>1970-01-01T01:00:00Z</time>
      </trkpt>
      <trkpt lat="61.071842" lon="14.333681">
        <ele>215.273</ele>
        <time>1970-01-01T01:00:00Z</time>
      </trkpt>
      <trkpt lat="61.071757" lon="14.333774">
        <ele>215.182</ele>
        <time>1970-01-01T01:00:00Z</time>
      </trkpt>
      <trkpt lat="61.071678" lon="14.333906">
        <ele>214.818</ele>
        <time>1970-01-01T01:00:00Z</time>
      </trkpt>
      <trkpt lat="61.071597" lon="14.3341">
        <ele>214.545</ele>
        <time>1970-01-01T01:00:00Z</time>
      </trkpt>
      <trkpt lat="61.071536" lon="14.334273">
        <ele>214.727</ele>
        <time>1970-01-01T01:00:00Z</time>
      </trkpt>
      <trkpt lat="61.071471" lon="14.334461">
        <ele>214.909</ele>
        <time>1970-01-01T01:00:00Z</time>
      </trkpt>
      <trkpt lat="61.071416" lon="14.334667">
        <ele>215.091</ele>
        <time>1970-01-01T01:00:00Z</time>
      </trkpt>
      <trkpt lat="61.071362" lon="14.334853">
        <ele>215.273</ele>
        <time>1970-01-01T01:00:00Z</time>
      </trkpt>
      <trkpt lat="61.07131" lon="14.335033">
        <ele>215.636</ele>
        <time>1970-01-01T01:00:00Z</time>
      </trkpt>
      <trkpt lat="61.071248" lon="14.335208">
        <ele>216</ele>
        <time>1970-01-01T01:00:00Z</time>
      </trkpt>
      <trkpt lat="61.071181" lon="14.335387">
        <ele>216.364</ele>
        <time>1970-01-01T01:00:00Z</time>
      </trkpt>
      <trkpt lat="61.071129" lon="14.335572">
        <ele>216.727</ele>
        <time>1970-01-01T01:00:00Z</time>
      </trkpt>
      <trkpt lat="61.071084" lon="14.335764">
        <ele>217.091</ele>
        <time>1970-01-01T01:00:00Z</time>
      </trkpt>
      <trkpt lat="61.071042" lon="14.335938">
        <ele>217.545</ele>
        <time>1970-01-01T01:00:00Z</time>
      </trkpt>
      <trkpt lat="61.070995" lon="14.336141">
        <ele>218</ele>
        <time>1970-01-01T01:00:00Z</time>
      </trkpt>
      <trkpt lat="61.070942" lon="14.336332">
        <ele>217.909</ele>
        <time>1970-01-01T01:00:00Z</time>
      </trkpt>
      <trkpt lat="61.070894" lon="14.336507">
        <ele>217.818</ele>
        <time>1970-01-01T01:00:00Z</time>
      </trkpt>
      <trkpt lat="61.070836" lon="14.336707">
        <ele>217.727</ele>
        <time>1970-01-01T01:00:00Z</time>
      </trkpt>
      <trkpt lat="61.07077" lon="14.33692">
        <ele>217.636</ele>
        <time>1970-01-01T01:00:00Z</time>
      </trkpt>
      <trkpt lat="61.070721" lon="14.337078">
        <ele>217.364</ele>
        <time>1970-01-01T01:00:00Z</time>
      </trkpt>
      <trkpt lat="61.070677" lon="14.337241">
        <ele>217.545</ele>
        <time>1970-01-01T01:00:00Z</time>
      </trkpt>
      <trkpt lat="61.070612" lon="14.337462">
        <ele>217.727</ele>
        <time>1970-01-01T01:00:00Z</time>
      </trkpt>
      <trkpt lat="61.07056" lon="14.337628">
        <ele>217.909</ele>
        <time>1970-01-01T01:00:00Z</time>
      </trkpt>
      <trkpt lat="61.07052" lon="14.337851">
        <ele>218.091</ele>
        <time>1970-01-01T01:00:00Z</time>
      </trkpt>
      <trkpt lat="61.070479" lon="14.33805">
        <ele>218.091</ele>
        <time>1970-01-01T01:00:00Z</time>
      </trkpt>
      <trkpt lat="61.070431" lon="14.338227">
        <ele>218.091</ele>
        <time>1970-01-01T01:00:00Z</time>
      </trkpt>
      <trkpt lat="61.070392" lon="14.338399">
        <ele>218.182</ele>
        <time>1970-01-01T01:00:00Z</time>
      </trkpt>
      <trkpt lat="61.07035" lon="14.338601">
        <ele>218.273</ele>
        <time>1970-01-01T01:00:00Z</time>
      </trkpt>
      <trkpt lat="61.070327" lon="14.338783">
        <ele>218.182</ele>
        <time>1970-01-01T01:00:00Z</time>
      </trkpt>
      <trkpt lat="61.070285" lon="14.338978">
        <ele>218.091</ele>
        <time>1970-01-01T01:00:00Z</time>
      </trkpt>
      <trkpt lat="61.07023" lon="14.339183">
        <ele>218.182</ele>
        <time>1970-01-01T01:00:00Z</time>
      </trkpt>
      <trkpt lat="61.070177" lon="14.339353">
        <ele>217.818</ele>
        <time>1970-01-01T01:00:00Z</time>
      </trkpt>
      <trkpt lat="61.070138" lon="14.339533">
        <ele>217.455</ele>
        <time>1970-01-01T01:00:00Z</time>
      </trkpt>
      <trkpt lat="61.070075" lon="14.339705">
        <ele>217.091</ele>
        <time>1970-01-01T01:00:00Z</time>
      </trkpt>
      <trkpt lat="61.069992" lon="14.339837">
        <ele>216.636</ele>
        <time>1970-01-01T01:00:00Z</time>
      </trkpt>
      <trkpt lat="61.069928" lon="14.33997">
        <ele>216.727</ele>
        <time>1970-01-01T01:00:00Z</time>
      </trkpt>
      <trkpt lat="61.069855" lon="14.340084">
        <ele>216.818</ele>
        <time>1970-01-01T01:00:00Z</time>
      </trkpt>
      <trkpt lat="61.069772" lon="14.340205">
        <ele>216.909</ele>
        <time>1970-01-01T01:00:00Z</time>
      </trkpt>
      <trkpt lat="61.069702" lon="14.340341">
        <ele>217</ele>
        <time>1970-01-01T01:00:00Z</time>
      </trkpt>
      <trkpt lat="61.069643" lon="14.340497">
        <ele>217.182</ele>
        <time>1970-01-01T01:00:00Z</time>
      </trkpt>
      <trkpt lat="61.069569" lon="14.340674">
        <ele>217.364</ele>
        <time>1970-01-01T01:00:00Z</time>
      </trkpt>
      <trkpt lat="61.069499" lon="14.340816">
        <ele>217.545</ele>
        <time>1970-01-01T01:00:00Z</time>
      </trkpt>
      <trkpt lat="61.069429" lon="14.340961">
        <ele>217.727</ele>
        <time>1970-01-01T01:00:00Z</time>
      </trkpt>
      <trkpt lat="61.069369" lon="14.341101">
        <ele>217.909</ele>
        <time>1970-01-01T01:00:00Z</time>
      </trkpt>
      <trkpt lat="61.069304" lon="14.341251">
        <ele>218.091</ele>
        <time>1970-01-01T01:00:00Z</time>
      </trkpt>
      <trkpt lat="61.069246" lon="14.341396">
        <ele>218.182</ele>
        <time>1970-01-01T01:00:00Z</time>
      </trkpt>
      <trkpt lat="61.069177" lon="14.341575">
        <ele>217.909</ele>
        <time>1970-01-01T01:00:00Z</time>
      </trkpt>
      <trkpt lat="61.069123" lon="14.341741">
        <ele>217.909</ele>
        <time>1970-01-01T01:00:00Z</time>
      </trkpt>
      <trkpt lat="61.06906" lon="14.341898">
        <ele>217.909</ele>
        <time>1970-01-01T01:00:00Z</time>
      </trkpt>
      <trkpt lat="61.068988" lon="14.342044">
        <ele>217.909</ele>
        <time>1970-01-01T01:00:00Z</time>
      </trkpt>
      <trkpt lat="61.068913" lon="14.342211">
        <ele>217.909</ele>
        <time>1970-01-01T01:00:00Z</time>
      </trkpt>
      <trkpt lat="61.068854" lon="14.342383">
        <ele>217.909</ele>
        <time>1970-01-01T01:00:00Z</time>
      </trkpt>
      <trkpt lat="61.068803" lon="14.342561">
        <ele>217.909</ele>
        <time>1970-01-01T01:00:00Z</time>
      </trkpt>
      <trkpt lat="61.068749" lon="14.342736">
        <ele>217.909</ele>
        <time>1970-01-01T01:00:00Z</time>
      </trkpt>
      <trkpt lat="61.068691" lon="14.342895">
        <ele>217.909</ele>
        <time>1970-01-01T01:00:00Z</time>
      </trkpt>
      <trkpt lat="61.068625" lon="14.343062">
        <ele>217.909</ele>
        <time>1970-01-01T01:00:00Z</time>
      </trkpt>
      <trkpt lat="61.068546" lon="14.343209">
        <ele>218.091</ele>
        <time>1970-01-01T01:00:00Z</time>
      </trkpt>
      <trkpt lat="61.068462" lon="14.3434">
        <ele>218.273</ele>
        <time>1970-01-01T01:00:00Z</time>
      </trkpt>
      <trkpt lat="61.068379" lon="14.343562">
        <ele>218.182</ele>
        <time>1970-01-01T01:00:00Z</time>
      </trkpt>
      <trkpt lat="61.068283" lon="14.343693">
        <ele>218.273</ele>
        <time>1970-01-01T01:00:00Z</time>
      </trkpt>
      <trkpt lat="61.068197" lon="14.343827">
        <ele>218.364</ele>
        <time>1970-01-01T01:00:00Z</time>
      </trkpt>
      <trkpt lat="61.068116" lon="14.343965">
        <ele>218.545</ele>
        <time>1970-01-01T01:00:00Z</time>
      </trkpt>
      <trkpt lat="61.068049" lon="14.344135">
        <ele>218.727</ele>
        <time>1970-01-01T01:00:00Z</time>
      </trkpt>
      <trkpt lat="61.067989" lon="14.344293">
        <ele>218.909</ele>
        <time>1970-01-01T01:00:00Z</time>
      </trkpt>
      <trkpt lat="61.067928" lon="14.344468">
        <ele>219.091</ele>
        <time>1970-01-01T01:00:00Z</time>
      </trkpt>
      <trkpt lat="61.067871" lon="14.344628">
        <ele>219.273</ele>
        <time>1970-01-01T01:00:00Z</time>
      </trkpt>
      <trkpt lat="61.06781" lon="14.344776">
        <ele>219.545</ele>
        <time>1970-01-01T01:00:00Z</time>
      </trkpt>
      <trkpt lat="61.067743" lon="14.344969">
        <ele>219.818</ele>
        <time>1970-01-01T01:00:00Z</time>
      </trkpt>
      <trkpt lat="61.067681" lon="14.34513">
        <ele>220.091</ele>
        <time>1970-01-01T01:00:00Z</time>
      </trkpt>
      <trkpt lat="61.067612" lon="14.345298">
        <ele>220.364</ele>
        <time>1970-01-01T01:00:00Z</time>
      </trkpt>
      <trkpt lat="61.067546" lon="14.345472">
        <ele>220.455</ele>
        <time>1970-01-01T01:00:00Z</time>
      </trkpt>
      <trkpt lat="61.067483" lon="14.345652">
        <ele>220.545</ele>
        <time>1970-01-01T01:00:00Z</time>
      </trkpt>
      <trkpt lat="61.067426" lon="14.345812">
        <ele>220.636</ele>
        <time>1970-01-01T01:00:00Z</time>
      </trkpt>
      <trkpt lat="61.067363" lon="14.345996">
        <ele>221.455</ele>
        <time>1970-01-01T01:00:00Z</time>
      </trkpt>
      <trkpt lat="61.067301" lon="14.346148">
        <ele>222.273</ele>
        <time>1970-01-01T01:00:00Z</time>
      </trkpt>
      <trkpt lat="61.067246" lon="14.346312">
        <ele>222.636</ele>
        <time>1970-01-01T01:00:00Z</time>
      </trkpt>
      <trkpt lat="61.067185" lon="14.346497">
        <ele>223</ele>
        <time>1970-01-01T01:00:00Z</time>
      </trkpt>
      <trkpt lat="61.067123" lon="14.346654">
        <ele>223.273</ele>
        <time>1970-01-01T01:00:00Z</time>
      </trkpt>
      <trkpt lat="61.067057" lon="14.346815">
        <ele>223.545</ele>
        <time>1970-01-01T01:00:00Z</time>
      </trkpt>
      <trkpt lat="61.066988" lon="14.346989">
        <ele>223.818</ele>
        <time>1970-01-01T01:00:00Z</time>
      </trkpt>
      <trkpt lat="61.066917" lon="14.347165">
        <ele>223.636</ele>
        <time>1970-01-01T01:00:00Z</time>
      </trkpt>
      <trkpt lat="61.06685" lon="14.347329">
        <ele>223.455</ele>
        <time>1970-01-01T01:00:00Z</time>
      </trkpt>
      <trkpt lat="61.066787" lon="14.34748">
        <ele>223.273</ele>
        <time>1970-01-01T01:00:00Z</time>
      </trkpt>
      <trkpt lat="61.066711" lon="14.347641">
        <ele>223.091</ele>
        <time>1970-01-01T01:00:00Z</time>
      </trkpt>
      <trkpt lat="61.066648" lon="14.347811">
        <ele>222.182</ele>
        <time>1970-01-01T01:00:00Z</time>
      </trkpt>
      <trkpt lat="61.066584" lon="14.347982">
        <ele>222.364</ele>
        <time>1970-01-01T01:00:00Z</time>
      </trkpt>
      <trkpt lat="61.066515" lon="14.348128">
        <ele>222.364</ele>
        <time>1970-01-01T01:00:00Z</time>
      </trkpt>
      <trkpt lat="61.066435" lon="14.348295">
        <ele>222.364</ele>
        <time>1970-01-01T01:00:00Z</time>
      </trkpt>
      <trkpt lat="61.066361" lon="14.348439">
        <ele>222.364</ele>
        <time>1970-01-01T01:00:00Z</time>
      </trkpt>
      <trkpt lat="61.066283" lon="14.348602">
        <ele>222.364</ele>
        <time>1970-01-01T01:00:00Z</time>
      </trkpt>
      <trkpt lat="61.06621" lon="14.348755">
        <ele>222.364</ele>
        <time>1970-01-01T01:00:00Z</time>
      </trkpt>
      <trkpt lat="61.06613" lon="14.348889">
        <ele>222.818</ele>
        <time>1970-01-01T01:00:00Z</time>
      </trkpt>
      <trkpt lat="61.06604" lon="14.349014">
        <ele>222.909</ele>
        <time>1970-01-01T01:00:00Z</time>
      </trkpt>
      <trkpt lat="61.065942" lon="14.349151">
        <ele>223</ele>
        <time>1970-01-01T01:00:00Z</time>
      </trkpt>
      <trkpt lat="61.065861" lon="14.349256">
        <ele>223.091</ele>
        <time>1970-01-01T01:00:00Z</time>
      </trkpt>
      <trkpt lat="61.065782" lon="14.349358">
        <ele>223</ele>
        <time>1970-01-01T01:00:00Z</time>
      </trkpt>
      <trkpt lat="61.065705" lon="14.349478">
        <ele>221.818</ele>
        <time>1970-01-01T01:00:00Z</time>
      </trkpt>
      <trkpt lat="61.065628" lon="14.349608">
        <ele>221.273</ele>
        <time>1970-01-01T01:00:00Z</time>
      </trkpt>
      <trkpt lat="61.065562" lon="14.349737">
        <ele>220.636</ele>
        <time>1970-01-01T01:00:00Z</time>
      </trkpt>
      <trkpt lat="61.065485" lon="14.349896">
        <ele>220</ele>
        <time>1970-01-01T01:00:00Z</time>
      </trkpt>
      <trkpt lat="61.06541" lon="14.350053">
        <ele>219.364</ele>
        <time>1970-01-01T01:00:00Z</time>
      </trkpt>
      <trkpt lat="61.06534" lon="14.350186">
        <ele>218.727</ele>
        <time>1970-01-01T01:00:00Z</time>
      </trkpt>
      <trkpt lat="61.065254" lon="14.350341">
        <ele>218.091</ele>
        <time>1970-01-01T01:00:00Z</time>
      </trkpt>
      <trkpt lat="61.065171" lon="14.350494">
        <ele>217.818</ele>
        <time>1970-01-01T01:00:00Z</time>
      </trkpt>
      <trkpt lat="61.065095" lon="14.350624">
        <ele>217.455</ele>
        <time>1970-01-01T01:00:00Z</time>
      </trkpt>
      <trkpt lat="61.065007" lon="14.350767">
        <ele>217.091</ele>
        <time>1970-01-01T01:00:00Z</time>
      </trkpt>
      <trkpt lat="61.064927" lon="14.350901">
        <ele>217</ele>
        <time>1970-01-01T01:00:00Z</time>
      </trkpt>
      <trkpt lat="61.064851" lon="14.351026">
        <ele>216.909</ele>
        <time>1970-01-01T01:00:00Z</time>
      </trkpt>
      <trkpt lat="61.064784" lon="14.351157">
        <ele>216.818</ele>
        <time>1970-01-01T01:00:00Z</time>
      </trkpt>
      <trkpt lat="61.064707" lon="14.351296">
        <ele>216.818</ele>
        <time>1970-01-01T01:00:00Z</time>
      </trkpt>
      <trkpt lat="61.064638" lon="14.351436">
        <ele>216.818</ele>
        <time>1970-01-01T01:00:00Z</time>
      </trkpt>
      <trkpt lat="61.064569" lon="14.351562">
        <ele>216.818</ele>
        <time>1970-01-01T01:00:00Z</time>
      </trkpt>
      <trkpt lat="61.064496" lon="14.351687">
        <ele>216.727</ele>
        <time>1970-01-01T01:00:00Z</time>
      </trkpt>
      <trkpt lat="61.064416" lon="14.351787">
        <ele>216.636</ele>
        <time>1970-01-01T01:00:00Z</time>
      </trkpt>
      <trkpt lat="61.064339" lon="14.351905">
        <ele>216.545</ele>
        <time>1970-01-01T01:00:00Z</time>
      </trkpt>
      <trkpt lat="61.064268" lon="14.352027">
        <ele>216.545</ele>
        <time>1970-01-01T01:00:00Z</time>
      </trkpt>
      <trkpt lat="61.064194" lon="14.352157">
        <ele>216.545</ele>
        <time>1970-01-01T01:00:00Z</time>
      </trkpt>
      <trkpt lat="61.064116" lon="14.352296">
        <ele>216.727</ele>
        <time>1970-01-01T01:00:00Z</time>
      </trkpt>
      <trkpt lat="61.064031" lon="14.352436">
        <ele>216.818</ele>
        <time>1970-01-01T01:00:00Z</time>
      </trkpt>
      <trkpt lat="61.063952" lon="14.352571">
        <ele>216.909</ele>
        <time>1970-01-01T01:00:00Z</time>
      </trkpt>
      <trkpt lat="61.063876" lon="14.35269">
        <ele>217</ele>
        <time>1970-01-01T01:00:00Z</time>
      </trkpt>
      <trkpt lat="61.063808" lon="14.352819">
        <ele>217.091</ele>
        <time>1970-01-01T01:00:00Z</time>
      </trkpt>
      <trkpt lat="61.063739" lon="14.352946">
        <ele>217.182</ele>
        <time>1970-01-01T01:00:00Z</time>
      </trkpt>
      <trkpt lat="61.063653" lon="14.353084">
        <ele>217.364</ele>
        <time>1970-01-01T01:00:00Z</time>
      </trkpt>
      <trkpt lat="61.063574" lon="14.353185">
        <ele>217.545</ele>
        <time>1970-01-01T01:00:00Z</time>
      </trkpt>
      <trkpt lat="61.063476" lon="14.35327">
        <ele>217.727</ele>
        <time>1970-01-01T01:00:00Z</time>
      </trkpt>
      <trkpt lat="61.063372" lon="14.353305">
        <ele>218.364</ele>
        <time>1970-01-01T01:00:00Z</time>
      </trkpt>
      <trkpt lat="61.063281" lon="14.353305">
        <ele>219</ele>
        <time>1970-01-01T01:00:00Z</time>
      </trkpt>
      <trkpt lat="61.063182" lon="14.353278">
        <ele>219.364</ele>
        <time>1970-01-01T01:00:00Z</time>
      </trkpt>
      <trkpt lat="61.063096" lon="14.353202">
        <ele>219.818</ele>
        <time>1970-01-01T01:00:00Z</time>
      </trkpt>
      <trkpt lat="61.063012" lon="14.353079">
        <ele>220.273</ele>
        <time>1970-01-01T01:00:00Z</time>
      </trkpt>
      <trkpt lat="61.062945" lon="14.352939">
        <ele>220.909</ele>
        <time>1970-01-01T01:00:00Z</time>
      </trkpt>
      <trkpt lat="61.062884" lon="14.35277">
        <ele>221.545</ele>
        <time>1970-01-01T01:00:00Z</time>
      </trkpt>
      <trkpt lat="61.062841" lon="14.352602">
        <ele>222.182</ele>
        <time>1970-01-01T01:00:00Z</time>
      </trkpt>
      <trkpt lat="61.06277" lon="14.352445">
        <ele>222.818</ele>
        <time>1970-01-01T01:00:00Z</time>
      </trkpt>
      <trkpt lat="61.062702" lon="14.352308">
        <ele>223.455</ele>
        <time>1970-01-01T01:00:00Z</time>
      </trkpt>
      <trkpt lat="61.062634" lon="14.352186">
        <ele>224.091</ele>
        <time>1970-01-01T01:00:00Z</time>
      </trkpt>
      <trkpt lat="61.062563" lon="14.352054">
        <ele>224.455</ele>
        <time>1970-01-01T01:00:00Z</time>
      </trkpt>
      <trkpt lat="61.062498" lon="14.351918">
        <ele>224.818</ele>
        <time>1970-01-01T01:00:00Z</time>
      </trkpt>
      <trkpt lat="61.062435" lon="14.351763">
        <ele>225.182</ele>
        <time>1970-01-01T01:00:00Z</time>
      </trkpt>
      <trkpt lat="61.062382" lon="14.351594">
        <ele>225.545</ele>
        <time>1970-01-01T01:00:00Z</time>
      </trkpt>
      <trkpt lat="61.062329" lon="14.351417">
        <ele>225.909</ele>
        <time>1970-01-01T01:00:00Z</time>
      </trkpt>
      <trkpt lat="61.062279" lon="14.351214">
        <ele>227.091</ele>
        <time>1970-01-01T01:00:00Z</time>
      </trkpt>
      <trkpt lat="61.062242" lon="14.351007">
        <ele>228.455</ele>
        <time>1970-01-01T01:00:00Z</time>
      </trkpt>
      <trkpt lat="61.062214" lon="14.350829">
        <ele>229.818</ele>
        <time>1970-01-01T01:00:00Z</time>
      </trkpt>
      <trkpt lat="61.062175" lon="14.350636">
        <ele>231.182</ele>
        <time>1970-01-01T01:00:00Z</time>
      </trkpt>
      <trkpt lat="61.062106" lon="14.350514">
        <ele>232.545</ele>
        <time>1970-01-01T01:00:00Z</time>
      </trkpt>
      <trkpt lat="61.062018" lon="14.350442">
        <ele>233.909</ele>
        <time>1970-01-01T01:00:00Z</time>
      </trkpt>
      <trkpt lat="61.061925" lon="14.350356">
        <ele>235.091</ele>
        <time>1970-01-01T01:00:00Z</time>
      </trkpt>
      <trkpt lat="61.061846" lon="14.350257">
        <ele>236.273</ele>
        <time>1970-01-01T01:00:00Z</time>
      </trkpt>
      <trkpt lat="61.061749" lon="14.350166">
        <ele>237.273</ele>
        <time>1970-01-01T01:00:00Z</time>
      </trkpt>
      <trkpt lat="61.06166" lon="14.350089">
        <ele>238.273</ele>
        <time>1970-01-01T01:00:00Z</time>
      </trkpt>
      <trkpt lat="61.061571" lon="14.350013">
        <ele>239.364</ele>
        <time>1970-01-01T01:00:00Z</time>
      </trkpt>
      <trkpt lat="61.061488" lon="14.349879">
        <ele>239.455</ele>
        <time>1970-01-01T01:00:00Z</time>
      </trkpt>
      <trkpt lat="61.061424" lon="14.3497">
        <ele>239.364</ele>
        <time>1970-01-01T01:00:00Z</time>
      </trkpt>
      <trkpt lat="61.061357" lon="14.349532">
        <ele>239.273</ele>
        <time>1970-01-01T01:00:00Z</time>
      </trkpt>
      <trkpt lat="61.061285" lon="14.349409">
        <ele>239.182</ele>
        <time>1970-01-01T01:00:00Z</time>
      </trkpt>
      <trkpt lat="61.061204" lon="14.349302">
        <ele>239.091</ele>
        <time>1970-01-01T01:00:00Z</time>
      </trkpt>
      <trkpt lat="61.061109" lon="14.349223">
        <ele>238.909</ele>
        <time>1970-01-01T01:00:00Z</time>
      </trkpt>
      <trkpt lat="61.061008" lon="14.349168">
        <ele>238.727</ele>
        <time>1970-01-01T01:00:00Z</time>
      </trkpt>
      <trkpt lat="61.060926" lon="14.34906">
        <ele>238.545</ele>
        <time>1970-01-01T01:00:00Z</time>
      </trkpt>
      <trkpt lat="61.060861" lon="14.34893">
        <ele>238.545</ele>
        <time>1970-01-01T01:00:00Z</time>
      </trkpt>
      <trkpt lat="61.060794" lon="14.34879">
        <ele>238.727</ele>
        <time>1970-01-01T01:00:00Z</time>
      </trkpt>
      <trkpt lat="61.060725" lon="14.348649">
        <ele>238.818</ele>
        <time>1970-01-01T01:00:00Z</time>
      </trkpt>
      <trkpt lat="61.060646" lon="14.348533">
        <ele>238.909</ele>
        <time>1970-01-01T01:00:00Z</time>
      </trkpt>
      <trkpt lat="61.060553" lon="14.348448">
        <ele>239</ele>
        <time>1970-01-01T01:00:00Z</time>
      </trkpt>
      <trkpt lat="61.060457" lon="14.348405">
        <ele>239.091</ele>
        <time>1970-01-01T01:00:00Z</time>
      </trkpt>
      <trkpt lat="61.060364" lon="14.348385">
        <ele>239.182</ele>
        <time>1970-01-01T01:00:00Z</time>
      </trkpt>
      <trkpt lat="61.060275" lon="14.348353">
        <ele>239.273</ele>
        <time>1970-01-01T01:00:00Z</time>
      </trkpt>
      <trkpt lat="61.060183" lon="14.348329">
        <ele>239.455</ele>
        <time>1970-01-01T01:00:00Z</time>
      </trkpt>
      <trkpt lat="61.060083" lon="14.348292">
        <ele>239.636</ele>
        <time>1970-01-01T01:00:00Z</time>
      </trkpt>
      <trkpt lat="61.059987" lon="14.348268">
        <ele>239.818</ele>
        <time>1970-01-01T01:00:00Z</time>
      </trkpt>
      <trkpt lat="61.059891" lon="14.348232">
        <ele>240.273</ele>
        <time>1970-01-01T01:00:00Z</time>
      </trkpt>
      <trkpt lat="61.059785" lon="14.348181">
        <ele>240.545</ele>
        <time>1970-01-01T01:00:00Z</time>
      </trkpt>
      <trkpt lat="61.059696" lon="14.348135">
        <ele>240.818</ele>
        <time>1970-01-01T01:00:00Z</time>
      </trkpt>
      <trkpt lat="61.059601" lon="14.348072">
        <ele>240.818</ele>
        <time>1970-01-01T01:00:00Z</time>
      </trkpt>
      <trkpt lat="61.059508" lon="14.348026">
        <ele>240.818</ele>
        <time>1970-01-01T01:00:00Z</time>
      </trkpt>
      <trkpt lat="61.059421" lon="14.347944">
        <ele>240.818</ele>
        <time>1970-01-01T01:00:00Z</time>
      </trkpt>
      <trkpt lat="61.059335" lon="14.347871">
        <ele>240.818</ele>
        <time>1970-01-01T01:00:00Z</time>
      </trkpt>
      <trkpt lat="61.059241" lon="14.34788">
        <ele>240.818</ele>
        <time>1970-01-01T01:00:00Z</time>
      </trkpt>
      <trkpt lat="61.059152" lon="14.347968">
        <ele>240.818</ele>
        <time>1970-01-01T01:00:00Z</time>
      </trkpt>
      <trkpt lat="61.059102" lon="14.348128">
        <ele>240.818</ele>
        <time>1970-01-01T01:00:00Z</time>
      </trkpt>
      <trkpt lat="61.059086" lon="14.34832">
        <ele>240.818</ele>
        <time>1970-01-01T01:00:00Z</time>
      </trkpt>
      <trkpt lat="61.059068" lon="14.348536">
        <ele>240.545</ele>
        <time>1970-01-01T01:00:00Z</time>
      </trkpt>
      <trkpt lat="61.059044" lon="14.34874">
        <ele>240.091</ele>
        <time>1970-01-01T01:00:00Z</time>
      </trkpt>
      <trkpt lat="61.059023" lon="14.348934">
        <ele>239.636</ele>
        <time>1970-01-01T01:00:00Z</time>
      </trkpt>
      <trkpt lat="61.058976" lon="14.349139">
        <ele>239.455</ele>
        <time>1970-01-01T01:00:00Z</time>
      </trkpt>
      <trkpt lat="61.058924" lon="14.3493">
        <ele>239.273</ele>
        <time>1970-01-01T01:00:00Z</time>
      </trkpt>
      <trkpt lat="61.058865" lon="14.349462">
        <ele>239.091</ele>
        <time>1970-01-01T01:00:00Z</time>
      </trkpt>
      <trkpt lat="61.058789" lon="14.349639">
        <ele>238.909</ele>
        <time>1970-01-01T01:00:00Z</time>
      </trkpt>
      <trkpt lat="61.058699" lon="14.3498">
        <ele>238.727</ele>
        <time>1970-01-01T01:00:00Z</time>
      </trkpt>
      <trkpt lat="61.058623" lon="14.349901">
        <ele>238.545</ele>
        <time>1970-01-01T01:00:00Z</time>
      </trkpt>
      <trkpt lat="61.058534" lon="14.350009">
        <ele>238.364</ele>
        <time>1970-01-01T01:00:00Z</time>
      </trkpt>
      <trkpt lat="61.058443" lon="14.350111">
        <ele>238.636</ele>
        <time>1970-01-01T01:00:00Z</time>
      </trkpt>
      <trkpt lat="61.05835" lon="14.350173">
        <ele>238.909</ele>
        <time>1970-01-01T01:00:00Z</time>
      </trkpt>
      <trkpt lat="61.058259" lon="14.35018">
        <ele>239.364</ele>
        <time>1970-01-01T01:00:00Z</time>
      </trkpt>
      <trkpt lat="61.058155" lon="14.350133">
        <ele>239.818</ele>
        <time>1970-01-01T01:00:00Z</time>
      </trkpt>
      <trkpt lat="61.058054" lon="14.350087">
        <ele>240.273</ele>
        <time>1970-01-01T01:00:00Z</time>
      </trkpt>
      <trkpt lat="61.057954" lon="14.350053">
        <ele>240.727</ele>
        <time>1970-01-01T01:00:00Z</time>
      </trkpt>
      <trkpt lat="61.057845" lon="14.350045">
        <ele>241.182</ele>
        <time>1970-01-01T01:00:00Z</time>
      </trkpt>
      <trkpt lat="61.057741" lon="14.350081">
        <ele>241.636</ele>
        <time>1970-01-01T01:00:00Z</time>
      </trkpt>
      <trkpt lat="61.057648" lon="14.350133">
        <ele>242.091</ele>
        <time>1970-01-01T01:00:00Z</time>
      </trkpt>
      <trkpt lat="61.057559" lon="14.350178">
        <ele>241.909</ele>
        <time>1970-01-01T01:00:00Z</time>
      </trkpt>
      <trkpt lat="61.057468" lon="14.350227">
        <ele>241.727</ele>
        <time>1970-01-01T01:00:00Z</time>
      </trkpt>
      <trkpt lat="61.057374" lon="14.350284">
        <ele>241.091</ele>
        <time>1970-01-01T01:00:00Z</time>
      </trkpt>
      <trkpt lat="61.057277" lon="14.350352">
        <ele>240.455</ele>
        <time>1970-01-01T01:00:00Z</time>
      </trkpt>
      <trkpt lat="61.05719" lon="14.350427">
        <ele>239.818</ele>
        <time>1970-01-01T01:00:00Z</time>
      </trkpt>
      <trkpt lat="61.057091" lon="14.350526">
        <ele>239.182</ele>
        <time>1970-01-01T01:00:00Z</time>
      </trkpt>
      <trkpt lat="61.056997" lon="14.350618">
        <ele>238.545</ele>
        <time>1970-01-01T01:00:00Z</time>
      </trkpt>
      <trkpt lat="61.056897" lon="14.350702">
        <ele>237.909</ele>
        <time>1970-01-01T01:00:00Z</time>
      </trkpt>
      <trkpt lat="61.05681" lon="14.35077">
        <ele>237.273</ele>
        <time>1970-01-01T01:00:00Z</time>
      </trkpt>
      <trkpt lat="61.05671" lon="14.350848">
        <ele>236.636</ele>
        <time>1970-01-01T01:00:00Z</time>
      </trkpt>
      <trkpt lat="61.056606" lon="14.350923">
        <ele>234.455</ele>
        <time>1970-01-01T01:00:00Z</time>
      </trkpt>
      <trkpt lat="61.056504" lon="14.351">
        <ele>232.909</ele>
        <time>1970-01-01T01:00:00Z</time>
      </trkpt>
      <trkpt lat="61.056408" lon="14.351073">
        <ele>231.364</ele>
        <time>1970-01-01T01:00:00Z</time>
      </trkpt>
      <trkpt lat="61.056322" lon="14.351152">
        <ele>229.818</ele>
        <time>1970-01-01T01:00:00Z</time>
      </trkpt>
      <trkpt lat="61.056226" lon="14.351229">
        <ele>228.273</ele>
        <time>1970-01-01T01:00:00Z</time>
      </trkpt>
      <trkpt lat="61.056108" lon="14.351315">
        <ele>226.727</ele>
        <time>1970-01-01T01:00:00Z</time>
      </trkpt>
      <trkpt lat="61.056025" lon="14.351397">
        <ele>225.182</ele>
        <time>1970-01-01T01:00:00Z</time>
      </trkpt>
      <trkpt lat="61.055926" lon="14.351499">
        <ele>223.636</ele>
        <time>1970-01-01T01:00:00Z</time>
      </trkpt>
      <trkpt lat="61.055843" lon="14.351587">
        <ele>222.182</ele>
        <time>1970-01-01T01:00:00Z</time>
      </trkpt>
      <trkpt lat="61.055742" lon="14.3517">
        <ele>220.273</ele>
        <time>1970-01-01T01:00:00Z</time>
      </trkpt>
      <trkpt lat="61.055648" lon="14.351809">
        <ele>218.364</ele>
        <time>1970-01-01T01:00:00Z</time>
      </trkpt>
      <trkpt lat="61.055553" lon="14.351932">
        <ele>218</ele>
        <time>1970-01-01T01:00:00Z</time>
      </trkpt>
      <trkpt lat="61.055475" lon="14.352037">
        <ele>217.636</ele>
        <time>1970-01-01T01:00:00Z</time>
      </trkpt>
      <trkpt lat="61.055384" lon="14.352149">
        <ele>217.273</ele>
        <time>1970-01-01T01:00:00Z</time>
      </trkpt>
      <trkpt lat="61.055288" lon="14.352281">
        <ele>216.909</ele>
        <time>1970-01-01T01:00:00Z</time>
      </trkpt>
      <trkpt lat="61.055211" lon="14.352409">
        <ele>216.364</ele>
        <time>1970-01-01T01:00:00Z</time>
      </trkpt>
      <trkpt lat="61.05513" lon="14.352549">
        <ele>215.818</ele>
        <time>1970-01-01T01:00:00Z</time>
      </trkpt>
      <trkpt lat="61.055057" lon="14.352687">
        <ele>215.273</ele>
        <time>1970-01-01T01:00:00Z</time>
      </trkpt>
      <trkpt lat="61.054982" lon="14.352824">
        <ele>214.727</ele>
        <time>1970-01-01T01:00:00Z</time>
      </trkpt>
      <trkpt lat="61.054918" lon="14.352972">
        <ele>214.273</ele>
        <time>1970-01-01T01:00:00Z</time>
      </trkpt>
      <trkpt lat="61.054848" lon="14.353135">
        <ele>214.273</ele>
        <time>1970-01-01T01:00:00Z</time>
      </trkpt>
      <trkpt lat="61.054782" lon="14.353272">
        <ele>214.091</ele>
        <time>1970-01-01T01:00:00Z</time>
      </trkpt>
      <trkpt lat="61.054718" lon="14.353431">
        <ele>213.909</ele>
        <time>1970-01-01T01:00:00Z</time>
      </trkpt>
      <trkpt lat="61.054641" lon="14.353574">
        <ele>213.727</ele>
        <time>1970-01-01T01:00:00Z</time>
      </trkpt>
      <trkpt lat="61.054562" lon="14.353717">
        <ele>213.545</ele>
        <time>1970-01-01T01:00:00Z</time>
      </trkpt>
      <trkpt lat="61.054483" lon="14.353848">
        <ele>213.364</ele>
        <time>1970-01-01T01:00:00Z</time>
      </trkpt>
      <trkpt lat="61.054397" lon="14.353965">
        <ele>213.364</ele>
        <time>1970-01-01T01:00:00Z</time>
      </trkpt>
      <trkpt lat="61.054301" lon="14.354045">
        <ele>213.364</ele>
        <time>1970-01-01T01:00:00Z</time>
      </trkpt>
      <trkpt lat="61.0542" lon="14.354109">
        <ele>213.364</ele>
        <time>1970-01-01T01:00:00Z</time>
      </trkpt>
      <trkpt lat="61.0541" lon="14.354173">
        <ele>213.364</ele>
        <time>1970-01-01T01:00:00Z</time>
      </trkpt>
      <trkpt lat="61.054011" lon="14.354223">
        <ele>213.182</ele>
        <time>1970-01-01T01:00:00Z</time>
      </trkpt>
      <trkpt lat="61.053915" lon="14.354292">
        <ele>213</ele>
        <time>1970-01-01T01:00:00Z</time>
      </trkpt>
      <trkpt lat="61.053828" lon="14.354347">
        <ele>213</ele>
        <time>1970-01-01T01:00:00Z</time>
      </trkpt>
      <trkpt lat="61.053731" lon="14.354385">
        <ele>213</ele>
        <time>1970-01-01T01:00:00Z</time>
      </trkpt>
      <trkpt lat="61.05363" lon="14.354417">
        <ele>213</ele>
        <time>1970-01-01T01:00:00Z</time>
      </trkpt>
      <trkpt lat="61.053539" lon="14.354419">
        <ele>213</ele>
        <time>1970-01-01T01:00:00Z</time>
      </trkpt>
      <trkpt lat="61.053444" lon="14.354432">
        <ele>213.091</ele>
        <time>1970-01-01T01:00:00Z</time>
      </trkpt>
      <trkpt lat="61.053332" lon="14.354414">
        <ele>213.182</ele>
        <time>1970-01-01T01:00:00Z</time>
      </trkpt>
      <trkpt lat="61.053235" lon="14.354407">
        <ele>213.273</ele>
        <time>1970-01-01T01:00:00Z</time>
      </trkpt>
      <trkpt lat="61.053124" lon="14.354388">
        <ele>213.364</ele>
        <time>1970-01-01T01:00:00Z</time>
      </trkpt>
      <trkpt lat="61.053029" lon="14.354363">
        <ele>213.455</ele>
        <time>1970-01-01T01:00:00Z</time>
      </trkpt>
      <trkpt lat="61.052942" lon="14.354316">
        <ele>213.727</ele>
        <time>1970-01-01T01:00:00Z</time>
      </trkpt>
      <trkpt lat="61.052857" lon="14.354245">
        <ele>214</ele>
        <time>1970-01-01T01:00:00Z</time>
      </trkpt>
      <trkpt lat="61.05277" lon="14.354162">
        <ele>214.273</ele>
        <time>1970-01-01T01:00:00Z</time>
      </trkpt>
      <trkpt lat="61.052681" lon="14.354062">
        <ele>214.545</ele>
        <time>1970-01-01T01:00:00Z</time>
      </trkpt>
      <trkpt lat="61.052607" lon="14.353933">
        <ele>214.818</ele>
        <time>1970-01-01T01:00:00Z</time>
      </trkpt>
      <trkpt lat="61.052526" lon="14.353796">
        <ele>215</ele>
        <time>1970-01-01T01:00:00Z</time>
      </trkpt>
      <trkpt lat="61.052413" lon="14.353688">
        <ele>214.909</ele>
        <time>1970-01-01T01:00:00Z</time>
      </trkpt>
      <trkpt lat="61.052314" lon="14.353611">
        <ele>214.818</ele>
        <time>1970-01-01T01:00:00Z</time>
      </trkpt>
      <trkpt lat="61.052208" lon="14.353607">
        <ele>214.727</ele>
        <time>1970-01-01T01:00:00Z</time>
      </trkpt>
      <trkpt lat="61.052119" lon="14.353669">
        <ele>214.636</ele>
        <time>1970-01-01T01:00:00Z</time>
      </trkpt>
      <trkpt lat="61.052007" lon="14.353803">
        <ele>214.545</ele>
        <time>1970-01-01T01:00:00Z</time>
      </trkpt>
      <trkpt lat="61.051922" lon="14.353939">
        <ele>214.273</ele>
        <time>1970-01-01T01:00:00Z</time>
      </trkpt>
      <trkpt lat="61.051839" lon="14.354057">
        <ele>213.909</ele>
        <time>1970-01-01T01:00:00Z</time>
      </trkpt>
      <trkpt lat="61.05174" lon="14.354206">
        <ele>213.545</ele>
        <time>1970-01-01T01:00:00Z</time>
      </trkpt>
      <trkpt lat="61.051658" lon="14.354358">
        <ele>213.182</ele>
        <time>1970-01-01T01:00:00Z</time>
      </trkpt>
      <trkpt lat="61.051565" lon="14.354513">
        <ele>212.818</ele>
        <time>1970-01-01T01:00:00Z</time>
      </trkpt>
      <trkpt lat="61.051495" lon="14.354648">
        <ele>212.545</ele>
        <time>1970-01-01T01:00:00Z</time>
      </trkpt>
      <trkpt lat="61.051401" lon="14.354777">
        <ele>212.455</ele>
        <time>1970-01-01T01:00:00Z</time>
      </trkpt>
      <trkpt lat="61.051316" lon="14.354924">
        <ele>212.364</ele>
        <time>1970-01-01T01:00:00Z</time>
      </trkpt>
      <trkpt lat="61.051244" lon="14.355048">
        <ele>212.273</ele>
        <time>1970-01-01T01:00:00Z</time>
      </trkpt>
      <trkpt lat="61.051148" lon="14.355135">
        <ele>212.182</ele>
        <time>1970-01-01T01:00:00Z</time>
      </trkpt>
      <trkpt lat="61.051061" lon="14.355207">
        <ele>212.091</ele>
        <time>1970-01-01T01:00:00Z</time>
      </trkpt>
      <trkpt lat="61.050975" lon="14.35527">
        <ele>212</ele>
        <time>1970-01-01T01:00:00Z</time>
      </trkpt>
      <trkpt lat="61.050881" lon="14.355326">
        <ele>212</ele>
        <time>1970-01-01T01:00:00Z</time>
      </trkpt>
      <trkpt lat="61.05078" lon="14.355381">
        <ele>212</ele>
        <time>1970-01-01T01:00:00Z</time>
      </trkpt>
      <trkpt lat="61.050681" lon="14.355422">
        <ele>212</ele>
        <time>1970-01-01T01:00:00Z</time>
      </trkpt>
      <trkpt lat="61.050575" lon="14.355455">
        <ele>212</ele>
        <time>1970-01-01T01:00:00Z</time>
      </trkpt>
      <trkpt lat="61.050471" lon="14.35549">
        <ele>212</ele>
        <time>1970-01-01T01:00:00Z</time>
      </trkpt>
      <trkpt lat="61.050381" lon="14.355501">
        <ele>212</ele>
        <time>1970-01-01T01:00:00Z</time>
      </trkpt>
      <trkpt lat="61.050291" lon="14.355519">
        <ele>212.091</ele>
        <time>1970-01-01T01:00:00Z</time>
      </trkpt>
      <trkpt lat="61.050183" lon="14.355546">
        <ele>212.182</ele>
        <time>1970-01-01T01:00:00Z</time>
      </trkpt>
      <trkpt lat="61.050093" lon="14.355557">
        <ele>212.273</ele>
        <time>1970-01-01T01:00:00Z</time>
      </trkpt>
      <trkpt lat="61.04999" lon="14.355563">
        <ele>212.545</ele>
        <time>1970-01-01T01:00:00Z</time>
      </trkpt>
      <trkpt lat="61.049889" lon="14.355537">
        <ele>212.818</ele>
        <time>1970-01-01T01:00:00Z</time>
      </trkpt>
      <trkpt lat="61.049799" lon="14.355441">
        <ele>213.091</ele>
        <time>1970-01-01T01:00:00Z</time>
      </trkpt>
      <trkpt lat="61.049722" lon="14.355297">
        <ele>213.273</ele>
        <time>1970-01-01T01:00:00Z</time>
      </trkpt>
      <trkpt lat="61.049632" lon="14.355196">
        <ele>213.455</ele>
        <time>1970-01-01T01:00:00Z</time>
      </trkpt>
      <trkpt lat="61.049535" lon="14.35517">
        <ele>213.636</ele>
        <time>1970-01-01T01:00:00Z</time>
      </trkpt>
      <trkpt lat="61.049435" lon="14.355231">
        <ele>213.818</ele>
        <time>1970-01-01T01:00:00Z</time>
      </trkpt>
      <trkpt lat="61.049366" lon="14.355405">
        <ele>214</ele>
        <time>1970-01-01T01:00:00Z</time>
      </trkpt>
      <trkpt lat="61.049312" lon="14.355613">
        <ele>214</ele>
        <time>1970-01-01T01:00:00Z</time>
      </trkpt>
      <trkpt lat="61.049259" lon="14.355817">
        <ele>214</ele>
        <time>1970-01-01T01:00:00Z</time>
      </trkpt>
      <trkpt lat="61.049217" lon="14.355993">
        <ele>214</ele>
        <time>1970-01-01T01:00:00Z</time>
      </trkpt>
      <trkpt lat="61.049159" lon="14.356147">
        <ele>213.818</ele>
        <time>1970-01-01T01:00:00Z</time>
      </trkpt>
      <trkpt lat="61.049098" lon="14.356287">
        <ele>213.909</ele>
        <time>1970-01-01T01:00:00Z</time>
      </trkpt>
      <trkpt lat="61.049035" lon="14.356429">
        <ele>213.909</ele>
        <time>1970-01-01T01:00:00Z</time>
      </trkpt>
      <trkpt lat="61.04896" lon="14.356604">
        <ele>214</ele>
        <time>1970-01-01T01:00:00Z</time>
      </trkpt>
      <trkpt lat="61.048902" lon="14.356746">
        <ele>214.091</ele>
        <time>1970-01-01T01:00:00Z</time>
      </trkpt>
      <trkpt lat="61.048842" lon="14.356915">
        <ele>214.182</ele>
        <time>1970-01-01T01:00:00Z</time>
      </trkpt>
      <trkpt lat="61.048769" lon="14.357045">
        <ele>214.273</ele>
        <time>1970-01-01T01:00:00Z</time>
      </trkpt>
      <trkpt lat="61.048674" lon="14.357187">
        <ele>214.364</ele>
        <time>1970-01-01T01:00:00Z</time>
      </trkpt>
      <trkpt lat="61.048581" lon="14.35732">
        <ele>214.545</ele>
        <time>1970-01-01T01:00:00Z</time>
      </trkpt>
      <trkpt lat="61.048487" lon="14.357426">
        <ele>214.727</ele>
        <time>1970-01-01T01:00:00Z</time>
      </trkpt>
      <trkpt lat="61.048413" lon="14.357541">
        <ele>214.909</ele>
        <time>1970-01-01T01:00:00Z</time>
      </trkpt>
      <trkpt lat="61.048386" lon="14.357742">
        <ele>215</ele>
        <time>1970-01-01T01:00:00Z</time>
      </trkpt>
      <trkpt lat="61.048394" lon="14.357963">
        <ele>214.818</ele>
        <time>1970-01-01T01:00:00Z</time>
      </trkpt>
      <trkpt lat="61.048389" lon="14.358151">
        <ele>214.727</ele>
        <time>1970-01-01T01:00:00Z</time>
      </trkpt>
      <trkpt lat="61.048369" lon="14.358358">
        <ele>214.636</ele>
        <time>1970-01-01T01:00:00Z</time>
      </trkpt>
      <trkpt lat="61.048345" lon="14.358592">
        <ele>214.545</ele>
        <time>1970-01-01T01:00:00Z</time>
      </trkpt>
      <trkpt lat="61.048323" lon="14.358792">
        <ele>214.364</ele>
        <time>1970-01-01T01:00:00Z</time>
      </trkpt>
      <trkpt lat="61.048312" lon="14.358982">
        <ele>214.182</ele>
        <time>1970-01-01T01:00:00Z</time>
      </trkpt>
      <trkpt lat="61.048289" lon="14.359186">
        <ele>214</ele>
        <time>1970-01-01T01:00:00Z</time>
      </trkpt>
      <trkpt lat="61.048252" lon="14.359391">
        <ele>213.818</ele>
        <time>1970-01-01T01:00:00Z</time>
      </trkpt>
      <trkpt lat="61.048218" lon="14.35959">
        <ele>213.545</ele>
        <time>1970-01-01T01:00:00Z</time>
      </trkpt>
      <trkpt lat="61.048185" lon="14.359795">
        <ele>213.273</ele>
        <time>1970-01-01T01:00:00Z</time>
      </trkpt>
      <trkpt lat="61.048156" lon="14.359981">
        <ele>213.091</ele>
        <time>1970-01-01T01:00:00Z</time>
      </trkpt>
      <trkpt lat="61.04815" lon="14.360171">
        <ele>212.909</ele>
        <time>1970-01-01T01:00:00Z</time>
      </trkpt>
      <trkpt lat="61.048135" lon="14.360358">
        <ele>212.636</ele>
        <time>1970-01-01T01:00:00Z</time>
      </trkpt>
      <trkpt lat="61.048106" lon="14.360562">
        <ele>212.364</ele>
        <time>1970-01-01T01:00:00Z</time>
      </trkpt>
      <trkpt lat="61.048066" lon="14.360736">
        <ele>212.091</ele>
        <time>1970-01-01T01:00:00Z</time>
      </trkpt>
      <trkpt lat="61.048019" lon="14.360943">
        <ele>211.909</ele>
        <time>1970-01-01T01:00:00Z</time>
      </trkpt>
      <trkpt lat="61.047984" lon="14.361123">
        <ele>211.727</ele>
        <time>1970-01-01T01:00:00Z</time>
      </trkpt>
      <trkpt lat="61.047939" lon="14.36129">
        <ele>211.545</ele>
        <time>1970-01-01T01:00:00Z</time>
      </trkpt>
      <trkpt lat="61.047884" lon="14.361439">
        <ele>211.364</ele>
        <time>1970-01-01T01:00:00Z</time>
      </trkpt>
      <trkpt lat="61.047816" lon="14.361575">
        <ele>211.182</ele>
        <time>1970-01-01T01:00:00Z</time>
      </trkpt>
      <trkpt lat="61.047743" lon="14.361706">
        <ele>211</ele>
        <time>1970-01-01T01:00:00Z</time>
      </trkpt>
      <trkpt lat="61.047675" lon="14.361838">
        <ele>210.818</ele>
        <time>1970-01-01T01:00:00Z</time>
      </trkpt>
      <trkpt lat="61.047602" lon="14.361975">
        <ele>210.636</ele>
        <time>1970-01-01T01:00:00Z</time>
      </trkpt>
      <trkpt lat="61.04753" lon="14.362131">
        <ele>210.545</ele>
        <time>1970-01-01T01:00:00Z</time>
      </trkpt>
      <trkpt lat="61.047464" lon="14.362262">
        <ele>210.364</ele>
        <time>1970-01-01T01:00:00Z</time>
      </trkpt>
      <trkpt lat="61.047397" lon="14.362403">
        <ele>210.182</ele>
        <time>1970-01-01T01:00:00Z</time>
      </trkpt>
      <trkpt lat="61.047335" lon="14.362554">
        <ele>209.909</ele>
        <time>1970-01-01T01:00:00Z</time>
      </trkpt>
      <trkpt lat="61.047277" lon="14.362734">
        <ele>209.636</ele>
        <time>1970-01-01T01:00:00Z</time>
      </trkpt>
      <trkpt lat="61.047221" lon="14.362909">
        <ele>209.364</ele>
        <time>1970-01-01T01:00:00Z</time>
      </trkpt>
      <trkpt lat="61.04717" lon="14.363096">
        <ele>209</ele>
        <time>1970-01-01T01:00:00Z</time>
      </trkpt>
      <trkpt lat="61.047126" lon="14.36326">
        <ele>208.727</ele>
        <time>1970-01-01T01:00:00Z</time>
      </trkpt>
      <trkpt lat="61.047087" lon="14.363445">
        <ele>208.455</ele>
        <time>1970-01-01T01:00:00Z</time>
      </trkpt>
      <trkpt lat="61.04703" lon="14.363614">
        <ele>208.182</ele>
        <time>1970-01-01T01:00:00Z</time>
      </trkpt>
      <trkpt lat="61.046966" lon="14.363786">
        <ele>207.909</ele>
        <time>1970-01-01T01:00:00Z</time>
      </trkpt>
      <trkpt lat="61.046899" lon="14.363944">
        <ele>207.545</ele>
        <time>1970-01-01T01:00:00Z</time>
      </trkpt>
      <trkpt lat="61.046832" lon="14.364118">
        <ele>207.273</ele>
        <time>1970-01-01T01:00:00Z</time>
      </trkpt>
      <trkpt lat="61.046779" lon="14.364271">
        <ele>207</ele>
        <time>1970-01-01T01:00:00Z</time>
      </trkpt>
      <trkpt lat="61.04672" lon="14.364459">
        <ele>206.818</ele>
        <time>1970-01-01T01:00:00Z</time>
      </trkpt>
      <trkpt lat="61.04667" lon="14.364619">
        <ele>206.545</ele>
        <time>1970-01-01T01:00:00Z</time>
      </trkpt>
      <trkpt lat="61.046623" lon="14.36479">
        <ele>206.273</ele>
        <time>1970-01-01T01:00:00Z</time>
      </trkpt>
      <trkpt lat="61.046573" lon="14.364976">
        <ele>206.091</ele>
        <time>1970-01-01T01:00:00Z</time>
      </trkpt>
      <trkpt lat="61.046519" lon="14.365165">
        <ele>205.909</ele>
        <time>1970-01-01T01:00:00Z</time>
      </trkpt>
      <trkpt lat="61.046473" lon="14.365345">
        <ele>205.818</ele>
        <time>1970-01-01T01:00:00Z</time>
      </trkpt>
      <trkpt lat="61.046422" lon="14.365541">
        <ele>205.636</ele>
        <time>1970-01-01T01:00:00Z</time>
      </trkpt>
      <trkpt lat="61.046374" lon="14.365735">
        <ele>205.455</ele>
        <time>1970-01-01T01:00:00Z</time>
      </trkpt>
      <trkpt lat="61.046325" lon="14.365891">
        <ele>205.364</ele>
        <time>1970-01-01T01:00:00Z</time>
      </trkpt>
      <trkpt lat="61.046275" lon="14.366062">
        <ele>205.273</ele>
        <time>1970-01-01T01:00:00Z</time>
      </trkpt>
      <trkpt lat="61.046213" lon="14.366245">
        <ele>205.182</ele>
        <time>1970-01-01T01:00:00Z</time>
      </trkpt>
      <trkpt lat="61.046159" lon="14.366416">
        <ele>205</ele>
        <time>1970-01-01T01:00:00Z</time>
      </trkpt>
      <trkpt lat="61.0461" lon="14.366608">
        <ele>204.909</ele>
        <time>1970-01-01T01:00:00Z</time>
      </trkpt>
      <trkpt lat="61.04603" lon="14.366769">
        <ele>204.818</ele>
        <time>1970-01-01T01:00:00Z</time>
      </trkpt>
      <trkpt lat="61.045949" lon="14.366919">
        <ele>204.727</ele>
        <time>1970-01-01T01:00:00Z</time>
      </trkpt>
      <trkpt lat="61.045869" lon="14.367065">
        <ele>204.636</ele>
        <time>1970-01-01T01:00:00Z</time>
      </trkpt>
      <trkpt lat="61.045796" lon="14.367211">
        <ele>204.636</ele>
        <time>1970-01-01T01:00:00Z</time>
      </trkpt>
      <trkpt lat="61.045723" lon="14.367336">
        <ele>204.636</ele>
        <time>1970-01-01T01:00:00Z</time>
      </trkpt>
      <trkpt lat="61.045642" lon="14.367464">
        <ele>204.636</ele>
        <time>1970-01-01T01:00:00Z</time>
      </trkpt>
      <trkpt lat="61.045573" lon="14.367588">
        <ele>204.636</ele>
        <time>1970-01-01T01:00:00Z</time>
      </trkpt>
      <trkpt lat="61.045499" lon="14.367716">
        <ele>204.636</ele>
        <time>1970-01-01T01:00:00Z</time>
      </trkpt>
      <trkpt lat="61.045416" lon="14.367857">
        <ele>204.636</ele>
        <time>1970-01-01T01:00:00Z</time>
      </trkpt>
      <trkpt lat="61.045318" lon="14.368006">
        <ele>204.727</ele>
        <time>1970-01-01T01:00:00Z</time>
      </trkpt>
      <trkpt lat="61.045225" lon="14.368152">
        <ele>204.818</ele>
        <time>1970-01-01T01:00:00Z</time>
      </trkpt>
      <trkpt lat="61.045155" lon="14.368284">
        <ele>204.909</ele>
        <time>1970-01-01T01:00:00Z</time>
      </trkpt>
      <trkpt lat="61.045076" lon="14.368436">
        <ele>205</ele>
        <time>1970-01-01T01:00:00Z</time>
      </trkpt>
      <trkpt lat="61.045015" lon="14.368587">
        <ele>205.091</ele>
        <time>1970-01-01T01:00:00Z</time>
      </trkpt>
      <trkpt lat="61.044945" lon="14.368756">
        <ele>205.091</ele>
        <time>1970-01-01T01:00:00Z</time>
      </trkpt>
      <trkpt lat="61.044874" lon="14.368898">
        <ele>205.182</ele>
        <time>1970-01-01T01:00:00Z</time>
      </trkpt>
      <trkpt lat="61.044811" lon="14.369064">
        <ele>205.273</ele>
        <time>1970-01-01T01:00:00Z</time>
      </trkpt>
      <trkpt lat="61.044743" lon="14.369246">
        <ele>205.364</ele>
        <time>1970-01-01T01:00:00Z</time>
      </trkpt>
      <trkpt lat="61.044665" lon="14.369358">
        <ele>205.455</ele>
        <time>1970-01-01T01:00:00Z</time>
      </trkpt>
      <trkpt lat="61.044588" lon="14.36948">
        <ele>205.545</ele>
        <time>1970-01-01T01:00:00Z</time>
      </trkpt>
      <trkpt lat="61.044498" lon="14.369621">
        <ele>205.636</ele>
        <time>1970-01-01T01:00:00Z</time>
      </trkpt>
      <trkpt lat="61.044426" lon="14.36976">
        <ele>205.727</ele>
        <time>1970-01-01T01:00:00Z</time>
      </trkpt>
      <trkpt lat="61.044346" lon="14.36993">
        <ele>205.818</ele>
        <time>1970-01-01T01:00:00Z</time>
      </trkpt>
      <trkpt lat="61.044284" lon="14.370096">
        <ele>206</ele>
        <time>1970-01-01T01:00:00Z</time>
      </trkpt>
      <trkpt lat="61.044133" lon="14.370392">
        <ele>206.182</ele>
        <time>1970-01-01T01:00:00Z</time>
      </trkpt>
      <trkpt lat="61.044018" lon="14.37059">
        <ele>206.273</ele>
        <time>1970-01-01T01:00:00Z</time>
      </trkpt>
      <trkpt lat="61.043914" lon="14.370821">
        <ele>206.364</ele>
        <time>1970-01-01T01:00:00Z</time>
      </trkpt>
      <trkpt lat="61.043829" lon="14.371021">
        <ele>206.455</ele>
        <time>1970-01-01T01:00:00Z</time>
      </trkpt>
      <trkpt lat="61.043777" lon="14.371225">
        <ele>206.455</ele>
        <time>1970-01-01T01:00:00Z</time>
      </trkpt>
      <trkpt lat="61.043749" lon="14.371477">
        <ele>206.455</ele>
        <time>1970-01-01T01:00:00Z</time>
      </trkpt>
      <trkpt lat="61.043718" lon="14.371682">
        <ele>206.455</ele>
        <time>1970-01-01T01:00:00Z</time>
      </trkpt>
      <trkpt lat="61.04368" lon="14.371892">
        <ele>206.455</ele>
        <time>1970-01-01T01:00:00Z</time>
      </trkpt>
      <trkpt lat="61.043636" lon="14.372064">
        <ele>206.455</ele>
        <time>1970-01-01T01:00:00Z</time>
      </trkpt>
      <trkpt lat="61.043583" lon="14.372221">
        <ele>206.455</ele>
        <time>1970-01-01T01:00:00Z</time>
      </trkpt>
      <trkpt lat="61.043547" lon="14.372413">
        <ele>206.364</ele>
        <time>1970-01-01T01:00:00Z</time>
      </trkpt>
      <trkpt lat="61.043499" lon="14.372576">
        <ele>206.273</ele>
        <time>1970-01-01T01:00:00Z</time>
      </trkpt>
      <trkpt lat="61.043431" lon="14.372739">
        <ele>206.182</ele>
        <time>1970-01-01T01:00:00Z</time>
      </trkpt>
      <trkpt lat="61.043383" lon="14.372906">
        <ele>206.091</ele>
        <time>1970-01-01T01:00:00Z</time>
      </trkpt>
      <trkpt lat="61.043327" lon="14.373095">
        <ele>206.091</ele>
        <time>1970-01-01T01:00:00Z</time>
      </trkpt>
      <trkpt lat="61.043274" lon="14.373249">
        <ele>206.182</ele>
        <time>1970-01-01T01:00:00Z</time>
      </trkpt>
      <trkpt lat="61.043189" lon="14.373376">
        <ele>206.273</ele>
        <time>1970-01-01T01:00:00Z</time>
      </trkpt>
      <trkpt lat="61.043102" lon="14.373473">
        <ele>206.364</ele>
        <time>1970-01-01T01:00:00Z</time>
      </trkpt>
      <trkpt lat="61.043027" lon="14.37359">
        <ele>206.455</ele>
        <time>1970-01-01T01:00:00Z</time>
      </trkpt>
      <trkpt lat="61.042966" lon="14.373735">
        <ele>206.545</ele>
        <time>1970-01-01T01:00:00Z</time>
      </trkpt>
      <trkpt lat="61.042877" lon="14.373862">
        <ele>206.636</ele>
        <time>1970-01-01T01:00:00Z</time>
      </trkpt>
      <trkpt lat="61.042785" lon="14.37396">
        <ele>206.727</ele>
        <time>1970-01-01T01:00:00Z</time>
      </trkpt>
      <trkpt lat="61.042705" lon="14.374046">
        <ele>206.818</ele>
        <time>1970-01-01T01:00:00Z</time>
      </trkpt>
      <trkpt lat="61.042622" lon="14.374171">
        <ele>206.909</ele>
        <time>1970-01-01T01:00:00Z</time>
      </trkpt>
      <trkpt lat="61.042535" lon="14.374261">
        <ele>207</ele>
        <time>1970-01-01T01:00:00Z</time>
      </trkpt>
      <trkpt lat="61.04245" lon="14.37436">
        <ele>207.091</ele>
        <time>1970-01-01T01:00:00Z</time>
      </trkpt>
      <trkpt lat="61.042363" lon="14.374469">
        <ele>207.182</ele>
        <time>1970-01-01T01:00:00Z</time>
      </trkpt>
      <trkpt lat="61.042279" lon="14.374578">
        <ele>207.273</ele>
        <time>1970-01-01T01:00:00Z</time>
      </trkpt>
      <trkpt lat="61.042186" lon="14.374694">
        <ele>207.364</ele>
        <time>1970-01-01T01:00:00Z</time>
      </trkpt>
      <trkpt lat="61.042104" lon="14.374833">
        <ele>207.455</ele>
        <time>1970-01-01T01:00:00Z</time>
      </trkpt>
      <trkpt lat="61.042021" lon="14.374984">
        <ele>207.545</ele>
        <time>1970-01-01T01:00:00Z</time>
      </trkpt>
      <trkpt lat="61.041938" lon="14.375107">
        <ele>207.636</ele>
        <time>1970-01-01T01:00:00Z</time>
      </trkpt>
      <trkpt lat="61.041862" lon="14.375211">
        <ele>207.727</ele>
        <time>1970-01-01T01:00:00Z</time>
      </trkpt>
      <trkpt lat="61.041784" lon="14.375306">
        <ele>207.818</ele>
        <time>1970-01-01T01:00:00Z</time>
      </trkpt>
      <trkpt lat="61.041696" lon="14.375413">
        <ele>208</ele>
        <time>1970-01-01T01:00:00Z</time>
      </trkpt>
      <trkpt lat="61.041615" lon="14.375501">
        <ele>208.182</ele>
        <time>1970-01-01T01:00:00Z</time>
      </trkpt>
      <trkpt lat="61.041528" lon="14.375594">
        <ele>208.273</ele>
        <time>1970-01-01T01:00:00Z</time>
      </trkpt>
      <trkpt lat="61.041428" lon="14.375653">
        <ele>208.364</ele>
        <time>1970-01-01T01:00:00Z</time>
      </trkpt>
      <trkpt lat="61.041329" lon="14.375736">
        <ele>208.455</ele>
        <time>1970-01-01T01:00:00Z</time>
      </trkpt>
      <trkpt lat="61.041232" lon="14.375777">
        <ele>208.545</ele>
        <time>1970-01-01T01:00:00Z</time>
      </trkpt>
      <trkpt lat="61.041133" lon="14.375758">
        <ele>208.636</ele>
        <time>1970-01-01T01:00:00Z</time>
      </trkpt>
      <trkpt lat="61.041043" lon="14.375708">
        <ele>208.727</ele>
        <time>1970-01-01T01:00:00Z</time>
      </trkpt>
      <trkpt lat="61.040942" lon="14.375637">
        <ele>209</ele>
        <time>1970-01-01T01:00:00Z</time>
      </trkpt>
      <trkpt lat="61.040846" lon="14.37556">
        <ele>209.273</ele>
        <time>1970-01-01T01:00:00Z</time>
      </trkpt>
      <trkpt lat="61.040743" lon="14.375512">
        <ele>209.545</ele>
        <time>1970-01-01T01:00:00Z</time>
      </trkpt>
      <trkpt lat="61.040641" lon="14.375502">
        <ele>209.727</ele>
        <time>1970-01-01T01:00:00Z</time>
      </trkpt>
      <trkpt lat="61.040535" lon="14.375502">
        <ele>209.909</ele>
        <time>1970-01-01T01:00:00Z</time>
      </trkpt>
      <trkpt lat="61.040441" lon="14.375495">
        <ele>210.091</ele>
        <time>1970-01-01T01:00:00Z</time>
      </trkpt>
      <trkpt lat="61.040343" lon="14.375475">
        <ele>210.273</ele>
        <time>1970-01-01T01:00:00Z</time>
      </trkpt>
      <trkpt lat="61.040245" lon="14.375446">
        <ele>210.455</ele>
        <time>1970-01-01T01:00:00Z</time>
      </trkpt>
      <trkpt lat="61.040144" lon="14.375412">
        <ele>210.636</ele>
        <time>1970-01-01T01:00:00Z</time>
      </trkpt>
      <trkpt lat="61.040048" lon="14.375379">
        <ele>210.909</ele>
        <time>1970-01-01T01:00:00Z</time>
      </trkpt>
      <trkpt lat="61.039946" lon="14.375319">
        <ele>211.182</ele>
        <time>1970-01-01T01:00:00Z</time>
      </trkpt>
      <trkpt lat="61.039849" lon="14.375254">
        <ele>211.273</ele>
        <time>1970-01-01T01:00:00Z</time>
      </trkpt>
      <trkpt lat="61.039759" lon="14.375198">
        <ele>211.364</ele>
        <time>1970-01-01T01:00:00Z</time>
      </trkpt>
      <trkpt lat="61.039659" lon="14.375137">
        <ele>211.455</ele>
        <time>1970-01-01T01:00:00Z</time>
      </trkpt>
      <trkpt lat="61.039571" lon="14.37508">
        <ele>211.545</ele>
        <time>1970-01-01T01:00:00Z</time>
      </trkpt>
      <trkpt lat="61.039477" lon="14.375027">
        <ele>211.636</ele>
        <time>1970-01-01T01:00:00Z</time>
      </trkpt>
      <trkpt lat="61.039384" lon="14.374992">
        <ele>211.727</ele>
        <time>1970-01-01T01:00:00Z</time>
      </trkpt>
      <trkpt lat="61.039275" lon="14.374949">
        <ele>212</ele>
        <time>1970-01-01T01:00:00Z</time>
      </trkpt>
      <trkpt lat="61.039177" lon="14.374889">
        <ele>212.273</ele>
        <time>1970-01-01T01:00:00Z</time>
      </trkpt>
      <trkpt lat="61.03907" lon="14.374823">
        <ele>212.545</ele>
        <time>1970-01-01T01:00:00Z</time>
      </trkpt>
      <trkpt lat="61.038984" lon="14.374765">
        <ele>212.727</ele>
        <time>1970-01-01T01:00:00Z</time>
      </trkpt>
      <trkpt lat="61.038884" lon="14.374697">
        <ele>212.909</ele>
        <time>1970-01-01T01:00:00Z</time>
      </trkpt>
      <trkpt lat="61.038781" lon="14.374616">
        <ele>213.091</ele>
        <time>1970-01-01T01:00:00Z</time>
      </trkpt>
      <trkpt lat="61.038694" lon="14.374547">
        <ele>213.273</ele>
        <time>1970-01-01T01:00:00Z</time>
      </trkpt>
      <trkpt lat="61.0386" lon="14.374482">
        <ele>213.455</ele>
        <time>1970-01-01T01:00:00Z</time>
      </trkpt>
      <trkpt lat="61.038494" lon="14.374462">
        <ele>213.636</ele>
        <time>1970-01-01T01:00:00Z</time>
      </trkpt>
      <trkpt lat="61.038399" lon="14.374534">
        <ele>213.818</ele>
        <time>1970-01-01T01:00:00Z</time>
      </trkpt>
      <trkpt lat="61.038321" lon="14.374683">
        <ele>214</ele>
        <time>1970-01-01T01:00:00Z</time>
      </trkpt>
      <trkpt lat="61.038256" lon="14.374842">
        <ele>214.091</ele>
        <time>1970-01-01T01:00:00Z</time>
      </trkpt>
      <trkpt lat="61.038192" lon="14.374975">
        <ele>214.182</ele>
        <time>1970-01-01T01:00:00Z</time>
      </trkpt>
      <trkpt lat="61.038125" lon="14.375105">
        <ele>214.273</ele>
        <time>1970-01-01T01:00:00Z</time>
      </trkpt>
      <trkpt lat="61.038049" lon="14.375252">
        <ele>214.364</ele>
        <time>1970-01-01T01:00:00Z</time>
      </trkpt>
      <trkpt lat="61.037972" lon="14.375397">
        <ele>214.455</ele>
        <time>1970-01-01T01:00:00Z</time>
      </trkpt>
      <trkpt lat="61.037886" lon="14.375517">
        <ele>214.545</ele>
        <time>1970-01-01T01:00:00Z</time>
      </trkpt>
      <trkpt lat="61.037804" lon="14.375652">
        <ele>214.636</ele>
        <time>1970-01-01T01:00:00Z</time>
      </trkpt>
      <trkpt lat="61.037723" lon="14.375759">
        <ele>214.727</ele>
        <time>1970-01-01T01:00:00Z</time>
      </trkpt>
      <trkpt lat="61.037644" lon="14.375858">
        <ele>214.727</ele>
        <time>1970-01-01T01:00:00Z</time>
      </trkpt>
      <trkpt lat="61.037544" lon="14.375941">
        <ele>214.727</ele>
        <time>1970-01-01T01:00:00Z</time>
      </trkpt>
      <trkpt lat="61.037453" lon="14.376045">
        <ele>214.909</ele>
        <time>1970-01-01T01:00:00Z</time>
      </trkpt>
      <trkpt lat="61.037378" lon="14.376166">
        <ele>215</ele>
        <time>1970-01-01T01:00:00Z</time>
      </trkpt>
      <trkpt lat="61.0373" lon="14.376281">
        <ele>215.091</ele>
        <time>1970-01-01T01:00:00Z</time>
      </trkpt>
      <trkpt lat="61.037221" lon="14.3764">
        <ele>215.182</ele>
        <time>1970-01-01T01:00:00Z</time>
      </trkpt>
      <trkpt lat="61.037144" lon="14.376545">
        <ele>215.273</ele>
        <time>1970-01-01T01:00:00Z</time>
      </trkpt>
      <trkpt lat="61.03707" lon="14.37669">
        <ele>215.364</ele>
        <time>1970-01-01T01:00:00Z</time>
      </trkpt>
      <trkpt lat="61.037008" lon="14.376858">
        <ele>215.455</ele>
        <time>1970-01-01T01:00:00Z</time>
      </trkpt>
      <trkpt lat="61.036938" lon="14.377018">
        <ele>215.545</ele>
        <time>1970-01-01T01:00:00Z</time>
      </trkpt>
      <trkpt lat="61.036864" lon="14.377151">
        <ele>215.636</ele>
        <time>1970-01-01T01:00:00Z</time>
      </trkpt>
      <trkpt lat="61.036784" lon="14.377294">
        <ele>215.818</ele>
        <time>1970-01-01T01:00:00Z</time>
      </trkpt>
      <trkpt lat="61.036711" lon="14.377424">
        <ele>216</ele>
        <time>1970-01-01T01:00:00Z</time>
      </trkpt>
      <trkpt lat="61.036635" lon="14.377543">
        <ele>216.091</ele>
        <time>1970-01-01T01:00:00Z</time>
      </trkpt>
      <trkpt lat="61.036551" lon="14.377643">
        <ele>216.182</ele>
        <time>1970-01-01T01:00:00Z</time>
      </trkpt>
      <trkpt lat="61.03646" lon="14.377779">
        <ele>216.273</ele>
        <time>1970-01-01T01:00:00Z</time>
      </trkpt>
      <trkpt lat="61.036369" lon="14.377922">
        <ele>216.364</ele>
        <time>1970-01-01T01:00:00Z</time>
      </trkpt>
      <trkpt lat="61.036298" lon="14.378047">
        <ele>216.455</ele>
        <time>1970-01-01T01:00:00Z</time>
      </trkpt>
      <trkpt lat="61.036215" lon="14.37821">
        <ele>216.545</ele>
        <time>1970-01-01T01:00:00Z</time>
      </trkpt>
      <trkpt lat="61.036143" lon="14.378358">
        <ele>216.636</ele>
        <time>1970-01-01T01:00:00Z</time>
      </trkpt>
      <trkpt lat="61.03606" lon="14.378526">
        <ele>216.727</ele>
        <time>1970-01-01T01:00:00Z</time>
      </trkpt>
      <trkpt lat="61.035998" lon="14.378676">
        <ele>216.818</ele>
        <time>1970-01-01T01:00:00Z</time>
      </trkpt>
      <trkpt lat="61.035928" lon="14.378832">
        <ele>217</ele>
        <time>1970-01-01T01:00:00Z</time>
      </trkpt>
      <trkpt lat="61.035855" lon="14.378977">
        <ele>217.182</ele>
        <time>1970-01-01T01:00:00Z</time>
      </trkpt>
      <trkpt lat="61.035796" lon="14.379131">
        <ele>217.273</ele>
        <time>1970-01-01T01:00:00Z</time>
      </trkpt>
      <trkpt lat="61.03574" lon="14.379288">
        <ele>217.455</ele>
        <time>1970-01-01T01:00:00Z</time>
      </trkpt>
      <trkpt lat="61.035671" lon="14.379449">
        <ele>217.636</ele>
        <time>1970-01-01T01:00:00Z</time>
      </trkpt>
      <trkpt lat="61.035608" lon="14.379611">
        <ele>217.818</ele>
        <time>1970-01-01T01:00:00Z</time>
      </trkpt>
      <trkpt lat="61.035537" lon="14.37978">
        <ele>218</ele>
        <time>1970-01-01T01:00:00Z</time>
      </trkpt>
      <trkpt lat="61.035467" lon="14.379942">
        <ele>218.182</ele>
        <time>1970-01-01T01:00:00Z</time>
      </trkpt>
      <trkpt lat="61.035395" lon="14.38009">
        <ele>218.364</ele>
        <time>1970-01-01T01:00:00Z</time>
      </trkpt>
      <trkpt lat="61.035333" lon="14.380255">
        <ele>218.545</ele>
        <time>1970-01-01T01:00:00Z</time>
      </trkpt>
      <trkpt lat="61.035271" lon="14.380427">
        <ele>218.727</ele>
        <time>1970-01-01T01:00:00Z</time>
      </trkpt>
      <trkpt lat="61.035217" lon="14.380578">
        <ele>218.818</ele>
        <time>1970-01-01T01:00:00Z</time>
      </trkpt>
      <trkpt lat="61.035158" lon="14.380745">
        <ele>219</ele>
        <time>1970-01-01T01:00:00Z</time>
      </trkpt>
      <trkpt lat="61.035094" lon="14.380907">
        <ele>219.182</ele>
        <time>1970-01-01T01:00:00Z</time>
      </trkpt>
      <trkpt lat="61.035034" lon="14.381063">
        <ele>219.273</ele>
        <time>1970-01-01T01:00:00Z</time>
      </trkpt>
      <trkpt lat="61.034974" lon="14.381214">
        <ele>219.364</ele>
        <time>1970-01-01T01:00:00Z</time>
      </trkpt>
      <trkpt lat="61.034907" lon="14.381382">
        <ele>219.455</ele>
        <time>1970-01-01T01:00:00Z</time>
      </trkpt>
      <trkpt lat="61.034839" lon="14.381544">
        <ele>219.545</ele>
        <time>1970-01-01T01:00:00Z</time>
      </trkpt>
      <trkpt lat="61.034774" lon="14.381701">
        <ele>219.636</ele>
        <time>1970-01-01T01:00:00Z</time>
      </trkpt>
      <trkpt lat="61.034697" lon="14.381846">
        <ele>219.727</ele>
        <time>1970-01-01T01:00:00Z</time>
      </trkpt>
      <trkpt lat="61.034631" lon="14.381984">
        <ele>219.818</ele>
        <time>1970-01-01T01:00:00Z</time>
      </trkpt>
      <trkpt lat="61.03457" lon="14.382133">
        <ele>219.909</ele>
        <time>1970-01-01T01:00:00Z</time>
      </trkpt>
      <trkpt lat="61.034487" lon="14.38228">
        <ele>220</ele>
        <time>1970-01-01T01:00:00Z</time>
      </trkpt>
      <trkpt lat="61.034402" lon="14.382379">
        <ele>220</ele>
        <time>1970-01-01T01:00:00Z</time>
      </trkpt>
      <trkpt lat="61.034295" lon="14.382424">
        <ele>220</ele>
        <time>1970-01-01T01:00:00Z</time>
      </trkpt>
      <trkpt lat="61.034178" lon="14.382394">
        <ele>220</ele>
        <time>1970-01-01T01:00:00Z</time>
      </trkpt>
      <trkpt lat="61.034065" lon="14.382309">
        <ele>220</ele>
        <time>1970-01-01T01:00:00Z</time>
      </trkpt>
      <trkpt lat="61.033983" lon="14.38222">
        <ele>220</ele>
        <time>1970-01-01T01:00:00Z</time>
      </trkpt>
      <trkpt lat="61.033923" lon="14.382073">
        <ele>220</ele>
        <time>1970-01-01T01:00:00Z</time>
      </trkpt>
      <trkpt lat="61.03384" lon="14.381946">
        <ele>220</ele>
        <time>1970-01-01T01:00:00Z</time>
      </trkpt>
      <trkpt lat="61.033799" lon="14.381767">
        <ele>220</ele>
        <time>1970-01-01T01:00:00Z</time>
      </trkpt>
      <trkpt lat="61.033729" lon="14.381636">
        <ele>220</ele>
        <time>1970-01-01T01:00:00Z</time>
      </trkpt>
      <trkpt lat="61.033661" lon="14.381505">
        <ele>220</ele>
        <time>1970-01-01T01:00:00Z</time>
      </trkpt>
      <trkpt lat="61.033573" lon="14.381399">
        <ele>220</ele>
        <time>1970-01-01T01:00:00Z</time>
      </trkpt>
      <trkpt lat="61.033489" lon="14.38133">
        <ele>220</ele>
        <time>1970-01-01T01:00:00Z</time>
      </trkpt>
      <trkpt lat="61.033391" lon="14.381312">
        <ele>220</ele>
        <time>1970-01-01T01:00:00Z</time>
      </trkpt>
      <trkpt lat="61.033295" lon="14.381332">
        <ele>220</ele>
        <time>1970-01-01T01:00:00Z</time>
      </trkpt>
      <trkpt lat="61.033211" lon="14.38142">
        <ele>220</ele>
        <time>1970-01-01T01:00:00Z</time>
      </trkpt>
      <trkpt lat="61.03312" lon="14.381504">
        <ele>220</ele>
        <time>1970-01-01T01:00:00Z</time>
      </trkpt>
      <trkpt lat="61.033023" lon="14.381535">
        <ele>220</ele>
        <time>1970-01-01T01:00:00Z</time>
      </trkpt>
      <trkpt lat="61.032924" lon="14.381545">
        <ele>220</ele>
        <time>1970-01-01T01:00:00Z</time>
      </trkpt>
      <trkpt lat="61.032825" lon="14.381545">
        <ele>220</ele>
        <time>1970-01-01T01:00:00Z</time>
      </trkpt>
      <trkpt lat="61.032726" lon="14.381519">
        <ele>220</ele>
        <time>1970-01-01T01:00:00Z</time>
      </trkpt>
      <trkpt lat="61.032632" lon="14.381477">
        <ele>220</ele>
        <time>1970-01-01T01:00:00Z</time>
      </trkpt>
      <trkpt lat="61.032533" lon="14.381472">
        <ele>220</ele>
        <time>1970-01-01T01:00:00Z</time>
      </trkpt>
      <trkpt lat="61.032441" lon="14.381432">
        <ele>220</ele>
        <time>1970-01-01T01:00:00Z</time>
      </trkpt>
      <trkpt lat="61.03235" lon="14.381352">
        <ele>220</ele>
        <time>1970-01-01T01:00:00Z</time>
      </trkpt>
      <trkpt lat="61.032262" lon="14.381273">
        <ele>220</ele>
        <time>1970-01-01T01:00:00Z</time>
      </trkpt>
      <trkpt lat="61.032183" lon="14.381178">
        <ele>220</ele>
        <time>1970-01-01T01:00:00Z</time>
      </trkpt>
      <trkpt lat="61.032091" lon="14.381078">
        <ele>220</ele>
        <time>1970-01-01T01:00:00Z</time>
      </trkpt>
      <trkpt lat="61.032005" lon="14.380957">
        <ele>220</ele>
        <time>1970-01-01T01:00:00Z</time>
      </trkpt>
      <trkpt lat="61.031921" lon="14.380869">
        <ele>220</ele>
        <time>1970-01-01T01:00:00Z</time>
      </trkpt>
      <trkpt lat="61.031817" lon="14.380814">
        <ele>220</ele>
        <time>1970-01-01T01:00:00Z</time>
      </trkpt>
      <trkpt lat="61.031717" lon="14.380795">
        <ele>219.909</ele>
        <time>1970-01-01T01:00:00Z</time>
      </trkpt>
      <trkpt lat="61.031615" lon="14.380777">
        <ele>219.818</ele>
        <time>1970-01-01T01:00:00Z</time>
      </trkpt>
      <trkpt lat="61.031519" lon="14.380756">
        <ele>219.727</ele>
        <time>1970-01-01T01:00:00Z</time>
      </trkpt>
      <trkpt lat="61.031424" lon="14.380741">
        <ele>219.636</ele>
        <time>1970-01-01T01:00:00Z</time>
      </trkpt>
      <trkpt lat="61.031334" lon="14.380733">
        <ele>219.545</ele>
        <time>1970-01-01T01:00:00Z</time>
      </trkpt>
      <trkpt lat="61.031239" lon="14.380726">
        <ele>219.455</ele>
        <time>1970-01-01T01:00:00Z</time>
      </trkpt>
      <trkpt lat="61.031145" lon="14.380726">
        <ele>219.364</ele>
        <time>1970-01-01T01:00:00Z</time>
      </trkpt>
      <trkpt lat="61.031045" lon="14.380753">
        <ele>219.273</ele>
        <time>1970-01-01T01:00:00Z</time>
      </trkpt>
      <trkpt lat="61.030948" lon="14.380775">
        <ele>219.182</ele>
        <time>1970-01-01T01:00:00Z</time>
      </trkpt>
      <trkpt lat="61.030853" lon="14.380804">
        <ele>219.091</ele>
        <time>1970-01-01T01:00:00Z</time>
      </trkpt>
      <trkpt lat="61.030741" lon="14.380828">
        <ele>219</ele>
        <time>1970-01-01T01:00:00Z</time>
      </trkpt>
      <trkpt lat="61.030641" lon="14.380867">
        <ele>219</ele>
        <time>1970-01-01T01:00:00Z</time>
      </trkpt>
      <trkpt lat="61.030553" lon="14.380906">
        <ele>219</ele>
        <time>1970-01-01T01:00:00Z</time>
      </trkpt>
      <trkpt lat="61.030449" lon="14.380957">
        <ele>219</ele>
        <time>1970-01-01T01:00:00Z</time>
      </trkpt>
      <trkpt lat="61.03035" lon="14.381001">
        <ele>219</ele>
        <time>1970-01-01T01:00:00Z</time>
      </trkpt>
      <trkpt lat="61.030251" lon="14.38104">
        <ele>219</ele>
        <time>1970-01-01T01:00:00Z</time>
      </trkpt>
      <trkpt lat="61.030156" lon="14.381077">
        <ele>219</ele>
        <time>1970-01-01T01:00:00Z</time>
      </trkpt>
      <trkpt lat="61.030048" lon="14.381117">
        <ele>219.091</ele>
        <time>1970-01-01T01:00:00Z</time>
      </trkpt>
      <trkpt lat="61.029948" lon="14.381104">
        <ele>219.182</ele>
        <time>1970-01-01T01:00:00Z</time>
      </trkpt>
      <trkpt lat="61.029851" lon="14.381071">
        <ele>219.273</ele>
        <time>1970-01-01T01:00:00Z</time>
      </trkpt>
      <trkpt lat="61.02976" lon="14.381033">
        <ele>219.364</ele>
        <time>1970-01-01T01:00:00Z</time>
      </trkpt>
      <trkpt lat="61.029666" lon="14.380991">
        <ele>219.455</ele>
        <time>1970-01-01T01:00:00Z</time>
      </trkpt>
      <trkpt lat="61.029563" lon="14.380957">
        <ele>219.545</ele>
        <time>1970-01-01T01:00:00Z</time>
      </trkpt>
      <trkpt lat="61.029474" lon="14.380895">
        <ele>219.636</ele>
        <time>1970-01-01T01:00:00Z</time>
      </trkpt>
      <trkpt lat="61.029384" lon="14.380855">
        <ele>219.727</ele>
        <time>1970-01-01T01:00:00Z</time>
      </trkpt>
      <trkpt lat="61.029285" lon="14.380786">
        <ele>219.818</ele>
        <time>1970-01-01T01:00:00Z</time>
      </trkpt>
      <trkpt lat="61.029193" lon="14.380706">
        <ele>219.909</ele>
        <time>1970-01-01T01:00:00Z</time>
      </trkpt>
      <trkpt lat="61.029098" lon="14.380655">
        <ele>220</ele>
        <time>1970-01-01T01:00:00Z</time>
      </trkpt>
      <trkpt lat="61.029003" lon="14.380626">
        <ele>220</ele>
        <time>1970-01-01T01:00:00Z</time>
      </trkpt>
      <trkpt lat="61.028911" lon="14.380657">
        <ele>219.909</ele>
        <time>1970-01-01T01:00:00Z</time>
      </trkpt>
      <trkpt lat="61.028818" lon="14.380769">
        <ele>219.818</ele>
        <time>1970-01-01T01:00:00Z</time>
      </trkpt>
      <trkpt lat="61.028763" lon="14.380922">
        <ele>219.727</ele>
        <time>1970-01-01T01:00:00Z</time>
      </trkpt>
      <trkpt lat="61.028686" lon="14.381092">
        <ele>219.636</ele>
        <time>1970-01-01T01:00:00Z</time>
      </trkpt>
      <trkpt lat="61.028611" lon="14.381252">
        <ele>219.545</ele>
        <time>1970-01-01T01:00:00Z</time>
      </trkpt>
      <trkpt lat="61.028536" lon="14.381401">
        <ele>219.455</ele>
        <time>1970-01-01T01:00:00Z</time>
      </trkpt>
      <trkpt lat="61.028464" lon="14.381513">
        <ele>219.364</ele>
        <time>1970-01-01T01:00:00Z</time>
      </trkpt>
      <trkpt lat="61.028368" lon="14.38165">
        <ele>219.273</ele>
        <time>1970-01-01T01:00:00Z</time>
      </trkpt>
      <trkpt lat="61.028294" lon="14.381765">
        <ele>219.273</ele>
        <time>1970-01-01T01:00:00Z</time>
      </trkpt>
      <trkpt lat="61.028218" lon="14.381884">
        <ele>219.273</ele>
        <time>1970-01-01T01:00:00Z</time>
      </trkpt>
      <trkpt lat="61.028126" lon="14.382027">
        <ele>219.273</ele>
        <time>1970-01-01T01:00:00Z</time>
      </trkpt>
      <trkpt lat="61.028034" lon="14.382156">
        <ele>219.364</ele>
        <time>1970-01-01T01:00:00Z</time>
      </trkpt>
      <trkpt lat="61.027957" lon="14.382274">
        <ele>219.455</ele>
        <time>1970-01-01T01:00:00Z</time>
      </trkpt>
      <trkpt lat="61.027879" lon="14.382394">
        <ele>219.545</ele>
        <time>1970-01-01T01:00:00Z</time>
      </trkpt>
      <trkpt lat="61.027803" lon="14.382527">
        <ele>219.636</ele>
        <time>1970-01-01T01:00:00Z</time>
      </trkpt>
      <trkpt lat="61.027716" lon="14.382655">
        <ele>219.727</ele>
        <time>1970-01-01T01:00:00Z</time>
      </trkpt>
      <trkpt lat="61.027633" lon="14.382785">
        <ele>219.818</ele>
        <time>1970-01-01T01:00:00Z</time>
      </trkpt>
      <trkpt lat="61.027548" lon="14.382925">
        <ele>219.909</ele>
        <time>1970-01-01T01:00:00Z</time>
      </trkpt>
      <trkpt lat="61.027476" lon="14.38304">
        <ele>220.182</ele>
        <time>1970-01-01T01:00:00Z</time>
      </trkpt>
      <trkpt lat="61.027393" lon="14.383158">
        <ele>220.364</ele>
        <time>1970-01-01T01:00:00Z</time>
      </trkpt>
      <trkpt lat="61.027314" lon="14.383273">
        <ele>220.545</ele>
        <time>1970-01-01T01:00:00Z</time>
      </trkpt>
      <trkpt lat="61.02724" lon="14.383385">
        <ele>220.545</ele>
        <time>1970-01-01T01:00:00Z</time>
      </trkpt>
      <trkpt lat="61.027141" lon="14.383513">
        <ele>220.545</ele>
        <time>1970-01-01T01:00:00Z</time>
      </trkpt>
      <trkpt lat="61.027054" lon="14.383638">
        <ele>220.545</ele>
        <time>1970-01-01T01:00:00Z</time>
      </trkpt>
      <trkpt lat="61.026973" lon="14.38375">
        <ele>220.545</ele>
        <time>1970-01-01T01:00:00Z</time>
      </trkpt>
      <trkpt lat="61.026887" lon="14.383847">
        <ele>220.545</ele>
        <time>1970-01-01T01:00:00Z</time>
      </trkpt>
      <trkpt lat="61.026799" lon="14.383951">
        <ele>220.545</ele>
        <time>1970-01-01T01:00:00Z</time>
      </trkpt>
      <trkpt lat="61.026714" lon="14.384057">
        <ele>220.455</ele>
        <time>1970-01-01T01:00:00Z</time>
      </trkpt>
      <trkpt lat="61.026626" lon="14.384156">
        <ele>220.364</ele>
        <time>1970-01-01T01:00:00Z</time>
      </trkpt>
      <trkpt lat="61.026546" lon="14.384273">
        <ele>220.182</ele>
        <time>1970-01-01T01:00:00Z</time>
      </trkpt>
      <trkpt lat="61.026466" lon="14.384414">
        <ele>220</ele>
        <time>1970-01-01T01:00:00Z</time>
      </trkpt>
      <trkpt lat="61.026389" lon="14.384555">
        <ele>219.818</ele>
        <time>1970-01-01T01:00:00Z</time>
      </trkpt>
      <trkpt lat="61.026325" lon="14.384699">
        <ele>219.727</ele>
        <time>1970-01-01T01:00:00Z</time>
      </trkpt>
      <trkpt lat="61.026274" lon="14.384857">
        <ele>219.636</ele>
        <time>1970-01-01T01:00:00Z</time>
      </trkpt>
      <trkpt lat="61.026236" lon="14.385027">
        <ele>219.545</ele>
        <time>1970-01-01T01:00:00Z</time>
      </trkpt>
      <trkpt lat="61.026185" lon="14.385212">
        <ele>219.455</ele>
        <time>1970-01-01T01:00:00Z</time>
      </trkpt>
      <trkpt lat="61.026137" lon="14.385388">
        <ele>219.364</ele>
        <time>1970-01-01T01:00:00Z</time>
      </trkpt>
      <trkpt lat="61.026095" lon="14.385586">
        <ele>219.273</ele>
        <time>1970-01-01T01:00:00Z</time>
      </trkpt>
      <trkpt lat="61.026044" lon="14.385792">
        <ele>219.273</ele>
        <time>1970-01-01T01:00:00Z</time>
      </trkpt>
      <trkpt lat="61.025994" lon="14.385993">
        <ele>219.273</ele>
        <time>1970-01-01T01:00:00Z</time>
      </trkpt>
      <trkpt lat="61.025952" lon="14.386171">
        <ele>219.182</ele>
        <time>1970-01-01T01:00:00Z</time>
      </trkpt>
      <trkpt lat="61.025923" lon="14.386378">
        <ele>219.091</ele>
        <time>1970-01-01T01:00:00Z</time>
      </trkpt>
      <trkpt lat="61.025885" lon="14.386561">
        <ele>219</ele>
        <time>1970-01-01T01:00:00Z</time>
      </trkpt>
      <trkpt lat="61.025836" lon="14.386737">
        <ele>219</ele>
        <time>1970-01-01T01:00:00Z</time>
      </trkpt>
      <trkpt lat="61.025777" lon="14.386898">
        <ele>219</ele>
        <time>1970-01-01T01:00:00Z</time>
      </trkpt>
      <trkpt lat="61.025707" lon="14.38704">
        <ele>219</ele>
        <time>1970-01-01T01:00:00Z</time>
      </trkpt>
      <trkpt lat="61.025621" lon="14.387161">
        <ele>219</ele>
        <time>1970-01-01T01:00:00Z</time>
      </trkpt>
      <trkpt lat="61.025535" lon="14.387235">
        <ele>219</ele>
        <time>1970-01-01T01:00:00Z</time>
      </trkpt>
      <trkpt lat="61.025424" lon="14.387329">
        <ele>219.091</ele>
        <time>1970-01-01T01:00:00Z</time>
      </trkpt>
      <trkpt lat="61.025337" lon="14.387421">
        <ele>219.182</ele>
        <time>1970-01-01T01:00:00Z</time>
      </trkpt>
      <trkpt lat="61.025251" lon="14.387568">
        <ele>219.273</ele>
        <time>1970-01-01T01:00:00Z</time>
      </trkpt>
      <trkpt lat="61.025178" lon="14.387734">
        <ele>219.364</ele>
        <time>1970-01-01T01:00:00Z</time>
      </trkpt>
      <trkpt lat="61.025105" lon="14.387892">
        <ele>219.455</ele>
        <time>1970-01-01T01:00:00Z</time>
      </trkpt>
      <trkpt lat="61.025024" lon="14.388028">
        <ele>219.545</ele>
        <time>1970-01-01T01:00:00Z</time>
      </trkpt>
      <trkpt lat="61.024944" lon="14.388144">
        <ele>219.636</ele>
        <time>1970-01-01T01:00:00Z</time>
      </trkpt>
      <trkpt lat="61.024855" lon="14.388261">
        <ele>219.727</ele>
        <time>1970-01-01T01:00:00Z</time>
      </trkpt>
      <trkpt lat="61.024764" lon="14.388351">
        <ele>219.818</ele>
        <time>1970-01-01T01:00:00Z</time>
      </trkpt>
      <trkpt lat="61.024674" lon="14.388392">
        <ele>219.909</ele>
        <time>1970-01-01T01:00:00Z</time>
      </trkpt>
      <trkpt lat="61.02458" lon="14.388425">
        <ele>220</ele>
        <time>1970-01-01T01:00:00Z</time>
      </trkpt>
      <trkpt lat="61.024488" lon="14.388466">
        <ele>220</ele>
        <time>1970-01-01T01:00:00Z</time>
      </trkpt>
      <trkpt lat="61.024385" lon="14.388488">
        <ele>220</ele>
        <time>1970-01-01T01:00:00Z</time>
      </trkpt>
      <trkpt lat="61.02429" lon="14.388516">
        <ele>220</ele>
        <time>1970-01-01T01:00:00Z</time>
      </trkpt>
      <trkpt lat="61.024188" lon="14.38856">
        <ele>220</ele>
        <time>1970-01-01T01:00:00Z</time>
      </trkpt>
      <trkpt lat="61.024096" lon="14.388615">
        <ele>220</ele>
        <time>1970-01-01T01:00:00Z</time>
      </trkpt>
      <trkpt lat="61.024002" lon="14.388692">
        <ele>220</ele>
        <time>1970-01-01T01:00:00Z</time>
      </trkpt>
      <trkpt lat="61.023915" lon="14.388758">
        <ele>220</ele>
        <time>1970-01-01T01:00:00Z</time>
      </trkpt>
      <trkpt lat="61.023809" lon="14.388823">
        <ele>220</ele>
        <time>1970-01-01T01:00:00Z</time>
      </trkpt>
      <trkpt lat="61.023717" lon="14.388878">
        <ele>220</ele>
        <time>1970-01-01T01:00:00Z</time>
      </trkpt>
      <trkpt lat="61.023626" lon="14.388937">
        <ele>220</ele>
        <time>1970-01-01T01:00:00Z</time>
      </trkpt>
      <trkpt lat="61.023536" lon="14.389">
        <ele>220</ele>
        <time>1970-01-01T01:00:00Z</time>
      </trkpt>
      <trkpt lat="61.023445" lon="14.389058">
        <ele>220</ele>
        <time>1970-01-01T01:00:00Z</time>
      </trkpt>
      <trkpt lat="61.023355" lon="14.389111">
        <ele>220</ele>
        <time>1970-01-01T01:00:00Z</time>
      </trkpt>
      <trkpt lat="61.023244" lon="14.389178">
        <ele>220</ele>
        <time>1970-01-01T01:00:00Z</time>
      </trkpt>
      <trkpt lat="61.023142" lon="14.38923">
        <ele>220</ele>
        <time>1970-01-01T01:00:00Z</time>
      </trkpt>
      <trkpt lat="61.023043" lon="14.38927">
        <ele>220</ele>
        <time>1970-01-01T01:00:00Z</time>
      </trkpt>
      <trkpt lat="61.022931" lon="14.389322">
        <ele>219.909</ele>
        <time>1970-01-01T01:00:00Z</time>
      </trkpt>
      <trkpt lat="61.02282" lon="14.389384">
        <ele>219.818</ele>
        <time>1970-01-01T01:00:00Z</time>
      </trkpt>
      <trkpt lat="61.022708" lon="14.389448">
        <ele>219.727</ele>
        <time>1970-01-01T01:00:00Z</time>
      </trkpt>
      <trkpt lat="61.022614" lon="14.389526">
        <ele>219.636</ele>
        <time>1970-01-01T01:00:00Z</time>
      </trkpt>
      <trkpt lat="61.022525" lon="14.389602">
        <ele>219.636</ele>
        <time>1970-01-01T01:00:00Z</time>
      </trkpt>
      <trkpt lat="61.022442" lon="14.389682">
        <ele>219.636</ele>
        <time>1970-01-01T01:00:00Z</time>
      </trkpt>
      <trkpt lat="61.022351" lon="14.38978">
        <ele>219.636</ele>
        <time>1970-01-01T01:00:00Z</time>
      </trkpt>
      <trkpt lat="61.022262" lon="14.389828">
        <ele>219.636</ele>
        <time>1970-01-01T01:00:00Z</time>
      </trkpt>
      <trkpt lat="61.022178" lon="14.389934">
        <ele>219.636</ele>
        <time>1970-01-01T01:00:00Z</time>
      </trkpt>
      <trkpt lat="61.022087" lon="14.390016">
        <ele>219.545</ele>
        <time>1970-01-01T01:00:00Z</time>
      </trkpt>
      <trkpt lat="61.022" lon="14.390114">
        <ele>219.455</ele>
        <time>1970-01-01T01:00:00Z</time>
      </trkpt>
      <trkpt lat="61.021905" lon="14.390221">
        <ele>219.455</ele>
        <time>1970-01-01T01:00:00Z</time>
      </trkpt>
      <trkpt lat="61.021811" lon="14.390307">
        <ele>219.455</ele>
        <time>1970-01-01T01:00:00Z</time>
      </trkpt>
      <trkpt lat="61.021727" lon="14.390407">
        <ele>219.455</ele>
        <time>1970-01-01T01:00:00Z</time>
      </trkpt>
      <trkpt lat="61.021629" lon="14.390504">
        <ele>219.455</ele>
        <time>1970-01-01T01:00:00Z</time>
      </trkpt>
      <trkpt lat="61.021543" lon="14.390592">
        <ele>219.364</ele>
        <time>1970-01-01T01:00:00Z</time>
      </trkpt>
      <trkpt lat="61.021462" lon="14.390715">
        <ele>219.273</ele>
        <time>1970-01-01T01:00:00Z</time>
      </trkpt>
      <trkpt lat="61.021381" lon="14.390858">
        <ele>219.182</ele>
        <time>1970-01-01T01:00:00Z</time>
      </trkpt>
      <trkpt lat="61.021301" lon="14.39097">
        <ele>219.091</ele>
        <time>1970-01-01T01:00:00Z</time>
      </trkpt>
      <trkpt lat="61.021213" lon="14.391112">
        <ele>219</ele>
        <time>1970-01-01T01:00:00Z</time>
      </trkpt>
      <trkpt lat="61.021131" lon="14.391284">
        <ele>219</ele>
        <time>1970-01-01T01:00:00Z</time>
      </trkpt>
      <trkpt lat="61.02107" lon="14.391481">
        <ele>219</ele>
        <time>1970-01-01T01:00:00Z</time>
      </trkpt>
      <trkpt lat="61.021014" lon="14.391706">
        <ele>219</ele>
        <time>1970-01-01T01:00:00Z</time>
      </trkpt>
      <trkpt lat="61.020979" lon="14.391892">
        <ele>219</ele>
        <time>1970-01-01T01:00:00Z</time>
      </trkpt>
      <trkpt lat="61.020929" lon="14.392101">
        <ele>219</ele>
        <time>1970-01-01T01:00:00Z</time>
      </trkpt>
      <trkpt lat="61.02088" lon="14.392279">
        <ele>219</ele>
        <time>1970-01-01T01:00:00Z</time>
      </trkpt>
      <trkpt lat="61.020833" lon="14.39245">
        <ele>219</ele>
        <time>1970-01-01T01:00:00Z</time>
      </trkpt>
      <trkpt lat="61.020781" lon="14.39263">
        <ele>219</ele>
        <time>1970-01-01T01:00:00Z</time>
      </trkpt>
      <trkpt lat="61.020731" lon="14.392819">
        <ele>219</ele>
        <time>1970-01-01T01:00:00Z</time>
      </trkpt>
      <trkpt lat="61.02068" lon="14.393024">
        <ele>219</ele>
        <time>1970-01-01T01:00:00Z</time>
      </trkpt>
      <trkpt lat="61.020633" lon="14.393208">
        <ele>218.909</ele>
        <time>1970-01-01T01:00:00Z</time>
      </trkpt>
      <trkpt lat="61.020586" lon="14.393426">
        <ele>218.818</ele>
        <time>1970-01-01T01:00:00Z</time>
      </trkpt>
      <trkpt lat="61.020541" lon="14.393628">
        <ele>218.727</ele>
        <time>1970-01-01T01:00:00Z</time>
      </trkpt>
      <trkpt lat="61.020502" lon="14.393803">
        <ele>218.636</ele>
        <time>1970-01-01T01:00:00Z</time>
      </trkpt>
      <trkpt lat="61.020463" lon="14.394013">
        <ele>218.545</ele>
        <time>1970-01-01T01:00:00Z</time>
      </trkpt>
      <trkpt lat="61.020418" lon="14.39423">
        <ele>218.455</ele>
        <time>1970-01-01T01:00:00Z</time>
      </trkpt>
      <trkpt lat="61.02039" lon="14.394419">
        <ele>218.364</ele>
        <time>1970-01-01T01:00:00Z</time>
      </trkpt>
      <trkpt lat="61.020376" lon="14.394604">
        <ele>218.273</ele>
        <time>1970-01-01T01:00:00Z</time>
      </trkpt>
      <trkpt lat="61.020367" lon="14.394803">
        <ele>218.182</ele>
        <time>1970-01-01T01:00:00Z</time>
      </trkpt>
      <trkpt lat="61.020369" lon="14.394996">
        <ele>218.091</ele>
        <time>1970-01-01T01:00:00Z</time>
      </trkpt>
      <trkpt lat="61.020378" lon="14.395231">
        <ele>218</ele>
        <time>1970-01-01T01:00:00Z</time>
      </trkpt>
      <trkpt lat="61.020384" lon="14.395434">
        <ele>218</ele>
        <time>1970-01-01T01:00:00Z</time>
      </trkpt>
      <trkpt lat="61.020385" lon="14.395662">
        <ele>218</ele>
        <time>1970-01-01T01:00:00Z</time>
      </trkpt>
      <trkpt lat="61.020388" lon="14.395876">
        <ele>218</ele>
        <time>1970-01-01T01:00:00Z</time>
      </trkpt>
      <trkpt lat="61.020381" lon="14.396164">
        <ele>218</ele>
        <time>1970-01-01T01:00:00Z</time>
      </trkpt>
      <trkpt lat="61.020394" lon="14.396403">
        <ele>218.091</ele>
        <time>1970-01-01T01:00:00Z</time>
      </trkpt>
      <trkpt lat="61.020414" lon="14.396634">
        <ele>218.182</ele>
        <time>1970-01-01T01:00:00Z</time>
      </trkpt>
      <trkpt lat="61.020432" lon="14.396854">
        <ele>218.273</ele>
        <time>1970-01-01T01:00:00Z</time>
      </trkpt>
      <trkpt lat="61.020439" lon="14.397061">
        <ele>218.364</ele>
        <time>1970-01-01T01:00:00Z</time>
      </trkpt>
      <trkpt lat="61.020451" lon="14.397254">
        <ele>218.455</ele>
        <time>1970-01-01T01:00:00Z</time>
      </trkpt>
      <trkpt lat="61.020463" lon="14.397451">
        <ele>218.545</ele>
        <time>1970-01-01T01:00:00Z</time>
      </trkpt>
      <trkpt lat="61.020477" lon="14.397683">
        <ele>218.636</ele>
        <time>1970-01-01T01:00:00Z</time>
      </trkpt>
      <trkpt lat="61.020488" lon="14.397896">
        <ele>218.727</ele>
        <time>1970-01-01T01:00:00Z</time>
      </trkpt>
      <trkpt lat="61.020498" lon="14.398142">
        <ele>218.727</ele>
        <time>1970-01-01T01:00:00Z</time>
      </trkpt>
      <trkpt lat="61.020504" lon="14.39838">
        <ele>218.727</ele>
        <time>1970-01-01T01:00:00Z</time>
      </trkpt>
      <trkpt lat="61.020501" lon="14.398617">
        <ele>218.727</ele>
        <time>1970-01-01T01:00:00Z</time>
      </trkpt>
      <trkpt lat="61.02049" lon="14.398863">
        <ele>218.636</ele>
        <time>1970-01-01T01:00:00Z</time>
      </trkpt>
      <trkpt lat="61.020468" lon="14.399098">
        <ele>218.545</ele>
        <time>1970-01-01T01:00:00Z</time>
      </trkpt>
      <trkpt lat="61.020434" lon="14.399321">
        <ele>218.455</ele>
        <time>1970-01-01T01:00:00Z</time>
      </trkpt>
      <trkpt lat="61.02038" lon="14.399537">
        <ele>218.364</ele>
        <time>1970-01-01T01:00:00Z</time>
      </trkpt>
      <trkpt lat="61.020326" lon="14.399711">
        <ele>218.273</ele>
        <time>1970-01-01T01:00:00Z</time>
      </trkpt>
      <trkpt lat="61.02026" lon="14.399899">
        <ele>218.273</ele>
        <time>1970-01-01T01:00:00Z</time>
      </trkpt>
      <trkpt lat="61.020187" lon="14.400027">
        <ele>218.273</ele>
        <time>1970-01-01T01:00:00Z</time>
      </trkpt>
      <trkpt lat="61.020104" lon="14.400108">
        <ele>218.273</ele>
        <time>1970-01-01T01:00:00Z</time>
      </trkpt>
      <trkpt lat="61.020026" lon="14.400212">
        <ele>218.364</ele>
        <time>1970-01-01T01:00:00Z</time>
      </trkpt>
      <trkpt lat="61.019959" lon="14.40035">
        <ele>218.364</ele>
        <time>1970-01-01T01:00:00Z</time>
      </trkpt>
      <trkpt lat="61.019883" lon="14.40053">
        <ele>218.364</ele>
        <time>1970-01-01T01:00:00Z</time>
      </trkpt>
      <trkpt lat="61.019814" lon="14.400706">
        <ele>218.364</ele>
        <time>1970-01-01T01:00:00Z</time>
      </trkpt>
      <trkpt lat="61.019745" lon="14.400872">
        <ele>218.364</ele>
        <time>1970-01-01T01:00:00Z</time>
      </trkpt>
      <trkpt lat="61.019681" lon="14.40104">
        <ele>218.364</ele>
        <time>1970-01-01T01:00:00Z</time>
      </trkpt>
      <trkpt lat="61.019615" lon="14.401208">
        <ele>218.364</ele>
        <time>1970-01-01T01:00:00Z</time>
      </trkpt>
      <trkpt lat="61.019551" lon="14.40136">
        <ele>218.364</ele>
        <time>1970-01-01T01:00:00Z</time>
      </trkpt>
      <trkpt lat="61.019486" lon="14.401549">
        <ele>218.273</ele>
        <time>1970-01-01T01:00:00Z</time>
      </trkpt>
      <trkpt lat="61.019436" lon="14.40172">
        <ele>218.182</ele>
        <time>1970-01-01T01:00:00Z</time>
      </trkpt>
      <trkpt lat="61.019367" lon="14.401895">
        <ele>218.091</ele>
        <time>1970-01-01T01:00:00Z</time>
      </trkpt>
      <trkpt lat="61.019309" lon="14.402039">
        <ele>218</ele>
        <time>1970-01-01T01:00:00Z</time>
      </trkpt>
      <trkpt lat="61.019254" lon="14.40222">
        <ele>218.091</ele>
        <time>1970-01-01T01:00:00Z</time>
      </trkpt>
      <trkpt lat="61.019189" lon="14.402373">
        <ele>218.182</ele>
        <time>1970-01-01T01:00:00Z</time>
      </trkpt>
      <trkpt lat="61.019128" lon="14.402531">
        <ele>218.273</ele>
        <time>1970-01-01T01:00:00Z</time>
      </trkpt>
      <trkpt lat="61.019068" lon="14.402692">
        <ele>218.273</ele>
        <time>1970-01-01T01:00:00Z</time>
      </trkpt>
      <trkpt lat="61.01901" lon="14.402887">
        <ele>218.273</ele>
        <time>1970-01-01T01:00:00Z</time>
      </trkpt>
      <trkpt lat="61.018949" lon="14.403068">
        <ele>218.273</ele>
        <time>1970-01-01T01:00:00Z</time>
      </trkpt>
      <trkpt lat="61.018882" lon="14.403245">
        <ele>218.273</ele>
        <time>1970-01-01T01:00:00Z</time>
      </trkpt>
      <trkpt lat="61.018829" lon="14.40341">
        <ele>218.273</ele>
        <time>1970-01-01T01:00:00Z</time>
      </trkpt>
      <trkpt lat="61.018772" lon="14.403589">
        <ele>218.273</ele>
        <time>1970-01-01T01:00:00Z</time>
      </trkpt>
      <trkpt lat="61.018702" lon="14.403741">
        <ele>218.273</ele>
        <time>1970-01-01T01:00:00Z</time>
      </trkpt>
      <trkpt lat="61.018642" lon="14.40391">
        <ele>218.273</ele>
        <time>1970-01-01T01:00:00Z</time>
      </trkpt>
      <trkpt lat="61.018582" lon="14.404097">
        <ele>218.182</ele>
        <time>1970-01-01T01:00:00Z</time>
      </trkpt>
      <trkpt lat="61.01853" lon="14.404261">
        <ele>218.091</ele>
        <time>1970-01-01T01:00:00Z</time>
      </trkpt>
      <trkpt lat="61.01847" lon="14.404425">
        <ele>218</ele>
        <time>1970-01-01T01:00:00Z</time>
      </trkpt>
      <trkpt lat="61.018419" lon="14.404608">
        <ele>218</ele>
        <time>1970-01-01T01:00:00Z</time>
      </trkpt>
      <trkpt lat="61.01839" lon="14.404791">
        <ele>218</ele>
        <time>1970-01-01T01:00:00Z</time>
      </trkpt>
      <trkpt lat="61.01835" lon="14.404958">
        <ele>218</ele>
        <time>1970-01-01T01:00:00Z</time>
      </trkpt>
      <trkpt lat="61.018315" lon="14.405135">
        <ele>218</ele>
        <time>1970-01-01T01:00:00Z</time>
      </trkpt>
      <trkpt lat="61.018265" lon="14.405289">
        <ele>218</ele>
        <time>1970-01-01T01:00:00Z</time>
      </trkpt>
      <trkpt lat="61.018214" lon="14.40547">
        <ele>218</ele>
        <time>1970-01-01T01:00:00Z</time>
      </trkpt>
      <trkpt lat="61.018165" lon="14.405649">
        <ele>218</ele>
        <time>1970-01-01T01:00:00Z</time>
      </trkpt>
      <trkpt lat="61.018109" lon="14.405847">
        <ele>218</ele>
        <time>1970-01-01T01:00:00Z</time>
      </trkpt>
      <trkpt lat="61.018051" lon="14.406039">
        <ele>218</ele>
        <time>1970-01-01T01:00:00Z</time>
      </trkpt>
      <trkpt lat="61.017998" lon="14.406206">
        <ele>218</ele>
        <time>1970-01-01T01:00:00Z</time>
      </trkpt>
      <trkpt lat="61.017951" lon="14.406389">
        <ele>218</ele>
        <time>1970-01-01T01:00:00Z</time>
      </trkpt>
      <trkpt lat="61.017886" lon="14.406558">
        <ele>218</ele>
        <time>1970-01-01T01:00:00Z</time>
      </trkpt>
      <trkpt lat="61.017837" lon="14.406718">
        <ele>218</ele>
        <time>1970-01-01T01:00:00Z</time>
      </trkpt>
      <trkpt lat="61.017836" lon="14.406924">
        <ele>218</ele>
        <time>1970-01-01T01:00:00Z</time>
      </trkpt>
      <trkpt lat="61.017891" lon="14.407103">
        <ele>218</ele>
        <time>1970-01-01T01:00:00Z</time>
      </trkpt>
      <trkpt lat="61.017951" lon="14.407246">
        <ele>218</ele>
        <time>1970-01-01T01:00:00Z</time>
      </trkpt>
      <trkpt lat="61.018032" lon="14.407372">
        <ele>218.091</ele>
        <time>1970-01-01T01:00:00Z</time>
      </trkpt>
      <trkpt lat="61.018112" lon="14.407484">
        <ele>218.182</ele>
        <time>1970-01-01T01:00:00Z</time>
      </trkpt>
      <trkpt lat="61.018195" lon="14.407633">
        <ele>218.273</ele>
        <time>1970-01-01T01:00:00Z</time>
      </trkpt>
      <trkpt lat="61.018272" lon="14.40778">
        <ele>218.364</ele>
        <time>1970-01-01T01:00:00Z</time>
      </trkpt>
      <trkpt lat="61.018337" lon="14.407913">
        <ele>218.455</ele>
        <time>1970-01-01T01:00:00Z</time>
      </trkpt>
      <trkpt lat="61.018403" lon="14.408068">
        <ele>218.545</ele>
        <time>1970-01-01T01:00:00Z</time>
      </trkpt>
      <trkpt lat="61.018442" lon="14.408244">
        <ele>218.636</ele>
        <time>1970-01-01T01:00:00Z</time>
      </trkpt>
      <trkpt lat="61.018417" lon="14.408447">
        <ele>218.727</ele>
        <time>1970-01-01T01:00:00Z</time>
      </trkpt>
      <trkpt lat="61.018378" lon="14.408641">
        <ele>218.818</ele>
        <time>1970-01-01T01:00:00Z</time>
      </trkpt>
      <trkpt lat="61.01835" lon="14.408848">
        <ele>218.909</ele>
        <time>1970-01-01T01:00:00Z</time>
      </trkpt>
      <trkpt lat="61.018331" lon="14.40903">
        <ele>219</ele>
        <time>1970-01-01T01:00:00Z</time>
      </trkpt>
      <trkpt lat="61.018269" lon="14.409182">
        <ele>218.909</ele>
        <time>1970-01-01T01:00:00Z</time>
      </trkpt>
      <trkpt lat="61.018185" lon="14.409302">
        <ele>218.818</ele>
        <time>1970-01-01T01:00:00Z</time>
      </trkpt>
      <trkpt lat="61.01811" lon="14.409465">
        <ele>218.727</ele>
        <time>1970-01-01T01:00:00Z</time>
      </trkpt>
      <trkpt lat="61.018039" lon="14.409626">
        <ele>218.636</ele>
        <time>1970-01-01T01:00:00Z</time>
      </trkpt>
      <trkpt lat="61.017965" lon="14.409804">
        <ele>218.636</ele>
        <time>1970-01-01T01:00:00Z</time>
      </trkpt>
      <trkpt lat="61.017887" lon="14.409962">
        <ele>218.636</ele>
        <time>1970-01-01T01:00:00Z</time>
      </trkpt>
      <trkpt lat="61.017815" lon="14.410103">
        <ele>218.636</ele>
        <time>1970-01-01T01:00:00Z</time>
      </trkpt>
      <trkpt lat="61.017737" lon="14.410235">
        <ele>218.636</ele>
        <time>1970-01-01T01:00:00Z</time>
      </trkpt>
      <trkpt lat="61.017653" lon="14.410404">
        <ele>218.636</ele>
        <time>1970-01-01T01:00:00Z</time>
      </trkpt>
      <trkpt lat="61.017548" lon="14.41058">
        <ele>218.545</ele>
        <time>1970-01-01T01:00:00Z</time>
      </trkpt>
      <trkpt lat="61.017438" lon="14.410841">
        <ele>218.455</ele>
        <time>1970-01-01T01:00:00Z</time>
      </trkpt>
      <trkpt lat="61.017351" lon="14.410973">
        <ele>218.455</ele>
        <time>1970-01-01T01:00:00Z</time>
      </trkpt>
      <trkpt lat="61.017262" lon="14.411126">
        <ele>218.455</ele>
        <time>1970-01-01T01:00:00Z</time>
      </trkpt>
      <trkpt lat="61.017185" lon="14.411257">
        <ele>218.455</ele>
        <time>1970-01-01T01:00:00Z</time>
      </trkpt>
      <trkpt lat="61.017081" lon="14.411396">
        <ele>218.5</ele>
        <time>1970-01-01T01:00:00Z</time>
      </trkpt>
      <trkpt lat="61.01698" lon="14.411497">
        <ele>218.444</ele>
        <time>1970-01-01T01:00:00Z</time>
      </trkpt>
      <trkpt lat="61.016882" lon="14.411601">
        <ele>218.375</ele>
        <time>1970-01-01T01:00:00Z</time>
      </trkpt>
      <trkpt lat="61.016795" lon="14.411706">
        <ele>218.286</ele>
        <time>1970-01-01T01:00:00Z</time>
      </trkpt>
      <trkpt lat="61.016743" lon="14.411783">
        <ele>218.167</ele>
        <time>1970-01-01T01:00:00Z</time>
      </trkpt>
      <trkpt lat="61.016655" lon="14.411744">
        <ele>218</ele>
        <time>1970-01-01T01:00:00Z</time>
      </trkpt>
      <trkpt lat="61.016608" lon="14.411794">
        <ele>218</ele>
        <time>1970-01-01T01:00:00Z</time>
      </trkpt>
      <trkpt lat="61.016698" lon="14.411797">
        <ele>218</ele>
        <time>1970-01-01T01:00:00Z</time>
      </trkpt>
      <trkpt lat="61.016696" lon="14.411803">
        <ele>218</ele>
        <time>1970-01-01T01:00:00Z</time>
      </trkpt>
      <trkpt lat="61.016595" lon="14.411814">
        <ele>217</ele>
        <time>1970-01-01T01:00:00Z</time>
      </trkpt>
      <trkpt lat="61.016499" lon="14.41175">
        <ele>216.714</ele>
        <time>1970-01-01T01:00:00Z</time>
      </trkpt>
      <trkpt lat="61.016404" lon="14.411688">
        <ele>216.5</ele>
        <time>1970-01-01T01:00:00Z</time>
      </trkpt>
      <trkpt lat="61.016304" lon="14.411587">
        <ele>216.333</ele>
        <time>1970-01-01T01:00:00Z</time>
      </trkpt>
      <trkpt lat="61.01623" lon="14.411467">
        <ele>216.2</ele>
        <time>1970-01-01T01:00:00Z</time>
      </trkpt>
      <trkpt lat="61.016155" lon="14.411323">
        <ele>216.091</ele>
        <time>1970-01-01T01:00:00Z</time>
      </trkpt>
      <trkpt lat="61.016084" lon="14.411204">
        <ele>215.818</ele>
        <time>1970-01-01T01:00:00Z</time>
      </trkpt>
      <trkpt lat="61.016017" lon="14.411078">
        <ele>215.545</ele>
        <time>1970-01-01T01:00:00Z</time>
      </trkpt>
      <trkpt lat="61.015961" lon="14.41091">
        <ele>215.273</ele>
        <time>1970-01-01T01:00:00Z</time>
      </trkpt>
      <trkpt lat="61.015909" lon="14.41076">
        <ele>214.818</ele>
        <time>1970-01-01T01:00:00Z</time>
      </trkpt>
      <trkpt lat="61.015822" lon="14.410669">
        <ele>214.636</ele>
        <time>1970-01-01T01:00:00Z</time>
      </trkpt>
      <trkpt lat="61.015734" lon="14.410624">
        <ele>214.455</ele>
        <time>1970-01-01T01:00:00Z</time>
      </trkpt>
      <trkpt lat="61.015637" lon="14.410595">
        <ele>214.273</ele>
        <time>1970-01-01T01:00:00Z</time>
      </trkpt>
      <trkpt lat="61.015537" lon="14.410578">
        <ele>214.091</ele>
        <time>1970-01-01T01:00:00Z</time>
      </trkpt>
      <trkpt lat="61.015425" lon="14.410566">
        <ele>213.909</ele>
        <time>1970-01-01T01:00:00Z</time>
      </trkpt>
      <trkpt lat="61.015312" lon="14.41055">
        <ele>213.727</ele>
        <time>1970-01-01T01:00:00Z</time>
      </trkpt>
      <trkpt lat="61.015204" lon="14.410543">
        <ele>213.545</ele>
        <time>1970-01-01T01:00:00Z</time>
      </trkpt>
      <trkpt lat="61.015112" lon="14.410564">
        <ele>213.364</ele>
        <time>1970-01-01T01:00:00Z</time>
      </trkpt>
      <trkpt lat="61.015029" lon="14.410643">
        <ele>213.182</ele>
        <time>1970-01-01T01:00:00Z</time>
      </trkpt>
      <trkpt lat="61.014966" lon="14.410802">
        <ele>213</ele>
        <time>1970-01-01T01:00:00Z</time>
      </trkpt>
      <trkpt lat="61.014958" lon="14.41104">
        <ele>213</ele>
        <time>1970-01-01T01:00:00Z</time>
      </trkpt>
      <trkpt lat="61.014969" lon="14.411225">
        <ele>213</ele>
        <time>1970-01-01T01:00:00Z</time>
      </trkpt>
      <trkpt lat="61.014971" lon="14.411416">
        <ele>212.909</ele>
        <time>1970-01-01T01:00:00Z</time>
      </trkpt>
      <trkpt lat="61.014981" lon="14.41161">
        <ele>212.818</ele>
        <time>1970-01-01T01:00:00Z</time>
      </trkpt>
      <trkpt lat="61.014996" lon="14.411794">
        <ele>212.727</ele>
        <time>1970-01-01T01:00:00Z</time>
      </trkpt>
      <trkpt lat="61.015006" lon="14.412004">
        <ele>212.636</ele>
        <time>1970-01-01T01:00:00Z</time>
      </trkpt>
      <trkpt lat="61.015009" lon="14.412206">
        <ele>212.455</ele>
        <time>1970-01-01T01:00:00Z</time>
      </trkpt>
      <trkpt lat="61.015016" lon="14.41242">
        <ele>212.273</ele>
        <time>1970-01-01T01:00:00Z</time>
      </trkpt>
      <trkpt lat="61.015018" lon="14.412612">
        <ele>212.091</ele>
        <time>1970-01-01T01:00:00Z</time>
      </trkpt>
      <trkpt lat="61.015018" lon="14.412799">
        <ele>211.909</ele>
        <time>1970-01-01T01:00:00Z</time>
      </trkpt>
      <trkpt lat="61.015021" lon="14.412988">
        <ele>211.636</ele>
        <time>1970-01-01T01:00:00Z</time>
      </trkpt>
      <trkpt lat="61.01502" lon="14.413182">
        <ele>211.364</ele>
        <time>1970-01-01T01:00:00Z</time>
      </trkpt>
      <trkpt lat="61.015028" lon="14.413384">
        <ele>211</ele>
        <time>1970-01-01T01:00:00Z</time>
      </trkpt>
      <trkpt lat="61.015023" lon="14.4136">
        <ele>210.727</ele>
        <time>1970-01-01T01:00:00Z</time>
      </trkpt>
      <trkpt lat="61.015015" lon="14.41383">
        <ele>210.455</ele>
        <time>1970-01-01T01:00:00Z</time>
      </trkpt>
      <trkpt lat="61.01501" lon="14.414154">
        <ele>210.182</ele>
        <time>1970-01-01T01:00:00Z</time>
      </trkpt>
      <trkpt lat="61.015003" lon="14.414444">
        <ele>209.818</ele>
        <time>1970-01-01T01:00:00Z</time>
      </trkpt>
      <trkpt lat="61.014995" lon="14.414705">
        <ele>209.545</ele>
        <time>1970-01-01T01:00:00Z</time>
      </trkpt>
      <trkpt lat="61.014991" lon="14.414997">
        <ele>209.273</ele>
        <time>1970-01-01T01:00:00Z</time>
      </trkpt>
      <trkpt lat="61.014981" lon="14.415235">
        <ele>209</ele>
        <time>1970-01-01T01:00:00Z</time>
      </trkpt>
      <trkpt lat="61.014956" lon="14.415471">
        <ele>208.636</ele>
        <time>1970-01-01T01:00:00Z</time>
      </trkpt>
      <trkpt lat="61.014935" lon="14.415692">
        <ele>208.364</ele>
        <time>1970-01-01T01:00:00Z</time>
      </trkpt>
      <trkpt lat="61.014958" lon="14.415892">
        <ele>208.091</ele>
        <time>1970-01-01T01:00:00Z</time>
      </trkpt>
      <trkpt lat="61.014975" lon="14.416074">
        <ele>207.909</ele>
        <time>1970-01-01T01:00:00Z</time>
      </trkpt>
      <trkpt lat="61.014999" lon="14.41627">
        <ele>207.636</ele>
        <time>1970-01-01T01:00:00Z</time>
      </trkpt>
      <trkpt lat="61.015035" lon="14.416469">
        <ele>207.364</ele>
        <time>1970-01-01T01:00:00Z</time>
      </trkpt>
      <trkpt lat="61.015097" lon="14.416654">
        <ele>207.091</ele>
        <time>1970-01-01T01:00:00Z</time>
      </trkpt>
      <trkpt lat="61.015162" lon="14.416799">
        <ele>206.909</ele>
        <time>1970-01-01T01:00:00Z</time>
      </trkpt>
      <trkpt lat="61.015184" lon="14.417014">
        <ele>206.636</ele>
        <time>1970-01-01T01:00:00Z</time>
      </trkpt>
      <trkpt lat="61.015186" lon="14.417229">
        <ele>206.364</ele>
        <time>1970-01-01T01:00:00Z</time>
      </trkpt>
      <trkpt lat="61.015182" lon="14.417457">
        <ele>206.091</ele>
        <time>1970-01-01T01:00:00Z</time>
      </trkpt>
      <trkpt lat="61.015197" lon="14.417686">
        <ele>205.909</ele>
        <time>1970-01-01T01:00:00Z</time>
      </trkpt>
      <trkpt lat="61.015216" lon="14.417891">
        <ele>205.727</ele>
        <time>1970-01-01T01:00:00Z</time>
      </trkpt>
      <trkpt lat="61.015203" lon="14.418081">
        <ele>205.545</ele>
        <time>1970-01-01T01:00:00Z</time>
      </trkpt>
      <trkpt lat="61.015196" lon="14.418343">
        <ele>205.364</ele>
        <time>1970-01-01T01:00:00Z</time>
      </trkpt>
      <trkpt lat="61.015224" lon="14.418542">
        <ele>205.273</ele>
        <time>1970-01-01T01:00:00Z</time>
      </trkpt>
      <trkpt lat="61.015269" lon="14.418726">
        <ele>205.182</ele>
        <time>1970-01-01T01:00:00Z</time>
      </trkpt>
      <trkpt lat="61.015308" lon="14.418931">
        <ele>205.091</ele>
        <time>1970-01-01T01:00:00Z</time>
      </trkpt>
      <trkpt lat="61.015313" lon="14.419175">
        <ele>205</ele>
        <time>1970-01-01T01:00:00Z</time>
      </trkpt>
      <trkpt lat="61.015303" lon="14.4194">
        <ele>205</ele>
        <time>1970-01-01T01:00:00Z</time>
      </trkpt>
      <trkpt lat="61.015287" lon="14.4196">
        <ele>205</ele>
        <time>1970-01-01T01:00:00Z</time>
      </trkpt>
      <trkpt lat="61.015278" lon="14.41982">
        <ele>205</ele>
        <time>1970-01-01T01:00:00Z</time>
      </trkpt>
      <trkpt lat="61.015276" lon="14.420023">
        <ele>205</ele>
        <time>1970-01-01T01:00:00Z</time>
      </trkpt>
      <trkpt lat="61.015259" lon="14.420238">
        <ele>205</ele>
        <time>1970-01-01T01:00:00Z</time>
      </trkpt>
      <trkpt lat="61.015245" lon="14.420467">
        <ele>205</ele>
        <time>1970-01-01T01:00:00Z</time>
      </trkpt>
      <trkpt lat="61.015224" lon="14.420668">
        <ele>205</ele>
        <time>1970-01-01T01:00:00Z</time>
      </trkpt>
      <trkpt lat="61.015207" lon="14.420866">
        <ele>205</ele>
        <time>1970-01-01T01:00:00Z</time>
      </trkpt>
      <trkpt lat="61.015197" lon="14.421073">
        <ele>205</ele>
        <time>1970-01-01T01:00:00Z</time>
      </trkpt>
      <trkpt lat="61.015179" lon="14.421303">
        <ele>204.909</ele>
        <time>1970-01-01T01:00:00Z</time>
      </trkpt>
      <trkpt lat="61.015163" lon="14.421506">
        <ele>204.818</ele>
        <time>1970-01-01T01:00:00Z</time>
      </trkpt>
      <trkpt lat="61.015161" lon="14.421706">
        <ele>204.727</ele>
        <time>1970-01-01T01:00:00Z</time>
      </trkpt>
      <trkpt lat="61.015153" lon="14.421934">
        <ele>204.636</ele>
        <time>1970-01-01T01:00:00Z</time>
      </trkpt>
      <trkpt lat="61.015106" lon="14.422115">
        <ele>204.545</ele>
        <time>1970-01-01T01:00:00Z</time>
      </trkpt>
      <trkpt lat="61.01508" lon="14.422368">
        <ele>204.455</ele>
        <time>1970-01-01T01:00:00Z</time>
      </trkpt>
      <trkpt lat="61.015061" lon="14.422603">
        <ele>204.364</ele>
        <time>1970-01-01T01:00:00Z</time>
      </trkpt>
      <trkpt lat="61.015044" lon="14.422796">
        <ele>204.273</ele>
        <time>1970-01-01T01:00:00Z</time>
      </trkpt>
      <trkpt lat="61.015025" lon="14.423009">
        <ele>204.273</ele>
        <time>1970-01-01T01:00:00Z</time>
      </trkpt>
      <trkpt lat="61.015011" lon="14.423194">
        <ele>204.273</ele>
        <time>1970-01-01T01:00:00Z</time>
      </trkpt>
      <trkpt lat="61.01498" lon="14.423399">
        <ele>204.273</ele>
        <time>1970-01-01T01:00:00Z</time>
      </trkpt>
      <trkpt lat="61.014965" lon="14.423598">
        <ele>204.455</ele>
        <time>1970-01-01T01:00:00Z</time>
      </trkpt>
      <trkpt lat="61.014951" lon="14.423801">
        <ele>204.636</ele>
        <time>1970-01-01T01:00:00Z</time>
      </trkpt>
      <trkpt lat="61.014942" lon="14.42403">
        <ele>204.818</ele>
        <time>1970-01-01T01:00:00Z</time>
      </trkpt>
      <trkpt lat="61.014914" lon="14.42425">
        <ele>205</ele>
        <time>1970-01-01T01:00:00Z</time>
      </trkpt>
      <trkpt lat="61.014899" lon="14.424493">
        <ele>205.273</ele>
        <time>1970-01-01T01:00:00Z</time>
      </trkpt>
      <trkpt lat="61.014899" lon="14.424725">
        <ele>205.545</ele>
        <time>1970-01-01T01:00:00Z</time>
      </trkpt>
      <trkpt lat="61.014892" lon="14.424924">
        <ele>205.818</ele>
        <time>1970-01-01T01:00:00Z</time>
      </trkpt>
      <trkpt lat="61.014873" lon="14.425132">
        <ele>206.091</ele>
        <time>1970-01-01T01:00:00Z</time>
      </trkpt>
      <trkpt lat="61.014864" lon="14.425328">
        <ele>206.273</ele>
        <time>1970-01-01T01:00:00Z</time>
      </trkpt>
      <trkpt lat="61.014849" lon="14.425536">
        <ele>206.455</ele>
        <time>1970-01-01T01:00:00Z</time>
      </trkpt>
      <trkpt lat="61.014827" lon="14.425742">
        <ele>206.636</ele>
        <time>1970-01-01T01:00:00Z</time>
      </trkpt>
      <trkpt lat="61.014822" lon="14.425947">
        <ele>206.727</ele>
        <time>1970-01-01T01:00:00Z</time>
      </trkpt>
      <trkpt lat="61.014822" lon="14.426145">
        <ele>206.909</ele>
        <time>1970-01-01T01:00:00Z</time>
      </trkpt>
      <trkpt lat="61.014823" lon="14.426335">
        <ele>207.091</ele>
        <time>1970-01-01T01:00:00Z</time>
      </trkpt>
      <trkpt lat="61.014809" lon="14.426553">
        <ele>207.273</ele>
        <time>1970-01-01T01:00:00Z</time>
      </trkpt>
      <trkpt lat="61.014793" lon="14.426766">
        <ele>207.364</ele>
        <time>1970-01-01T01:00:00Z</time>
      </trkpt>
      <trkpt lat="61.014794" lon="14.426974">
        <ele>207.636</ele>
        <time>1970-01-01T01:00:00Z</time>
      </trkpt>
      <trkpt lat="61.014788" lon="14.427195">
        <ele>207.909</ele>
        <time>1970-01-01T01:00:00Z</time>
      </trkpt>
      <trkpt lat="61.014789" lon="14.427405">
        <ele>208.182</ele>
        <time>1970-01-01T01:00:00Z</time>
      </trkpt>
      <trkpt lat="61.014789" lon="14.427617">
        <ele>208.455</ele>
        <time>1970-01-01T01:00:00Z</time>
      </trkpt>
      <trkpt lat="61.014785" lon="14.42782">
        <ele>208.818</ele>
        <time>1970-01-01T01:00:00Z</time>
      </trkpt>
      <trkpt lat="61.014777" lon="14.428039">
        <ele>209.182</ele>
        <time>1970-01-01T01:00:00Z</time>
      </trkpt>
      <trkpt lat="61.014771" lon="14.42827">
        <ele>209.545</ele>
        <time>1970-01-01T01:00:00Z</time>
      </trkpt>
      <trkpt lat="61.01476" lon="14.428501">
        <ele>209.818</ele>
        <time>1970-01-01T01:00:00Z</time>
      </trkpt>
      <trkpt lat="61.014739" lon="14.428738">
        <ele>210.455</ele>
        <time>1970-01-01T01:00:00Z</time>
      </trkpt>
      <trkpt lat="61.014708" lon="14.42892">
        <ele>211.091</ele>
        <time>1970-01-01T01:00:00Z</time>
      </trkpt>
      <trkpt lat="61.014662" lon="14.429099">
        <ele>211.727</ele>
        <time>1970-01-01T01:00:00Z</time>
      </trkpt>
      <trkpt lat="61.014623" lon="14.429286">
        <ele>212.182</ele>
        <time>1970-01-01T01:00:00Z</time>
      </trkpt>
      <trkpt lat="61.014593" lon="14.42951">
        <ele>213.182</ele>
        <time>1970-01-01T01:00:00Z</time>
      </trkpt>
      <trkpt lat="61.014562" lon="14.429703">
        <ele>214.182</ele>
        <time>1970-01-01T01:00:00Z</time>
      </trkpt>
      <trkpt lat="61.014547" lon="14.429898">
        <ele>215.182</ele>
        <time>1970-01-01T01:00:00Z</time>
      </trkpt>
      <trkpt lat="61.014533" lon="14.430105">
        <ele>216.091</ele>
        <time>1970-01-01T01:00:00Z</time>
      </trkpt>
      <trkpt lat="61.014529" lon="14.43032">
        <ele>217</ele>
        <time>1970-01-01T01:00:00Z</time>
      </trkpt>
      <trkpt lat="61.014503" lon="14.43053">
        <ele>218</ele>
        <time>1970-01-01T01:00:00Z</time>
      </trkpt>
      <trkpt lat="61.014466" lon="14.430723">
        <ele>219</ele>
        <time>1970-01-01T01:00:00Z</time>
      </trkpt>
      <trkpt lat="61.014428" lon="14.430915">
        <ele>219.636</ele>
        <time>1970-01-01T01:00:00Z</time>
      </trkpt>
      <trkpt lat="61.014415" lon="14.431115">
        <ele>220.273</ele>
        <time>1970-01-01T01:00:00Z</time>
      </trkpt>
      <trkpt lat="61.014364" lon="14.431307">
        <ele>220.364</ele>
        <time>1970-01-01T01:00:00Z</time>
      </trkpt>
      <trkpt lat="61.014358" lon="14.431521">
        <ele>220.455</ele>
        <time>1970-01-01T01:00:00Z</time>
      </trkpt>
      <trkpt lat="61.014341" lon="14.431721">
        <ele>220</ele>
        <time>1970-01-01T01:00:00Z</time>
      </trkpt>
      <trkpt lat="61.014334" lon="14.431921">
        <ele>219.545</ele>
        <time>1970-01-01T01:00:00Z</time>
      </trkpt>
      <trkpt lat="61.014312" lon="14.432124">
        <ele>217.909</ele>
        <time>1970-01-01T01:00:00Z</time>
      </trkpt>
      <trkpt lat="61.014306" lon="14.432332">
        <ele>216.273</ele>
        <time>1970-01-01T01:00:00Z</time>
      </trkpt>
      <trkpt lat="61.014294" lon="14.432545">
        <ele>214.636</ele>
        <time>1970-01-01T01:00:00Z</time>
      </trkpt>
      <trkpt lat="61.01427" lon="14.432732">
        <ele>212.909</ele>
        <time>1970-01-01T01:00:00Z</time>
      </trkpt>
      <trkpt lat="61.014215" lon="14.432913">
        <ele>210.909</ele>
        <time>1970-01-01T01:00:00Z</time>
      </trkpt>
      <trkpt lat="61.0142" lon="14.433101">
        <ele>208.909</ele>
        <time>1970-01-01T01:00:00Z</time>
      </trkpt>
      <trkpt lat="61.014177" lon="14.433314">
        <ele>206.909</ele>
        <time>1970-01-01T01:00:00Z</time>
      </trkpt>
      <trkpt lat="61.01413" lon="14.433484">
        <ele>205.455</ele>
        <time>1970-01-01T01:00:00Z</time>
      </trkpt>
      <trkpt lat="61.014088" lon="14.433661">
        <ele>204</ele>
        <time>1970-01-01T01:00:00Z</time>
      </trkpt>
      <trkpt lat="61.01404" lon="14.43388">
        <ele>202.545</ele>
        <time>1970-01-01T01:00:00Z</time>
      </trkpt>
      <trkpt lat="61.013761" lon="14.434989">
        <ele>201.091</ele>
        <time>1970-01-01T01:00:00Z</time>
      </trkpt>
      <trkpt lat="61.013671" lon="14.435222">
        <ele>200.818</ele>
        <time>1970-01-01T01:00:00Z</time>
      </trkpt>
      <trkpt lat="61.013633" lon="14.435417">
        <ele>200.545</ele>
        <time>1970-01-01T01:00:00Z</time>
      </trkpt>
      <trkpt lat="61.013557" lon="14.435598">
        <ele>200.273</ele>
        <time>1970-01-01T01:00:00Z</time>
      </trkpt>
      <trkpt lat="61.013437" lon="14.435693">
        <ele>200</ele>
        <time>1970-01-01T01:00:00Z</time>
      </trkpt>
      <trkpt lat="61.013346" lon="14.435798">
        <ele>200</ele>
        <time>1970-01-01T01:00:00Z</time>
      </trkpt>
      <trkpt lat="61.013241" lon="14.43591">
        <ele>200</ele>
        <time>1970-01-01T01:00:00Z</time>
      </trkpt>
      <trkpt lat="61.013146" lon="14.436009">
        <ele>200</ele>
        <time>1970-01-01T01:00:00Z</time>
      </trkpt>
      <trkpt lat="61.013061" lon="14.436119">
        <ele>200</ele>
        <time>1970-01-01T01:00:00Z</time>
      </trkpt>
      <trkpt lat="61.012989" lon="14.436276">
        <ele>200</ele>
        <time>1970-01-01T01:00:00Z</time>
      </trkpt>
      <trkpt lat="61.012929" lon="14.436439">
        <ele>200</ele>
        <time>1970-01-01T01:00:00Z</time>
      </trkpt>
      <trkpt lat="61.012864" lon="14.436595">
        <ele>200</ele>
        <time>1970-01-01T01:00:00Z</time>
      </trkpt>
      <trkpt lat="61.012795" lon="14.436756">
        <ele>200</ele>
        <time>1970-01-01T01:00:00Z</time>
      </trkpt>
      <trkpt lat="61.012726" lon="14.436923">
        <ele>200</ele>
        <time>1970-01-01T01:00:00Z</time>
      </trkpt>
      <trkpt lat="61.012663" lon="14.437059">
        <ele>200</ele>
        <time>1970-01-01T01:00:00Z</time>
      </trkpt>
      <trkpt lat="61.01258" lon="14.437204">
        <ele>200</ele>
        <time>1970-01-01T01:00:00Z</time>
      </trkpt>
      <trkpt lat="61.012498" lon="14.437303">
        <ele>200</ele>
        <time>1970-01-01T01:00:00Z</time>
      </trkpt>
      <trkpt lat="61.01241" lon="14.43737">
        <ele>200</ele>
        <time>1970-01-01T01:00:00Z</time>
      </trkpt>
      <trkpt lat="61.012314" lon="14.437467">
        <ele>199.909</ele>
        <time>1970-01-01T01:00:00Z</time>
      </trkpt>
      <trkpt lat="61.01223" lon="14.437568">
        <ele>199.818</ele>
        <time>1970-01-01T01:00:00Z</time>
      </trkpt>
      <trkpt lat="61.012139" lon="14.437674">
        <ele>199.727</ele>
        <time>1970-01-01T01:00:00Z</time>
      </trkpt>
      <trkpt lat="61.012055" lon="14.437786">
        <ele>199.636</ele>
        <time>1970-01-01T01:00:00Z</time>
      </trkpt>
      <trkpt lat="61.011973" lon="14.437895">
        <ele>199.545</ele>
        <time>1970-01-01T01:00:00Z</time>
      </trkpt>
      <trkpt lat="61.011872" lon="14.437982">
        <ele>199.455</ele>
        <time>1970-01-01T01:00:00Z</time>
      </trkpt>
      <trkpt lat="61.011773" lon="14.438094">
        <ele>199.364</ele>
        <time>1970-01-01T01:00:00Z</time>
      </trkpt>
      <trkpt lat="61.011693" lon="14.438225">
        <ele>199.273</ele>
        <time>1970-01-01T01:00:00Z</time>
      </trkpt>
      <trkpt lat="61.011622" lon="14.438386">
        <ele>199.182</ele>
        <time>1970-01-01T01:00:00Z</time>
      </trkpt>
      <trkpt lat="61.01154" lon="14.438522">
        <ele>199.091</ele>
        <time>1970-01-01T01:00:00Z</time>
      </trkpt>
      <trkpt lat="61.011439" lon="14.438648">
        <ele>199</ele>
        <time>1970-01-01T01:00:00Z</time>
      </trkpt>
      <trkpt lat="61.011333" lon="14.438733">
        <ele>199</ele>
        <time>1970-01-01T01:00:00Z</time>
      </trkpt>
      <trkpt lat="61.011228" lon="14.438808">
        <ele>199</ele>
        <time>1970-01-01T01:00:00Z</time>
      </trkpt>
      <trkpt lat="61.01115" lon="14.438906">
        <ele>199</ele>
        <time>1970-01-01T01:00:00Z</time>
      </trkpt>
      <trkpt lat="61.011075" lon="14.43901">
        <ele>198.909</ele>
        <time>1970-01-01T01:00:00Z</time>
      </trkpt>
      <trkpt lat="61.010995" lon="14.439135">
        <ele>198.818</ele>
        <time>1970-01-01T01:00:00Z</time>
      </trkpt>
      <trkpt lat="61.010913" lon="14.439274">
        <ele>198.727</ele>
        <time>1970-01-01T01:00:00Z</time>
      </trkpt>
      <trkpt lat="61.010837" lon="14.439409">
        <ele>198.636</ele>
        <time>1970-01-01T01:00:00Z</time>
      </trkpt>
      <trkpt lat="61.010757" lon="14.439535">
        <ele>198.545</ele>
        <time>1970-01-01T01:00:00Z</time>
      </trkpt>
      <trkpt lat="61.010674" lon="14.439668">
        <ele>198.455</ele>
        <time>1970-01-01T01:00:00Z</time>
      </trkpt>
      <trkpt lat="61.010593" lon="14.439784">
        <ele>198.364</ele>
        <time>1970-01-01T01:00:00Z</time>
      </trkpt>
      <trkpt lat="61.01051" lon="14.439885">
        <ele>198.273</ele>
        <time>1970-01-01T01:00:00Z</time>
      </trkpt>
      <trkpt lat="61.010425" lon="14.440002">
        <ele>198.182</ele>
        <time>1970-01-01T01:00:00Z</time>
      </trkpt>
      <trkpt lat="61.010343" lon="14.440112">
        <ele>198.091</ele>
        <time>1970-01-01T01:00:00Z</time>
      </trkpt>
      <trkpt lat="61.010261" lon="14.440258">
        <ele>198</ele>
        <time>1970-01-01T01:00:00Z</time>
      </trkpt>
      <trkpt lat="61.010188" lon="14.440399">
        <ele>198</ele>
        <time>1970-01-01T01:00:00Z</time>
      </trkpt>
      <trkpt lat="61.010118" lon="14.44052">
        <ele>198</ele>
        <time>1970-01-01T01:00:00Z</time>
      </trkpt>
      <trkpt lat="61.010023" lon="14.44062">
        <ele>198</ele>
        <time>1970-01-01T01:00:00Z</time>
      </trkpt>
      <trkpt lat="61.00994" lon="14.440693">
        <ele>198</ele>
        <time>1970-01-01T01:00:00Z</time>
      </trkpt>
      <trkpt lat="61.009848" lon="14.440782">
        <ele>198</ele>
        <time>1970-01-01T01:00:00Z</time>
      </trkpt>
      <trkpt lat="61.009757" lon="14.440887">
        <ele>198</ele>
        <time>1970-01-01T01:00:00Z</time>
      </trkpt>
      <trkpt lat="61.009669" lon="14.440964">
        <ele>198</ele>
        <time>1970-01-01T01:00:00Z</time>
      </trkpt>
      <trkpt lat="61.009569" lon="14.44104">
        <ele>198</ele>
        <time>1970-01-01T01:00:00Z</time>
      </trkpt>
      <trkpt lat="61.009478" lon="14.441119">
        <ele>198</ele>
        <time>1970-01-01T01:00:00Z</time>
      </trkpt>
      <trkpt lat="61.009382" lon="14.441176">
        <ele>198</ele>
        <time>1970-01-01T01:00:00Z</time>
      </trkpt>
      <trkpt lat="61.009283" lon="14.441188">
        <ele>198</ele>
        <time>1970-01-01T01:00:00Z</time>
      </trkpt>
      <trkpt lat="61.009202" lon="14.441275">
        <ele>198</ele>
        <time>1970-01-01T01:00:00Z</time>
      </trkpt>
      <trkpt lat="61.009135" lon="14.441409">
        <ele>198</ele>
        <time>1970-01-01T01:00:00Z</time>
      </trkpt>
      <trkpt lat="61.009055" lon="14.441549">
        <ele>198</ele>
        <time>1970-01-01T01:00:00Z</time>
      </trkpt>
      <trkpt lat="61.008985" lon="14.441672">
        <ele>198</ele>
        <time>1970-01-01T01:00:00Z</time>
      </trkpt>
      <trkpt lat="61.008908" lon="14.441774">
        <ele>198</ele>
        <time>1970-01-01T01:00:00Z</time>
      </trkpt>
      <trkpt lat="61.008841" lon="14.441898">
        <ele>198</ele>
        <time>1970-01-01T01:00:00Z</time>
      </trkpt>
      <trkpt lat="61.008783" lon="14.442046">
        <ele>198</ele>
        <time>1970-01-01T01:00:00Z</time>
      </trkpt>
      <trkpt lat="61.008724" lon="14.442228">
        <ele>197.909</ele>
        <time>1970-01-01T01:00:00Z</time>
      </trkpt>
      <trkpt lat="61.008662" lon="14.442374">
        <ele>197.818</ele>
        <time>1970-01-01T01:00:00Z</time>
      </trkpt>
      <trkpt lat="61.008617" lon="14.442551">
        <ele>197.727</ele>
        <time>1970-01-01T01:00:00Z</time>
      </trkpt>
      <trkpt lat="61.008578" lon="14.44273">
        <ele>197.636</ele>
        <time>1970-01-01T01:00:00Z</time>
      </trkpt>
      <trkpt lat="61.008535" lon="14.442914">
        <ele>197.545</ele>
        <time>1970-01-01T01:00:00Z</time>
      </trkpt>
      <trkpt lat="61.008508" lon="14.443117">
        <ele>197.455</ele>
        <time>1970-01-01T01:00:00Z</time>
      </trkpt>
      <trkpt lat="61.008506" lon="14.443313">
        <ele>197.364</ele>
        <time>1970-01-01T01:00:00Z</time>
      </trkpt>
      <trkpt lat="61.008513" lon="14.443526">
        <ele>197.273</ele>
        <time>1970-01-01T01:00:00Z</time>
      </trkpt>
      <trkpt lat="61.008542" lon="14.443718">
        <ele>197.182</ele>
        <time>1970-01-01T01:00:00Z</time>
      </trkpt>
      <trkpt lat="61.008583" lon="14.443902">
        <ele>197.091</ele>
        <time>1970-01-01T01:00:00Z</time>
      </trkpt>
      <trkpt lat="61.008622" lon="14.444088">
        <ele>197</ele>
        <time>1970-01-01T01:00:00Z</time>
      </trkpt>
      <trkpt lat="61.008655" lon="14.444273">
        <ele>197</ele>
        <time>1970-01-01T01:00:00Z</time>
      </trkpt>
      <trkpt lat="61.008686" lon="14.444457">
        <ele>197</ele>
        <time>1970-01-01T01:00:00Z</time>
      </trkpt>
      <trkpt lat="61.008722" lon="14.444655">
        <ele>197</ele>
        <time>1970-01-01T01:00:00Z</time>
      </trkpt>
      <trkpt lat="61.008747" lon="14.444854">
        <ele>197</ele>
        <time>1970-01-01T01:00:00Z</time>
      </trkpt>
      <trkpt lat="61.008761" lon="14.445061">
        <ele>197</ele>
        <time>1970-01-01T01:00:00Z</time>
      </trkpt>
      <trkpt lat="61.008748" lon="14.445291">
        <ele>197</ele>
        <time>1970-01-01T01:00:00Z</time>
      </trkpt>
      <trkpt lat="61.00873" lon="14.445486">
        <ele>196.909</ele>
        <time>1970-01-01T01:00:00Z</time>
      </trkpt>
      <trkpt lat="61.008699" lon="14.445667">
        <ele>196.818</ele>
        <time>1970-01-01T01:00:00Z</time>
      </trkpt>
      <trkpt lat="61.008657" lon="14.445886">
        <ele>196.727</ele>
        <time>1970-01-01T01:00:00Z</time>
      </trkpt>
      <trkpt lat="61.008622" lon="14.446081">
        <ele>196.636</ele>
        <time>1970-01-01T01:00:00Z</time>
      </trkpt>
      <trkpt lat="61.00859" lon="14.446303">
        <ele>196.545</ele>
        <time>1970-01-01T01:00:00Z</time>
      </trkpt>
      <trkpt lat="61.008569" lon="14.446498">
        <ele>196.455</ele>
        <time>1970-01-01T01:00:00Z</time>
      </trkpt>
      <trkpt lat="61.00855" lon="14.446694">
        <ele>196.364</ele>
        <time>1970-01-01T01:00:00Z</time>
      </trkpt>
      <trkpt lat="61.00854" lon="14.446901">
        <ele>196.273</ele>
        <time>1970-01-01T01:00:00Z</time>
      </trkpt>
      <trkpt lat="61.008549" lon="14.447089">
        <ele>196.182</ele>
        <time>1970-01-01T01:00:00Z</time>
      </trkpt>
      <trkpt lat="61.008565" lon="14.447281">
        <ele>196.091</ele>
        <time>1970-01-01T01:00:00Z</time>
      </trkpt>
      <trkpt lat="61.008587" lon="14.447501">
        <ele>196</ele>
        <time>1970-01-01T01:00:00Z</time>
      </trkpt>
      <trkpt lat="61.008595" lon="14.447709">
        <ele>196</ele>
        <time>1970-01-01T01:00:00Z</time>
      </trkpt>
      <trkpt lat="61.008592" lon="14.447904">
        <ele>196</ele>
        <time>1970-01-01T01:00:00Z</time>
      </trkpt>
      <trkpt lat="61.008588" lon="14.448128">
        <ele>196</ele>
        <time>1970-01-01T01:00:00Z</time>
      </trkpt>
      <trkpt lat="61.008583" lon="14.448314">
        <ele>196</ele>
        <time>1970-01-01T01:00:00Z</time>
      </trkpt>
      <trkpt lat="61.008584" lon="14.448509">
        <ele>196</ele>
        <time>1970-01-01T01:00:00Z</time>
      </trkpt>
      <trkpt lat="61.008583" lon="14.448698">
        <ele>196</ele>
        <time>1970-01-01T01:00:00Z</time>
      </trkpt>
      <trkpt lat="61.008588" lon="14.448884">
        <ele>196</ele>
        <time>1970-01-01T01:00:00Z</time>
      </trkpt>
      <trkpt lat="61.008583" lon="14.449074">
        <ele>196</ele>
        <time>1970-01-01T01:00:00Z</time>
      </trkpt>
      <trkpt lat="61.008569" lon="14.449295">
        <ele>196</ele>
        <time>1970-01-01T01:00:00Z</time>
      </trkpt>
      <trkpt lat="61.008549" lon="14.449504">
        <ele>196</ele>
        <time>1970-01-01T01:00:00Z</time>
      </trkpt>
      <trkpt lat="61.008529" lon="14.449725">
        <ele>196</ele>
        <time>1970-01-01T01:00:00Z</time>
      </trkpt>
      <trkpt lat="61.008505" lon="14.449937">
        <ele>196</ele>
        <time>1970-01-01T01:00:00Z</time>
      </trkpt>
      <trkpt lat="61.008467" lon="14.450138">
        <ele>196</ele>
        <time>1970-01-01T01:00:00Z</time>
      </trkpt>
      <trkpt lat="61.008474" lon="14.450329">
        <ele>196</ele>
        <time>1970-01-01T01:00:00Z</time>
      </trkpt>
      <trkpt lat="61.008489" lon="14.450556">
        <ele>196</ele>
        <time>1970-01-01T01:00:00Z</time>
      </trkpt>
      <trkpt lat="61.008513" lon="14.450738">
        <ele>195.909</ele>
        <time>1970-01-01T01:00:00Z</time>
      </trkpt>
      <trkpt lat="61.008564" lon="14.450917">
        <ele>195.818</ele>
        <time>1970-01-01T01:00:00Z</time>
      </trkpt>
      <trkpt lat="61.008631" lon="14.45108">
        <ele>195.727</ele>
        <time>1970-01-01T01:00:00Z</time>
      </trkpt>
      <trkpt lat="61.0087" lon="14.451223">
        <ele>195.636</ele>
        <time>1970-01-01T01:00:00Z</time>
      </trkpt>
      <trkpt lat="61.008766" lon="14.451425">
        <ele>195.545</ele>
        <time>1970-01-01T01:00:00Z</time>
      </trkpt>
      <trkpt lat="61.008832" lon="14.451605">
        <ele>195.455</ele>
        <time>1970-01-01T01:00:00Z</time>
      </trkpt>
      <trkpt lat="61.00891" lon="14.451747">
        <ele>195.364</ele>
        <time>1970-01-01T01:00:00Z</time>
      </trkpt>
      <trkpt lat="61.008966" lon="14.451913">
        <ele>195.273</ele>
        <time>1970-01-01T01:00:00Z</time>
      </trkpt>
      <trkpt lat="61.008997" lon="14.452089">
        <ele>195.273</ele>
        <time>1970-01-01T01:00:00Z</time>
      </trkpt>
      <trkpt lat="61.009018" lon="14.452329">
        <ele>195.273</ele>
        <time>1970-01-01T01:00:00Z</time>
      </trkpt>
      <trkpt lat="61.009009" lon="14.452527">
        <ele>195.273</ele>
        <time>1970-01-01T01:00:00Z</time>
      </trkpt>
      <trkpt lat="61.009016" lon="14.452713">
        <ele>195.364</ele>
        <time>1970-01-01T01:00:00Z</time>
      </trkpt>
      <trkpt lat="61.009044" lon="14.452916">
        <ele>195.455</ele>
        <time>1970-01-01T01:00:00Z</time>
      </trkpt>
      <trkpt lat="61.009049" lon="14.453108">
        <ele>195.545</ele>
        <time>1970-01-01T01:00:00Z</time>
      </trkpt>
      <trkpt lat="61.00906" lon="14.453308">
        <ele>195.636</ele>
        <time>1970-01-01T01:00:00Z</time>
      </trkpt>
      <trkpt lat="61.009061" lon="14.453518">
        <ele>195.727</ele>
        <time>1970-01-01T01:00:00Z</time>
      </trkpt>
      <trkpt lat="61.009071" lon="14.453708">
        <ele>195.818</ele>
        <time>1970-01-01T01:00:00Z</time>
      </trkpt>
      <trkpt lat="61.009056" lon="14.453915">
        <ele>196</ele>
        <time>1970-01-01T01:00:00Z</time>
      </trkpt>
      <trkpt lat="61.009036" lon="14.454121">
        <ele>196.182</ele>
        <time>1970-01-01T01:00:00Z</time>
      </trkpt>
      <trkpt lat="61.008972" lon="14.45428">
        <ele>196.273</ele>
        <time>1970-01-01T01:00:00Z</time>
      </trkpt>
      <trkpt lat="61.008919" lon="14.454453">
        <ele>196.364</ele>
        <time>1970-01-01T01:00:00Z</time>
      </trkpt>
      <trkpt lat="61.008857" lon="14.454603">
        <ele>196.455</ele>
        <time>1970-01-01T01:00:00Z</time>
      </trkpt>
      <trkpt lat="61.00878" lon="14.454769">
        <ele>196.545</ele>
        <time>1970-01-01T01:00:00Z</time>
      </trkpt>
      <trkpt lat="61.008705" lon="14.454919">
        <ele>196.636</ele>
        <time>1970-01-01T01:00:00Z</time>
      </trkpt>
      <trkpt lat="61.008643" lon="14.455073">
        <ele>196.727</ele>
        <time>1970-01-01T01:00:00Z</time>
      </trkpt>
      <trkpt lat="61.008577" lon="14.455215">
        <ele>196.818</ele>
        <time>1970-01-01T01:00:00Z</time>
      </trkpt>
      <trkpt lat="61.008527" lon="14.455399">
        <ele>196.909</ele>
        <time>1970-01-01T01:00:00Z</time>
      </trkpt>
      <trkpt lat="61.00849" lon="14.455574">
        <ele>197</ele>
        <time>1970-01-01T01:00:00Z</time>
      </trkpt>
      <trkpt lat="61.008425" lon="14.455751">
        <ele>197</ele>
        <time>1970-01-01T01:00:00Z</time>
      </trkpt>
      <trkpt lat="61.008381" lon="14.455918">
        <ele>197</ele>
        <time>1970-01-01T01:00:00Z</time>
      </trkpt>
      <trkpt lat="61.008318" lon="14.456068">
        <ele>197</ele>
        <time>1970-01-01T01:00:00Z</time>
      </trkpt>
      <trkpt lat="61.008251" lon="14.456202">
        <ele>197</ele>
        <time>1970-01-01T01:00:00Z</time>
      </trkpt>
      <trkpt lat="61.008199" lon="14.456381">
        <ele>197.091</ele>
        <time>1970-01-01T01:00:00Z</time>
      </trkpt>
      <trkpt lat="61.008162" lon="14.456576">
        <ele>197.182</ele>
        <time>1970-01-01T01:00:00Z</time>
      </trkpt>
      <trkpt lat="61.008113" lon="14.45676">
        <ele>197.273</ele>
        <time>1970-01-01T01:00:00Z</time>
      </trkpt>
      <trkpt lat="61.008054" lon="14.456953">
        <ele>197.364</ele>
        <time>1970-01-01T01:00:00Z</time>
      </trkpt>
      <trkpt lat="61.008007" lon="14.457116">
        <ele>197.455</ele>
        <time>1970-01-01T01:00:00Z</time>
      </trkpt>
      <trkpt lat="61.007937" lon="14.457289">
        <ele>197.636</ele>
        <time>1970-01-01T01:00:00Z</time>
      </trkpt>
      <trkpt lat="61.007882" lon="14.457436">
        <ele>197.818</ele>
        <time>1970-01-01T01:00:00Z</time>
      </trkpt>
      <trkpt lat="61.007817" lon="14.457599">
        <ele>198</ele>
        <time>1970-01-01T01:00:00Z</time>
      </trkpt>
      <trkpt lat="61.007762" lon="14.457759">
        <ele>198.182</ele>
        <time>1970-01-01T01:00:00Z</time>
      </trkpt>
      <trkpt lat="61.007698" lon="14.45795">
        <ele>198.364</ele>
        <time>1970-01-01T01:00:00Z</time>
      </trkpt>
      <trkpt lat="61.007636" lon="14.45811">
        <ele>198.545</ele>
        <time>1970-01-01T01:00:00Z</time>
      </trkpt>
      <trkpt lat="61.007607" lon="14.458313">
        <ele>198.636</ele>
        <time>1970-01-01T01:00:00Z</time>
      </trkpt>
      <trkpt lat="61.007603" lon="14.458523">
        <ele>198.727</ele>
        <time>1970-01-01T01:00:00Z</time>
      </trkpt>
      <trkpt lat="61.007601" lon="14.458712">
        <ele>198.909</ele>
        <time>1970-01-01T01:00:00Z</time>
      </trkpt>
      <trkpt lat="61.007599" lon="14.458899">
        <ele>199.091</ele>
        <time>1970-01-01T01:00:00Z</time>
      </trkpt>
      <trkpt lat="61.00759" lon="14.459089">
        <ele>199.273</ele>
        <time>1970-01-01T01:00:00Z</time>
      </trkpt>
      <trkpt lat="61.007553" lon="14.459278">
        <ele>199.364</ele>
        <time>1970-01-01T01:00:00Z</time>
      </trkpt>
      <trkpt lat="61.007501" lon="14.459489">
        <ele>199.455</ele>
        <time>1970-01-01T01:00:00Z</time>
      </trkpt>
      <trkpt lat="61.007453" lon="14.459654">
        <ele>199.545</ele>
        <time>1970-01-01T01:00:00Z</time>
      </trkpt>
      <trkpt lat="61.007414" lon="14.459853">
        <ele>199.636</ele>
        <time>1970-01-01T01:00:00Z</time>
      </trkpt>
      <trkpt lat="61.007398" lon="14.460077">
        <ele>199.727</ele>
        <time>1970-01-01T01:00:00Z</time>
      </trkpt>
      <trkpt lat="61.007381" lon="14.460276">
        <ele>199.818</ele>
        <time>1970-01-01T01:00:00Z</time>
      </trkpt>
      <trkpt lat="61.007339" lon="14.46044">
        <ele>199.909</ele>
        <time>1970-01-01T01:00:00Z</time>
      </trkpt>
      <trkpt lat="61.007304" lon="14.460618">
        <ele>200</ele>
        <time>1970-01-01T01:00:00Z</time>
      </trkpt>
      <trkpt lat="61.007253" lon="14.460787">
        <ele>200</ele>
        <time>1970-01-01T01:00:00Z</time>
      </trkpt>
      <trkpt lat="61.007204" lon="14.460989">
        <ele>200</ele>
        <time>1970-01-01T01:00:00Z</time>
      </trkpt>
      <trkpt lat="61.007153" lon="14.461153">
        <ele>200</ele>
        <time>1970-01-01T01:00:00Z</time>
      </trkpt>
      <trkpt lat="61.007116" lon="14.46134">
        <ele>200</ele>
        <time>1970-01-01T01:00:00Z</time>
      </trkpt>
      <trkpt lat="61.007088" lon="14.461583">
        <ele>200</ele>
        <time>1970-01-01T01:00:00Z</time>
      </trkpt>
      <trkpt lat="61.007037" lon="14.461758">
        <ele>200</ele>
        <time>1970-01-01T01:00:00Z</time>
      </trkpt>
      <trkpt lat="61.006996" lon="14.461965">
        <ele>200</ele>
        <time>1970-01-01T01:00:00Z</time>
      </trkpt>
      <trkpt lat="61.006947" lon="14.46214">
        <ele>200</ele>
        <time>1970-01-01T01:00:00Z</time>
      </trkpt>
      <trkpt lat="61.006882" lon="14.462316">
        <ele>200</ele>
        <time>1970-01-01T01:00:00Z</time>
      </trkpt>
      <trkpt lat="61.006821" lon="14.462461">
        <ele>200</ele>
        <time>1970-01-01T01:00:00Z</time>
      </trkpt>
      <trkpt lat="61.00675" lon="14.462616">
        <ele>200</ele>
        <time>1970-01-01T01:00:00Z</time>
      </trkpt>
      <trkpt lat="61.006691" lon="14.462756">
        <ele>200</ele>
        <time>1970-01-01T01:00:00Z</time>
      </trkpt>
      <trkpt lat="61.006624" lon="14.462906">
        <ele>200</ele>
        <time>1970-01-01T01:00:00Z</time>
      </trkpt>
      <trkpt lat="61.006572" lon="14.463097">
        <ele>200</ele>
        <time>1970-01-01T01:00:00Z</time>
      </trkpt>
      <trkpt lat="61.006533" lon="14.463278">
        <ele>200</ele>
        <time>1970-01-01T01:00:00Z</time>
      </trkpt>
      <trkpt lat="61.00648" lon="14.463494">
        <ele>200</ele>
        <time>1970-01-01T01:00:00Z</time>
      </trkpt>
      <trkpt lat="61.006432" lon="14.463715">
        <ele>200</ele>
        <time>1970-01-01T01:00:00Z</time>
      </trkpt>
      <trkpt lat="61.006387" lon="14.463895">
        <ele>200</ele>
        <time>1970-01-01T01:00:00Z</time>
      </trkpt>
      <trkpt lat="61.006345" lon="14.464097">
        <ele>200</ele>
        <time>1970-01-01T01:00:00Z</time>
      </trkpt>
      <trkpt lat="61.006305" lon="14.464329">
        <ele>200</ele>
        <time>1970-01-01T01:00:00Z</time>
      </trkpt>
      <trkpt lat="61.006272" lon="14.46454">
        <ele>200</ele>
        <time>1970-01-01T01:00:00Z</time>
      </trkpt>
      <trkpt lat="61.006241" lon="14.464729">
        <ele>200</ele>
        <time>1970-01-01T01:00:00Z</time>
      </trkpt>
      <trkpt lat="61.006209" lon="14.464987">
        <ele>200</ele>
        <time>1970-01-01T01:00:00Z</time>
      </trkpt>
      <trkpt lat="61.006183" lon="14.465206">
        <ele>200</ele>
        <time>1970-01-01T01:00:00Z</time>
      </trkpt>
      <trkpt lat="61.006157" lon="14.465409">
        <ele>200</ele>
        <time>1970-01-01T01:00:00Z</time>
      </trkpt>
      <trkpt lat="61.006084" lon="14.465577">
        <ele>200</ele>
        <time>1970-01-01T01:00:00Z</time>
      </trkpt>
      <trkpt lat="61.006004" lon="14.465689">
        <ele>200</ele>
        <time>1970-01-01T01:00:00Z</time>
      </trkpt>
      <trkpt lat="61.005946" lon="14.465848">
        <ele>200</ele>
        <time>1970-01-01T01:00:00Z</time>
      </trkpt>
      <trkpt lat="61.005872" lon="14.465977">
        <ele>200</ele>
        <time>1970-01-01T01:00:00Z</time>
      </trkpt>
      <trkpt lat="61.005819" lon="14.466153">
        <ele>200</ele>
        <time>1970-01-01T01:00:00Z</time>
      </trkpt>
      <trkpt lat="61.005745" lon="14.466273">
        <ele>200</ele>
        <time>1970-01-01T01:00:00Z</time>
      </trkpt>
      <trkpt lat="61.005677" lon="14.466429">
        <ele>200</ele>
        <time>1970-01-01T01:00:00Z</time>
      </trkpt>
      <trkpt lat="61.005606" lon="14.466545">
        <ele>200</ele>
        <time>1970-01-01T01:00:00Z</time>
      </trkpt>
      <trkpt lat="61.005517" lon="14.466663">
        <ele>200</ele>
        <time>1970-01-01T01:00:00Z</time>
      </trkpt>
      <trkpt lat="61.005444" lon="14.466822">
        <ele>200</ele>
        <time>1970-01-01T01:00:00Z</time>
      </trkpt>
      <trkpt lat="61.005383" lon="14.466978">
        <ele>200</ele>
        <time>1970-01-01T01:00:00Z</time>
      </trkpt>
      <trkpt lat="61.00532" lon="14.467135">
        <ele>200</ele>
        <time>1970-01-01T01:00:00Z</time>
      </trkpt>
      <trkpt lat="61.005243" lon="14.467273">
        <ele>200</ele>
        <time>1970-01-01T01:00:00Z</time>
      </trkpt>
      <trkpt lat="61.005175" lon="14.467433">
        <ele>200</ele>
        <time>1970-01-01T01:00:00Z</time>
      </trkpt>
      <trkpt lat="61.005079" lon="14.46759">
        <ele>200</ele>
        <time>1970-01-01T01:00:00Z</time>
      </trkpt>
      <trkpt lat="61.004933" lon="14.46833">
        <ele>200</ele>
        <time>1970-01-01T01:00:00Z</time>
      </trkpt>
      <trkpt lat="61.004902" lon="14.468525">
        <ele>200</ele>
        <time>1970-01-01T01:00:00Z</time>
      </trkpt>
      <trkpt lat="61.004842" lon="14.468727">
        <ele>200</ele>
        <time>1970-01-01T01:00:00Z</time>
      </trkpt>
      <trkpt lat="61.004823" lon="14.468958">
        <ele>200</ele>
        <time>1970-01-01T01:00:00Z</time>
      </trkpt>
      <trkpt lat="61.004777" lon="14.469181">
        <ele>200</ele>
        <time>1970-01-01T01:00:00Z</time>
      </trkpt>
      <trkpt lat="61.004731" lon="14.469368">
        <ele>200</ele>
        <time>1970-01-01T01:00:00Z</time>
      </trkpt>
      <trkpt lat="61.004693" lon="14.469582">
        <ele>200</ele>
        <time>1970-01-01T01:00:00Z</time>
      </trkpt>
      <trkpt lat="61.004663" lon="14.469769">
        <ele>200</ele>
        <time>1970-01-01T01:00:00Z</time>
      </trkpt>
      <trkpt lat="61.004657" lon="14.469962">
        <ele>200</ele>
        <time>1970-01-01T01:00:00Z</time>
      </trkpt>
      <trkpt lat="61.004673" lon="14.470181">
        <ele>200</ele>
        <time>1970-01-01T01:00:00Z</time>
      </trkpt>
      <trkpt lat="61.004688" lon="14.470369">
        <ele>200</ele>
        <time>1970-01-01T01:00:00Z</time>
      </trkpt>
      <trkpt lat="61.004698" lon="14.470588">
        <ele>200</ele>
        <time>1970-01-01T01:00:00Z</time>
      </trkpt>
      <trkpt lat="61.00471" lon="14.470805">
        <ele>200</ele>
        <time>1970-01-01T01:00:00Z</time>
      </trkpt>
      <trkpt lat="61.004723" lon="14.471012">
        <ele>200</ele>
        <time>1970-01-01T01:00:00Z</time>
      </trkpt>
      <trkpt lat="61.004727" lon="14.471239">
        <ele>200</ele>
        <time>1970-01-01T01:00:00Z</time>
      </trkpt>
      <trkpt lat="61.004742" lon="14.471438">
        <ele>200</ele>
        <time>1970-01-01T01:00:00Z</time>
      </trkpt>
      <trkpt lat="61.004769" lon="14.471629">
        <ele>200</ele>
        <time>1970-01-01T01:00:00Z</time>
      </trkpt>
      <trkpt lat="61.004801" lon="14.471803">
        <ele>200</ele>
        <time>1970-01-01T01:00:00Z</time>
      </trkpt>
      <trkpt lat="61.004824" lon="14.47199">
        <ele>200</ele>
        <time>1970-01-01T01:00:00Z</time>
      </trkpt>
      <trkpt lat="61.004834" lon="14.472209">
        <ele>200</ele>
        <time>1970-01-01T01:00:00Z</time>
      </trkpt>
      <trkpt lat="61.004803" lon="14.472424">
        <ele>200</ele>
        <time>1970-01-01T01:00:00Z</time>
      </trkpt>
      <trkpt lat="61.004771" lon="14.472629">
        <ele>200</ele>
        <time>1970-01-01T01:00:00Z</time>
      </trkpt>
      <trkpt lat="61.004763" lon="14.47283">
        <ele>199.909</ele>
        <time>1970-01-01T01:00:00Z</time>
      </trkpt>
      <trkpt lat="61.004762" lon="14.473016">
        <ele>199.818</ele>
        <time>1970-01-01T01:00:00Z</time>
      </trkpt>
      <trkpt lat="61.004752" lon="14.473284">
        <ele>199.727</ele>
        <time>1970-01-01T01:00:00Z</time>
      </trkpt>
      <trkpt lat="61.004745" lon="14.473521">
        <ele>199.636</ele>
        <time>1970-01-01T01:00:00Z</time>
      </trkpt>
      <trkpt lat="61.004744" lon="14.473755">
        <ele>199.545</ele>
        <time>1970-01-01T01:00:00Z</time>
      </trkpt>
      <trkpt lat="61.004748" lon="14.473951">
        <ele>199.455</ele>
        <time>1970-01-01T01:00:00Z</time>
      </trkpt>
      <trkpt lat="61.004744" lon="14.474153">
        <ele>199.364</ele>
        <time>1970-01-01T01:00:00Z</time>
      </trkpt>
      <trkpt lat="61.004753" lon="14.474369">
        <ele>199.273</ele>
        <time>1970-01-01T01:00:00Z</time>
      </trkpt>
      <trkpt lat="61.004769" lon="14.474561">
        <ele>199.182</ele>
        <time>1970-01-01T01:00:00Z</time>
      </trkpt>
      <trkpt lat="61.004795" lon="14.474752">
        <ele>199.091</ele>
        <time>1970-01-01T01:00:00Z</time>
      </trkpt>
      <trkpt lat="61.004846" lon="14.474926">
        <ele>199</ele>
        <time>1970-01-01T01:00:00Z</time>
      </trkpt>
      <trkpt lat="61.004884" lon="14.475098">
        <ele>199</ele>
        <time>1970-01-01T01:00:00Z</time>
      </trkpt>
      <trkpt lat="61.004895" lon="14.475289">
        <ele>199</ele>
        <time>1970-01-01T01:00:00Z</time>
      </trkpt>
      <trkpt lat="61.004897" lon="14.475484">
        <ele>199</ele>
        <time>1970-01-01T01:00:00Z</time>
      </trkpt>
      <trkpt lat="61.004908" lon="14.475706">
        <ele>199</ele>
        <time>1970-01-01T01:00:00Z</time>
      </trkpt>
      <trkpt lat="61.004923" lon="14.475933">
        <ele>199</ele>
        <time>1970-01-01T01:00:00Z</time>
      </trkpt>
      <trkpt lat="61.004923" lon="14.476132">
        <ele>199</ele>
        <time>1970-01-01T01:00:00Z</time>
      </trkpt>
      <trkpt lat="61.004941" lon="14.476323">
        <ele>199</ele>
        <time>1970-01-01T01:00:00Z</time>
      </trkpt>
      <trkpt lat="61.004976" lon="14.476552">
        <ele>199</ele>
        <time>1970-01-01T01:00:00Z</time>
      </trkpt>
      <trkpt lat="61.005011" lon="14.476788">
        <ele>199</ele>
        <time>1970-01-01T01:00:00Z</time>
      </trkpt>
      <trkpt lat="61.005017" lon="14.477055">
        <ele>199</ele>
        <time>1970-01-01T01:00:00Z</time>
      </trkpt>
      <trkpt lat="61.004987" lon="14.477267">
        <ele>199</ele>
        <time>1970-01-01T01:00:00Z</time>
      </trkpt>
      <trkpt lat="61.00493" lon="14.477441">
        <ele>199</ele>
        <time>1970-01-01T01:00:00Z</time>
      </trkpt>
      <trkpt lat="61.004899" lon="14.477665">
        <ele>199</ele>
        <time>1970-01-01T01:00:00Z</time>
      </trkpt>
      <trkpt lat="61.004855" lon="14.477892">
        <ele>199</ele>
        <time>1970-01-01T01:00:00Z</time>
      </trkpt>
      <trkpt lat="61.004834" lon="14.478103">
        <ele>199</ele>
        <time>1970-01-01T01:00:00Z</time>
      </trkpt>
      <trkpt lat="61.004813" lon="14.478304">
        <ele>198.909</ele>
        <time>1970-01-01T01:00:00Z</time>
      </trkpt>
      <trkpt lat="61.004797" lon="14.478502">
        <ele>198.818</ele>
        <time>1970-01-01T01:00:00Z</time>
      </trkpt>
      <trkpt lat="61.004753" lon="14.478705">
        <ele>198.727</ele>
        <time>1970-01-01T01:00:00Z</time>
      </trkpt>
      <trkpt lat="61.004696" lon="14.478853">
        <ele>198.636</ele>
        <time>1970-01-01T01:00:00Z</time>
      </trkpt>
      <trkpt lat="61.004642" lon="14.479017">
        <ele>198.545</ele>
        <time>1970-01-01T01:00:00Z</time>
      </trkpt>
      <trkpt lat="61.004617" lon="14.47922">
        <ele>198.455</ele>
        <time>1970-01-01T01:00:00Z</time>
      </trkpt>
      <trkpt lat="61.00458" lon="14.479392">
        <ele>198.364</ele>
        <time>1970-01-01T01:00:00Z</time>
      </trkpt>
      <trkpt lat="61.004554" lon="14.479605">
        <ele>198.273</ele>
        <time>1970-01-01T01:00:00Z</time>
      </trkpt>
      <trkpt lat="61.004541" lon="14.47983">
        <ele>198.182</ele>
        <time>1970-01-01T01:00:00Z</time>
      </trkpt>
      <trkpt lat="61.004516" lon="14.48002">
        <ele>198.091</ele>
        <time>1970-01-01T01:00:00Z</time>
      </trkpt>
      <trkpt lat="61.004483" lon="14.4802">
        <ele>198</ele>
        <time>1970-01-01T01:00:00Z</time>
      </trkpt>
      <trkpt lat="61.004444" lon="14.480432">
        <ele>198</ele>
        <time>1970-01-01T01:00:00Z</time>
      </trkpt>
      <trkpt lat="61.004393" lon="14.48059">
        <ele>198</ele>
        <time>1970-01-01T01:00:00Z</time>
      </trkpt>
      <trkpt lat="61.00435" lon="14.480776">
        <ele>198</ele>
        <time>1970-01-01T01:00:00Z</time>
      </trkpt>
      <trkpt lat="61.004349" lon="14.480962">
        <ele>198</ele>
        <time>1970-01-01T01:00:00Z</time>
      </trkpt>
      <trkpt lat="61.004351" lon="14.481199">
        <ele>198</ele>
        <time>1970-01-01T01:00:00Z</time>
      </trkpt>
      <trkpt lat="61.004323" lon="14.481396">
        <ele>198</ele>
        <time>1970-01-01T01:00:00Z</time>
      </trkpt>
      <trkpt lat="61.004338" lon="14.481604">
        <ele>198</ele>
        <time>1970-01-01T01:00:00Z</time>
      </trkpt>
      <trkpt lat="61.004381" lon="14.481797">
        <ele>198</ele>
        <time>1970-01-01T01:00:00Z</time>
      </trkpt>
      <trkpt lat="61.004389" lon="14.482027">
        <ele>198</ele>
        <time>1970-01-01T01:00:00Z</time>
      </trkpt>
      <trkpt lat="61.00443" lon="14.48224">
        <ele>198.091</ele>
        <time>1970-01-01T01:00:00Z</time>
      </trkpt>
      <trkpt lat="61.004465" lon="14.482414">
        <ele>198.182</ele>
        <time>1970-01-01T01:00:00Z</time>
      </trkpt>
      <trkpt lat="61.004512" lon="14.482601">
        <ele>198.273</ele>
        <time>1970-01-01T01:00:00Z</time>
      </trkpt>
      <trkpt lat="61.00457" lon="14.482813">
        <ele>198.364</ele>
        <time>1970-01-01T01:00:00Z</time>
      </trkpt>
      <trkpt lat="61.004617" lon="14.483022">
        <ele>198.364</ele>
        <time>1970-01-01T01:00:00Z</time>
      </trkpt>
      <trkpt lat="61.004657" lon="14.483223">
        <ele>198.364</ele>
        <time>1970-01-01T01:00:00Z</time>
      </trkpt>
      <trkpt lat="61.004693" lon="14.483411">
        <ele>198.364</ele>
        <time>1970-01-01T01:00:00Z</time>
      </trkpt>
      <trkpt lat="61.004717" lon="14.483619">
        <ele>198.364</ele>
        <time>1970-01-01T01:00:00Z</time>
      </trkpt>
      <trkpt lat="61.004656" lon="14.483755">
        <ele>198.364</ele>
        <time>1970-01-01T01:00:00Z</time>
      </trkpt>
      <trkpt lat="61.004578" lon="14.483873">
        <ele>198.364</ele>
        <time>1970-01-01T01:00:00Z</time>
      </trkpt>
      <trkpt lat="61.004512" lon="14.484036">
        <ele>198.364</ele>
        <time>1970-01-01T01:00:00Z</time>
      </trkpt>
      <trkpt lat="61.004418" lon="14.484104">
        <ele>198.182</ele>
        <time>1970-01-01T01:00:00Z</time>
      </trkpt>
      <trkpt lat="61.004312" lon="14.48416">
        <ele>198</ele>
        <time>1970-01-01T01:00:00Z</time>
      </trkpt>
      <trkpt lat="61.004207" lon="14.484225">
        <ele>197.818</ele>
        <time>1970-01-01T01:00:00Z</time>
      </trkpt>
      <trkpt lat="61.00413" lon="14.484415">
        <ele>197.545</ele>
        <time>1970-01-01T01:00:00Z</time>
      </trkpt>
      <trkpt lat="61.004043" lon="14.484563">
        <ele>197.364</ele>
        <time>1970-01-01T01:00:00Z</time>
      </trkpt>
      <trkpt lat="61.003967" lon="14.484678">
        <ele>197.091</ele>
        <time>1970-01-01T01:00:00Z</time>
      </trkpt>
      <trkpt lat="61.003888" lon="14.484843">
        <ele>196.818</ele>
        <time>1970-01-01T01:00:00Z</time>
      </trkpt>
      <trkpt lat="61.003826" lon="14.485007">
        <ele>196.545</ele>
        <time>1970-01-01T01:00:00Z</time>
      </trkpt>
      <trkpt lat="61.003751" lon="14.485143">
        <ele>196.273</ele>
        <time>1970-01-01T01:00:00Z</time>
      </trkpt>
      <trkpt lat="61.00373" lon="14.485327">
        <ele>196</ele>
        <time>1970-01-01T01:00:00Z</time>
      </trkpt>
      <trkpt lat="61.003673" lon="14.485525">
        <ele>195.727</ele>
        <time>1970-01-01T01:00:00Z</time>
      </trkpt>
      <trkpt lat="61.003611" lon="14.485701">
        <ele>195.545</ele>
        <time>1970-01-01T01:00:00Z</time>
      </trkpt>
      <trkpt lat="61.003508" lon="14.485765">
        <ele>195.364</ele>
        <time>1970-01-01T01:00:00Z</time>
      </trkpt>
      <trkpt lat="61.003406" lon="14.48582">
        <ele>195.182</ele>
        <time>1970-01-01T01:00:00Z</time>
      </trkpt>
      <trkpt lat="61.003363" lon="14.486016">
        <ele>195.091</ele>
        <time>1970-01-01T01:00:00Z</time>
      </trkpt>
      <trkpt lat="61.003341" lon="14.486223">
        <ele>194.909</ele>
        <time>1970-01-01T01:00:00Z</time>
      </trkpt>
      <trkpt lat="61.003337" lon="14.486411">
        <ele>194.818</ele>
        <time>1970-01-01T01:00:00Z</time>
      </trkpt>
      <trkpt lat="61.003358" lon="14.486628">
        <ele>194.636</ele>
        <time>1970-01-01T01:00:00Z</time>
      </trkpt>
      <trkpt lat="61.00334" lon="14.486848">
        <ele>194.455</ele>
        <time>1970-01-01T01:00:00Z</time>
      </trkpt>
      <trkpt lat="61.0033" lon="14.48703">
        <ele>194.273</ele>
        <time>1970-01-01T01:00:00Z</time>
      </trkpt>
      <trkpt lat="61.003275" lon="14.487267">
        <ele>194.091</ele>
        <time>1970-01-01T01:00:00Z</time>
      </trkpt>
      <trkpt lat="61.003196" lon="14.487753">
        <ele>193.818</ele>
        <time>1970-01-01T01:00:00Z</time>
      </trkpt>
      <trkpt lat="61.003178" lon="14.487995">
        <ele>193.545</ele>
        <time>1970-01-01T01:00:00Z</time>
      </trkpt>
      <trkpt lat="61.003161" lon="14.48818">
        <ele>193.273</ele>
        <time>1970-01-01T01:00:00Z</time>
      </trkpt>
      <trkpt lat="61.003138" lon="14.488503">
        <ele>192.909</ele>
        <time>1970-01-01T01:00:00Z</time>
      </trkpt>
      <trkpt lat="61.00313" lon="14.488713">
        <ele>192.545</ele>
        <time>1970-01-01T01:00:00Z</time>
      </trkpt>
      <trkpt lat="61.00314" lon="14.488933">
        <ele>192.273</ele>
        <time>1970-01-01T01:00:00Z</time>
      </trkpt>
      <trkpt lat="61.003138" lon="14.489231">
        <ele>192</ele>
        <time>1970-01-01T01:00:00Z</time>
      </trkpt>
      <trkpt lat="61.003144" lon="14.489452">
        <ele>191.636</ele>
        <time>1970-01-01T01:00:00Z</time>
      </trkpt>
      <trkpt lat="61.003159" lon="14.489643">
        <ele>191.273</ele>
        <time>1970-01-01T01:00:00Z</time>
      </trkpt>
      <trkpt lat="61.003138" lon="14.489838">
        <ele>190.909</ele>
        <time>1970-01-01T01:00:00Z</time>
      </trkpt>
      <trkpt lat="61.003139" lon="14.490042">
        <ele>190.545</ele>
        <time>1970-01-01T01:00:00Z</time>
      </trkpt>
      <trkpt lat="61.00311" lon="14.490223">
        <ele>190.273</ele>
        <time>1970-01-01T01:00:00Z</time>
      </trkpt>
      <trkpt lat="61.003057" lon="14.490431">
        <ele>189.818</ele>
        <time>1970-01-01T01:00:00Z</time>
      </trkpt>
      <trkpt lat="61.003046" lon="14.490631">
        <ele>189.364</ele>
        <time>1970-01-01T01:00:00Z</time>
      </trkpt>
      <trkpt lat="61.003063" lon="14.490854">
        <ele>189</ele>
        <time>1970-01-01T01:00:00Z</time>
      </trkpt>
      <trkpt lat="61.003112" lon="14.491037">
        <ele>188.636</ele>
        <time>1970-01-01T01:00:00Z</time>
      </trkpt>
      <trkpt lat="61.003169" lon="14.491237">
        <ele>188.273</ele>
        <time>1970-01-01T01:00:00Z</time>
      </trkpt>
      <trkpt lat="61.003215" lon="14.49141">
        <ele>187.909</ele>
        <time>1970-01-01T01:00:00Z</time>
      </trkpt>
      <trkpt lat="61.003282" lon="14.491549">
        <ele>187.727</ele>
        <time>1970-01-01T01:00:00Z</time>
      </trkpt>
      <trkpt lat="61.003362" lon="14.491674">
        <ele>187.455</ele>
        <time>1970-01-01T01:00:00Z</time>
      </trkpt>
      <trkpt lat="61.003434" lon="14.491794">
        <ele>187.182</ele>
        <time>1970-01-01T01:00:00Z</time>
      </trkpt>
      <trkpt lat="61.003513" lon="14.491934">
        <ele>186.818</ele>
        <time>1970-01-01T01:00:00Z</time>
      </trkpt>
      <trkpt lat="61.003584" lon="14.492063">
        <ele>186.455</ele>
        <time>1970-01-01T01:00:00Z</time>
      </trkpt>
      <trkpt lat="61.003665" lon="14.492161">
        <ele>186.273</ele>
        <time>1970-01-01T01:00:00Z</time>
      </trkpt>
      <trkpt lat="61.003732" lon="14.492299">
        <ele>185.909</ele>
        <time>1970-01-01T01:00:00Z</time>
      </trkpt>
      <trkpt lat="61.003791" lon="14.492453">
        <ele>185.545</ele>
        <time>1970-01-01T01:00:00Z</time>
      </trkpt>
      <trkpt lat="61.003823" lon="14.492629">
        <ele>185.182</ele>
        <time>1970-01-01T01:00:00Z</time>
      </trkpt>
      <trkpt lat="61.003849" lon="14.49285">
        <ele>184.636</ele>
        <time>1970-01-01T01:00:00Z</time>
      </trkpt>
      <trkpt lat="61.003887" lon="14.493021">
        <ele>184.091</ele>
        <time>1970-01-01T01:00:00Z</time>
      </trkpt>
      <trkpt lat="61.003933" lon="14.49322">
        <ele>183.545</ele>
        <time>1970-01-01T01:00:00Z</time>
      </trkpt>
      <trkpt lat="61.003967" lon="14.493407">
        <ele>183.091</ele>
        <time>1970-01-01T01:00:00Z</time>
      </trkpt>
      <trkpt lat="61.004015" lon="14.493651">
        <ele>182.545</ele>
        <time>1970-01-01T01:00:00Z</time>
      </trkpt>
      <trkpt lat="61.004083" lon="14.493862">
        <ele>182.091</ele>
        <time>1970-01-01T01:00:00Z</time>
      </trkpt>
      <trkpt lat="61.004151" lon="14.494048">
        <ele>181.636</ele>
        <time>1970-01-01T01:00:00Z</time>
      </trkpt>
      <trkpt lat="61.004245" lon="14.494349">
        <ele>181.182</ele>
        <time>1970-01-01T01:00:00Z</time>
      </trkpt>
      <trkpt lat="61.004301" lon="14.49459">
        <ele>180.909</ele>
        <time>1970-01-01T01:00:00Z</time>
      </trkpt>
      <trkpt lat="61.004349" lon="14.494769">
        <ele>180.727</ele>
        <time>1970-01-01T01:00:00Z</time>
      </trkpt>
      <trkpt lat="61.0044" lon="14.494935">
        <ele>180.545</ele>
        <time>1970-01-01T01:00:00Z</time>
      </trkpt>
      <trkpt lat="61.004486" lon="14.495139">
        <ele>180.545</ele>
        <time>1970-01-01T01:00:00Z</time>
      </trkpt>
      <trkpt lat="61.004563" lon="14.495288">
        <ele>180.545</ele>
        <time>1970-01-01T01:00:00Z</time>
      </trkpt>
      <trkpt lat="61.004598" lon="14.495506">
        <ele>180.455</ele>
        <time>1970-01-01T01:00:00Z</time>
      </trkpt>
      <trkpt lat="61.004659" lon="14.495678">
        <ele>180.364</ele>
        <time>1970-01-01T01:00:00Z</time>
      </trkpt>
      <trkpt lat="61.004711" lon="14.495848">
        <ele>180.364</ele>
        <time>1970-01-01T01:00:00Z</time>
      </trkpt>
      <trkpt lat="61.004791" lon="14.49603">
        <ele>180.364</ele>
        <time>1970-01-01T01:00:00Z</time>
      </trkpt>
      <trkpt lat="61.004853" lon="14.496189">
        <ele>180.364</ele>
        <time>1970-01-01T01:00:00Z</time>
      </trkpt>
      <trkpt lat="61.004905" lon="14.496355">
        <ele>180.364</ele>
        <time>1970-01-01T01:00:00Z</time>
      </trkpt>
      <trkpt lat="61.004972" lon="14.496487">
        <ele>180.273</ele>
        <time>1970-01-01T01:00:00Z</time>
      </trkpt>
      <trkpt lat="61.005049" lon="14.496645">
        <ele>180.091</ele>
        <time>1970-01-01T01:00:00Z</time>
      </trkpt>
      <trkpt lat="61.005114" lon="14.496805">
        <ele>179.909</ele>
        <time>1970-01-01T01:00:00Z</time>
      </trkpt>
      <trkpt lat="61.005178" lon="14.496958">
        <ele>179.727</ele>
        <time>1970-01-01T01:00:00Z</time>
      </trkpt>
      <trkpt lat="61.005234" lon="14.497118">
        <ele>179.545</ele>
        <time>1970-01-01T01:00:00Z</time>
      </trkpt>
      <trkpt lat="61.005269" lon="14.497319">
        <ele>179.455</ele>
        <time>1970-01-01T01:00:00Z</time>
      </trkpt>
      <trkpt lat="61.005287" lon="14.497518">
        <ele>179.364</ele>
        <time>1970-01-01T01:00:00Z</time>
      </trkpt>
      <trkpt lat="61.005282" lon="14.497749">
        <ele>179.273</ele>
        <time>1970-01-01T01:00:00Z</time>
      </trkpt>
      <trkpt lat="61.005243" lon="14.49796">
        <ele>179.182</ele>
        <time>1970-01-01T01:00:00Z</time>
      </trkpt>
      <trkpt lat="61.005188" lon="14.498146">
        <ele>179.091</ele>
        <time>1970-01-01T01:00:00Z</time>
      </trkpt>
      <trkpt lat="61.005072" lon="14.498168">
        <ele>179</ele>
        <time>1970-01-01T01:00:00Z</time>
      </trkpt>
      <trkpt lat="61.00498" lon="14.498323">
        <ele>179</ele>
        <time>1970-01-01T01:00:00Z</time>
      </trkpt>
      <trkpt lat="61.004908" lon="14.498525">
        <ele>179</ele>
        <time>1970-01-01T01:00:00Z</time>
      </trkpt>
      <trkpt lat="61.00484" lon="14.49869">
        <ele>179</ele>
        <time>1970-01-01T01:00:00Z</time>
      </trkpt>
      <trkpt lat="61.004825" lon="14.498949">
        <ele>179</ele>
        <time>1970-01-01T01:00:00Z</time>
      </trkpt>
      <trkpt lat="61.004801" lon="14.4992">
        <ele>179</ele>
        <time>1970-01-01T01:00:00Z</time>
      </trkpt>
      <trkpt lat="61.004779" lon="14.499424">
        <ele>179.091</ele>
        <time>1970-01-01T01:00:00Z</time>
      </trkpt>
      <trkpt lat="61.004762" lon="14.49967">
        <ele>179.182</ele>
        <time>1970-01-01T01:00:00Z</time>
      </trkpt>
      <trkpt lat="61.00474" lon="14.49986">
        <ele>179.273</ele>
        <time>1970-01-01T01:00:00Z</time>
      </trkpt>
      <trkpt lat="61.004699" lon="14.500024">
        <ele>179.364</ele>
        <time>1970-01-01T01:00:00Z</time>
      </trkpt>
      <trkpt lat="61.004643" lon="14.500246">
        <ele>179.455</ele>
        <time>1970-01-01T01:00:00Z</time>
      </trkpt>
      <trkpt lat="61.004639" lon="14.500475">
        <ele>179.545</ele>
        <time>1970-01-01T01:00:00Z</time>
      </trkpt>
      <trkpt lat="61.004643" lon="14.500699">
        <ele>179.636</ele>
        <time>1970-01-01T01:00:00Z</time>
      </trkpt>
      <trkpt lat="61.00463" lon="14.500888">
        <ele>179.727</ele>
        <time>1970-01-01T01:00:00Z</time>
      </trkpt>
      <trkpt lat="61.004594" lon="14.501124">
        <ele>179.818</ele>
        <time>1970-01-01T01:00:00Z</time>
      </trkpt>
      <trkpt lat="61.004571" lon="14.501306">
        <ele>179.909</ele>
        <time>1970-01-01T01:00:00Z</time>
      </trkpt>
      <trkpt lat="61.004567" lon="14.501537">
        <ele>180</ele>
        <time>1970-01-01T01:00:00Z</time>
      </trkpt>
      <trkpt lat="61.004563" lon="14.501748">
        <ele>180</ele>
        <time>1970-01-01T01:00:00Z</time>
      </trkpt>
      <trkpt lat="61.004572" lon="14.501993">
        <ele>180</ele>
        <time>1970-01-01T01:00:00Z</time>
      </trkpt>
      <trkpt lat="61.00461" lon="14.502202">
        <ele>180</ele>
        <time>1970-01-01T01:00:00Z</time>
      </trkpt>
      <trkpt lat="61.004619" lon="14.502423">
        <ele>180</ele>
        <time>1970-01-01T01:00:00Z</time>
      </trkpt>
      <trkpt lat="61.004581" lon="14.502609">
        <ele>180</ele>
        <time>1970-01-01T01:00:00Z</time>
      </trkpt>
      <trkpt lat="61.004541" lon="14.502817">
        <ele>180</ele>
        <time>1970-01-01T01:00:00Z</time>
      </trkpt>
      <trkpt lat="61.004482" lon="14.502973">
        <ele>180</ele>
        <time>1970-01-01T01:00:00Z</time>
      </trkpt>
      <trkpt lat="61.004424" lon="14.503124">
        <ele>180</ele>
        <time>1970-01-01T01:00:00Z</time>
      </trkpt>
      <trkpt lat="61.004379" lon="14.503326">
        <ele>180</ele>
        <time>1970-01-01T01:00:00Z</time>
      </trkpt>
      <trkpt lat="61.004353" lon="14.503508">
        <ele>180</ele>
        <time>1970-01-01T01:00:00Z</time>
      </trkpt>
      <trkpt lat="61.004314" lon="14.503705">
        <ele>180</ele>
        <time>1970-01-01T01:00:00Z</time>
      </trkpt>
      <trkpt lat="61.004271" lon="14.5039">
        <ele>180</ele>
        <time>1970-01-01T01:00:00Z</time>
      </trkpt>
      <trkpt lat="61.004252" lon="14.504111">
        <ele>180</ele>
        <time>1970-01-01T01:00:00Z</time>
      </trkpt>
      <trkpt lat="61.004238" lon="14.504373">
        <ele>180</ele>
        <time>1970-01-01T01:00:00Z</time>
      </trkpt>
      <trkpt lat="61.004213" lon="14.504575">
        <ele>180</ele>
        <time>1970-01-01T01:00:00Z</time>
      </trkpt>
      <trkpt lat="61.0042" lon="14.504764">
        <ele>180</ele>
        <time>1970-01-01T01:00:00Z</time>
      </trkpt>
      <trkpt lat="61.004198" lon="14.505005">
        <ele>180</ele>
        <time>1970-01-01T01:00:00Z</time>
      </trkpt>
      <trkpt lat="61.004185" lon="14.505209">
        <ele>180</ele>
        <time>1970-01-01T01:00:00Z</time>
      </trkpt>
      <trkpt lat="61.004184" lon="14.505426">
        <ele>180</ele>
        <time>1970-01-01T01:00:00Z</time>
      </trkpt>
      <trkpt lat="61.004125" lon="14.505598">
        <ele>180</ele>
        <time>1970-01-01T01:00:00Z</time>
      </trkpt>
      <trkpt lat="61.004073" lon="14.505773">
        <ele>180</ele>
        <time>1970-01-01T01:00:00Z</time>
      </trkpt>
      <trkpt lat="61.004012" lon="14.505947">
        <ele>180</ele>
        <time>1970-01-01T01:00:00Z</time>
      </trkpt>
      <trkpt lat="61.003953" lon="14.506106">
        <ele>180</ele>
        <time>1970-01-01T01:00:00Z</time>
      </trkpt>
      <trkpt lat="61.003929" lon="14.506288">
        <ele>180</ele>
        <time>1970-01-01T01:00:00Z</time>
      </trkpt>
      <trkpt lat="61.003944" lon="14.506484">
        <ele>180</ele>
        <time>1970-01-01T01:00:00Z</time>
      </trkpt>
      <trkpt lat="61.004012" lon="14.506666">
        <ele>180</ele>
        <time>1970-01-01T01:00:00Z</time>
      </trkpt>
      <trkpt lat="61.004079" lon="14.506806">
        <ele>180</ele>
        <time>1970-01-01T01:00:00Z</time>
      </trkpt>
      <trkpt lat="61.004118" lon="14.506994">
        <ele>180</ele>
        <time>1970-01-01T01:00:00Z</time>
      </trkpt>
      <trkpt lat="61.004138" lon="14.50724">
        <ele>180</ele>
        <time>1970-01-01T01:00:00Z</time>
      </trkpt>
      <trkpt lat="61.004157" lon="14.50747">
        <ele>180</ele>
        <time>1970-01-01T01:00:00Z</time>
      </trkpt>
      <trkpt lat="61.0042" lon="14.507676">
        <ele>180</ele>
        <time>1970-01-01T01:00:00Z</time>
      </trkpt>
      <trkpt lat="61.004206" lon="14.507896">
        <ele>180</ele>
        <time>1970-01-01T01:00:00Z</time>
      </trkpt>
      <trkpt lat="61.004226" lon="14.508119">
        <ele>180</ele>
        <time>1970-01-01T01:00:00Z</time>
      </trkpt>
      <trkpt lat="61.004258" lon="14.508347">
        <ele>180</ele>
        <time>1970-01-01T01:00:00Z</time>
      </trkpt>
      <trkpt lat="61.00429" lon="14.508563">
        <ele>180</ele>
        <time>1970-01-01T01:00:00Z</time>
      </trkpt>
      <trkpt lat="61.004283" lon="14.508833">
        <ele>180</ele>
        <time>1970-01-01T01:00:00Z</time>
      </trkpt>
      <trkpt lat="61.004236" lon="14.509056">
        <ele>180</ele>
        <time>1970-01-01T01:00:00Z</time>
      </trkpt>
      <trkpt lat="61.004203" lon="14.509359">
        <ele>180</ele>
        <time>1970-01-01T01:00:00Z</time>
      </trkpt>
      <trkpt lat="61.004177" lon="14.509646">
        <ele>180</ele>
        <time>1970-01-01T01:00:00Z</time>
      </trkpt>
      <trkpt lat="61.00409" lon="14.509822">
        <ele>180</ele>
        <time>1970-01-01T01:00:00Z</time>
      </trkpt>
      <trkpt lat="61.004088" lon="14.510171">
        <ele>180</ele>
        <time>1970-01-01T01:00:00Z</time>
      </trkpt>
      <trkpt lat="61.004071" lon="14.51042">
        <ele>180</ele>
        <time>1970-01-01T01:00:00Z</time>
      </trkpt>
      <trkpt lat="61.004093" lon="14.510636">
        <ele>180</ele>
        <time>1970-01-01T01:00:00Z</time>
      </trkpt>
      <trkpt lat="61.004141" lon="14.51083">
        <ele>180</ele>
        <time>1970-01-01T01:00:00Z</time>
      </trkpt>
      <trkpt lat="61.004179" lon="14.511022">
        <ele>180</ele>
        <time>1970-01-01T01:00:00Z</time>
      </trkpt>
      <trkpt lat="61.004261" lon="14.511158">
        <ele>180</ele>
        <time>1970-01-01T01:00:00Z</time>
      </trkpt>
      <trkpt lat="61.004324" lon="14.511303">
        <ele>179.909</ele>
        <time>1970-01-01T01:00:00Z</time>
      </trkpt>
      <trkpt lat="61.004391" lon="14.511448">
        <ele>179.818</ele>
        <time>1970-01-01T01:00:00Z</time>
      </trkpt>
      <trkpt lat="61.004436" lon="14.511618">
        <ele>179.727</ele>
        <time>1970-01-01T01:00:00Z</time>
      </trkpt>
      <trkpt lat="61.004491" lon="14.511815">
        <ele>179.636</ele>
        <time>1970-01-01T01:00:00Z</time>
      </trkpt>
      <trkpt lat="61.004602" lon="14.512137">
        <ele>179.545</ele>
        <time>1970-01-01T01:00:00Z</time>
      </trkpt>
      <trkpt lat="61.004682" lon="14.512338">
        <ele>179.455</ele>
        <time>1970-01-01T01:00:00Z</time>
      </trkpt>
      <trkpt lat="61.004757" lon="14.512528">
        <ele>179.364</ele>
        <time>1970-01-01T01:00:00Z</time>
      </trkpt>
      <trkpt lat="61.00479" lon="14.512757">
        <ele>179.273</ele>
        <time>1970-01-01T01:00:00Z</time>
      </trkpt>
      <trkpt lat="61.004865" lon="14.512883">
        <ele>179.182</ele>
        <time>1970-01-01T01:00:00Z</time>
      </trkpt>
      <trkpt lat="61.004956" lon="14.513096">
        <ele>179.091</ele>
        <time>1970-01-01T01:00:00Z</time>
      </trkpt>
      <trkpt lat="61.005007" lon="14.513299">
        <ele>179</ele>
        <time>1970-01-01T01:00:00Z</time>
      </trkpt>
      <trkpt lat="61.005045" lon="14.513487">
        <ele>179</ele>
        <time>1970-01-01T01:00:00Z</time>
      </trkpt>
      <trkpt lat="61.005099" lon="14.513661">
        <ele>178.909</ele>
        <time>1970-01-01T01:00:00Z</time>
      </trkpt>
      <trkpt lat="61.005143" lon="14.513864">
        <ele>178.818</ele>
        <time>1970-01-01T01:00:00Z</time>
      </trkpt>
      <trkpt lat="61.005171" lon="14.514049">
        <ele>178.727</ele>
        <time>1970-01-01T01:00:00Z</time>
      </trkpt>
      <trkpt lat="61.005193" lon="14.514233">
        <ele>178.636</ele>
        <time>1970-01-01T01:00:00Z</time>
      </trkpt>
      <trkpt lat="61.005198" lon="14.51443">
        <ele>178.545</ele>
        <time>1970-01-01T01:00:00Z</time>
      </trkpt>
      <trkpt lat="61.005196" lon="14.514687">
        <ele>178.455</ele>
        <time>1970-01-01T01:00:00Z</time>
      </trkpt>
      <trkpt lat="61.0052" lon="14.514878">
        <ele>178.364</ele>
        <time>1970-01-01T01:00:00Z</time>
      </trkpt>
      <trkpt lat="61.005204" lon="14.515069">
        <ele>178.273</ele>
        <time>1970-01-01T01:00:00Z</time>
      </trkpt>
      <trkpt lat="61.005212" lon="14.515278">
        <ele>178.091</ele>
        <time>1970-01-01T01:00:00Z</time>
      </trkpt>
      <trkpt lat="61.005228" lon="14.515462">
        <ele>177.909</ele>
        <time>1970-01-01T01:00:00Z</time>
      </trkpt>
      <trkpt lat="61.005244" lon="14.515647">
        <ele>177.727</ele>
        <time>1970-01-01T01:00:00Z</time>
      </trkpt>
      <trkpt lat="61.005265" lon="14.515874">
        <ele>177.636</ele>
        <time>1970-01-01T01:00:00Z</time>
      </trkpt>
      <trkpt lat="61.005358" lon="14.516197">
        <ele>177.545</ele>
        <time>1970-01-01T01:00:00Z</time>
      </trkpt>
      <trkpt lat="61.005398" lon="14.516421">
        <ele>177.455</ele>
        <time>1970-01-01T01:00:00Z</time>
      </trkpt>
      <trkpt lat="61.005407" lon="14.51667">
        <ele>177.364</ele>
        <time>1970-01-01T01:00:00Z</time>
      </trkpt>
      <trkpt lat="61.00541" lon="14.516931">
        <ele>177.273</ele>
        <time>1970-01-01T01:00:00Z</time>
      </trkpt>
      <trkpt lat="61.005346" lon="14.517115">
        <ele>177.091</ele>
        <time>1970-01-01T01:00:00Z</time>
      </trkpt>
      <trkpt lat="61.005302" lon="14.517278">
        <ele>176.909</ele>
        <time>1970-01-01T01:00:00Z</time>
      </trkpt>
      <trkpt lat="61.005234" lon="14.517427">
        <ele>176.727</ele>
        <time>1970-01-01T01:00:00Z</time>
      </trkpt>
      <trkpt lat="61.005181" lon="14.517617">
        <ele>176.636</ele>
        <time>1970-01-01T01:00:00Z</time>
      </trkpt>
      <trkpt lat="61.005166" lon="14.517834">
        <ele>176.364</ele>
        <time>1970-01-01T01:00:00Z</time>
      </trkpt>
      <trkpt lat="61.005184" lon="14.51804">
        <ele>176.091</ele>
        <time>1970-01-01T01:00:00Z</time>
      </trkpt>
      <trkpt lat="61.00526" lon="14.518228">
        <ele>175.818</ele>
        <time>1970-01-01T01:00:00Z</time>
      </trkpt>
      <trkpt lat="61.005339" lon="14.518321">
        <ele>175.455</ele>
        <time>1970-01-01T01:00:00Z</time>
      </trkpt>
      <trkpt lat="61.005442" lon="14.518422">
        <ele>175.091</ele>
        <time>1970-01-01T01:00:00Z</time>
      </trkpt>
      <trkpt lat="61.005537" lon="14.518547">
        <ele>174.727</ele>
        <time>1970-01-01T01:00:00Z</time>
      </trkpt>
      <trkpt lat="61.005628" lon="14.518581">
        <ele>174.364</ele>
        <time>1970-01-01T01:00:00Z</time>
      </trkpt>
      <trkpt lat="61.005697" lon="14.518742">
        <ele>174.091</ele>
        <time>1970-01-01T01:00:00Z</time>
      </trkpt>
      <trkpt lat="61.005782" lon="14.518854">
        <ele>173.818</ele>
        <time>1970-01-01T01:00:00Z</time>
      </trkpt>
      <trkpt lat="61.005846" lon="14.51901">
        <ele>173.364</ele>
        <time>1970-01-01T01:00:00Z</time>
      </trkpt>
      <trkpt lat="61.005925" lon="14.519106">
        <ele>172.909</ele>
        <time>1970-01-01T01:00:00Z</time>
      </trkpt>
      <trkpt lat="61.006018" lon="14.519137">
        <ele>172.636</ele>
        <time>1970-01-01T01:00:00Z</time>
      </trkpt>
      <trkpt lat="61.006121" lon="14.519141">
        <ele>172.364</ele>
        <time>1970-01-01T01:00:00Z</time>
      </trkpt>
      <trkpt lat="61.00623" lon="14.519154">
        <ele>172.091</ele>
        <time>1970-01-01T01:00:00Z</time>
      </trkpt>
      <trkpt lat="61.006342" lon="14.519138">
        <ele>171.909</ele>
        <time>1970-01-01T01:00:00Z</time>
      </trkpt>
      <trkpt lat="61.006421" lon="14.519037">
        <ele>171.727</ele>
        <time>1970-01-01T01:00:00Z</time>
      </trkpt>
      <trkpt lat="61.006536" lon="14.518968">
        <ele>171.545</ele>
        <time>1970-01-01T01:00:00Z</time>
      </trkpt>
      <trkpt lat="61.006641" lon="14.518911">
        <ele>171.364</ele>
        <time>1970-01-01T01:00:00Z</time>
      </trkpt>
      <trkpt lat="61.006731" lon="14.518863">
        <ele>171.182</ele>
        <time>1970-01-01T01:00:00Z</time>
      </trkpt>
      <trkpt lat="61.006785" lon="14.51902">
        <ele>170.727</ele>
        <time>1970-01-01T01:00:00Z</time>
      </trkpt>
      <trkpt lat="61.006841" lon="14.519202">
        <ele>170.455</ele>
        <time>1970-01-01T01:00:00Z</time>
      </trkpt>
      <trkpt lat="61.006915" lon="14.519373">
        <ele>170.182</ele>
        <time>1970-01-01T01:00:00Z</time>
      </trkpt>
      <trkpt lat="61.006991" lon="14.519506">
        <ele>169.909</ele>
        <time>1970-01-01T01:00:00Z</time>
      </trkpt>
      <trkpt lat="61.007091" lon="14.519433">
        <ele>169.636</ele>
        <time>1970-01-01T01:00:00Z</time>
      </trkpt>
      <trkpt lat="61.00719" lon="14.51939">
        <ele>169.364</ele>
        <time>1970-01-01T01:00:00Z</time>
      </trkpt>
      <trkpt lat="61.007303" lon="14.51938">
        <ele>169.091</ele>
        <time>1970-01-01T01:00:00Z</time>
      </trkpt>
      <trkpt lat="61.007399" lon="14.519423">
        <ele>168.818</ele>
        <time>1970-01-01T01:00:00Z</time>
      </trkpt>
      <trkpt lat="61.007474" lon="14.519558">
        <ele>168.545</ele>
        <time>1970-01-01T01:00:00Z</time>
      </trkpt>
      <trkpt lat="61.007526" lon="14.519756">
        <ele>168.273</ele>
        <time>1970-01-01T01:00:00Z</time>
      </trkpt>
      <trkpt lat="61.007562" lon="14.519934">
        <ele>168</ele>
        <time>1970-01-01T01:00:00Z</time>
      </trkpt>
      <trkpt lat="61.007595" lon="14.520116">
        <ele>168</ele>
        <time>1970-01-01T01:00:00Z</time>
      </trkpt>
      <trkpt lat="61.007624" lon="14.520333">
        <ele>168</ele>
        <time>1970-01-01T01:00:00Z</time>
      </trkpt>
      <trkpt lat="61.00764" lon="14.520538">
        <ele>168</ele>
        <time>1970-01-01T01:00:00Z</time>
      </trkpt>
      <trkpt lat="61.007671" lon="14.52077">
        <ele>168</ele>
        <time>1970-01-01T01:00:00Z</time>
      </trkpt>
      <trkpt lat="61.007726" lon="14.52096">
        <ele>168</ele>
        <time>1970-01-01T01:00:00Z</time>
      </trkpt>
      <trkpt lat="61.007734" lon="14.521216">
        <ele>168</ele>
        <time>1970-01-01T01:00:00Z</time>
      </trkpt>
      <trkpt lat="61.007714" lon="14.521422">
        <ele>168</ele>
        <time>1970-01-01T01:00:00Z</time>
      </trkpt>
      <trkpt lat="61.007709" lon="14.521618">
        <ele>167.818</ele>
        <time>1970-01-01T01:00:00Z</time>
      </trkpt>
      <trkpt lat="61.007722" lon="14.521851">
        <ele>167.636</ele>
        <time>1970-01-01T01:00:00Z</time>
      </trkpt>
      <trkpt lat="61.007796" lon="14.522117">
        <ele>167.455</ele>
        <time>1970-01-01T01:00:00Z</time>
      </trkpt>
      <trkpt lat="61.007842" lon="14.522282">
        <ele>167.182</ele>
        <time>1970-01-01T01:00:00Z</time>
      </trkpt>
      <trkpt lat="61.007889" lon="14.52245">
        <ele>166.909</ele>
        <time>1970-01-01T01:00:00Z</time>
      </trkpt>
      <trkpt lat="61.00797" lon="14.522623">
        <ele>166.636</ele>
        <time>1970-01-01T01:00:00Z</time>
      </trkpt>
      <trkpt lat="61.008054" lon="14.522782">
        <ele>166.364</ele>
        <time>1970-01-01T01:00:00Z</time>
      </trkpt>
      <trkpt lat="61.008122" lon="14.522908">
        <ele>166.091</ele>
        <time>1970-01-01T01:00:00Z</time>
      </trkpt>
      <trkpt lat="61.008198" lon="14.523103">
        <ele>165.818</ele>
        <time>1970-01-01T01:00:00Z</time>
      </trkpt>
      <trkpt lat="61.008253" lon="14.523269">
        <ele>165.545</ele>
        <time>1970-01-01T01:00:00Z</time>
      </trkpt>
      <trkpt lat="61.008305" lon="14.52347">
        <ele>165.273</ele>
        <time>1970-01-01T01:00:00Z</time>
      </trkpt>
      <trkpt lat="61.008359" lon="14.52362">
        <ele>165.182</ele>
        <time>1970-01-01T01:00:00Z</time>
      </trkpt>
      <trkpt lat="61.008417" lon="14.523793">
        <ele>165.091</ele>
        <time>1970-01-01T01:00:00Z</time>
      </trkpt>
      <trkpt lat="61.008478" lon="14.523967">
        <ele>165</ele>
        <time>1970-01-01T01:00:00Z</time>
      </trkpt>
      <trkpt lat="61.00854" lon="14.524163">
        <ele>165</ele>
        <time>1970-01-01T01:00:00Z</time>
      </trkpt>
      <trkpt lat="61.008602" lon="14.524351">
        <ele>165</ele>
        <time>1970-01-01T01:00:00Z</time>
      </trkpt>
      <trkpt lat="61.008672" lon="14.524526">
        <ele>165</ele>
        <time>1970-01-01T01:00:00Z</time>
      </trkpt>
      <trkpt lat="61.008726" lon="14.524727">
        <ele>165</ele>
        <time>1970-01-01T01:00:00Z</time>
      </trkpt>
      <trkpt lat="61.008753" lon="14.524951">
        <ele>165</ele>
        <time>1970-01-01T01:00:00Z</time>
      </trkpt>
      <trkpt lat="61.008752" lon="14.525162">
        <ele>165</ele>
        <time>1970-01-01T01:00:00Z</time>
      </trkpt>
      <trkpt lat="61.008722" lon="14.525364">
        <ele>165</ele>
        <time>1970-01-01T01:00:00Z</time>
      </trkpt>
      <trkpt lat="61.008705" lon="14.525552">
        <ele>165</ele>
        <time>1970-01-01T01:00:00Z</time>
      </trkpt>
      <trkpt lat="61.008701" lon="14.525759">
        <ele>165</ele>
        <time>1970-01-01T01:00:00Z</time>
      </trkpt>
      <trkpt lat="61.008706" lon="14.525959">
        <ele>165</ele>
        <time>1970-01-01T01:00:00Z</time>
      </trkpt>
      <trkpt lat="61.008739" lon="14.526169">
        <ele>165</ele>
        <time>1970-01-01T01:00:00Z</time>
      </trkpt>
      <trkpt lat="61.008783" lon="14.526373">
        <ele>165</ele>
        <time>1970-01-01T01:00:00Z</time>
      </trkpt>
      <trkpt lat="61.008828" lon="14.526658">
        <ele>165</ele>
        <time>1970-01-01T01:00:00Z</time>
      </trkpt>
      <trkpt lat="61.008907" lon="14.526843">
        <ele>165</ele>
        <time>1970-01-01T01:00:00Z</time>
      </trkpt>
      <trkpt lat="61.008997" lon="14.526912">
        <ele>165</ele>
        <time>1970-01-01T01:00:00Z</time>
      </trkpt>
      <trkpt lat="61.009094" lon="14.52698">
        <ele>165</ele>
        <time>1970-01-01T01:00:00Z</time>
      </trkpt>
      <trkpt lat="61.009204" lon="14.527036">
        <ele>165</ele>
        <time>1970-01-01T01:00:00Z</time>
      </trkpt>
      <trkpt lat="61.009293" lon="14.527155">
        <ele>165</ele>
        <time>1970-01-01T01:00:00Z</time>
      </trkpt>
      <trkpt lat="61.00938" lon="14.527303">
        <ele>165</ele>
        <time>1970-01-01T01:00:00Z</time>
      </trkpt>
      <trkpt lat="61.009466" lon="14.527394">
        <ele>165</ele>
        <time>1970-01-01T01:00:00Z</time>
      </trkpt>
      <trkpt lat="61.00953" lon="14.527245">
        <ele>165</ele>
        <time>1970-01-01T01:00:00Z</time>
      </trkpt>
      <trkpt lat="61.009553" lon="14.527029">
        <ele>165</ele>
        <time>1970-01-01T01:00:00Z</time>
      </trkpt>
      <trkpt lat="61.009568" lon="14.526791">
        <ele>165</ele>
        <time>1970-01-01T01:00:00Z</time>
      </trkpt>
      <trkpt lat="61.009592" lon="14.526573">
        <ele>165</ele>
        <time>1970-01-01T01:00:00Z</time>
      </trkpt>
      <trkpt lat="61.00962" lon="14.526358">
        <ele>165</ele>
        <time>1970-01-01T01:00:00Z</time>
      </trkpt>
      <trkpt lat="61.009667" lon="14.526133">
        <ele>165</ele>
        <time>1970-01-01T01:00:00Z</time>
      </trkpt>
      <trkpt lat="61.009706" lon="14.525922">
        <ele>165</ele>
        <time>1970-01-01T01:00:00Z</time>
      </trkpt>
      <trkpt lat="61.009707" lon="14.525729">
        <ele>165</ele>
        <time>1970-01-01T01:00:00Z</time>
      </trkpt>
      <trkpt lat="61.009691" lon="14.525529">
        <ele>165</ele>
        <time>1970-01-01T01:00:00Z</time>
      </trkpt>
      <trkpt lat="61.009682" lon="14.525296">
        <ele>165</ele>
        <time>1970-01-01T01:00:00Z</time>
      </trkpt>
      <trkpt lat="61.009672" lon="14.525045">
        <ele>165</ele>
        <time>1970-01-01T01:00:00Z</time>
      </trkpt>
      <trkpt lat="61.009676" lon="14.524808">
        <ele>165</ele>
        <time>1970-01-01T01:00:00Z</time>
      </trkpt>
      <trkpt lat="61.009675" lon="14.524601">
        <ele>165</ele>
        <time>1970-01-01T01:00:00Z</time>
      </trkpt>
      <trkpt lat="61.009637" lon="14.524356">
        <ele>165</ele>
        <time>1970-01-01T01:00:00Z</time>
      </trkpt>
      <trkpt lat="61.009588" lon="14.524196">
        <ele>165</ele>
        <time>1970-01-01T01:00:00Z</time>
      </trkpt>
      <trkpt lat="61.009535" lon="14.524023">
        <ele>165</ele>
        <time>1970-01-01T01:00:00Z</time>
      </trkpt>
      <trkpt lat="61.009486" lon="14.523866">
        <ele>165</ele>
        <time>1970-01-01T01:00:00Z</time>
      </trkpt>
      <trkpt lat="61.009432" lon="14.523712">
        <ele>165</ele>
        <time>1970-01-01T01:00:00Z</time>
      </trkpt>
      <trkpt lat="61.009379" lon="14.523551">
        <ele>165</ele>
        <time>1970-01-01T01:00:00Z</time>
      </trkpt>
      <trkpt lat="61.009317" lon="14.523361">
        <ele>165</ele>
        <time>1970-01-01T01:00:00Z</time>
      </trkpt>
      <trkpt lat="61.009247" lon="14.523235">
        <ele>165</ele>
        <time>1970-01-01T01:00:00Z</time>
      </trkpt>
      <trkpt lat="61.009169" lon="14.523076">
        <ele>165.091</ele>
        <time>1970-01-01T01:00:00Z</time>
      </trkpt>
      <trkpt lat="61.009091" lon="14.522896">
        <ele>165.182</ele>
        <time>1970-01-01T01:00:00Z</time>
      </trkpt>
      <trkpt lat="61.009009" lon="14.522722">
        <ele>165.273</ele>
        <time>1970-01-01T01:00:00Z</time>
      </trkpt>
      <trkpt lat="61.008921" lon="14.522543">
        <ele>165.364</ele>
        <time>1970-01-01T01:00:00Z</time>
      </trkpt>
      <trkpt lat="61.008838" lon="14.522355">
        <ele>165.455</ele>
        <time>1970-01-01T01:00:00Z</time>
      </trkpt>
      <trkpt lat="61.008757" lon="14.522178">
        <ele>165.5</ele>
        <time>1970-01-01T01:00:00Z</time>
      </trkpt>
      <trkpt lat="61.008689" lon="14.522033">
        <ele>165.556</ele>
        <time>1970-01-01T01:00:00Z</time>
      </trkpt>
      <trkpt lat="61.008606" lon="14.521865">
        <ele>165.625</ele>
        <time>1970-01-01T01:00:00Z</time>
      </trkpt>
      <trkpt lat="61.008536" lon="14.521741">
        <ele>165.714</ele>
        <time>1970-01-01T01:00:00Z</time>
      </trkpt>
      <trkpt lat="61.008529" lon="14.521752">
        <ele>165.833</ele>
        <time>1970-01-01T01:00:00Z</time>
      </trkpt>
      <trkpt lat="61.008457" lon="14.521691">
        <ele>165.833</ele>
        <time>1970-01-01T01:00:00Z</time>
      </trkpt>
      <trkpt lat="61.008453" lon="14.521663">
        <ele>165.714</ele>
        <time>1970-01-01T01:00:00Z</time>
      </trkpt>
      <trkpt lat="61.00854" lon="14.521604">
        <ele>165.714</ele>
        <time>1970-01-01T01:00:00Z</time>
      </trkpt>
      <trkpt lat="61.008643" lon="14.521585">
        <ele>165.714</ele>
        <time>1970-01-01T01:00:00Z</time>
      </trkpt>
      <trkpt lat="61.008725" lon="14.521495">
        <ele>165.714</ele>
        <time>1970-01-01T01:00:00Z</time>
      </trkpt>
      <trkpt lat="61.008837" lon="14.521478">
        <ele>165.714</ele>
        <time>1970-01-01T01:00:00Z</time>
      </trkpt>
      <trkpt lat="61.00891" lon="14.521451">
        <ele>165.667</ele>
        <time>1970-01-01T01:00:00Z</time>
      </trkpt>
      <trkpt lat="61.008835" lon="14.521363">
        <ele>165</ele>
        <time>1970-01-01T01:00:00Z</time>
      </trkpt>
      <trkpt lat="61.008747" lon="14.521295">
        <ele>165</ele>
        <time>1970-01-01T01:00:00Z</time>
      </trkpt>
      <trkpt lat="61.008822" lon="14.5214">
        <ele>165</ele>
        <time>1970-01-01T01:00:00Z</time>
      </trkpt>
      <trkpt lat="61.008905" lon="14.521502">
        <ele>165</ele>
        <time>1970-01-01T01:00:00Z</time>
      </trkpt>
      <trkpt lat="61.008873" lon="14.521462">
        <ele>165</ele>
        <time>1970-01-01T01:00:00Z</time>
      </trkpt>
      <trkpt lat="61.00881" lon="14.521323">
        <ele>165</ele>
        <time>1970-01-01T01:00:00Z</time>
      </trkpt>
      <trkpt lat="61.008769" lon="14.521235">
        <ele>165</ele>
        <time>1970-01-01T01:00:00Z</time>
      </trkpt>
      <trkpt lat="61.008682" lon="14.52114">
        <ele>165</ele>
        <time>1970-01-01T01:00:00Z</time>
      </trkpt>
      <trkpt lat="61.008773" lon="14.521132">
        <ele>165</ele>
        <time>1970-01-01T01:00:00Z</time>
      </trkpt>
      <trkpt lat="61.008861" lon="14.521183">
        <ele>165</ele>
        <time>1970-01-01T01:00:00Z</time>
      </trkpt>
      <trkpt lat="61.008769" lon="14.521277">
        <ele>165</ele>
        <time>1970-01-01T01:00:00Z</time>
      </trkpt>
      <trkpt lat="61.008737" lon="14.521102">
        <ele>165</ele>
        <time>1970-01-01T01:00:00Z</time>
      </trkpt>
      <trkpt lat="61.008852" lon="14.521027">
        <ele>165</ele>
        <time>1970-01-01T01:00:00Z</time>
      </trkpt>
      <trkpt lat="61.008894" lon="14.52096">
        <ele>165</ele>
        <time>1970-01-01T01:00:00Z</time>
      </trkpt>
      <trkpt lat="61.008978" lon="14.520953">
        <ele>165</ele>
        <time>1970-01-01T01:00:00Z</time>
      </trkpt>
      <trkpt lat="61.008988" lon="14.520963">
        <ele>165</ele>
        <time>1970-01-01T01:00:00Z</time>
      </trkpt>
      <trkpt lat="61.008955" lon="14.521125">
        <ele>165</ele>
        <time>1970-01-01T01:00:00Z</time>
      </trkpt>
      <trkpt lat="61.008974" lon="14.520966">
        <ele>165</ele>
        <time>1970-01-01T01:00:00Z</time>
      </trkpt>
      <trkpt lat="61.00891" lon="14.520848">
        <ele>165</ele>
        <time>1970-01-01T01:00:00Z</time>
      </trkpt>
      <trkpt lat="61.008938" lon="14.520743">
        <ele>165</ele>
        <time>1970-01-01T01:00:00Z</time>
      </trkpt>
    </trkseg>
  </trk>
</gpx>